<?xml version="1.0" encoding="UTF-8" standalone="no" ?>
<gpx xmlns="http://www.topografix.com/GPX/1/1" xmlns:xsi="http://www.w3.org/2001/XMLSchema-instance" xsi:schemaLocation="http://www.topografix.com/GPX/1/1 http://www.topografix.com/GPX/1/1/gpx.xsd" version="1.1" creator="VisuGPX - https://www.visugpx.com">
  <metadata>
    <name>A bord du prao Des Jours Meilleurs</name>
    <desc><![CDATA[http://praopetrel.canalblog.com/archives/2011/08/11/21963155.html
]]></desc>
  </metadata>
  <trk>
    <name><![CDATA[ACTIVE LOG 004]]></name>
    <trkseg>
      <trkpt lat="47.56248" lon="-2.98217">
        <ele>24.1702881</ele>
        <time>2011-08-11T15:11:34Z</time>
      </trkpt>
      <trkpt lat="47.5623" lon="-2.98211">
        <ele>19.3637695</ele>
        <time>2011-08-11T15:11:44Z</time>
      </trkpt>
      <trkpt lat="47.56202" lon="-2.98227">
        <ele>12.6343994</ele>
        <time>2011-08-11T15:11:54Z</time>
      </trkpt>
      <trkpt lat="47.56169" lon="-2.98235">
        <ele>3.0212402</ele>
        <time>2011-08-11T15:12:04Z</time>
      </trkpt>
      <trkpt lat="47.56137" lon="-2.98249">
        <ele>-0.8240967</ele>
        <time>2011-08-11T15:12:14Z</time>
      </trkpt>
      <trkpt lat="47.56105" lon="-2.98258">
        <ele>-4.6693115</ele>
        <time>2011-08-11T15:12:24Z</time>
      </trkpt>
      <trkpt lat="47.56078" lon="-2.98268">
        <ele>-6.1112061</ele>
        <time>2011-08-11T15:12:34Z</time>
      </trkpt>
      <trkpt lat="47.56049" lon="-2.98276">
        <ele>-9.4758301</ele>
        <time>2011-08-11T15:12:44Z</time>
      </trkpt>
      <trkpt lat="47.56016" lon="-2.98284">
        <ele>-13.3210449</ele>
        <time>2011-08-11T15:12:54Z</time>
      </trkpt>
      <trkpt lat="47.55988" lon="-2.98283">
        <ele>-11.8791504</ele>
        <time>2011-08-11T15:13:04Z</time>
      </trkpt>
      <trkpt lat="47.55953" lon="-2.98292">
        <ele>-12.3598633</ele>
        <time>2011-08-11T15:13:14Z</time>
      </trkpt>
      <trkpt lat="47.55922" lon="-2.98293">
        <ele>-8.5146484</ele>
        <time>2011-08-11T15:13:24Z</time>
      </trkpt>
      <trkpt lat="47.5589" lon="-2.98297">
        <ele>-8.0339355</ele>
        <time>2011-08-11T15:13:34Z</time>
      </trkpt>
      <trkpt lat="47.55856" lon="-2.98304">
        <ele>-5.1499023</ele>
        <time>2011-08-11T15:13:44Z</time>
      </trkpt>
      <trkpt lat="47.55824" lon="-2.98314">
        <ele>-2.2659912</ele>
        <time>2011-08-11T15:13:54Z</time>
      </trkpt>
      <trkpt lat="47.55793" lon="-2.98326">
        <ele>3.5019531</ele>
        <time>2011-08-11T15:14:04Z</time>
      </trkpt>
      <trkpt lat="47.55765" lon="-2.98339">
        <ele>2.5406494</ele>
        <time>2011-08-11T15:14:14Z</time>
      </trkpt>
      <trkpt lat="47.55738" lon="-2.9835">
        <ele>3.982666</ele>
        <time>2011-08-11T15:14:24Z</time>
      </trkpt>
      <trkpt lat="47.55714" lon="-2.98361">
        <ele>5.9052734</ele>
        <time>2011-08-11T15:14:34Z</time>
      </trkpt>
      <trkpt lat="47.55689" lon="-2.98367">
        <ele>6.8664551</ele>
        <time>2011-08-11T15:14:44Z</time>
      </trkpt>
      <trkpt lat="47.55664" lon="-2.98375">
        <ele>7.347168</ele>
        <time>2011-08-11T15:14:54Z</time>
      </trkpt>
      <trkpt lat="47.55638" lon="-2.98384">
        <ele>6.8664551</ele>
        <time>2011-08-11T15:15:04Z</time>
      </trkpt>
      <trkpt lat="47.55611" lon="-2.98391">
        <ele>6.8664551</ele>
        <time>2011-08-11T15:15:14Z</time>
      </trkpt>
      <trkpt lat="47.55583" lon="-2.98398">
        <ele>6.8664551</ele>
        <time>2011-08-11T15:15:24Z</time>
      </trkpt>
      <trkpt lat="47.55556" lon="-2.98403">
        <ele>7.8278809</ele>
        <time>2011-08-11T15:15:34Z</time>
      </trkpt>
      <trkpt lat="47.55526" lon="-2.9841">
        <ele>4.4632568</ele>
        <time>2011-08-11T15:15:44Z</time>
      </trkpt>
      <trkpt lat="47.55497" lon="-2.98415">
        <ele>3.5019531</ele>
        <time>2011-08-11T15:15:54Z</time>
      </trkpt>
      <trkpt lat="47.5547" lon="-2.98422">
        <ele>2.5406494</ele>
        <time>2011-08-11T15:16:04Z</time>
      </trkpt>
      <trkpt lat="47.55439" lon="-2.98432">
        <ele>6.3858643</ele>
        <time>2011-08-11T15:16:14Z</time>
      </trkpt>
      <trkpt lat="47.55411" lon="-2.98445">
        <ele>6.3858643</ele>
        <time>2011-08-11T15:16:24Z</time>
      </trkpt>
      <trkpt lat="47.55384" lon="-2.98453">
        <ele>6.8664551</ele>
        <time>2011-08-11T15:16:34Z</time>
      </trkpt>
      <trkpt lat="47.55357" lon="-2.98459">
        <ele>6.3858643</ele>
        <time>2011-08-11T15:16:44Z</time>
      </trkpt>
      <trkpt lat="47.55331" lon="-2.98463">
        <ele>5.4245605</ele>
        <time>2011-08-11T15:16:54Z</time>
      </trkpt>
      <trkpt lat="47.553" lon="-2.98467">
        <ele>5.9052734</ele>
        <time>2011-08-11T15:17:04Z</time>
      </trkpt>
      <trkpt lat="47.55272" lon="-2.98477">
        <ele>3.5019531</ele>
        <time>2011-08-11T15:17:14Z</time>
      </trkpt>
      <trkpt lat="47.55248" lon="-2.98487">
        <ele>1.0986328</ele>
        <time>2011-08-11T15:17:24Z</time>
      </trkpt>
      <trkpt lat="47.55224" lon="-2.98495">
        <ele>0.618042</ele>
        <time>2011-08-11T15:17:34Z</time>
      </trkpt>
      <trkpt lat="47.55202" lon="-2.98504">
        <ele>1.5793457</ele>
        <time>2011-08-11T15:17:44Z</time>
      </trkpt>
      <trkpt lat="47.55181" lon="-2.98512">
        <ele>0.618042</ele>
        <time>2011-08-11T15:17:54Z</time>
      </trkpt>
      <trkpt lat="47.55164" lon="-2.98514">
        <ele>1.0986328</ele>
        <time>2011-08-11T15:18:04Z</time>
      </trkpt>
      <trkpt lat="47.5514" lon="-2.9852">
        <ele>2.5406494</ele>
        <time>2011-08-11T15:18:14Z</time>
      </trkpt>
      <trkpt lat="47.55118" lon="-2.98528">
        <ele>2.0600586</ele>
        <time>2011-08-11T15:18:24Z</time>
      </trkpt>
      <trkpt lat="47.55096" lon="-2.98536">
        <ele>4.4632568</ele>
        <time>2011-08-11T15:18:34Z</time>
      </trkpt>
      <trkpt lat="47.55072" lon="-2.98543">
        <ele>4.4632568</ele>
        <time>2011-08-11T15:18:44Z</time>
      </trkpt>
      <trkpt lat="47.55048" lon="-2.9855">
        <ele>6.8664551</ele>
        <time>2011-08-11T15:18:54Z</time>
      </trkpt>
      <trkpt lat="47.55018" lon="-2.98561">
        <ele>9.2698975</ele>
        <time>2011-08-11T15:19:04Z</time>
      </trkpt>
      <trkpt lat="47.54992" lon="-2.98573">
        <ele>7.8278809</ele>
        <time>2011-08-11T15:19:14Z</time>
      </trkpt>
      <trkpt lat="47.54968" lon="-2.98581">
        <ele>10.2312012</ele>
        <time>2011-08-11T15:19:24Z</time>
      </trkpt>
      <trkpt lat="47.5494" lon="-2.9859">
        <ele>7.347168</ele>
        <time>2011-08-11T15:19:34Z</time>
      </trkpt>
      <trkpt lat="47.54916" lon="-2.98605">
        <ele>7.347168</ele>
        <time>2011-08-11T15:19:44Z</time>
      </trkpt>
      <trkpt lat="47.54888" lon="-2.98618">
        <ele>8.7891846</ele>
        <time>2011-08-11T15:19:54Z</time>
      </trkpt>
      <trkpt lat="47.54865" lon="-2.9863">
        <ele>8.7891846</ele>
        <time>2011-08-11T15:20:04Z</time>
      </trkpt>
      <trkpt lat="47.54839" lon="-2.98645">
        <ele>6.3858643</ele>
        <time>2011-08-11T15:20:14Z</time>
      </trkpt>
      <trkpt lat="47.54815" lon="-2.98662">
        <ele>9.2698975</ele>
        <time>2011-08-11T15:20:24Z</time>
      </trkpt>
      <trkpt lat="47.54791" lon="-2.98673">
        <ele>10.711792</ele>
        <time>2011-08-11T15:20:34Z</time>
      </trkpt>
      <trkpt lat="47.54765" lon="-2.98689">
        <ele>10.2312012</ele>
        <time>2011-08-11T15:20:44Z</time>
      </trkpt>
      <trkpt lat="47.54743" lon="-2.98704">
        <ele>9.7506104</ele>
        <time>2011-08-11T15:20:54Z</time>
      </trkpt>
      <trkpt lat="47.54724" lon="-2.98716">
        <ele>7.8278809</ele>
        <time>2011-08-11T15:21:04Z</time>
      </trkpt>
      <trkpt lat="47.54705" lon="-2.98728">
        <ele>7.347168</ele>
        <time>2011-08-11T15:21:14Z</time>
      </trkpt>
      <trkpt lat="47.54685" lon="-2.9874">
        <ele>6.3858643</ele>
        <time>2011-08-11T15:21:24Z</time>
      </trkpt>
      <trkpt lat="47.54662" lon="-2.98752">
        <ele>7.347168</ele>
        <time>2011-08-11T15:21:34Z</time>
      </trkpt>
      <trkpt lat="47.54638" lon="-2.98766">
        <ele>8.7891846</ele>
        <time>2011-08-11T15:21:44Z</time>
      </trkpt>
      <trkpt lat="47.54615" lon="-2.9878">
        <ele>9.2698975</ele>
        <time>2011-08-11T15:21:54Z</time>
      </trkpt>
      <trkpt lat="47.54591" lon="-2.98793">
        <ele>10.2312012</ele>
        <time>2011-08-11T15:22:04Z</time>
      </trkpt>
      <trkpt lat="47.54568" lon="-2.9881">
        <ele>10.2312012</ele>
        <time>2011-08-11T15:22:14Z</time>
      </trkpt>
      <trkpt lat="47.54548" lon="-2.98828">
        <ele>10.2312012</ele>
        <time>2011-08-11T15:22:24Z</time>
      </trkpt>
      <trkpt lat="47.54532" lon="-2.98839">
        <ele>9.2698975</ele>
        <time>2011-08-11T15:22:34Z</time>
      </trkpt>
      <trkpt lat="47.54514" lon="-2.98845">
        <ele>7.8278809</ele>
        <time>2011-08-11T15:22:44Z</time>
      </trkpt>
      <trkpt lat="47.54493" lon="-2.98852">
        <ele>6.3858643</ele>
        <time>2011-08-11T15:22:54Z</time>
      </trkpt>
      <trkpt lat="47.54456" lon="-2.98852">
        <ele>5.4245605</ele>
        <time>2011-08-11T15:23:04Z</time>
      </trkpt>
      <trkpt lat="47.54417" lon="-2.98858">
        <ele>3.0212402</ele>
        <time>2011-08-11T15:23:14Z</time>
      </trkpt>
      <trkpt lat="47.54388" lon="-2.98869">
        <ele>3.0212402</ele>
        <time>2011-08-11T15:23:24Z</time>
      </trkpt>
      <trkpt lat="47.54358" lon="-2.9888">
        <ele>3.982666</ele>
        <time>2011-08-11T15:23:34Z</time>
      </trkpt>
      <trkpt lat="47.5433" lon="-2.9889">
        <ele>3.5019531</ele>
        <time>2011-08-11T15:23:44Z</time>
      </trkpt>
      <trkpt lat="47.54301" lon="-2.98891">
        <ele>2.5406494</ele>
        <time>2011-08-11T15:23:54Z</time>
      </trkpt>
      <trkpt lat="47.54276" lon="-2.98906">
        <ele>1.5793457</ele>
        <time>2011-08-11T15:24:04Z</time>
      </trkpt>
      <trkpt lat="47.54257" lon="-2.98914">
        <ele>3.0212402</ele>
        <time>2011-08-11T15:24:14Z</time>
      </trkpt>
      <trkpt lat="47.54235" lon="-2.9892">
        <ele>1.0986328</ele>
        <time>2011-08-11T15:24:24Z</time>
      </trkpt>
      <trkpt lat="47.54211" lon="-2.98927">
        <ele>3.982666</ele>
        <time>2011-08-11T15:24:34Z</time>
      </trkpt>
      <trkpt lat="47.54181" lon="-2.98932">
        <ele>3.5019531</ele>
        <time>2011-08-11T15:24:44Z</time>
      </trkpt>
      <trkpt lat="47.54148" lon="-2.98945">
        <ele>3.5019531</ele>
        <time>2011-08-11T15:24:54Z</time>
      </trkpt>
      <trkpt lat="47.54123" lon="-2.98956">
        <ele>3.982666</ele>
        <time>2011-08-11T15:25:04Z</time>
      </trkpt>
      <trkpt lat="47.54097" lon="-2.98965">
        <ele>1.5793457</ele>
        <time>2011-08-11T15:25:14Z</time>
      </trkpt>
      <trkpt lat="47.54071" lon="-2.98974">
        <ele>0.1374512</ele>
        <time>2011-08-11T15:25:24Z</time>
      </trkpt>
      <trkpt lat="47.54049" lon="-2.98983">
        <ele>1.0986328</ele>
        <time>2011-08-11T15:25:34Z</time>
      </trkpt>
      <trkpt lat="47.54031" lon="-2.98989">
        <ele>4.9438477</ele>
        <time>2011-08-11T15:25:44Z</time>
      </trkpt>
      <trkpt lat="47.54014" lon="-2.98997">
        <ele>4.4632568</ele>
        <time>2011-08-11T15:25:54Z</time>
      </trkpt>
      <trkpt lat="47.53998" lon="-2.99007">
        <ele>4.9438477</ele>
        <time>2011-08-11T15:26:04Z</time>
      </trkpt>
      <trkpt lat="47.53981" lon="-2.9901">
        <ele>3.0212402</ele>
        <time>2011-08-11T15:26:14Z</time>
      </trkpt>
      <trkpt lat="47.53962" lon="-2.99014">
        <ele>2.0600586</ele>
        <time>2011-08-11T15:26:24Z</time>
      </trkpt>
      <trkpt lat="47.53942" lon="-2.99022">
        <ele>3.982666</ele>
        <time>2011-08-11T15:26:34Z</time>
      </trkpt>
      <trkpt lat="47.53922" lon="-2.99028">
        <ele>2.0600586</ele>
        <time>2011-08-11T15:26:44Z</time>
      </trkpt>
      <trkpt lat="47.53899" lon="-2.99033">
        <ele>3.982666</ele>
        <time>2011-08-11T15:26:54Z</time>
      </trkpt>
      <trkpt lat="47.53873" lon="-2.99038">
        <ele>3.0212402</ele>
        <time>2011-08-11T15:27:04Z</time>
      </trkpt>
      <trkpt lat="47.53845" lon="-2.99043">
        <ele>3.5019531</ele>
        <time>2011-08-11T15:27:14Z</time>
      </trkpt>
      <trkpt lat="47.53811" lon="-2.99044">
        <ele>2.5406494</ele>
        <time>2011-08-11T15:27:24Z</time>
      </trkpt>
      <trkpt lat="47.5377" lon="-2.99049">
        <ele>1.5793457</ele>
        <time>2011-08-11T15:27:34Z</time>
      </trkpt>
      <trkpt lat="47.53727" lon="-2.99058">
        <ele>2.5406494</ele>
        <time>2011-08-11T15:27:44Z</time>
      </trkpt>
      <trkpt lat="47.53686" lon="-2.99071">
        <ele>3.5019531</ele>
        <time>2011-08-11T15:27:54Z</time>
      </trkpt>
      <trkpt lat="47.53654" lon="-2.99085">
        <ele>4.4632568</ele>
        <time>2011-08-11T15:28:04Z</time>
      </trkpt>
      <trkpt lat="47.53625" lon="-2.99101">
        <ele>5.4245605</ele>
        <time>2011-08-11T15:28:14Z</time>
      </trkpt>
      <trkpt lat="47.53602" lon="-2.99116">
        <ele>3.982666</ele>
        <time>2011-08-11T15:28:24Z</time>
      </trkpt>
      <trkpt lat="47.53584" lon="-2.99127">
        <ele>2.0600586</ele>
        <time>2011-08-11T15:28:34Z</time>
      </trkpt>
      <trkpt lat="47.53567" lon="-2.99138">
        <ele>1.0986328</ele>
        <time>2011-08-11T15:28:44Z</time>
      </trkpt>
      <trkpt lat="47.53547" lon="-2.99147">
        <ele>2.0600586</ele>
        <time>2011-08-11T15:28:54Z</time>
      </trkpt>
      <trkpt lat="47.53522" lon="-2.99157">
        <ele>2.5406494</ele>
        <time>2011-08-11T15:29:04Z</time>
      </trkpt>
      <trkpt lat="47.53488" lon="-2.99169">
        <ele>2.0600586</ele>
        <time>2011-08-11T15:29:14Z</time>
      </trkpt>
      <trkpt lat="47.53447" lon="-2.99177">
        <ele>5.4245605</ele>
        <time>2011-08-11T15:29:24Z</time>
      </trkpt>
      <trkpt lat="47.53407" lon="-2.99191">
        <ele>6.3858643</ele>
        <time>2011-08-11T15:29:34Z</time>
      </trkpt>
      <trkpt lat="47.53371" lon="-2.99208">
        <ele>4.4632568</ele>
        <time>2011-08-11T15:29:44Z</time>
      </trkpt>
      <trkpt lat="47.5334" lon="-2.99222">
        <ele>3.0212402</ele>
        <time>2011-08-11T15:29:54Z</time>
      </trkpt>
      <trkpt lat="47.53312" lon="-2.99237">
        <ele>5.9052734</ele>
        <time>2011-08-11T15:30:04Z</time>
      </trkpt>
      <trkpt lat="47.53284" lon="-2.99249">
        <ele>7.8278809</ele>
        <time>2011-08-11T15:30:14Z</time>
      </trkpt>
      <trkpt lat="47.53253" lon="-2.9926">
        <ele>8.3085938</ele>
        <time>2011-08-11T15:30:24Z</time>
      </trkpt>
      <trkpt lat="47.53216" lon="-2.9927">
        <ele>6.8664551</ele>
        <time>2011-08-11T15:30:34Z</time>
      </trkpt>
      <trkpt lat="47.53176" lon="-2.99279">
        <ele>4.9438477</ele>
        <time>2011-08-11T15:30:44Z</time>
      </trkpt>
      <trkpt lat="47.53137" lon="-2.99286">
        <ele>4.9438477</ele>
        <time>2011-08-11T15:30:54Z</time>
      </trkpt>
      <trkpt lat="47.53097" lon="-2.99293">
        <ele>5.9052734</ele>
        <time>2011-08-11T15:31:04Z</time>
      </trkpt>
      <trkpt lat="47.53061" lon="-2.99307">
        <ele>5.9052734</ele>
        <time>2011-08-11T15:31:14Z</time>
      </trkpt>
      <trkpt lat="47.5303" lon="-2.99321">
        <ele>5.4245605</ele>
        <time>2011-08-11T15:31:24Z</time>
      </trkpt>
      <trkpt lat="47.53002" lon="-2.99332">
        <ele>6.3858643</ele>
        <time>2011-08-11T15:31:34Z</time>
      </trkpt>
      <trkpt lat="47.52967" lon="-2.99342">
        <ele>7.8278809</ele>
        <time>2011-08-11T15:31:44Z</time>
      </trkpt>
      <trkpt lat="47.52926" lon="-2.99351">
        <ele>8.7891846</ele>
        <time>2011-08-11T15:31:54Z</time>
      </trkpt>
      <trkpt lat="47.52883" lon="-2.99358">
        <ele>10.711792</ele>
        <time>2011-08-11T15:32:04Z</time>
      </trkpt>
      <trkpt lat="47.52838" lon="-2.99366">
        <ele>10.711792</ele>
        <time>2011-08-11T15:32:14Z</time>
      </trkpt>
      <trkpt lat="47.52796" lon="-2.99375">
        <ele>12.1538086</ele>
        <time>2011-08-11T15:32:24Z</time>
      </trkpt>
      <trkpt lat="47.52758" lon="-2.99385">
        <ele>12.6343994</ele>
        <time>2011-08-11T15:32:34Z</time>
      </trkpt>
      <trkpt lat="47.52722" lon="-2.99395">
        <ele>12.6343994</ele>
        <time>2011-08-11T15:32:44Z</time>
      </trkpt>
      <trkpt lat="47.52688" lon="-2.99407">
        <ele>13.5958252</ele>
        <time>2011-08-11T15:32:54Z</time>
      </trkpt>
      <trkpt lat="47.52653" lon="-2.99418">
        <ele>11.6732178</ele>
        <time>2011-08-11T15:33:04Z</time>
      </trkpt>
      <trkpt lat="47.52621" lon="-2.99431">
        <ele>11.6732178</ele>
        <time>2011-08-11T15:33:14Z</time>
      </trkpt>
      <trkpt lat="47.52592" lon="-2.99444">
        <ele>12.6343994</ele>
        <time>2011-08-11T15:33:24Z</time>
      </trkpt>
      <trkpt lat="47.52562" lon="-2.99456">
        <ele>13.1151123</ele>
        <time>2011-08-11T15:33:34Z</time>
      </trkpt>
      <trkpt lat="47.52525" lon="-2.99469">
        <ele>9.7506104</ele>
        <time>2011-08-11T15:33:44Z</time>
      </trkpt>
      <trkpt lat="47.52487" lon="-2.99482">
        <ele>9.7506104</ele>
        <time>2011-08-11T15:33:54Z</time>
      </trkpt>
      <trkpt lat="47.52446" lon="-2.99499">
        <ele>10.711792</ele>
        <time>2011-08-11T15:34:04Z</time>
      </trkpt>
      <trkpt lat="47.5241" lon="-2.99514">
        <ele>10.711792</ele>
        <time>2011-08-11T15:34:14Z</time>
      </trkpt>
      <trkpt lat="47.5238" lon="-2.99529">
        <ele>10.2312012</ele>
        <time>2011-08-11T15:34:24Z</time>
      </trkpt>
      <trkpt lat="47.52351" lon="-2.9954">
        <ele>10.711792</ele>
        <time>2011-08-11T15:34:34Z</time>
      </trkpt>
      <trkpt lat="47.52322" lon="-2.9955">
        <ele>12.6343994</ele>
        <time>2011-08-11T15:34:44Z</time>
      </trkpt>
      <trkpt lat="47.52293" lon="-2.99558">
        <ele>14.5570068</ele>
        <time>2011-08-11T15:34:54Z</time>
      </trkpt>
      <trkpt lat="47.52263" lon="-2.99565">
        <ele>14.076416</ele>
        <time>2011-08-11T15:35:04Z</time>
      </trkpt>
      <trkpt lat="47.52233" lon="-2.99568">
        <ele>14.076416</ele>
        <time>2011-08-11T15:35:14Z</time>
      </trkpt>
      <trkpt lat="47.52201" lon="-2.99576">
        <ele>15.9990234</ele>
        <time>2011-08-11T15:35:24Z</time>
      </trkpt>
      <trkpt lat="47.52158" lon="-2.99578">
        <ele>15.9990234</ele>
        <time>2011-08-11T15:35:34Z</time>
      </trkpt>
      <trkpt lat="47.5211" lon="-2.99582">
        <ele>15.0377197</ele>
        <time>2011-08-11T15:35:44Z</time>
      </trkpt>
      <trkpt lat="47.52071" lon="-2.99588">
        <ele>14.5570068</ele>
        <time>2011-08-11T15:35:54Z</time>
      </trkpt>
      <trkpt lat="47.52043" lon="-2.996">
        <ele>14.5570068</ele>
        <time>2011-08-11T15:36:04Z</time>
      </trkpt>
      <trkpt lat="47.52024" lon="-2.9961">
        <ele>13.5958252</ele>
        <time>2011-08-11T15:36:14Z</time>
      </trkpt>
      <trkpt lat="47.52008" lon="-2.99615">
        <ele>12.6343994</ele>
        <time>2011-08-11T15:36:24Z</time>
      </trkpt>
      <trkpt lat="47.51989" lon="-2.99619">
        <ele>12.6343994</ele>
        <time>2011-08-11T15:36:34Z</time>
      </trkpt>
      <trkpt lat="47.51961" lon="-2.9962">
        <ele>12.6343994</ele>
        <time>2011-08-11T15:36:44Z</time>
      </trkpt>
      <trkpt lat="47.51926" lon="-2.99623">
        <ele>13.1151123</ele>
        <time>2011-08-11T15:36:54Z</time>
      </trkpt>
      <trkpt lat="47.51889" lon="-2.99627">
        <ele>12.1538086</ele>
        <time>2011-08-11T15:37:04Z</time>
      </trkpt>
      <trkpt lat="47.51851" lon="-2.99634">
        <ele>11.6732178</ele>
        <time>2011-08-11T15:37:14Z</time>
      </trkpt>
      <trkpt lat="47.51814" lon="-2.99642">
        <ele>11.1925049</ele>
        <time>2011-08-11T15:37:24Z</time>
      </trkpt>
      <trkpt lat="47.51779" lon="-2.99648">
        <ele>10.2312012</ele>
        <time>2011-08-11T15:37:34Z</time>
      </trkpt>
      <trkpt lat="47.51743" lon="-2.99655">
        <ele>11.6732178</ele>
        <time>2011-08-11T15:37:44Z</time>
      </trkpt>
      <trkpt lat="47.51706" lon="-2.99663">
        <ele>11.1925049</ele>
        <time>2011-08-11T15:37:54Z</time>
      </trkpt>
      <trkpt lat="47.51666" lon="-2.99676">
        <ele>10.2312012</ele>
        <time>2011-08-11T15:38:04Z</time>
      </trkpt>
      <trkpt lat="47.51631" lon="-2.99689">
        <ele>9.2698975</ele>
        <time>2011-08-11T15:38:14Z</time>
      </trkpt>
      <trkpt lat="47.51603" lon="-2.99706">
        <ele>10.2312012</ele>
        <time>2011-08-11T15:38:24Z</time>
      </trkpt>
      <trkpt lat="47.51574" lon="-2.99718">
        <ele>8.7891846</ele>
        <time>2011-08-11T15:38:34Z</time>
      </trkpt>
      <trkpt lat="47.5154" lon="-2.99729">
        <ele>8.7891846</ele>
        <time>2011-08-11T15:38:44Z</time>
      </trkpt>
      <trkpt lat="47.51511" lon="-2.99739">
        <ele>12.1538086</ele>
        <time>2011-08-11T15:38:54Z</time>
      </trkpt>
      <trkpt lat="47.51484" lon="-2.99745">
        <ele>9.2698975</ele>
        <time>2011-08-11T15:39:04Z</time>
      </trkpt>
      <trkpt lat="47.5146" lon="-2.99749">
        <ele>10.2312012</ele>
        <time>2011-08-11T15:39:14Z</time>
      </trkpt>
      <trkpt lat="47.51435" lon="-2.99753">
        <ele>10.2312012</ele>
        <time>2011-08-11T15:39:24Z</time>
      </trkpt>
      <trkpt lat="47.51414" lon="-2.99758">
        <ele>11.6732178</ele>
        <time>2011-08-11T15:39:34Z</time>
      </trkpt>
      <trkpt lat="47.51389" lon="-2.9976">
        <ele>14.076416</ele>
        <time>2011-08-11T15:39:44Z</time>
      </trkpt>
      <trkpt lat="47.51357" lon="-2.99762">
        <ele>14.5570068</ele>
        <time>2011-08-11T15:39:54Z</time>
      </trkpt>
      <trkpt lat="47.51323" lon="-2.99765">
        <ele>15.0377197</ele>
        <time>2011-08-11T15:40:04Z</time>
      </trkpt>
      <trkpt lat="47.51291" lon="-2.99768">
        <ele>13.5958252</ele>
        <time>2011-08-11T15:40:14Z</time>
      </trkpt>
      <trkpt lat="47.51258" lon="-2.99769">
        <ele>13.1151123</ele>
        <time>2011-08-11T15:40:24Z</time>
      </trkpt>
      <trkpt lat="47.51226" lon="-2.99766">
        <ele>15.9990234</ele>
        <time>2011-08-11T15:40:34Z</time>
      </trkpt>
      <trkpt lat="47.51189" lon="-2.99761">
        <ele>12.1538086</ele>
        <time>2011-08-11T15:40:44Z</time>
      </trkpt>
      <trkpt lat="47.51152" lon="-2.99755">
        <ele>8.7891846</ele>
        <time>2011-08-11T15:40:54Z</time>
      </trkpt>
      <trkpt lat="47.51118" lon="-2.9975">
        <ele>6.8664551</ele>
        <time>2011-08-11T15:41:04Z</time>
      </trkpt>
      <trkpt lat="47.51086" lon="-2.99745">
        <ele>7.8278809</ele>
        <time>2011-08-11T15:41:14Z</time>
      </trkpt>
      <trkpt lat="47.51054" lon="-2.99737">
        <ele>11.1925049</ele>
        <time>2011-08-11T15:41:24Z</time>
      </trkpt>
      <trkpt lat="47.51016" lon="-2.9973">
        <ele>10.711792</ele>
        <time>2011-08-11T15:41:34Z</time>
      </trkpt>
      <trkpt lat="47.50976" lon="-2.99726">
        <ele>9.7506104</ele>
        <time>2011-08-11T15:41:44Z</time>
      </trkpt>
      <trkpt lat="47.50937" lon="-2.99724">
        <ele>6.8664551</ele>
        <time>2011-08-11T15:41:54Z</time>
      </trkpt>
      <trkpt lat="47.50897" lon="-2.99721">
        <ele>2.0600586</ele>
        <time>2011-08-11T15:42:04Z</time>
      </trkpt>
      <trkpt lat="47.50857" lon="-2.99718">
        <ele>1.0986328</ele>
        <time>2011-08-11T15:42:14Z</time>
      </trkpt>
      <trkpt lat="47.5082" lon="-2.99714">
        <ele>-0.3433838</ele>
        <time>2011-08-11T15:42:24Z</time>
      </trkpt>
      <trkpt lat="47.50788" lon="-2.99714">
        <ele>5.4245605</ele>
        <time>2011-08-11T15:42:34Z</time>
      </trkpt>
      <trkpt lat="47.50753" lon="-2.99715">
        <ele>8.7891846</ele>
        <time>2011-08-11T15:42:44Z</time>
      </trkpt>
      <trkpt lat="47.50716" lon="-2.99716">
        <ele>9.7506104</ele>
        <time>2011-08-11T15:42:54Z</time>
      </trkpt>
      <trkpt lat="47.50682" lon="-2.99719">
        <ele>10.2312012</ele>
        <time>2011-08-11T15:43:04Z</time>
      </trkpt>
      <trkpt lat="47.50649" lon="-2.99719">
        <ele>9.2698975</ele>
        <time>2011-08-11T15:43:14Z</time>
      </trkpt>
      <trkpt lat="47.50614" lon="-2.99719">
        <ele>7.8278809</ele>
        <time>2011-08-11T15:43:24Z</time>
      </trkpt>
      <trkpt lat="47.50577" lon="-2.99717">
        <ele>5.9052734</ele>
        <time>2011-08-11T15:43:34Z</time>
      </trkpt>
      <trkpt lat="47.50538" lon="-2.99717">
        <ele>4.9438477</ele>
        <time>2011-08-11T15:43:44Z</time>
      </trkpt>
      <trkpt lat="47.50499" lon="-2.99716">
        <ele>6.8664551</ele>
        <time>2011-08-11T15:43:54Z</time>
      </trkpt>
      <trkpt lat="47.5046" lon="-2.99714">
        <ele>8.3085938</ele>
        <time>2011-08-11T15:44:04Z</time>
      </trkpt>
      <trkpt lat="47.5042" lon="-2.99715">
        <ele>9.2698975</ele>
        <time>2011-08-11T15:44:14Z</time>
      </trkpt>
      <trkpt lat="47.50378" lon="-2.99712">
        <ele>7.8278809</ele>
        <time>2011-08-11T15:44:24Z</time>
      </trkpt>
      <trkpt lat="47.50337" lon="-2.99713">
        <ele>7.347168</ele>
        <time>2011-08-11T15:44:34Z</time>
      </trkpt>
      <trkpt lat="47.50299" lon="-2.99715">
        <ele>10.2312012</ele>
        <time>2011-08-11T15:44:44Z</time>
      </trkpt>
      <trkpt lat="47.5026" lon="-2.99715">
        <ele>9.2698975</ele>
        <time>2011-08-11T15:44:54Z</time>
      </trkpt>
      <trkpt lat="47.50224" lon="-2.9972">
        <ele>7.347168</ele>
        <time>2011-08-11T15:45:04Z</time>
      </trkpt>
      <trkpt lat="47.5019" lon="-2.99726">
        <ele>7.8278809</ele>
        <time>2011-08-11T15:45:14Z</time>
      </trkpt>
      <trkpt lat="47.50153" lon="-2.99732">
        <ele>5.9052734</ele>
        <time>2011-08-11T15:45:24Z</time>
      </trkpt>
      <trkpt lat="47.50117" lon="-2.9974">
        <ele>6.8664551</ele>
        <time>2011-08-11T15:45:34Z</time>
      </trkpt>
      <trkpt lat="47.50081" lon="-2.99747">
        <ele>4.9438477</ele>
        <time>2011-08-11T15:45:44Z</time>
      </trkpt>
      <trkpt lat="47.50047" lon="-2.99752">
        <ele>6.8664551</ele>
        <time>2011-08-11T15:45:54Z</time>
      </trkpt>
      <trkpt lat="47.50012" lon="-2.99759">
        <ele>5.4245605</ele>
        <time>2011-08-11T15:46:04Z</time>
      </trkpt>
      <trkpt lat="47.49978" lon="-2.99764">
        <ele>5.9052734</ele>
        <time>2011-08-11T15:46:14Z</time>
      </trkpt>
      <trkpt lat="47.49942" lon="-2.99765">
        <ele>8.3085938</ele>
        <time>2011-08-11T15:46:24Z</time>
      </trkpt>
      <trkpt lat="47.49905" lon="-2.99765">
        <ele>9.2698975</ele>
        <time>2011-08-11T15:46:34Z</time>
      </trkpt>
      <trkpt lat="47.49862" lon="-2.9976">
        <ele>9.2698975</ele>
        <time>2011-08-11T15:46:44Z</time>
      </trkpt>
      <trkpt lat="47.49819" lon="-2.99755">
        <ele>10.711792</ele>
        <time>2011-08-11T15:46:54Z</time>
      </trkpt>
      <trkpt lat="47.49778" lon="-2.9976">
        <ele>11.1925049</ele>
        <time>2011-08-11T15:47:04Z</time>
      </trkpt>
      <trkpt lat="47.49736" lon="-2.99764">
        <ele>8.7891846</ele>
        <time>2011-08-11T15:47:14Z</time>
      </trkpt>
      <trkpt lat="47.49696" lon="-2.99766">
        <ele>8.3085938</ele>
        <time>2011-08-11T15:47:24Z</time>
      </trkpt>
      <trkpt lat="47.49658" lon="-2.99763">
        <ele>7.8278809</ele>
        <time>2011-08-11T15:47:34Z</time>
      </trkpt>
      <trkpt lat="47.49626" lon="-2.9976">
        <ele>7.347168</ele>
        <time>2011-08-11T15:47:44Z</time>
      </trkpt>
      <trkpt lat="47.49593" lon="-2.99755">
        <ele>5.9052734</ele>
        <time>2011-08-11T15:47:54Z</time>
      </trkpt>
      <trkpt lat="47.49562" lon="-2.99754">
        <ele>4.9438477</ele>
        <time>2011-08-11T15:48:04Z</time>
      </trkpt>
      <trkpt lat="47.49528" lon="-2.99754">
        <ele>6.3858643</ele>
        <time>2011-08-11T15:48:14Z</time>
      </trkpt>
      <trkpt lat="47.49491" lon="-2.99754">
        <ele>6.3858643</ele>
        <time>2011-08-11T15:48:24Z</time>
      </trkpt>
      <trkpt lat="47.49456" lon="-2.99756">
        <ele>9.7506104</ele>
        <time>2011-08-11T15:48:34Z</time>
      </trkpt>
      <trkpt lat="47.49423" lon="-2.99762">
        <ele>9.2698975</ele>
        <time>2011-08-11T15:48:44Z</time>
      </trkpt>
      <trkpt lat="47.49388" lon="-2.99769">
        <ele>8.7891846</ele>
        <time>2011-08-11T15:48:54Z</time>
      </trkpt>
      <trkpt lat="47.49357" lon="-2.99775">
        <ele>8.3085938</ele>
        <time>2011-08-11T15:49:04Z</time>
      </trkpt>
      <trkpt lat="47.49327" lon="-2.99779">
        <ele>8.7891846</ele>
        <time>2011-08-11T15:49:14Z</time>
      </trkpt>
      <trkpt lat="47.49296" lon="-2.99783">
        <ele>7.347168</ele>
        <time>2011-08-11T15:49:24Z</time>
      </trkpt>
      <trkpt lat="47.4926" lon="-2.99791">
        <ele>8.3085938</ele>
        <time>2011-08-11T15:49:34Z</time>
      </trkpt>
      <trkpt lat="47.49225" lon="-2.99799">
        <ele>6.8664551</ele>
        <time>2011-08-11T15:49:44Z</time>
      </trkpt>
      <trkpt lat="47.49188" lon="-2.99805">
        <ele>6.8664551</ele>
        <time>2011-08-11T15:49:54Z</time>
      </trkpt>
      <trkpt lat="47.4915" lon="-2.99813">
        <ele>4.9438477</ele>
        <time>2011-08-11T15:50:04Z</time>
      </trkpt>
      <trkpt lat="47.49116" lon="-2.9982">
        <ele>3.5019531</ele>
        <time>2011-08-11T15:50:14Z</time>
      </trkpt>
      <trkpt lat="47.49081" lon="-2.99827">
        <ele>2.5406494</ele>
        <time>2011-08-11T15:50:24Z</time>
      </trkpt>
      <trkpt lat="47.49047" lon="-2.99836">
        <ele>1.0986328</ele>
        <time>2011-08-11T15:50:34Z</time>
      </trkpt>
      <trkpt lat="47.49015" lon="-2.99843">
        <ele>1.5793457</ele>
        <time>2011-08-11T15:50:44Z</time>
      </trkpt>
      <trkpt lat="47.48982" lon="-2.99848">
        <ele>0.1374512</ele>
        <time>2011-08-11T15:50:54Z</time>
      </trkpt>
      <trkpt lat="47.48945" lon="-2.99854">
        <ele>0.1374512</ele>
        <time>2011-08-11T15:51:04Z</time>
      </trkpt>
      <trkpt lat="47.48907" lon="-2.99858">
        <ele>-0.8240967</ele>
        <time>2011-08-11T15:51:14Z</time>
      </trkpt>
      <trkpt lat="47.48866" lon="-2.99861">
        <ele>1.0986328</ele>
        <time>2011-08-11T15:51:24Z</time>
      </trkpt>
      <trkpt lat="47.48824" lon="-2.99867">
        <ele>-1.3046875</ele>
        <time>2011-08-11T15:51:34Z</time>
      </trkpt>
      <trkpt lat="47.48786" lon="-2.99874">
        <ele>-0.3433838</ele>
        <time>2011-08-11T15:51:44Z</time>
      </trkpt>
      <trkpt lat="47.48748" lon="-2.99877">
        <ele>1.0986328</ele>
        <time>2011-08-11T15:51:54Z</time>
      </trkpt>
      <trkpt lat="47.48705" lon="-2.99877">
        <ele>1.5793457</ele>
        <time>2011-08-11T15:52:04Z</time>
      </trkpt>
      <trkpt lat="47.48661" lon="-2.99879">
        <ele>-0.8240967</ele>
        <time>2011-08-11T15:52:14Z</time>
      </trkpt>
      <trkpt lat="47.48621" lon="-2.99885">
        <ele>3.0212402</ele>
        <time>2011-08-11T15:52:24Z</time>
      </trkpt>
      <trkpt lat="47.48588" lon="-2.99895">
        <ele>5.9052734</ele>
        <time>2011-08-11T15:52:34Z</time>
      </trkpt>
      <trkpt lat="47.48561" lon="-2.99902">
        <ele>9.7506104</ele>
        <time>2011-08-11T15:52:44Z</time>
      </trkpt>
      <trkpt lat="47.48531" lon="-2.99906">
        <ele>7.8278809</ele>
        <time>2011-08-11T15:52:54Z</time>
      </trkpt>
      <trkpt lat="47.4849" lon="-2.99906">
        <ele>3.982666</ele>
        <time>2011-08-11T15:53:04Z</time>
      </trkpt>
      <trkpt lat="47.4845" lon="-2.99905">
        <ele>3.982666</ele>
        <time>2011-08-11T15:53:14Z</time>
      </trkpt>
      <trkpt lat="47.48413" lon="-2.99905">
        <ele>3.0212402</ele>
        <time>2011-08-11T15:53:24Z</time>
      </trkpt>
      <trkpt lat="47.48378" lon="-2.99909">
        <ele>0.1374512</ele>
        <time>2011-08-11T15:53:34Z</time>
      </trkpt>
      <trkpt lat="47.48339" lon="-2.9991">
        <ele>-2.2659912</ele>
        <time>2011-08-11T15:53:44Z</time>
      </trkpt>
      <trkpt lat="47.48303" lon="-2.99914">
        <ele>-1.3046875</ele>
        <time>2011-08-11T15:53:54Z</time>
      </trkpt>
      <trkpt lat="47.4827" lon="-2.99915">
        <ele>-2.2659912</ele>
        <time>2011-08-11T15:54:04Z</time>
      </trkpt>
      <trkpt lat="47.48231" lon="-2.99914">
        <ele>-2.7467041</ele>
        <time>2011-08-11T15:54:14Z</time>
      </trkpt>
      <trkpt lat="47.48192" lon="-2.99913">
        <ele>-1.7852783</ele>
        <time>2011-08-11T15:54:24Z</time>
      </trkpt>
      <trkpt lat="47.48151" lon="-2.99916">
        <ele>0.1374512</ele>
        <time>2011-08-11T15:54:34Z</time>
      </trkpt>
      <trkpt lat="47.48111" lon="-2.99919">
        <ele>-0.3433838</ele>
        <time>2011-08-11T15:54:44Z</time>
      </trkpt>
      <trkpt lat="47.4807" lon="-2.9992">
        <ele>-1.3046875</ele>
        <time>2011-08-11T15:54:54Z</time>
      </trkpt>
      <trkpt lat="47.4803" lon="-2.99917">
        <ele>-3.7078857</ele>
        <time>2011-08-11T15:55:04Z</time>
      </trkpt>
      <trkpt lat="47.4798" lon="-2.99905">
        <ele>-3.2272949</ele>
        <time>2011-08-11T15:55:14Z</time>
      </trkpt>
      <trkpt lat="47.47933" lon="-2.99895">
        <ele>-2.2659912</ele>
        <time>2011-08-11T15:55:24Z</time>
      </trkpt>
      <trkpt lat="47.47888" lon="-2.99893">
        <ele>-2.2659912</ele>
        <time>2011-08-11T15:55:34Z</time>
      </trkpt>
      <trkpt lat="47.47847" lon="-2.99898">
        <ele>2.0600586</ele>
        <time>2011-08-11T15:55:44Z</time>
      </trkpt>
      <trkpt lat="47.47808" lon="-2.99906">
        <ele>5.9052734</ele>
        <time>2011-08-11T15:55:54Z</time>
      </trkpt>
      <trkpt lat="47.47772" lon="-2.99914">
        <ele>6.3858643</ele>
        <time>2011-08-11T15:56:04Z</time>
      </trkpt>
      <trkpt lat="47.47736" lon="-2.99923">
        <ele>9.2698975</ele>
        <time>2011-08-11T15:56:14Z</time>
      </trkpt>
      <trkpt lat="47.47696" lon="-2.99927">
        <ele>9.7506104</ele>
        <time>2011-08-11T15:56:24Z</time>
      </trkpt>
      <trkpt lat="47.47649" lon="-2.99929">
        <ele>7.8278809</ele>
        <time>2011-08-11T15:56:34Z</time>
      </trkpt>
      <trkpt lat="47.47602" lon="-2.99929">
        <ele>2.5406494</ele>
        <time>2011-08-11T15:56:44Z</time>
      </trkpt>
      <trkpt lat="47.47559" lon="-2.99934">
        <ele>6.8664551</ele>
        <time>2011-08-11T15:56:54Z</time>
      </trkpt>
      <trkpt lat="47.47515" lon="-2.9994">
        <ele>5.9052734</ele>
        <time>2011-08-11T15:57:04Z</time>
      </trkpt>
      <trkpt lat="47.47471" lon="-2.99948">
        <ele>5.4245605</ele>
        <time>2011-08-11T15:57:14Z</time>
      </trkpt>
      <trkpt lat="47.4743" lon="-2.99957">
        <ele>6.3858643</ele>
        <time>2011-08-11T15:57:24Z</time>
      </trkpt>
      <trkpt lat="47.47391" lon="-2.99965">
        <ele>8.3085938</ele>
        <time>2011-08-11T15:57:34Z</time>
      </trkpt>
      <trkpt lat="47.47354" lon="-2.99974">
        <ele>8.7891846</ele>
        <time>2011-08-11T15:57:44Z</time>
      </trkpt>
      <trkpt lat="47.47315" lon="-2.99982">
        <ele>7.8278809</ele>
        <time>2011-08-11T15:57:54Z</time>
      </trkpt>
      <trkpt lat="47.47275" lon="-2.99991">
        <ele>9.7506104</ele>
        <time>2011-08-11T15:58:04Z</time>
      </trkpt>
      <trkpt lat="47.47235" lon="-3.00001">
        <ele>9.2698975</ele>
        <time>2011-08-11T15:58:14Z</time>
      </trkpt>
      <trkpt lat="47.47196" lon="-3.00013">
        <ele>10.2312012</ele>
        <time>2011-08-11T15:58:24Z</time>
      </trkpt>
      <trkpt lat="47.4716" lon="-3.00022">
        <ele>6.3858643</ele>
        <time>2011-08-11T15:58:34Z</time>
      </trkpt>
      <trkpt lat="47.47121" lon="-3.00032">
        <ele>6.8664551</ele>
        <time>2011-08-11T15:58:44Z</time>
      </trkpt>
      <trkpt lat="47.47081" lon="-3.00042">
        <ele>6.3858643</ele>
        <time>2011-08-11T15:58:54Z</time>
      </trkpt>
      <trkpt lat="47.47041" lon="-3.00051">
        <ele>4.9438477</ele>
        <time>2011-08-11T15:59:04Z</time>
      </trkpt>
      <trkpt lat="47.47002" lon="-3.00058">
        <ele>5.4245605</ele>
        <time>2011-08-11T15:59:14Z</time>
      </trkpt>
      <trkpt lat="47.4696" lon="-3.00067">
        <ele>4.9438477</ele>
        <time>2011-08-11T15:59:24Z</time>
      </trkpt>
      <trkpt lat="47.46917" lon="-3.00071">
        <ele>4.9438477</ele>
        <time>2011-08-11T15:59:34Z</time>
      </trkpt>
      <trkpt lat="47.46876" lon="-3.00079">
        <ele>5.4245605</ele>
        <time>2011-08-11T15:59:44Z</time>
      </trkpt>
      <trkpt lat="47.46837" lon="-3.0009">
        <ele>6.3858643</ele>
        <time>2011-08-11T15:59:54Z</time>
      </trkpt>
      <trkpt lat="47.46801" lon="-3.001">
        <ele>4.9438477</ele>
        <time>2011-08-11T16:00:04Z</time>
      </trkpt>
      <trkpt lat="47.46761" lon="-3.00108">
        <ele>2.5406494</ele>
        <time>2011-08-11T16:00:14Z</time>
      </trkpt>
      <trkpt lat="47.46716" lon="-3.00116">
        <ele>3.5019531</ele>
        <time>2011-08-11T16:00:24Z</time>
      </trkpt>
      <trkpt lat="47.46672" lon="-3.00127">
        <ele>6.3858643</ele>
        <time>2011-08-11T16:00:34Z</time>
      </trkpt>
      <trkpt lat="47.46634" lon="-3.00139">
        <ele>4.4632568</ele>
        <time>2011-08-11T16:00:44Z</time>
      </trkpt>
      <trkpt lat="47.466" lon="-3.00151">
        <ele>4.4632568</ele>
        <time>2011-08-11T16:00:54Z</time>
      </trkpt>
      <trkpt lat="47.46565" lon="-3.00161">
        <ele>4.9438477</ele>
        <time>2011-08-11T16:01:04Z</time>
      </trkpt>
      <trkpt lat="47.46528" lon="-3.00171">
        <ele>4.9438477</ele>
        <time>2011-08-11T16:01:14Z</time>
      </trkpt>
      <trkpt lat="47.46491" lon="-3.00181">
        <ele>4.4632568</ele>
        <time>2011-08-11T16:01:24Z</time>
      </trkpt>
      <trkpt lat="47.46455" lon="-3.0019">
        <ele>4.9438477</ele>
        <time>2011-08-11T16:01:34Z</time>
      </trkpt>
      <trkpt lat="47.46419" lon="-3.002">
        <ele>5.4245605</ele>
        <time>2011-08-11T16:01:44Z</time>
      </trkpt>
      <trkpt lat="47.46383" lon="-3.00207">
        <ele>3.5019531</ele>
        <time>2011-08-11T16:01:54Z</time>
      </trkpt>
      <trkpt lat="47.46338" lon="-3.00206">
        <ele>1.5793457</ele>
        <time>2011-08-11T16:02:04Z</time>
      </trkpt>
      <trkpt lat="47.46288" lon="-3.00205">
        <ele>4.4632568</ele>
        <time>2011-08-11T16:02:14Z</time>
      </trkpt>
      <trkpt lat="47.46236" lon="-3.00206">
        <ele>3.982666</ele>
        <time>2011-08-11T16:02:24Z</time>
      </trkpt>
      <trkpt lat="47.46183" lon="-3.00203">
        <ele>3.0212402</ele>
        <time>2011-08-11T16:02:34Z</time>
      </trkpt>
      <trkpt lat="47.46129" lon="-3.00205">
        <ele>3.5019531</ele>
        <time>2011-08-11T16:02:44Z</time>
      </trkpt>
      <trkpt lat="47.4608" lon="-3.00205">
        <ele>5.9052734</ele>
        <time>2011-08-11T16:02:54Z</time>
      </trkpt>
      <trkpt lat="47.46025" lon="-3.002">
        <ele>4.4632568</ele>
        <time>2011-08-11T16:03:04Z</time>
      </trkpt>
      <trkpt lat="47.4597" lon="-3.00194">
        <ele>5.4245605</ele>
        <time>2011-08-11T16:03:14Z</time>
      </trkpt>
      <trkpt lat="47.45912" lon="-3.00186">
        <ele>3.5019531</ele>
        <time>2011-08-11T16:03:24Z</time>
      </trkpt>
      <trkpt lat="47.45854" lon="-3.00182">
        <ele>4.9438477</ele>
        <time>2011-08-11T16:03:34Z</time>
      </trkpt>
      <trkpt lat="47.45796" lon="-3.00177">
        <ele>5.9052734</ele>
        <time>2011-08-11T16:03:44Z</time>
      </trkpt>
      <trkpt lat="47.45736" lon="-3.00173">
        <ele>5.4245605</ele>
        <time>2011-08-11T16:03:54Z</time>
      </trkpt>
      <trkpt lat="47.45676" lon="-3.00167">
        <ele>3.982666</ele>
        <time>2011-08-11T16:04:04Z</time>
      </trkpt>
      <trkpt lat="47.4562" lon="-3.00166">
        <ele>2.5406494</ele>
        <time>2011-08-11T16:04:14Z</time>
      </trkpt>
      <trkpt lat="47.45564" lon="-3.00161">
        <ele>3.0212402</ele>
        <time>2011-08-11T16:04:24Z</time>
      </trkpt>
      <trkpt lat="47.45508" lon="-3.00158">
        <ele>-0.3433838</ele>
        <time>2011-08-11T16:04:34Z</time>
      </trkpt>
      <trkpt lat="47.45452" lon="-3.00152">
        <ele>-2.2659912</ele>
        <time>2011-08-11T16:04:44Z</time>
      </trkpt>
      <trkpt lat="47.45396" lon="-3.00152">
        <ele>1.5793457</ele>
        <time>2011-08-11T16:04:54Z</time>
      </trkpt>
      <trkpt lat="47.45339" lon="-3.00152">
        <ele>3.0212402</ele>
        <time>2011-08-11T16:05:04Z</time>
      </trkpt>
      <trkpt lat="47.45282" lon="-3.0015">
        <ele>2.5406494</ele>
        <time>2011-08-11T16:05:14Z</time>
      </trkpt>
      <trkpt lat="47.45221" lon="-3.00143">
        <ele>1.5793457</ele>
        <time>2011-08-11T16:05:24Z</time>
      </trkpt>
      <trkpt lat="47.4516" lon="-3.00134">
        <ele>5.9052734</ele>
        <time>2011-08-11T16:05:34Z</time>
      </trkpt>
      <trkpt lat="47.45103" lon="-3.00133">
        <ele>7.347168</ele>
        <time>2011-08-11T16:05:44Z</time>
      </trkpt>
      <trkpt lat="47.45048" lon="-3.00131">
        <ele>6.8664551</ele>
        <time>2011-08-11T16:05:54Z</time>
      </trkpt>
      <trkpt lat="47.44994" lon="-3.00129">
        <ele>6.8664551</ele>
        <time>2011-08-11T16:06:04Z</time>
      </trkpt>
      <trkpt lat="47.44941" lon="-3.00136">
        <ele>3.5019531</ele>
        <time>2011-08-11T16:06:14Z</time>
      </trkpt>
      <trkpt lat="47.44887" lon="-3.00138">
        <ele>0.1374512</ele>
        <time>2011-08-11T16:06:24Z</time>
      </trkpt>
      <trkpt lat="47.44831" lon="-3.00137">
        <ele>0.1374512</ele>
        <time>2011-08-11T16:06:34Z</time>
      </trkpt>
      <trkpt lat="47.44777" lon="-3.00134">
        <ele>1.0986328</ele>
        <time>2011-08-11T16:06:44Z</time>
      </trkpt>
      <trkpt lat="47.44724" lon="-3.00133">
        <ele>2.0600586</ele>
        <time>2011-08-11T16:06:54Z</time>
      </trkpt>
      <trkpt lat="47.44671" lon="-3.00135">
        <ele>0.1374512</ele>
        <time>2011-08-11T16:07:04Z</time>
      </trkpt>
      <trkpt lat="47.44619" lon="-3.00134">
        <ele>-3.7078857</ele>
        <time>2011-08-11T16:07:14Z</time>
      </trkpt>
      <trkpt lat="47.44564" lon="-3.00133">
        <ele>-2.7467041</ele>
        <time>2011-08-11T16:07:24Z</time>
      </trkpt>
      <trkpt lat="47.4451" lon="-3.00126">
        <ele>-1.3046875</ele>
        <time>2011-08-11T16:07:34Z</time>
      </trkpt>
      <trkpt lat="47.44454" lon="-3.00123">
        <ele>-0.3433838</ele>
        <time>2011-08-11T16:07:44Z</time>
      </trkpt>
      <trkpt lat="47.44398" lon="-3.0012">
        <ele>0.1374512</ele>
        <time>2011-08-11T16:07:54Z</time>
      </trkpt>
      <trkpt lat="47.44341" lon="-3.00115">
        <ele>0.1374512</ele>
        <time>2011-08-11T16:08:04Z</time>
      </trkpt>
      <trkpt lat="47.44286" lon="-3.00109">
        <ele>0.1374512</ele>
        <time>2011-08-11T16:08:14Z</time>
      </trkpt>
      <trkpt lat="47.44232" lon="-3.00104">
        <ele>3.0212402</ele>
        <time>2011-08-11T16:08:24Z</time>
      </trkpt>
      <trkpt lat="47.44178" lon="-3.00098">
        <ele>1.5793457</ele>
        <time>2011-08-11T16:08:34Z</time>
      </trkpt>
      <trkpt lat="47.44123" lon="-3.0009">
        <ele>4.4632568</ele>
        <time>2011-08-11T16:08:44Z</time>
      </trkpt>
      <trkpt lat="47.44069" lon="-3.00084">
        <ele>3.982666</ele>
        <time>2011-08-11T16:08:54Z</time>
      </trkpt>
      <trkpt lat="47.44013" lon="-3.00081">
        <ele>3.0212402</ele>
        <time>2011-08-11T16:09:04Z</time>
      </trkpt>
      <trkpt lat="47.4396" lon="-3.00079">
        <ele>2.0600586</ele>
        <time>2011-08-11T16:09:14Z</time>
      </trkpt>
      <trkpt lat="47.43903" lon="-3.00079">
        <ele>1.0986328</ele>
        <time>2011-08-11T16:09:24Z</time>
      </trkpt>
      <trkpt lat="47.43846" lon="-3.00074">
        <ele>3.5019531</ele>
        <time>2011-08-11T16:09:34Z</time>
      </trkpt>
      <trkpt lat="47.43788" lon="-3.00072">
        <ele>2.5406494</ele>
        <time>2011-08-11T16:09:44Z</time>
      </trkpt>
      <trkpt lat="47.43728" lon="-3.00074">
        <ele>-2.2659912</ele>
        <time>2011-08-11T16:09:54Z</time>
      </trkpt>
      <trkpt lat="47.43671" lon="-3.00074">
        <ele>-2.7467041</ele>
        <time>2011-08-11T16:10:04Z</time>
      </trkpt>
      <trkpt lat="47.43615" lon="-3.00073">
        <ele>-0.3433838</ele>
        <time>2011-08-11T16:10:14Z</time>
      </trkpt>
      <trkpt lat="47.43555" lon="-3.00075">
        <ele>4.4632568</ele>
        <time>2011-08-11T16:10:24Z</time>
      </trkpt>
      <trkpt lat="47.43499" lon="-3.00075">
        <ele>4.4632568</ele>
        <time>2011-08-11T16:10:34Z</time>
      </trkpt>
      <trkpt lat="47.43442" lon="-3.00075">
        <ele>5.9052734</ele>
        <time>2011-08-11T16:10:44Z</time>
      </trkpt>
      <trkpt lat="47.43385" lon="-3.00076">
        <ele>6.3858643</ele>
        <time>2011-08-11T16:10:54Z</time>
      </trkpt>
      <trkpt lat="47.43328" lon="-3.00084">
        <ele>3.0212402</ele>
        <time>2011-08-11T16:11:04Z</time>
      </trkpt>
      <trkpt lat="47.43271" lon="-3.00089">
        <ele>2.0600586</ele>
        <time>2011-08-11T16:11:14Z</time>
      </trkpt>
      <trkpt lat="47.43214" lon="-3.00093">
        <ele>-4.1885986</ele>
        <time>2011-08-11T16:11:24Z</time>
      </trkpt>
      <trkpt lat="47.43159" lon="-3.00093">
        <ele>-6.5919189</ele>
        <time>2011-08-11T16:11:34Z</time>
      </trkpt>
      <trkpt lat="47.43106" lon="-3.00094">
        <ele>-6.1112061</ele>
        <time>2011-08-11T16:11:44Z</time>
      </trkpt>
      <trkpt lat="47.4305" lon="-3.00097">
        <ele>-4.1885986</ele>
        <time>2011-08-11T16:11:54Z</time>
      </trkpt>
      <trkpt lat="47.42995" lon="-3.00097">
        <ele>-1.3046875</ele>
        <time>2011-08-11T16:12:04Z</time>
      </trkpt>
      <trkpt lat="47.42942" lon="-3.00095">
        <ele>0.618042</ele>
        <time>2011-08-11T16:12:14Z</time>
      </trkpt>
      <trkpt lat="47.42885" lon="-3.00095">
        <ele>-1.7852783</ele>
        <time>2011-08-11T16:12:24Z</time>
      </trkpt>
      <trkpt lat="47.4283" lon="-3.00094">
        <ele>-1.3046875</ele>
        <time>2011-08-11T16:12:34Z</time>
      </trkpt>
      <trkpt lat="47.42776" lon="-3.00094">
        <ele>-1.3046875</ele>
        <time>2011-08-11T16:12:44Z</time>
      </trkpt>
      <trkpt lat="47.42723" lon="-3.00095">
        <ele>0.618042</ele>
        <time>2011-08-11T16:12:54Z</time>
      </trkpt>
      <trkpt lat="47.4267" lon="-3.00091">
        <ele>-0.3433838</ele>
        <time>2011-08-11T16:13:04Z</time>
      </trkpt>
      <trkpt lat="47.42617" lon="-3.001">
        <ele>-2.2659912</ele>
        <time>2011-08-11T16:13:14Z</time>
      </trkpt>
      <trkpt lat="47.42567" lon="-3.00113">
        <ele>-4.1885986</ele>
        <time>2011-08-11T16:13:24Z</time>
      </trkpt>
      <trkpt lat="47.42517" lon="-3.00123">
        <ele>-6.1112061</ele>
        <time>2011-08-11T16:13:34Z</time>
      </trkpt>
      <trkpt lat="47.42468" lon="-3.00136">
        <ele>-1.3046875</ele>
        <time>2011-08-11T16:13:44Z</time>
      </trkpt>
      <trkpt lat="47.42417" lon="-3.00149">
        <ele>-4.1885986</ele>
        <time>2011-08-11T16:13:54Z</time>
      </trkpt>
      <trkpt lat="47.42366" lon="-3.00161">
        <ele>-3.2272949</ele>
        <time>2011-08-11T16:14:04Z</time>
      </trkpt>
      <trkpt lat="47.42314" lon="-3.00173">
        <ele>-1.7852783</ele>
        <time>2011-08-11T16:14:14Z</time>
      </trkpt>
      <trkpt lat="47.42261" lon="-3.00183">
        <ele>-0.3433838</ele>
        <time>2011-08-11T16:14:24Z</time>
      </trkpt>
      <trkpt lat="47.42211" lon="-3.00192">
        <ele>-0.3433838</ele>
        <time>2011-08-11T16:14:34Z</time>
      </trkpt>
      <trkpt lat="47.42156" lon="-3.00202">
        <ele>1.0986328</ele>
        <time>2011-08-11T16:14:44Z</time>
      </trkpt>
      <trkpt lat="47.42101" lon="-3.00209">
        <ele>-0.8240967</ele>
        <time>2011-08-11T16:14:54Z</time>
      </trkpt>
      <trkpt lat="47.42045" lon="-3.00217">
        <ele>-1.3046875</ele>
        <time>2011-08-11T16:15:04Z</time>
      </trkpt>
      <trkpt lat="47.41985" lon="-3.00224">
        <ele>-1.7852783</ele>
        <time>2011-08-11T16:15:14Z</time>
      </trkpt>
      <trkpt lat="47.41925" lon="-3.00233">
        <ele>-4.1885986</ele>
        <time>2011-08-11T16:15:24Z</time>
      </trkpt>
      <trkpt lat="47.41866" lon="-3.00237">
        <ele>-0.8240967</ele>
        <time>2011-08-11T16:15:34Z</time>
      </trkpt>
      <trkpt lat="47.41809" lon="-3.00246">
        <ele>-3.2272949</ele>
        <time>2011-08-11T16:15:44Z</time>
      </trkpt>
      <trkpt lat="47.4175" lon="-3.00254">
        <ele>-4.1885986</ele>
        <time>2011-08-11T16:15:54Z</time>
      </trkpt>
      <trkpt lat="47.41692" lon="-3.00262">
        <ele>-5.6304932</ele>
        <time>2011-08-11T16:16:04Z</time>
      </trkpt>
      <trkpt lat="47.41636" lon="-3.00268">
        <ele>-7.5531006</ele>
        <time>2011-08-11T16:16:14Z</time>
      </trkpt>
      <trkpt lat="47.41582" lon="-3.00272">
        <ele>-8.5146484</ele>
        <time>2011-08-11T16:16:24Z</time>
      </trkpt>
      <trkpt lat="47.41526" lon="-3.00273">
        <ele>-7.5531006</ele>
        <time>2011-08-11T16:16:34Z</time>
      </trkpt>
      <trkpt lat="47.41469" lon="-3.0027">
        <ele>-8.0339355</ele>
        <time>2011-08-11T16:16:44Z</time>
      </trkpt>
      <trkpt lat="47.41414" lon="-3.00269">
        <ele>-10.9178467</ele>
        <time>2011-08-11T16:16:54Z</time>
      </trkpt>
      <trkpt lat="47.41358" lon="-3.00266">
        <ele>-12.8404541</ele>
        <time>2011-08-11T16:17:04Z</time>
      </trkpt>
      <trkpt lat="47.41303" lon="-3.00262">
        <ele>-9.4758301</ele>
        <time>2011-08-11T16:17:14Z</time>
      </trkpt>
      <trkpt lat="47.41245" lon="-3.00253">
        <ele>-7.0725098</ele>
        <time>2011-08-11T16:17:24Z</time>
      </trkpt>
      <trkpt lat="47.4119" lon="-3.00245">
        <ele>-6.1112061</ele>
        <time>2011-08-11T16:17:34Z</time>
      </trkpt>
      <trkpt lat="47.4113" lon="-3.00237">
        <ele>-5.6304932</ele>
        <time>2011-08-11T16:17:44Z</time>
      </trkpt>
      <trkpt lat="47.41072" lon="-3.00233">
        <ele>-5.6304932</ele>
        <time>2011-08-11T16:17:54Z</time>
      </trkpt>
      <trkpt lat="47.41014" lon="-3.0023">
        <ele>-5.6304932</ele>
        <time>2011-08-11T16:18:04Z</time>
      </trkpt>
      <trkpt lat="47.40958" lon="-3.00224">
        <ele>-4.6693115</ele>
        <time>2011-08-11T16:18:14Z</time>
      </trkpt>
      <trkpt lat="47.40901" lon="-3.00218">
        <ele>-6.5919189</ele>
        <time>2011-08-11T16:18:24Z</time>
      </trkpt>
      <trkpt lat="47.40843" lon="-3.00214">
        <ele>-6.1112061</ele>
        <time>2011-08-11T16:18:34Z</time>
      </trkpt>
      <trkpt lat="47.40789" lon="-3.00217">
        <ele>-6.5919189</ele>
        <time>2011-08-11T16:18:44Z</time>
      </trkpt>
      <trkpt lat="47.40741" lon="-3.0023">
        <ele>-8.0339355</ele>
        <time>2011-08-11T16:18:54Z</time>
      </trkpt>
      <trkpt lat="47.40699" lon="-3.00251">
        <ele>-3.7078857</ele>
        <time>2011-08-11T16:19:04Z</time>
      </trkpt>
      <trkpt lat="47.40657" lon="-3.00269">
        <ele>-4.1885986</ele>
        <time>2011-08-11T16:19:14Z</time>
      </trkpt>
      <trkpt lat="47.40612" lon="-3.00287">
        <ele>-7.0725098</ele>
        <time>2011-08-11T16:19:24Z</time>
      </trkpt>
      <trkpt lat="47.40563" lon="-3.00308">
        <ele>-7.5531006</ele>
        <time>2011-08-11T16:19:34Z</time>
      </trkpt>
      <trkpt lat="47.40521" lon="-3.00333">
        <ele>-7.0725098</ele>
        <time>2011-08-11T16:19:44Z</time>
      </trkpt>
      <trkpt lat="47.40485" lon="-3.00358">
        <ele>-5.6304932</ele>
        <time>2011-08-11T16:19:54Z</time>
      </trkpt>
      <trkpt lat="47.4045" lon="-3.00381">
        <ele>-6.1112061</ele>
        <time>2011-08-11T16:20:04Z</time>
      </trkpt>
      <trkpt lat="47.40413" lon="-3.00406">
        <ele>-5.6304932</ele>
        <time>2011-08-11T16:20:14Z</time>
      </trkpt>
      <trkpt lat="47.40375" lon="-3.0043">
        <ele>-7.0725098</ele>
        <time>2011-08-11T16:20:24Z</time>
      </trkpt>
      <trkpt lat="47.40338" lon="-3.00452">
        <ele>-6.5919189</ele>
        <time>2011-08-11T16:20:34Z</time>
      </trkpt>
      <trkpt lat="47.40298" lon="-3.00476">
        <ele>-6.5919189</ele>
        <time>2011-08-11T16:20:44Z</time>
      </trkpt>
      <trkpt lat="47.40258" lon="-3.00498">
        <ele>-1.7852783</ele>
        <time>2011-08-11T16:20:54Z</time>
      </trkpt>
      <trkpt lat="47.40222" lon="-3.00522">
        <ele>-0.3433838</ele>
        <time>2011-08-11T16:21:04Z</time>
      </trkpt>
      <trkpt lat="47.4019" lon="-3.00545">
        <ele>-2.2659912</ele>
        <time>2011-08-11T16:21:14Z</time>
      </trkpt>
      <trkpt lat="47.40158" lon="-3.00564">
        <ele>-2.2659912</ele>
        <time>2011-08-11T16:21:24Z</time>
      </trkpt>
      <trkpt lat="47.40125" lon="-3.00583">
        <ele>-2.7467041</ele>
        <time>2011-08-11T16:21:34Z</time>
      </trkpt>
      <trkpt lat="47.4009" lon="-3.00602">
        <ele>-3.2272949</ele>
        <time>2011-08-11T16:21:44Z</time>
      </trkpt>
      <trkpt lat="47.40051" lon="-3.00621">
        <ele>-8.9952393</ele>
        <time>2011-08-11T16:21:54Z</time>
      </trkpt>
      <trkpt lat="47.40014" lon="-3.00639">
        <ele>-6.5919189</ele>
        <time>2011-08-11T16:22:04Z</time>
      </trkpt>
      <trkpt lat="47.39976" lon="-3.00659">
        <ele>-5.1499023</ele>
        <time>2011-08-11T16:22:14Z</time>
      </trkpt>
      <trkpt lat="47.39938" lon="-3.0068">
        <ele>-3.2272949</ele>
        <time>2011-08-11T16:22:24Z</time>
      </trkpt>
      <trkpt lat="47.39898" lon="-3.00701">
        <ele>-2.7467041</ele>
        <time>2011-08-11T16:22:34Z</time>
      </trkpt>
      <trkpt lat="47.39859" lon="-3.00723">
        <ele>-4.1885986</ele>
        <time>2011-08-11T16:22:44Z</time>
      </trkpt>
      <trkpt lat="47.39818" lon="-3.00742">
        <ele>-6.1112061</ele>
        <time>2011-08-11T16:22:54Z</time>
      </trkpt>
      <trkpt lat="47.39776" lon="-3.00757">
        <ele>-5.1499023</ele>
        <time>2011-08-11T16:23:04Z</time>
      </trkpt>
      <trkpt lat="47.39734" lon="-3.00775">
        <ele>-0.3433838</ele>
        <time>2011-08-11T16:23:14Z</time>
      </trkpt>
      <trkpt lat="47.39692" lon="-3.00788">
        <ele>7.8278809</ele>
        <time>2011-08-11T16:23:24Z</time>
      </trkpt>
      <trkpt lat="47.39649" lon="-3.00801">
        <ele>5.9052734</ele>
        <time>2011-08-11T16:23:34Z</time>
      </trkpt>
      <trkpt lat="47.39605" lon="-3.00815">
        <ele>7.347168</ele>
        <time>2011-08-11T16:23:44Z</time>
      </trkpt>
      <trkpt lat="47.39565" lon="-3.0083">
        <ele>8.7891846</ele>
        <time>2011-08-11T16:23:54Z</time>
      </trkpt>
      <trkpt lat="47.3953" lon="-3.00845">
        <ele>12.1538086</ele>
        <time>2011-08-11T16:24:04Z</time>
      </trkpt>
      <trkpt lat="47.39494" lon="-3.0086">
        <ele>14.076416</ele>
        <time>2011-08-11T16:24:14Z</time>
      </trkpt>
      <trkpt lat="47.39459" lon="-3.00874">
        <ele>13.5958252</ele>
        <time>2011-08-11T16:24:24Z</time>
      </trkpt>
      <trkpt lat="47.39424" lon="-3.00889">
        <ele>10.2312012</ele>
        <time>2011-08-11T16:24:34Z</time>
      </trkpt>
      <trkpt lat="47.39386" lon="-3.00902">
        <ele>4.4632568</ele>
        <time>2011-08-11T16:24:44Z</time>
      </trkpt>
      <trkpt lat="47.39348" lon="-3.00915">
        <ele>0.618042</ele>
        <time>2011-08-11T16:24:54Z</time>
      </trkpt>
      <trkpt lat="47.39308" lon="-3.00929">
        <ele>-0.3433838</ele>
        <time>2011-08-11T16:25:04Z</time>
      </trkpt>
      <trkpt lat="47.39269" lon="-3.00938">
        <ele>-1.3046875</ele>
        <time>2011-08-11T16:25:14Z</time>
      </trkpt>
      <trkpt lat="47.39229" lon="-3.00949">
        <ele>-2.2659912</ele>
        <time>2011-08-11T16:25:24Z</time>
      </trkpt>
      <trkpt lat="47.39189" lon="-3.0096">
        <ele>-1.7852783</ele>
        <time>2011-08-11T16:25:34Z</time>
      </trkpt>
      <trkpt lat="47.39153" lon="-3.00972">
        <ele>-1.3046875</ele>
        <time>2011-08-11T16:25:44Z</time>
      </trkpt>
      <trkpt lat="47.39116" lon="-3.00983">
        <ele>2.5406494</ele>
        <time>2011-08-11T16:25:54Z</time>
      </trkpt>
      <trkpt lat="47.39077" lon="-3.00995">
        <ele>4.9438477</ele>
        <time>2011-08-11T16:26:04Z</time>
      </trkpt>
      <trkpt lat="47.39043" lon="-3.01008">
        <ele>4.9438477</ele>
        <time>2011-08-11T16:26:14Z</time>
      </trkpt>
      <trkpt lat="47.39009" lon="-3.01022">
        <ele>4.4632568</ele>
        <time>2011-08-11T16:26:24Z</time>
      </trkpt>
      <trkpt lat="47.38979" lon="-3.01033">
        <ele>1.5793457</ele>
        <time>2011-08-11T16:26:34Z</time>
      </trkpt>
      <trkpt lat="47.38946" lon="-3.01042">
        <ele>4.4632568</ele>
        <time>2011-08-11T16:26:44Z</time>
      </trkpt>
      <trkpt lat="47.38913" lon="-3.01054">
        <ele>2.0600586</ele>
        <time>2011-08-11T16:26:54Z</time>
      </trkpt>
      <trkpt lat="47.38881" lon="-3.01066">
        <ele>-0.3433838</ele>
        <time>2011-08-11T16:27:04Z</time>
      </trkpt>
      <trkpt lat="47.38851" lon="-3.0108">
        <ele>-6.5919189</ele>
        <time>2011-08-11T16:27:14Z</time>
      </trkpt>
      <trkpt lat="47.38817" lon="-3.01089">
        <ele>-6.5919189</ele>
        <time>2011-08-11T16:27:24Z</time>
      </trkpt>
      <trkpt lat="47.38774" lon="-3.01091">
        <ele>-5.6304932</ele>
        <time>2011-08-11T16:27:34Z</time>
      </trkpt>
      <trkpt lat="47.38729" lon="-3.01096">
        <ele>-5.6304932</ele>
        <time>2011-08-11T16:27:44Z</time>
      </trkpt>
      <trkpt lat="47.38689" lon="-3.01108">
        <ele>-7.5531006</ele>
        <time>2011-08-11T16:27:54Z</time>
      </trkpt>
      <trkpt lat="47.3865" lon="-3.0112">
        <ele>-8.9952393</ele>
        <time>2011-08-11T16:28:04Z</time>
      </trkpt>
      <trkpt lat="47.38613" lon="-3.01134">
        <ele>-8.0339355</ele>
        <time>2011-08-11T16:28:14Z</time>
      </trkpt>
      <trkpt lat="47.38578" lon="-3.01147">
        <ele>-8.9952393</ele>
        <time>2011-08-11T16:28:24Z</time>
      </trkpt>
      <trkpt lat="47.38544" lon="-3.0116">
        <ele>-9.4758301</ele>
        <time>2011-08-11T16:28:34Z</time>
      </trkpt>
      <trkpt lat="47.38509" lon="-3.01173">
        <ele>-9.956543</ele>
        <time>2011-08-11T16:28:44Z</time>
      </trkpt>
      <trkpt lat="47.38477" lon="-3.01185">
        <ele>-8.5146484</ele>
        <time>2011-08-11T16:28:54Z</time>
      </trkpt>
      <trkpt lat="47.38447" lon="-3.01197">
        <ele>-8.9952393</ele>
        <time>2011-08-11T16:29:04Z</time>
      </trkpt>
      <trkpt lat="47.38416" lon="-3.0121">
        <ele>-9.4758301</ele>
        <time>2011-08-11T16:29:14Z</time>
      </trkpt>
      <trkpt lat="47.38383" lon="-3.01222">
        <ele>-8.9952393</ele>
        <time>2011-08-11T16:29:24Z</time>
      </trkpt>
      <trkpt lat="47.38351" lon="-3.01233">
        <ele>-9.956543</ele>
        <time>2011-08-11T16:29:34Z</time>
      </trkpt>
      <trkpt lat="47.38318" lon="-3.01243">
        <ele>-9.4758301</ele>
        <time>2011-08-11T16:29:44Z</time>
      </trkpt>
      <trkpt lat="47.38284" lon="-3.01255">
        <ele>-9.4758301</ele>
        <time>2011-08-11T16:29:54Z</time>
      </trkpt>
      <trkpt lat="47.3825" lon="-3.01266">
        <ele>-8.9952393</ele>
        <time>2011-08-11T16:30:04Z</time>
      </trkpt>
      <trkpt lat="47.38217" lon="-3.01278">
        <ele>-8.5146484</ele>
        <time>2011-08-11T16:30:14Z</time>
      </trkpt>
      <trkpt lat="47.38184" lon="-3.0129">
        <ele>-8.9952393</ele>
        <time>2011-08-11T16:30:24Z</time>
      </trkpt>
      <trkpt lat="47.38149" lon="-3.01301">
        <ele>-8.0339355</ele>
        <time>2011-08-11T16:30:34Z</time>
      </trkpt>
      <trkpt lat="47.38111" lon="-3.01312">
        <ele>-8.0339355</ele>
        <time>2011-08-11T16:30:44Z</time>
      </trkpt>
      <trkpt lat="47.38075" lon="-3.01326">
        <ele>-8.0339355</ele>
        <time>2011-08-11T16:30:54Z</time>
      </trkpt>
      <trkpt lat="47.38039" lon="-3.01338">
        <ele>-8.0339355</ele>
        <time>2011-08-11T16:31:04Z</time>
      </trkpt>
      <trkpt lat="47.38001" lon="-3.01348">
        <ele>-8.0339355</ele>
        <time>2011-08-11T16:31:14Z</time>
      </trkpt>
      <trkpt lat="47.37963" lon="-3.01359">
        <ele>-8.5146484</ele>
        <time>2011-08-11T16:31:24Z</time>
      </trkpt>
      <trkpt lat="47.37924" lon="-3.01371">
        <ele>-8.5146484</ele>
        <time>2011-08-11T16:31:34Z</time>
      </trkpt>
      <trkpt lat="47.37888" lon="-3.01384">
        <ele>-8.5146484</ele>
        <time>2011-08-11T16:31:44Z</time>
      </trkpt>
      <trkpt lat="47.37855" lon="-3.01395">
        <ele>-9.4758301</ele>
        <time>2011-08-11T16:31:54Z</time>
      </trkpt>
      <trkpt lat="47.3782" lon="-3.01406">
        <ele>-9.4758301</ele>
        <time>2011-08-11T16:32:04Z</time>
      </trkpt>
      <trkpt lat="47.37786" lon="-3.01418">
        <ele>-9.4758301</ele>
        <time>2011-08-11T16:32:14Z</time>
      </trkpt>
      <trkpt lat="47.37754" lon="-3.01432">
        <ele>-8.9952393</ele>
        <time>2011-08-11T16:32:24Z</time>
      </trkpt>
      <trkpt lat="47.3772" lon="-3.01446">
        <ele>-9.4758301</ele>
        <time>2011-08-11T16:32:34Z</time>
      </trkpt>
      <trkpt lat="47.37688" lon="-3.0146">
        <ele>-8.9952393</ele>
        <time>2011-08-11T16:32:44Z</time>
      </trkpt>
      <trkpt lat="47.37652" lon="-3.01474">
        <ele>-9.4758301</ele>
        <time>2011-08-11T16:32:54Z</time>
      </trkpt>
      <trkpt lat="47.37615" lon="-3.01488">
        <ele>-10.4372559</ele>
        <time>2011-08-11T16:33:04Z</time>
      </trkpt>
      <trkpt lat="47.37578" lon="-3.01501">
        <ele>-8.0339355</ele>
        <time>2011-08-11T16:33:14Z</time>
      </trkpt>
      <trkpt lat="47.37543" lon="-3.01514">
        <ele>-8.5146484</ele>
        <time>2011-08-11T16:33:24Z</time>
      </trkpt>
      <trkpt lat="47.37506" lon="-3.01529">
        <ele>-9.956543</ele>
        <time>2011-08-11T16:33:34Z</time>
      </trkpt>
      <trkpt lat="47.37467" lon="-3.01542">
        <ele>-9.4758301</ele>
        <time>2011-08-11T16:33:44Z</time>
      </trkpt>
      <trkpt lat="47.37429" lon="-3.01558">
        <ele>-9.956543</ele>
        <time>2011-08-11T16:33:54Z</time>
      </trkpt>
      <trkpt lat="47.37396" lon="-3.01572">
        <ele>-8.5146484</ele>
        <time>2011-08-11T16:34:04Z</time>
      </trkpt>
      <trkpt lat="47.37365" lon="-3.01585">
        <ele>-8.9952393</ele>
        <time>2011-08-11T16:34:14Z</time>
      </trkpt>
      <trkpt lat="47.3733" lon="-3.01598">
        <ele>-9.956543</ele>
        <time>2011-08-11T16:34:24Z</time>
      </trkpt>
      <trkpt lat="47.37296" lon="-3.01612">
        <ele>-8.5146484</ele>
        <time>2011-08-11T16:34:34Z</time>
      </trkpt>
      <trkpt lat="47.37266" lon="-3.01625">
        <ele>-9.4758301</ele>
        <time>2011-08-11T16:34:44Z</time>
      </trkpt>
      <trkpt lat="47.37236" lon="-3.01636">
        <ele>-8.5146484</ele>
        <time>2011-08-11T16:34:54Z</time>
      </trkpt>
      <trkpt lat="47.37199" lon="-3.01646">
        <ele>-9.4758301</ele>
        <time>2011-08-11T16:35:04Z</time>
      </trkpt>
      <trkpt lat="47.37161" lon="-3.01654">
        <ele>-9.4758301</ele>
        <time>2011-08-11T16:35:14Z</time>
      </trkpt>
      <trkpt lat="47.37121" lon="-3.01662">
        <ele>-10.4372559</ele>
        <time>2011-08-11T16:35:24Z</time>
      </trkpt>
      <trkpt lat="47.37081" lon="-3.01674">
        <ele>-8.9952393</ele>
        <time>2011-08-11T16:35:34Z</time>
      </trkpt>
      <trkpt lat="47.37043" lon="-3.01689">
        <ele>-10.4372559</ele>
        <time>2011-08-11T16:35:44Z</time>
      </trkpt>
      <trkpt lat="47.37011" lon="-3.01706">
        <ele>-8.9952393</ele>
        <time>2011-08-11T16:35:54Z</time>
      </trkpt>
      <trkpt lat="47.3698" lon="-3.0172">
        <ele>-10.4372559</ele>
        <time>2011-08-11T16:36:04Z</time>
      </trkpt>
      <trkpt lat="47.36946" lon="-3.01733">
        <ele>-9.4758301</ele>
        <time>2011-08-11T16:36:14Z</time>
      </trkpt>
      <trkpt lat="47.36909" lon="-3.01744">
        <ele>-9.4758301</ele>
        <time>2011-08-11T16:36:24Z</time>
      </trkpt>
      <trkpt lat="47.36872" lon="-3.01755">
        <ele>-9.4758301</ele>
        <time>2011-08-11T16:36:34Z</time>
      </trkpt>
      <trkpt lat="47.36833" lon="-3.01767">
        <ele>-7.5531006</ele>
        <time>2011-08-11T16:36:44Z</time>
      </trkpt>
      <trkpt lat="47.36795" lon="-3.01782">
        <ele>-8.0339355</ele>
        <time>2011-08-11T16:36:54Z</time>
      </trkpt>
      <trkpt lat="47.3676" lon="-3.01797">
        <ele>-8.5146484</ele>
        <time>2011-08-11T16:37:04Z</time>
      </trkpt>
      <trkpt lat="47.36728" lon="-3.01812">
        <ele>-6.5919189</ele>
        <time>2011-08-11T16:37:14Z</time>
      </trkpt>
      <trkpt lat="47.36696" lon="-3.01827">
        <ele>-7.5531006</ele>
        <time>2011-08-11T16:37:24Z</time>
      </trkpt>
      <trkpt lat="47.36667" lon="-3.01843">
        <ele>-7.5531006</ele>
        <time>2011-08-11T16:37:34Z</time>
      </trkpt>
      <trkpt lat="47.36641" lon="-3.01857">
        <ele>-6.5919189</ele>
        <time>2011-08-11T16:37:44Z</time>
      </trkpt>
      <trkpt lat="47.36615" lon="-3.01869">
        <ele>-7.5531006</ele>
        <time>2011-08-11T16:37:54Z</time>
      </trkpt>
      <trkpt lat="47.36586" lon="-3.01881">
        <ele>-8.0339355</ele>
        <time>2011-08-11T16:38:04Z</time>
      </trkpt>
      <trkpt lat="47.36552" lon="-3.01892">
        <ele>-6.1112061</ele>
        <time>2011-08-11T16:38:14Z</time>
      </trkpt>
      <trkpt lat="47.36517" lon="-3.01903">
        <ele>-6.1112061</ele>
        <time>2011-08-11T16:38:24Z</time>
      </trkpt>
      <trkpt lat="47.36481" lon="-3.01914">
        <ele>-8.0339355</ele>
        <time>2011-08-11T16:38:34Z</time>
      </trkpt>
      <trkpt lat="47.36444" lon="-3.01925">
        <ele>-8.5146484</ele>
        <time>2011-08-11T16:38:44Z</time>
      </trkpt>
      <trkpt lat="47.36404" lon="-3.01937">
        <ele>-7.0725098</ele>
        <time>2011-08-11T16:38:54Z</time>
      </trkpt>
      <trkpt lat="47.36368" lon="-3.01951">
        <ele>-6.5919189</ele>
        <time>2011-08-11T16:39:04Z</time>
      </trkpt>
      <trkpt lat="47.36335" lon="-3.01965">
        <ele>-8.0339355</ele>
        <time>2011-08-11T16:39:14Z</time>
      </trkpt>
      <trkpt lat="47.36304" lon="-3.01976">
        <ele>-9.956543</ele>
        <time>2011-08-11T16:39:24Z</time>
      </trkpt>
      <trkpt lat="47.36274" lon="-3.01989">
        <ele>-10.9178467</ele>
        <time>2011-08-11T16:39:34Z</time>
      </trkpt>
      <trkpt lat="47.36243" lon="-3.02">
        <ele>-9.956543</ele>
        <time>2011-08-11T16:39:44Z</time>
      </trkpt>
      <trkpt lat="47.3621" lon="-3.0201">
        <ele>-8.9952393</ele>
        <time>2011-08-11T16:39:54Z</time>
      </trkpt>
      <trkpt lat="47.36173" lon="-3.02018">
        <ele>-7.5531006</ele>
        <time>2011-08-11T16:40:04Z</time>
      </trkpt>
      <trkpt lat="47.36139" lon="-3.0203">
        <ele>-8.0339355</ele>
        <time>2011-08-11T16:40:14Z</time>
      </trkpt>
      <trkpt lat="47.36108" lon="-3.02041">
        <ele>-8.0339355</ele>
        <time>2011-08-11T16:40:24Z</time>
      </trkpt>
      <trkpt lat="47.36079" lon="-3.02051">
        <ele>-8.9952393</ele>
        <time>2011-08-11T16:40:34Z</time>
      </trkpt>
      <trkpt lat="47.36044" lon="-3.0206">
        <ele>-8.9952393</ele>
        <time>2011-08-11T16:40:44Z</time>
      </trkpt>
      <trkpt lat="47.3601" lon="-3.02071">
        <ele>-10.4372559</ele>
        <time>2011-08-11T16:40:54Z</time>
      </trkpt>
      <trkpt lat="47.35975" lon="-3.02081">
        <ele>-10.4372559</ele>
        <time>2011-08-11T16:41:04Z</time>
      </trkpt>
      <trkpt lat="47.35939" lon="-3.02092">
        <ele>-9.4758301</ele>
        <time>2011-08-11T16:41:14Z</time>
      </trkpt>
      <trkpt lat="47.35904" lon="-3.02105">
        <ele>-9.956543</ele>
        <time>2011-08-11T16:41:24Z</time>
      </trkpt>
      <trkpt lat="47.35872" lon="-3.02118">
        <ele>-10.4372559</ele>
        <time>2011-08-11T16:41:34Z</time>
      </trkpt>
      <trkpt lat="47.3584" lon="-3.02131">
        <ele>-10.4372559</ele>
        <time>2011-08-11T16:41:44Z</time>
      </trkpt>
      <trkpt lat="47.35807" lon="-3.02144">
        <ele>-10.4372559</ele>
        <time>2011-08-11T16:41:54Z</time>
      </trkpt>
      <trkpt lat="47.35773" lon="-3.02155">
        <ele>-9.4758301</ele>
        <time>2011-08-11T16:42:04Z</time>
      </trkpt>
      <trkpt lat="47.3574" lon="-3.02166">
        <ele>-10.9178467</ele>
        <time>2011-08-11T16:42:14Z</time>
      </trkpt>
      <trkpt lat="47.35704" lon="-3.02174">
        <ele>-10.9178467</ele>
        <time>2011-08-11T16:42:24Z</time>
      </trkpt>
      <trkpt lat="47.35666" lon="-3.02186">
        <ele>-9.956543</ele>
        <time>2011-08-11T16:42:34Z</time>
      </trkpt>
      <trkpt lat="47.35627" lon="-3.02196">
        <ele>-9.4758301</ele>
        <time>2011-08-11T16:42:44Z</time>
      </trkpt>
      <trkpt lat="47.35587" lon="-3.02208">
        <ele>-8.9952393</ele>
        <time>2011-08-11T16:42:54Z</time>
      </trkpt>
      <trkpt lat="47.35552" lon="-3.02222">
        <ele>-8.9952393</ele>
        <time>2011-08-11T16:43:04Z</time>
      </trkpt>
      <trkpt lat="47.35519" lon="-3.02237">
        <ele>-8.0339355</ele>
        <time>2011-08-11T16:43:14Z</time>
      </trkpt>
      <trkpt lat="47.35488" lon="-3.02255">
        <ele>-5.6304932</ele>
        <time>2011-08-11T16:43:24Z</time>
      </trkpt>
      <trkpt lat="47.35466" lon="-3.0227">
        <ele>-5.6304932</ele>
        <time>2011-08-11T16:43:34Z</time>
      </trkpt>
      <trkpt lat="47.35449" lon="-3.02282">
        <ele>-8.0339355</ele>
        <time>2011-08-11T16:43:44Z</time>
      </trkpt>
      <trkpt lat="47.35428" lon="-3.02292">
        <ele>-9.4758301</ele>
        <time>2011-08-11T16:43:54Z</time>
      </trkpt>
      <trkpt lat="47.35405" lon="-3.02303">
        <ele>-8.0339355</ele>
        <time>2011-08-11T16:44:04Z</time>
      </trkpt>
      <trkpt lat="47.35383" lon="-3.02313">
        <ele>-7.5531006</ele>
        <time>2011-08-11T16:44:14Z</time>
      </trkpt>
      <trkpt lat="47.35359" lon="-3.02323">
        <ele>-6.5919189</ele>
        <time>2011-08-11T16:44:24Z</time>
      </trkpt>
      <trkpt lat="47.35336" lon="-3.02333">
        <ele>-7.0725098</ele>
        <time>2011-08-11T16:44:34Z</time>
      </trkpt>
      <trkpt lat="47.35309" lon="-3.02345">
        <ele>-8.5146484</ele>
        <time>2011-08-11T16:44:44Z</time>
      </trkpt>
      <trkpt lat="47.35277" lon="-3.02356">
        <ele>-8.5146484</ele>
        <time>2011-08-11T16:44:54Z</time>
      </trkpt>
      <trkpt lat="47.35239" lon="-3.02367">
        <ele>-7.5531006</ele>
        <time>2011-08-11T16:45:04Z</time>
      </trkpt>
      <trkpt lat="47.35205" lon="-3.02379">
        <ele>-8.0339355</ele>
        <time>2011-08-11T16:45:14Z</time>
      </trkpt>
      <trkpt lat="47.35176" lon="-3.02387">
        <ele>-8.9952393</ele>
        <time>2011-08-11T16:45:24Z</time>
      </trkpt>
      <trkpt lat="47.35141" lon="-3.02397">
        <ele>-6.5919189</ele>
        <time>2011-08-11T16:45:34Z</time>
      </trkpt>
      <trkpt lat="47.351" lon="-3.02406">
        <ele>-5.6304932</ele>
        <time>2011-08-11T16:45:44Z</time>
      </trkpt>
      <trkpt lat="47.35058" lon="-3.02414">
        <ele>-5.6304932</ele>
        <time>2011-08-11T16:45:54Z</time>
      </trkpt>
      <trkpt lat="47.35023" lon="-3.02429">
        <ele>-6.1112061</ele>
        <time>2011-08-11T16:46:04Z</time>
      </trkpt>
      <trkpt lat="47.3499" lon="-3.02443">
        <ele>-7.5531006</ele>
        <time>2011-08-11T16:46:14Z</time>
      </trkpt>
      <trkpt lat="47.34958" lon="-3.02455">
        <ele>-8.9952393</ele>
        <time>2011-08-11T16:46:24Z</time>
      </trkpt>
      <trkpt lat="47.3493" lon="-3.02466">
        <ele>-8.9952393</ele>
        <time>2011-08-11T16:46:34Z</time>
      </trkpt>
      <trkpt lat="47.349" lon="-3.02478">
        <ele>-9.4758301</ele>
        <time>2011-08-11T16:46:44Z</time>
      </trkpt>
      <trkpt lat="47.34872" lon="-3.0249">
        <ele>-8.5146484</ele>
        <time>2011-08-11T16:46:54Z</time>
      </trkpt>
      <trkpt lat="47.3485" lon="-3.02498">
        <ele>-8.9952393</ele>
        <time>2011-08-11T16:47:04Z</time>
      </trkpt>
      <trkpt lat="47.34829" lon="-3.02501">
        <ele>-9.956543</ele>
        <time>2011-08-11T16:47:14Z</time>
      </trkpt>
      <trkpt lat="47.3481" lon="-3.02502">
        <ele>-10.4372559</ele>
        <time>2011-08-11T16:47:24Z</time>
      </trkpt>
      <trkpt lat="47.3479" lon="-3.02503">
        <ele>-8.9952393</ele>
        <time>2011-08-11T16:47:34Z</time>
      </trkpt>
      <trkpt lat="47.34772" lon="-3.02505">
        <ele>-9.956543</ele>
        <time>2011-08-11T16:47:44Z</time>
      </trkpt>
      <trkpt lat="47.34755" lon="-3.02503">
        <ele>-9.956543</ele>
        <time>2011-08-11T16:47:54Z</time>
      </trkpt>
      <trkpt lat="47.34735" lon="-3.02503">
        <ele>-9.4758301</ele>
        <time>2011-08-11T16:48:04Z</time>
      </trkpt>
      <trkpt lat="47.34716" lon="-3.02504">
        <ele>-9.956543</ele>
        <time>2011-08-11T16:48:14Z</time>
      </trkpt>
      <trkpt lat="47.34699" lon="-3.02503">
        <ele>-10.4372559</ele>
        <time>2011-08-11T16:48:24Z</time>
      </trkpt>
      <trkpt lat="47.34681" lon="-3.02503">
        <ele>-8.0339355</ele>
        <time>2011-08-11T16:48:34Z</time>
      </trkpt>
      <trkpt lat="47.34661" lon="-3.02504">
        <ele>-7.5531006</ele>
        <time>2011-08-11T16:48:44Z</time>
      </trkpt>
      <trkpt lat="47.34644" lon="-3.02503">
        <ele>-7.0725098</ele>
        <time>2011-08-11T16:48:54Z</time>
      </trkpt>
      <trkpt lat="47.34629" lon="-3.025">
        <ele>-8.9952393</ele>
        <time>2011-08-11T16:49:04Z</time>
      </trkpt>
      <trkpt lat="47.34612" lon="-3.02502">
        <ele>-7.5531006</ele>
        <time>2011-08-11T16:49:14Z</time>
      </trkpt>
      <trkpt lat="47.34598" lon="-3.02505">
        <ele>-7.5531006</ele>
        <time>2011-08-11T16:49:24Z</time>
      </trkpt>
      <trkpt lat="47.34583" lon="-3.02505">
        <ele>-7.5531006</ele>
        <time>2011-08-11T16:49:34Z</time>
      </trkpt>
      <trkpt lat="47.34568" lon="-3.0251">
        <ele>-7.0725098</ele>
        <time>2011-08-11T16:49:44Z</time>
      </trkpt>
      <trkpt lat="47.34556" lon="-3.02514">
        <ele>-6.5919189</ele>
        <time>2011-08-11T16:49:54Z</time>
      </trkpt>
      <trkpt lat="47.34547" lon="-3.02518">
        <ele>-6.5919189</ele>
        <time>2011-08-11T16:50:04Z</time>
      </trkpt>
      <trkpt lat="47.3454" lon="-3.02518">
        <ele>-4.6693115</ele>
        <time>2011-08-11T16:50:14Z</time>
      </trkpt>
      <trkpt lat="47.34539" lon="-3.02513">
        <ele>-3.7078857</ele>
        <time>2011-08-11T16:50:24Z</time>
      </trkpt>
      <trkpt lat="47.3454" lon="-3.02505">
        <ele>-3.2272949</ele>
        <time>2011-08-11T16:50:34Z</time>
      </trkpt>
      <trkpt lat="47.34545" lon="-3.02497">
        <ele>-3.2272949</ele>
        <time>2011-08-11T16:50:44Z</time>
      </trkpt>
      <trkpt lat="47.34547" lon="-3.02486">
        <ele>-2.2659912</ele>
        <time>2011-08-11T16:50:54Z</time>
      </trkpt>
      <trkpt lat="47.34549" lon="-3.02477">
        <ele>-1.3046875</ele>
        <time>2011-08-11T16:51:04Z</time>
      </trkpt>
      <trkpt lat="47.34553" lon="-3.02476">
        <ele>-1.7852783</ele>
        <time>2011-08-11T16:51:14Z</time>
      </trkpt>
      <trkpt lat="47.34552" lon="-3.02471">
        <ele>-2.2659912</ele>
        <time>2011-08-11T16:51:24Z</time>
      </trkpt>
      <trkpt lat="47.34551" lon="-3.0247">
        <ele>-2.7467041</ele>
        <time>2011-08-11T16:51:34Z</time>
      </trkpt>
      <trkpt lat="47.34551" lon="-3.0247">
        <ele>-2.7467041</ele>
        <time>2011-08-11T16:51:44Z</time>
      </trkpt>
      <trkpt lat="47.34551" lon="-3.02469">
        <ele>-2.7467041</ele>
        <time>2011-08-11T16:51:54Z</time>
      </trkpt>
      <trkpt lat="47.34548" lon="-3.0246">
        <ele>-4.1885986</ele>
        <time>2011-08-11T16:52:04Z</time>
      </trkpt>
      <trkpt lat="47.34545" lon="-3.02448">
        <ele>-4.1885986</ele>
        <time>2011-08-11T16:52:14Z</time>
      </trkpt>
      <trkpt lat="47.34545" lon="-3.02445">
        <ele>-4.6693115</ele>
        <time>2011-08-11T16:52:24Z</time>
      </trkpt>
      <trkpt lat="47.34547" lon="-3.02444">
        <ele>-4.6693115</ele>
        <time>2011-08-11T16:52:34Z</time>
      </trkpt>
      <trkpt lat="47.34549" lon="-3.02439">
        <ele>-6.5919189</ele>
        <time>2011-08-11T16:52:44Z</time>
      </trkpt>
      <trkpt lat="47.34549" lon="-3.02438">
        <ele>-6.1112061</ele>
        <time>2011-08-11T16:52:54Z</time>
      </trkpt>
      <trkpt lat="47.34547" lon="-3.02434">
        <ele>-6.5919189</ele>
        <time>2011-08-11T16:53:04Z</time>
      </trkpt>
      <trkpt lat="47.34545" lon="-3.02426">
        <ele>-5.6304932</ele>
        <time>2011-08-11T16:53:14Z</time>
      </trkpt>
      <trkpt lat="47.34542" lon="-3.0242">
        <ele>-5.6304932</ele>
        <time>2011-08-11T16:53:24Z</time>
      </trkpt>
      <trkpt lat="47.34541" lon="-3.02415">
        <ele>-5.1499023</ele>
        <time>2011-08-11T16:53:34Z</time>
      </trkpt>
      <trkpt lat="47.3454" lon="-3.02411">
        <ele>-5.1499023</ele>
        <time>2011-08-11T16:53:44Z</time>
      </trkpt>
      <trkpt lat="47.3454" lon="-3.02411">
        <ele>-5.6304932</ele>
        <time>2011-08-11T16:53:54Z</time>
      </trkpt>
      <trkpt lat="47.34546" lon="-3.02413">
        <ele>-6.5919189</ele>
        <time>2011-08-11T16:54:04Z</time>
      </trkpt>
      <trkpt lat="47.34552" lon="-3.02421">
        <ele>-5.1499023</ele>
        <time>2011-08-11T16:54:14Z</time>
      </trkpt>
      <trkpt lat="47.34555" lon="-3.02429">
        <ele>-5.1499023</ele>
        <time>2011-08-11T16:54:24Z</time>
      </trkpt>
      <trkpt lat="47.34555" lon="-3.02431">
        <ele>-5.6304932</ele>
        <time>2011-08-11T16:54:34Z</time>
      </trkpt>
      <trkpt lat="47.34556" lon="-3.02432">
        <ele>-5.6304932</ele>
        <time>2011-08-11T16:54:44Z</time>
      </trkpt>
      <trkpt lat="47.34555" lon="-3.02432">
        <ele>-5.6304932</ele>
        <time>2011-08-11T16:54:54Z</time>
      </trkpt>
      <trkpt lat="47.34556" lon="-3.02428">
        <ele>-4.6693115</ele>
        <time>2011-08-11T16:55:04Z</time>
      </trkpt>
      <trkpt lat="47.3456" lon="-3.02428">
        <ele>-2.7467041</ele>
        <time>2011-08-11T16:55:14Z</time>
      </trkpt>
      <trkpt lat="47.34568" lon="-3.02442">
        <ele>-1.7852783</ele>
        <time>2011-08-11T16:55:24Z</time>
      </trkpt>
      <trkpt lat="47.34585" lon="-3.0247">
        <ele>-3.7078857</ele>
        <time>2011-08-11T16:55:34Z</time>
      </trkpt>
      <trkpt lat="47.34605" lon="-3.02504">
        <ele>-7.0725098</ele>
        <time>2011-08-11T16:55:44Z</time>
      </trkpt>
      <trkpt lat="47.34623" lon="-3.02544">
        <ele>-8.0339355</ele>
        <time>2011-08-11T16:55:54Z</time>
      </trkpt>
      <trkpt lat="47.34636" lon="-3.02581">
        <ele>-7.5531006</ele>
        <time>2011-08-11T16:56:04Z</time>
      </trkpt>
      <trkpt lat="47.34654" lon="-3.02623">
        <ele>-7.0725098</ele>
        <time>2011-08-11T16:56:15Z</time>
      </trkpt>
      <trkpt lat="47.34679" lon="-3.02677">
        <ele>-7.0725098</ele>
        <time>2011-08-11T16:56:26Z</time>
      </trkpt>
      <trkpt lat="47.34701" lon="-3.0272">
        <ele>-8.9952393</ele>
        <time>2011-08-11T16:56:36Z</time>
      </trkpt>
      <trkpt lat="47.34724" lon="-3.02764">
        <ele>-6.5919189</ele>
        <time>2011-08-11T16:56:46Z</time>
      </trkpt>
      <trkpt lat="47.34749" lon="-3.02806">
        <ele>-6.1112061</ele>
        <time>2011-08-11T16:56:56Z</time>
      </trkpt>
      <trkpt lat="47.34769" lon="-3.02849">
        <ele>-6.1112061</ele>
        <time>2011-08-11T16:57:06Z</time>
      </trkpt>
      <trkpt lat="47.34788" lon="-3.02887">
        <ele>-5.1499023</ele>
        <time>2011-08-11T16:57:16Z</time>
      </trkpt>
      <trkpt lat="47.34805" lon="-3.02926">
        <ele>-4.6693115</ele>
        <time>2011-08-11T16:57:26Z</time>
      </trkpt>
      <trkpt lat="47.34827" lon="-3.02967">
        <ele>-6.5919189</ele>
        <time>2011-08-11T16:57:36Z</time>
      </trkpt>
      <trkpt lat="47.34849" lon="-3.03011">
        <ele>-7.5531006</ele>
        <time>2011-08-11T16:57:46Z</time>
      </trkpt>
      <trkpt lat="47.34875" lon="-3.0305">
        <ele>-5.6304932</ele>
        <time>2011-08-11T16:57:56Z</time>
      </trkpt>
      <trkpt lat="47.34902" lon="-3.03092">
        <ele>-6.5919189</ele>
        <time>2011-08-11T16:58:06Z</time>
      </trkpt>
      <trkpt lat="47.34929" lon="-3.03134">
        <ele>-7.5531006</ele>
        <time>2011-08-11T16:58:16Z</time>
      </trkpt>
      <trkpt lat="47.34949" lon="-3.03175">
        <ele>-6.1112061</ele>
        <time>2011-08-11T16:58:26Z</time>
      </trkpt>
      <trkpt lat="47.34973" lon="-3.03217">
        <ele>-7.0725098</ele>
        <time>2011-08-11T16:58:36Z</time>
      </trkpt>
      <trkpt lat="47.34998" lon="-3.03258">
        <ele>-5.6304932</ele>
        <time>2011-08-11T16:58:46Z</time>
      </trkpt>
      <trkpt lat="47.35024" lon="-3.03296">
        <ele>-5.6304932</ele>
        <time>2011-08-11T16:58:56Z</time>
      </trkpt>
      <trkpt lat="47.35049" lon="-3.03335">
        <ele>-4.6693115</ele>
        <time>2011-08-11T16:59:06Z</time>
      </trkpt>
      <trkpt lat="47.35074" lon="-3.03379">
        <ele>-5.1499023</ele>
        <time>2011-08-11T16:59:16Z</time>
      </trkpt>
      <trkpt lat="47.35092" lon="-3.03423">
        <ele>-6.1112061</ele>
        <time>2011-08-11T16:59:26Z</time>
      </trkpt>
      <trkpt lat="47.35116" lon="-3.03463">
        <ele>-5.1499023</ele>
        <time>2011-08-11T16:59:36Z</time>
      </trkpt>
      <trkpt lat="47.35153" lon="-3.03505">
        <ele>-5.6304932</ele>
        <time>2011-08-11T16:59:46Z</time>
      </trkpt>
      <trkpt lat="47.3519" lon="-3.03541">
        <ele>-6.5919189</ele>
        <time>2011-08-11T16:59:56Z</time>
      </trkpt>
      <trkpt lat="47.35213" lon="-3.03582">
        <ele>-6.1112061</ele>
        <time>2011-08-11T17:00:06Z</time>
      </trkpt>
      <trkpt lat="47.35218" lon="-3.03619">
        <ele>-7.0725098</ele>
        <time>2011-08-11T17:00:16Z</time>
      </trkpt>
      <trkpt lat="47.35223" lon="-3.03648">
        <ele>-7.0725098</ele>
        <time>2011-08-11T17:00:26Z</time>
      </trkpt>
      <trkpt lat="47.35231" lon="-3.03674">
        <ele>-6.5919189</ele>
        <time>2011-08-11T17:00:36Z</time>
      </trkpt>
      <trkpt lat="47.35246" lon="-3.03707">
        <ele>-5.6304932</ele>
        <time>2011-08-11T17:00:46Z</time>
      </trkpt>
      <trkpt lat="47.35265" lon="-3.03744">
        <ele>-3.2272949</ele>
        <time>2011-08-11T17:00:56Z</time>
      </trkpt>
      <trkpt lat="47.35292" lon="-3.03787">
        <ele>-4.1885986</ele>
        <time>2011-08-11T17:01:06Z</time>
      </trkpt>
      <trkpt lat="47.35323" lon="-3.03832">
        <ele>-4.1885986</ele>
        <time>2011-08-11T17:01:16Z</time>
      </trkpt>
      <trkpt lat="47.3536" lon="-3.03874">
        <ele>-4.6693115</ele>
        <time>2011-08-11T17:01:26Z</time>
      </trkpt>
      <trkpt lat="47.35402" lon="-3.03916">
        <ele>-5.1499023</ele>
        <time>2011-08-11T17:01:36Z</time>
      </trkpt>
      <trkpt lat="47.35432" lon="-3.03966">
        <ele>-5.1499023</ele>
        <time>2011-08-11T17:01:46Z</time>
      </trkpt>
      <trkpt lat="47.35454" lon="-3.04013">
        <ele>-5.1499023</ele>
        <time>2011-08-11T17:01:56Z</time>
      </trkpt>
      <trkpt lat="47.35475" lon="-3.04057">
        <ele>-6.1112061</ele>
        <time>2011-08-11T17:02:06Z</time>
      </trkpt>
      <trkpt lat="47.35497" lon="-3.04095">
        <ele>-5.6304932</ele>
        <time>2011-08-11T17:02:16Z</time>
      </trkpt>
      <trkpt lat="47.35528" lon="-3.04139">
        <ele>-6.1112061</ele>
        <time>2011-08-11T17:02:26Z</time>
      </trkpt>
      <trkpt lat="47.35571" lon="-3.04177">
        <ele>-6.1112061</ele>
        <time>2011-08-11T17:02:36Z</time>
      </trkpt>
      <trkpt lat="47.35618" lon="-3.04209">
        <ele>-6.1112061</ele>
        <time>2011-08-11T17:02:46Z</time>
      </trkpt>
      <trkpt lat="47.35654" lon="-3.04251">
        <ele>-5.6304932</ele>
        <time>2011-08-11T17:02:56Z</time>
      </trkpt>
      <trkpt lat="47.35685" lon="-3.04302">
        <ele>-6.1112061</ele>
        <time>2011-08-11T17:03:06Z</time>
      </trkpt>
      <trkpt lat="47.35716" lon="-3.0435">
        <ele>-7.5531006</ele>
        <time>2011-08-11T17:03:16Z</time>
      </trkpt>
      <trkpt lat="47.35751" lon="-3.04397">
        <ele>-7.5531006</ele>
        <time>2011-08-11T17:03:26Z</time>
      </trkpt>
      <trkpt lat="47.35786" lon="-3.04444">
        <ele>-8.0339355</ele>
        <time>2011-08-11T17:03:36Z</time>
      </trkpt>
      <trkpt lat="47.35822" lon="-3.04487">
        <ele>-4.1885986</ele>
        <time>2011-08-11T17:03:46Z</time>
      </trkpt>
      <trkpt lat="47.3586" lon="-3.04531">
        <ele>-3.7078857</ele>
        <time>2011-08-11T17:03:56Z</time>
      </trkpt>
      <trkpt lat="47.359" lon="-3.04566">
        <ele>-2.7467041</ele>
        <time>2011-08-11T17:04:06Z</time>
      </trkpt>
      <trkpt lat="47.35943" lon="-3.04599">
        <ele>-5.1499023</ele>
        <time>2011-08-11T17:04:16Z</time>
      </trkpt>
      <trkpt lat="47.35982" lon="-3.04642">
        <ele>-6.1112061</ele>
        <time>2011-08-11T17:04:26Z</time>
      </trkpt>
      <trkpt lat="47.36016" lon="-3.04689">
        <ele>-7.0725098</ele>
        <time>2011-08-11T17:04:36Z</time>
      </trkpt>
      <trkpt lat="47.36049" lon="-3.04734">
        <ele>-6.1112061</ele>
        <time>2011-08-11T17:04:46Z</time>
      </trkpt>
      <trkpt lat="47.36081" lon="-3.04774">
        <ele>-6.5919189</ele>
        <time>2011-08-11T17:04:56Z</time>
      </trkpt>
      <trkpt lat="47.36112" lon="-3.04816">
        <ele>-7.5531006</ele>
        <time>2011-08-11T17:05:06Z</time>
      </trkpt>
      <trkpt lat="47.36146" lon="-3.04857">
        <ele>-6.5919189</ele>
        <time>2011-08-11T17:05:16Z</time>
      </trkpt>
      <trkpt lat="47.36179" lon="-3.04902">
        <ele>-7.5531006</ele>
        <time>2011-08-11T17:05:26Z</time>
      </trkpt>
      <trkpt lat="47.36207" lon="-3.04947">
        <ele>-8.0339355</ele>
        <time>2011-08-11T17:05:36Z</time>
      </trkpt>
      <trkpt lat="47.36235" lon="-3.04991">
        <ele>-7.5531006</ele>
        <time>2011-08-11T17:05:46Z</time>
      </trkpt>
      <trkpt lat="47.36267" lon="-3.05039">
        <ele>-8.5146484</ele>
        <time>2011-08-11T17:05:56Z</time>
      </trkpt>
      <trkpt lat="47.36299" lon="-3.05089">
        <ele>-8.0339355</ele>
        <time>2011-08-11T17:06:06Z</time>
      </trkpt>
      <trkpt lat="47.36335" lon="-3.05131">
        <ele>-9.4758301</ele>
        <time>2011-08-11T17:06:16Z</time>
      </trkpt>
      <trkpt lat="47.36374" lon="-3.05177">
        <ele>-8.5146484</ele>
        <time>2011-08-11T17:06:26Z</time>
      </trkpt>
      <trkpt lat="47.36418" lon="-3.05217">
        <ele>-8.0339355</ele>
        <time>2011-08-11T17:06:36Z</time>
      </trkpt>
      <trkpt lat="47.36456" lon="-3.05258">
        <ele>-9.4758301</ele>
        <time>2011-08-11T17:06:46Z</time>
      </trkpt>
      <trkpt lat="47.36494" lon="-3.05305">
        <ele>-11.3984375</ele>
        <time>2011-08-11T17:06:56Z</time>
      </trkpt>
      <trkpt lat="47.3653" lon="-3.05355">
        <ele>-10.9178467</ele>
        <time>2011-08-11T17:07:06Z</time>
      </trkpt>
      <trkpt lat="47.36567" lon="-3.05405">
        <ele>-10.4372559</ele>
        <time>2011-08-11T17:07:16Z</time>
      </trkpt>
      <trkpt lat="47.36603" lon="-3.05456">
        <ele>-9.4758301</ele>
        <time>2011-08-11T17:07:26Z</time>
      </trkpt>
      <trkpt lat="47.3664" lon="-3.05509">
        <ele>-13.3210449</ele>
        <time>2011-08-11T17:07:36Z</time>
      </trkpt>
      <trkpt lat="47.36677" lon="-3.05561">
        <ele>-11.3984375</ele>
        <time>2011-08-11T17:07:46Z</time>
      </trkpt>
      <trkpt lat="47.36715" lon="-3.05614">
        <ele>-8.9952393</ele>
        <time>2011-08-11T17:07:56Z</time>
      </trkpt>
      <trkpt lat="47.36752" lon="-3.05663">
        <ele>-8.9952393</ele>
        <time>2011-08-11T17:08:06Z</time>
      </trkpt>
      <trkpt lat="47.36786" lon="-3.05709">
        <ele>-7.0725098</ele>
        <time>2011-08-11T17:08:16Z</time>
      </trkpt>
      <trkpt lat="47.36825" lon="-3.05754">
        <ele>-10.9178467</ele>
        <time>2011-08-11T17:08:26Z</time>
      </trkpt>
      <trkpt lat="47.36857" lon="-3.05802">
        <ele>-9.956543</ele>
        <time>2011-08-11T17:08:36Z</time>
      </trkpt>
      <trkpt lat="47.36887" lon="-3.05852">
        <ele>-4.6693115</ele>
        <time>2011-08-11T17:08:46Z</time>
      </trkpt>
      <trkpt lat="47.36915" lon="-3.05901">
        <ele>-5.6304932</ele>
        <time>2011-08-11T17:08:56Z</time>
      </trkpt>
      <trkpt lat="47.36943" lon="-3.05953">
        <ele>-5.6304932</ele>
        <time>2011-08-11T17:09:06Z</time>
      </trkpt>
      <trkpt lat="47.3697" lon="-3.06001">
        <ele>-5.1499023</ele>
        <time>2011-08-11T17:09:16Z</time>
      </trkpt>
      <trkpt lat="47.36998" lon="-3.06047">
        <ele>-4.6693115</ele>
        <time>2011-08-11T17:09:26Z</time>
      </trkpt>
      <trkpt lat="47.37033" lon="-3.06095">
        <ele>-4.6693115</ele>
        <time>2011-08-11T17:09:36Z</time>
      </trkpt>
      <trkpt lat="47.37069" lon="-3.06144">
        <ele>-4.1885986</ele>
        <time>2011-08-11T17:09:46Z</time>
      </trkpt>
      <trkpt lat="47.371" lon="-3.06193">
        <ele>-1.3046875</ele>
        <time>2011-08-11T17:09:56Z</time>
      </trkpt>
      <trkpt lat="47.37129" lon="-3.06242">
        <ele>-2.2659912</ele>
        <time>2011-08-11T17:10:06Z</time>
      </trkpt>
      <trkpt lat="47.37156" lon="-3.06289">
        <ele>-0.8240967</ele>
        <time>2011-08-11T17:10:16Z</time>
      </trkpt>
      <trkpt lat="47.37187" lon="-3.06341">
        <ele>-0.8240967</ele>
        <time>2011-08-11T17:10:26Z</time>
      </trkpt>
      <trkpt lat="47.37219" lon="-3.06389">
        <ele>-1.3046875</ele>
        <time>2011-08-11T17:10:36Z</time>
      </trkpt>
      <trkpt lat="47.3725" lon="-3.06436">
        <ele>0.1374512</ele>
        <time>2011-08-11T17:10:46Z</time>
      </trkpt>
      <trkpt lat="47.37281" lon="-3.06484">
        <ele>0.618042</ele>
        <time>2011-08-11T17:10:56Z</time>
      </trkpt>
      <trkpt lat="47.37313" lon="-3.06531">
        <ele>0.1374512</ele>
        <time>2011-08-11T17:11:06Z</time>
      </trkpt>
      <trkpt lat="47.37345" lon="-3.0658">
        <ele>-1.3046875</ele>
        <time>2011-08-11T17:11:16Z</time>
      </trkpt>
      <trkpt lat="47.37373" lon="-3.0663">
        <ele>-2.2659912</ele>
        <time>2011-08-11T17:11:26Z</time>
      </trkpt>
      <trkpt lat="47.37401" lon="-3.0668">
        <ele>-1.7852783</ele>
        <time>2011-08-11T17:11:36Z</time>
      </trkpt>
      <trkpt lat="47.37427" lon="-3.06731">
        <ele>-2.7467041</ele>
        <time>2011-08-11T17:11:46Z</time>
      </trkpt>
      <trkpt lat="47.37456" lon="-3.0678">
        <ele>-2.2659912</ele>
        <time>2011-08-11T17:11:56Z</time>
      </trkpt>
      <trkpt lat="47.37486" lon="-3.0683">
        <ele>-1.3046875</ele>
        <time>2011-08-11T17:12:06Z</time>
      </trkpt>
      <trkpt lat="47.37517" lon="-3.06883">
        <ele>0.1374512</ele>
        <time>2011-08-11T17:12:16Z</time>
      </trkpt>
      <trkpt lat="47.37552" lon="-3.06934">
        <ele>-1.7852783</ele>
        <time>2011-08-11T17:12:26Z</time>
      </trkpt>
      <trkpt lat="47.37589" lon="-3.06983">
        <ele>-2.2659912</ele>
        <time>2011-08-11T17:12:36Z</time>
      </trkpt>
      <trkpt lat="47.37622" lon="-3.07031">
        <ele>-3.2272949</ele>
        <time>2011-08-11T17:12:46Z</time>
      </trkpt>
      <trkpt lat="47.37652" lon="-3.07078">
        <ele>-3.7078857</ele>
        <time>2011-08-11T17:12:56Z</time>
      </trkpt>
      <trkpt lat="47.37685" lon="-3.07129">
        <ele>-4.1885986</ele>
        <time>2011-08-11T17:13:06Z</time>
      </trkpt>
      <trkpt lat="47.37717" lon="-3.07183">
        <ele>-3.2272949</ele>
        <time>2011-08-11T17:13:16Z</time>
      </trkpt>
      <trkpt lat="47.37745" lon="-3.07234">
        <ele>-0.3433838</ele>
        <time>2011-08-11T17:13:26Z</time>
      </trkpt>
      <trkpt lat="47.37767" lon="-3.07287">
        <ele>1.0986328</ele>
        <time>2011-08-11T17:13:36Z</time>
      </trkpt>
      <trkpt lat="47.3779" lon="-3.07338">
        <ele>1.0986328</ele>
        <time>2011-08-11T17:13:46Z</time>
      </trkpt>
      <trkpt lat="47.37816" lon="-3.07386">
        <ele>0.1374512</ele>
        <time>2011-08-11T17:13:56Z</time>
      </trkpt>
      <trkpt lat="47.37842" lon="-3.07431">
        <ele>0.1374512</ele>
        <time>2011-08-11T17:14:06Z</time>
      </trkpt>
      <trkpt lat="47.37871" lon="-3.0748">
        <ele>-0.8240967</ele>
        <time>2011-08-11T17:14:16Z</time>
      </trkpt>
      <trkpt lat="47.37903" lon="-3.0753">
        <ele>-1.3046875</ele>
        <time>2011-08-11T17:14:26Z</time>
      </trkpt>
      <trkpt lat="47.3793" lon="-3.07575">
        <ele>-1.7852783</ele>
        <time>2011-08-11T17:14:36Z</time>
      </trkpt>
      <trkpt lat="47.37954" lon="-3.07619">
        <ele>-1.3046875</ele>
        <time>2011-08-11T17:14:46Z</time>
      </trkpt>
      <trkpt lat="47.37982" lon="-3.07663">
        <ele>-0.3433838</ele>
        <time>2011-08-11T17:14:56Z</time>
      </trkpt>
      <trkpt lat="47.38013" lon="-3.07711">
        <ele>-2.2659912</ele>
        <time>2011-08-11T17:15:06Z</time>
      </trkpt>
      <trkpt lat="47.38043" lon="-3.07756">
        <ele>-1.7852783</ele>
        <time>2011-08-11T17:15:16Z</time>
      </trkpt>
      <trkpt lat="47.38074" lon="-3.07802">
        <ele>-1.7852783</ele>
        <time>2011-08-11T17:15:26Z</time>
      </trkpt>
      <trkpt lat="47.38102" lon="-3.07851">
        <ele>-1.7852783</ele>
        <time>2011-08-11T17:15:36Z</time>
      </trkpt>
      <trkpt lat="47.38132" lon="-3.07895">
        <ele>-1.7852783</ele>
        <time>2011-08-11T17:15:46Z</time>
      </trkpt>
      <trkpt lat="47.38165" lon="-3.07943">
        <ele>-1.3046875</ele>
        <time>2011-08-11T17:15:56Z</time>
      </trkpt>
      <trkpt lat="47.38201" lon="-3.07989">
        <ele>-1.7852783</ele>
        <time>2011-08-11T17:16:06Z</time>
      </trkpt>
      <trkpt lat="47.38236" lon="-3.08029">
        <ele>-1.3046875</ele>
        <time>2011-08-11T17:16:16Z</time>
      </trkpt>
      <trkpt lat="47.3826" lon="-3.08077">
        <ele>-2.2659912</ele>
        <time>2011-08-11T17:16:26Z</time>
      </trkpt>
      <trkpt lat="47.38281" lon="-3.08122">
        <ele>-2.7467041</ele>
        <time>2011-08-11T17:16:36Z</time>
      </trkpt>
      <trkpt lat="47.38302" lon="-3.08167">
        <ele>-2.2659912</ele>
        <time>2011-08-11T17:16:46Z</time>
      </trkpt>
      <trkpt lat="47.38327" lon="-3.08214">
        <ele>-3.2272949</ele>
        <time>2011-08-11T17:16:56Z</time>
      </trkpt>
      <trkpt lat="47.38354" lon="-3.08259">
        <ele>-1.3046875</ele>
        <time>2011-08-11T17:17:06Z</time>
      </trkpt>
      <trkpt lat="47.38382" lon="-3.08307">
        <ele>-1.7852783</ele>
        <time>2011-08-11T17:17:16Z</time>
      </trkpt>
      <trkpt lat="47.38406" lon="-3.08352">
        <ele>-1.3046875</ele>
        <time>2011-08-11T17:17:26Z</time>
      </trkpt>
      <trkpt lat="47.38432" lon="-3.08395">
        <ele>-2.7467041</ele>
        <time>2011-08-11T17:17:36Z</time>
      </trkpt>
      <trkpt lat="47.38458" lon="-3.08436">
        <ele>-1.7852783</ele>
        <time>2011-08-11T17:17:46Z</time>
      </trkpt>
      <trkpt lat="47.38485" lon="-3.0848">
        <ele>-1.7852783</ele>
        <time>2011-08-11T17:17:56Z</time>
      </trkpt>
      <trkpt lat="47.38512" lon="-3.08525">
        <ele>-2.7467041</ele>
        <time>2011-08-11T17:18:06Z</time>
      </trkpt>
      <trkpt lat="47.3854" lon="-3.0857">
        <ele>-3.7078857</ele>
        <time>2011-08-11T17:18:16Z</time>
      </trkpt>
      <trkpt lat="47.38574" lon="-3.08617">
        <ele>-4.1885986</ele>
        <time>2011-08-11T17:18:26Z</time>
      </trkpt>
      <trkpt lat="47.38606" lon="-3.08667">
        <ele>-4.1885986</ele>
        <time>2011-08-11T17:18:36Z</time>
      </trkpt>
      <trkpt lat="47.38634" lon="-3.0872">
        <ele>-4.1885986</ele>
        <time>2011-08-11T17:18:46Z</time>
      </trkpt>
      <trkpt lat="47.38655" lon="-3.08771">
        <ele>-4.1885986</ele>
        <time>2011-08-11T17:18:56Z</time>
      </trkpt>
      <trkpt lat="47.3868" lon="-3.08825">
        <ele>-4.6693115</ele>
        <time>2011-08-11T17:19:06Z</time>
      </trkpt>
      <trkpt lat="47.38712" lon="-3.08884">
        <ele>-3.2272949</ele>
        <time>2011-08-11T17:19:16Z</time>
      </trkpt>
      <trkpt lat="47.38739" lon="-3.0894">
        <ele>-2.2659912</ele>
        <time>2011-08-11T17:19:26Z</time>
      </trkpt>
      <trkpt lat="47.38767" lon="-3.08994">
        <ele>-1.7852783</ele>
        <time>2011-08-11T17:19:36Z</time>
      </trkpt>
      <trkpt lat="47.3879" lon="-3.09048">
        <ele>-3.2272949</ele>
        <time>2011-08-11T17:19:46Z</time>
      </trkpt>
      <trkpt lat="47.3881" lon="-3.09094">
        <ele>-4.1885986</ele>
        <time>2011-08-11T17:19:56Z</time>
      </trkpt>
      <trkpt lat="47.38835" lon="-3.09141">
        <ele>-3.7078857</ele>
        <time>2011-08-11T17:20:06Z</time>
      </trkpt>
      <trkpt lat="47.38863" lon="-3.09188">
        <ele>-2.7467041</ele>
        <time>2011-08-11T17:20:16Z</time>
      </trkpt>
      <trkpt lat="47.389" lon="-3.09236">
        <ele>-3.7078857</ele>
        <time>2011-08-11T17:20:26Z</time>
      </trkpt>
      <trkpt lat="47.3893" lon="-3.09289">
        <ele>-3.7078857</ele>
        <time>2011-08-11T17:20:36Z</time>
      </trkpt>
      <trkpt lat="47.38956" lon="-3.09334">
        <ele>-5.6304932</ele>
        <time>2011-08-11T17:20:46Z</time>
      </trkpt>
      <trkpt lat="47.38983" lon="-3.09379">
        <ele>-5.1499023</ele>
        <time>2011-08-11T17:20:56Z</time>
      </trkpt>
      <trkpt lat="47.39014" lon="-3.09425">
        <ele>-4.6693115</ele>
        <time>2011-08-11T17:21:06Z</time>
      </trkpt>
      <trkpt lat="47.39042" lon="-3.09477">
        <ele>-3.2272949</ele>
        <time>2011-08-11T17:21:16Z</time>
      </trkpt>
      <trkpt lat="47.39069" lon="-3.09531">
        <ele>-3.2272949</ele>
        <time>2011-08-11T17:21:26Z</time>
      </trkpt>
      <trkpt lat="47.39093" lon="-3.09587">
        <ele>-2.2659912</ele>
        <time>2011-08-11T17:21:36Z</time>
      </trkpt>
      <trkpt lat="47.39115" lon="-3.09644">
        <ele>-2.2659912</ele>
        <time>2011-08-11T17:21:46Z</time>
      </trkpt>
      <trkpt lat="47.39137" lon="-3.09693">
        <ele>-3.7078857</ele>
        <time>2011-08-11T17:21:56Z</time>
      </trkpt>
      <trkpt lat="47.39163" lon="-3.09744">
        <ele>-5.1499023</ele>
        <time>2011-08-11T17:22:06Z</time>
      </trkpt>
      <trkpt lat="47.39194" lon="-3.09795">
        <ele>-4.6693115</ele>
        <time>2011-08-11T17:22:16Z</time>
      </trkpt>
      <trkpt lat="47.39226" lon="-3.09851">
        <ele>-4.6693115</ele>
        <time>2011-08-11T17:22:26Z</time>
      </trkpt>
      <trkpt lat="47.39258" lon="-3.09902">
        <ele>-5.1499023</ele>
        <time>2011-08-11T17:22:36Z</time>
      </trkpt>
      <trkpt lat="47.39288" lon="-3.09952">
        <ele>-4.1885986</ele>
        <time>2011-08-11T17:22:46Z</time>
      </trkpt>
      <trkpt lat="47.39319" lon="-3.10005">
        <ele>-4.1885986</ele>
        <time>2011-08-11T17:22:56Z</time>
      </trkpt>
      <trkpt lat="47.3935" lon="-3.10057">
        <ele>-3.7078857</ele>
        <time>2011-08-11T17:23:06Z</time>
      </trkpt>
      <trkpt lat="47.39383" lon="-3.10104">
        <ele>-4.1885986</ele>
        <time>2011-08-11T17:23:16Z</time>
      </trkpt>
      <trkpt lat="47.39416" lon="-3.10154">
        <ele>-4.6693115</ele>
        <time>2011-08-11T17:23:26Z</time>
      </trkpt>
      <trkpt lat="47.39451" lon="-3.10202">
        <ele>-5.6304932</ele>
        <time>2011-08-11T17:23:36Z</time>
      </trkpt>
      <trkpt lat="47.3949" lon="-3.10254">
        <ele>-4.6693115</ele>
        <time>2011-08-11T17:23:46Z</time>
      </trkpt>
      <trkpt lat="47.39523" lon="-3.10306">
        <ele>-5.1499023</ele>
        <time>2011-08-11T17:23:56Z</time>
      </trkpt>
      <trkpt lat="47.39553" lon="-3.10355">
        <ele>-6.1112061</ele>
        <time>2011-08-11T17:24:06Z</time>
      </trkpt>
      <trkpt lat="47.39584" lon="-3.10405">
        <ele>-7.5531006</ele>
        <time>2011-08-11T17:24:16Z</time>
      </trkpt>
      <trkpt lat="47.39618" lon="-3.10451">
        <ele>-5.6304932</ele>
        <time>2011-08-11T17:24:26Z</time>
      </trkpt>
      <trkpt lat="47.39656" lon="-3.10497">
        <ele>-3.7078857</ele>
        <time>2011-08-11T17:24:36Z</time>
      </trkpt>
      <trkpt lat="47.3969" lon="-3.10547">
        <ele>-4.6693115</ele>
        <time>2011-08-11T17:24:46Z</time>
      </trkpt>
      <trkpt lat="47.3971" lon="-3.10602">
        <ele>-4.6693115</ele>
        <time>2011-08-11T17:24:56Z</time>
      </trkpt>
      <trkpt lat="47.39724" lon="-3.10652">
        <ele>-1.3046875</ele>
        <time>2011-08-11T17:25:06Z</time>
      </trkpt>
      <trkpt lat="47.39743" lon="-3.10694">
        <ele>-2.2659912</ele>
        <time>2011-08-11T17:25:16Z</time>
      </trkpt>
      <trkpt lat="47.39772" lon="-3.10737">
        <ele>-2.2659912</ele>
        <time>2011-08-11T17:25:26Z</time>
      </trkpt>
      <trkpt lat="47.39808" lon="-3.10783">
        <ele>-1.3046875</ele>
        <time>2011-08-11T17:25:36Z</time>
      </trkpt>
      <trkpt lat="47.39851" lon="-3.10827">
        <ele>-0.8240967</ele>
        <time>2011-08-11T17:25:46Z</time>
      </trkpt>
      <trkpt lat="47.3989" lon="-3.10884">
        <ele>-0.3433838</ele>
        <time>2011-08-11T17:25:56Z</time>
      </trkpt>
      <trkpt lat="47.39932" lon="-3.10932">
        <ele>-0.3433838</ele>
        <time>2011-08-11T17:26:06Z</time>
      </trkpt>
      <trkpt lat="47.3997" lon="-3.10986">
        <ele>-1.3046875</ele>
        <time>2011-08-11T17:26:16Z</time>
      </trkpt>
      <trkpt lat="47.4" lon="-3.11045">
        <ele>-1.3046875</ele>
        <time>2011-08-11T17:26:26Z</time>
      </trkpt>
      <trkpt lat="47.40026" lon="-3.11101">
        <ele>-0.8240967</ele>
        <time>2011-08-11T17:26:36Z</time>
      </trkpt>
      <trkpt lat="47.40051" lon="-3.1115">
        <ele>-0.3433838</ele>
        <time>2011-08-11T17:26:46Z</time>
      </trkpt>
      <trkpt lat="47.40074" lon="-3.11196">
        <ele>-0.3433838</ele>
        <time>2011-08-11T17:26:56Z</time>
      </trkpt>
      <trkpt lat="47.40107" lon="-3.11249">
        <ele>0.1374512</ele>
        <time>2011-08-11T17:27:06Z</time>
      </trkpt>
      <trkpt lat="47.40153" lon="-3.11303">
        <ele>0.618042</ele>
        <time>2011-08-11T17:27:16Z</time>
      </trkpt>
      <trkpt lat="47.40184" lon="-3.11363">
        <ele>2.0600586</ele>
        <time>2011-08-11T17:27:26Z</time>
      </trkpt>
      <trkpt lat="47.40216" lon="-3.11412">
        <ele>3.5019531</ele>
        <time>2011-08-11T17:27:36Z</time>
      </trkpt>
      <trkpt lat="47.40248" lon="-3.11462">
        <ele>4.9438477</ele>
        <time>2011-08-11T17:27:46Z</time>
      </trkpt>
      <trkpt lat="47.40283" lon="-3.11514">
        <ele>5.4245605</ele>
        <time>2011-08-11T17:27:56Z</time>
      </trkpt>
      <trkpt lat="47.40317" lon="-3.11573">
        <ele>5.9052734</ele>
        <time>2011-08-11T17:28:06Z</time>
      </trkpt>
      <trkpt lat="47.40355" lon="-3.11623">
        <ele>5.4245605</ele>
        <time>2011-08-11T17:28:16Z</time>
      </trkpt>
      <trkpt lat="47.40394" lon="-3.11669">
        <ele>2.5406494</ele>
        <time>2011-08-11T17:28:26Z</time>
      </trkpt>
      <trkpt lat="47.40429" lon="-3.11718">
        <ele>2.5406494</ele>
        <time>2011-08-11T17:28:36Z</time>
      </trkpt>
      <trkpt lat="47.40465" lon="-3.11769">
        <ele>1.0986328</ele>
        <time>2011-08-11T17:28:46Z</time>
      </trkpt>
      <trkpt lat="47.40497" lon="-3.11821">
        <ele>-0.8240967</ele>
        <time>2011-08-11T17:28:56Z</time>
      </trkpt>
      <trkpt lat="47.40524" lon="-3.11881">
        <ele>-3.7078857</ele>
        <time>2011-08-11T17:29:06Z</time>
      </trkpt>
      <trkpt lat="47.40554" lon="-3.11933">
        <ele>-4.1885986</ele>
        <time>2011-08-11T17:29:16Z</time>
      </trkpt>
      <trkpt lat="47.40588" lon="-3.11982">
        <ele>-4.6693115</ele>
        <time>2011-08-11T17:29:26Z</time>
      </trkpt>
      <trkpt lat="47.40622" lon="-3.12033">
        <ele>-5.1499023</ele>
        <time>2011-08-11T17:29:36Z</time>
      </trkpt>
      <trkpt lat="47.40651" lon="-3.12086">
        <ele>-3.7078857</ele>
        <time>2011-08-11T17:29:46Z</time>
      </trkpt>
      <trkpt lat="47.40682" lon="-3.12136">
        <ele>-3.2272949</ele>
        <time>2011-08-11T17:29:56Z</time>
      </trkpt>
      <trkpt lat="47.40716" lon="-3.12189">
        <ele>-2.7467041</ele>
        <time>2011-08-11T17:30:06Z</time>
      </trkpt>
      <trkpt lat="47.40745" lon="-3.12241">
        <ele>-0.8240967</ele>
        <time>2011-08-11T17:30:16Z</time>
      </trkpt>
      <trkpt lat="47.40768" lon="-3.12293">
        <ele>1.0986328</ele>
        <time>2011-08-11T17:30:26Z</time>
      </trkpt>
      <trkpt lat="47.40794" lon="-3.12339">
        <ele>3.5019531</ele>
        <time>2011-08-11T17:30:36Z</time>
      </trkpt>
      <trkpt lat="47.40823" lon="-3.12391">
        <ele>4.9438477</ele>
        <time>2011-08-11T17:30:46Z</time>
      </trkpt>
      <trkpt lat="47.40862" lon="-3.12437">
        <ele>5.9052734</ele>
        <time>2011-08-11T17:30:56Z</time>
      </trkpt>
      <trkpt lat="47.40898" lon="-3.12494">
        <ele>5.9052734</ele>
        <time>2011-08-11T17:31:06Z</time>
      </trkpt>
      <trkpt lat="47.40928" lon="-3.12549">
        <ele>4.4632568</ele>
        <time>2011-08-11T17:31:16Z</time>
      </trkpt>
      <trkpt lat="47.40959" lon="-3.12599">
        <ele>3.5019531</ele>
        <time>2011-08-11T17:31:26Z</time>
      </trkpt>
      <trkpt lat="47.41001" lon="-3.12648">
        <ele>-0.8240967</ele>
        <time>2011-08-11T17:31:36Z</time>
      </trkpt>
      <trkpt lat="47.41044" lon="-3.12697">
        <ele>-3.2272949</ele>
        <time>2011-08-11T17:31:46Z</time>
      </trkpt>
      <trkpt lat="47.41083" lon="-3.12748">
        <ele>-3.2272949</ele>
        <time>2011-08-11T17:31:56Z</time>
      </trkpt>
      <trkpt lat="47.41115" lon="-3.12801">
        <ele>-2.2659912</ele>
        <time>2011-08-11T17:32:06Z</time>
      </trkpt>
      <trkpt lat="47.41145" lon="-3.1285">
        <ele>-2.2659912</ele>
        <time>2011-08-11T17:32:16Z</time>
      </trkpt>
      <trkpt lat="47.41173" lon="-3.12904">
        <ele>-1.3046875</ele>
        <time>2011-08-11T17:32:26Z</time>
      </trkpt>
      <trkpt lat="47.41205" lon="-3.12955">
        <ele>0.1374512</ele>
        <time>2011-08-11T17:32:36Z</time>
      </trkpt>
      <trkpt lat="47.41231" lon="-3.13005">
        <ele>2.0600586</ele>
        <time>2011-08-11T17:32:46Z</time>
      </trkpt>
      <trkpt lat="47.41262" lon="-3.13059">
        <ele>2.0600586</ele>
        <time>2011-08-11T17:32:56Z</time>
      </trkpt>
      <trkpt lat="47.41295" lon="-3.13109">
        <ele>-0.3433838</ele>
        <time>2011-08-11T17:33:06Z</time>
      </trkpt>
      <trkpt lat="47.41325" lon="-3.13161">
        <ele>2.5406494</ele>
        <time>2011-08-11T17:33:16Z</time>
      </trkpt>
      <trkpt lat="47.41358" lon="-3.13214">
        <ele>0.618042</ele>
        <time>2011-08-11T17:33:26Z</time>
      </trkpt>
      <trkpt lat="47.41392" lon="-3.13268">
        <ele>-1.3046875</ele>
        <time>2011-08-11T17:33:36Z</time>
      </trkpt>
      <trkpt lat="47.41431" lon="-3.13323">
        <ele>-4.6693115</ele>
        <time>2011-08-11T17:33:46Z</time>
      </trkpt>
      <trkpt lat="47.41464" lon="-3.13375">
        <ele>-7.0725098</ele>
        <time>2011-08-11T17:33:56Z</time>
      </trkpt>
      <trkpt lat="47.41493" lon="-3.13428">
        <ele>-4.1885986</ele>
        <time>2011-08-11T17:34:06Z</time>
      </trkpt>
      <trkpt lat="47.41517" lon="-3.13478">
        <ele>-3.2272949</ele>
        <time>2011-08-11T17:34:16Z</time>
      </trkpt>
      <trkpt lat="47.41552" lon="-3.13529">
        <ele>-2.7467041</ele>
        <time>2011-08-11T17:34:26Z</time>
      </trkpt>
      <trkpt lat="47.41586" lon="-3.13586">
        <ele>-4.1885986</ele>
        <time>2011-08-11T17:34:36Z</time>
      </trkpt>
      <trkpt lat="47.41622" lon="-3.13637">
        <ele>-4.6693115</ele>
        <time>2011-08-11T17:34:46Z</time>
      </trkpt>
      <trkpt lat="47.41653" lon="-3.13689">
        <ele>-1.3046875</ele>
        <time>2011-08-11T17:34:56Z</time>
      </trkpt>
      <trkpt lat="47.41674" lon="-3.13742">
        <ele>-1.3046875</ele>
        <time>2011-08-11T17:35:06Z</time>
      </trkpt>
      <trkpt lat="47.41707" lon="-3.13791">
        <ele>-1.7852783</ele>
        <time>2011-08-11T17:35:16Z</time>
      </trkpt>
      <trkpt lat="47.41747" lon="-3.13843">
        <ele>-1.7852783</ele>
        <time>2011-08-11T17:35:26Z</time>
      </trkpt>
      <trkpt lat="47.41791" lon="-3.13898">
        <ele>-1.7852783</ele>
        <time>2011-08-11T17:35:36Z</time>
      </trkpt>
      <trkpt lat="47.41827" lon="-3.13954">
        <ele>-1.3046875</ele>
        <time>2011-08-11T17:35:46Z</time>
      </trkpt>
      <trkpt lat="47.41859" lon="-3.14013">
        <ele>-1.3046875</ele>
        <time>2011-08-11T17:35:56Z</time>
      </trkpt>
      <trkpt lat="47.4189" lon="-3.14071">
        <ele>-1.3046875</ele>
        <time>2011-08-11T17:36:06Z</time>
      </trkpt>
      <trkpt lat="47.41929" lon="-3.14118">
        <ele>-2.7467041</ele>
        <time>2011-08-11T17:36:16Z</time>
      </trkpt>
      <trkpt lat="47.41972" lon="-3.14172">
        <ele>-0.8240967</ele>
        <time>2011-08-11T17:36:26Z</time>
      </trkpt>
      <trkpt lat="47.42023" lon="-3.14227">
        <ele>-1.7852783</ele>
        <time>2011-08-11T17:36:36Z</time>
      </trkpt>
      <trkpt lat="47.42064" lon="-3.14283">
        <ele>-1.7852783</ele>
        <time>2011-08-11T17:36:46Z</time>
      </trkpt>
      <trkpt lat="47.42096" lon="-3.14339">
        <ele>-1.3046875</ele>
        <time>2011-08-11T17:36:56Z</time>
      </trkpt>
      <trkpt lat="47.42124" lon="-3.14394">
        <ele>-0.3433838</ele>
        <time>2011-08-11T17:37:06Z</time>
      </trkpt>
      <trkpt lat="47.4216" lon="-3.1444">
        <ele>-2.2659912</ele>
        <time>2011-08-11T17:37:16Z</time>
      </trkpt>
      <trkpt lat="47.42201" lon="-3.14492">
        <ele>-5.1499023</ele>
        <time>2011-08-11T17:37:26Z</time>
      </trkpt>
      <trkpt lat="47.42233" lon="-3.14548">
        <ele>-8.0339355</ele>
        <time>2011-08-11T17:37:36Z</time>
      </trkpt>
      <trkpt lat="47.42267" lon="-3.14602">
        <ele>-9.956543</ele>
        <time>2011-08-11T17:37:46Z</time>
      </trkpt>
      <trkpt lat="47.42308" lon="-3.14658">
        <ele>-10.4372559</ele>
        <time>2011-08-11T17:37:56Z</time>
      </trkpt>
      <trkpt lat="47.42349" lon="-3.14712">
        <ele>-9.4758301</ele>
        <time>2011-08-11T17:38:06Z</time>
      </trkpt>
      <trkpt lat="47.42395" lon="-3.14759">
        <ele>-9.4758301</ele>
        <time>2011-08-11T17:38:16Z</time>
      </trkpt>
      <trkpt lat="47.42439" lon="-3.14808">
        <ele>-8.9952393</ele>
        <time>2011-08-11T17:38:26Z</time>
      </trkpt>
      <trkpt lat="47.42485" lon="-3.1486">
        <ele>-8.5146484</ele>
        <time>2011-08-11T17:38:36Z</time>
      </trkpt>
      <trkpt lat="47.42531" lon="-3.14915">
        <ele>-6.1112061</ele>
        <time>2011-08-11T17:38:46Z</time>
      </trkpt>
      <trkpt lat="47.42571" lon="-3.14973">
        <ele>-4.1885986</ele>
        <time>2011-08-11T17:38:56Z</time>
      </trkpt>
      <trkpt lat="47.42606" lon="-3.1503">
        <ele>-3.7078857</ele>
        <time>2011-08-11T17:39:06Z</time>
      </trkpt>
      <trkpt lat="47.42639" lon="-3.15086">
        <ele>-4.1885986</ele>
        <time>2011-08-11T17:39:16Z</time>
      </trkpt>
      <trkpt lat="47.42674" lon="-3.15138">
        <ele>-4.6693115</ele>
        <time>2011-08-11T17:39:26Z</time>
      </trkpt>
      <trkpt lat="47.4271" lon="-3.15193">
        <ele>-2.7467041</ele>
        <time>2011-08-11T17:39:36Z</time>
      </trkpt>
      <trkpt lat="47.42746" lon="-3.15246">
        <ele>-2.2659912</ele>
        <time>2011-08-11T17:39:46Z</time>
      </trkpt>
      <trkpt lat="47.42785" lon="-3.15298">
        <ele>0.1374512</ele>
        <time>2011-08-11T17:39:56Z</time>
      </trkpt>
      <trkpt lat="47.42825" lon="-3.1535">
        <ele>-0.3433838</ele>
        <time>2011-08-11T17:40:06Z</time>
      </trkpt>
      <trkpt lat="47.42863" lon="-3.15402">
        <ele>-2.2659912</ele>
        <time>2011-08-11T17:40:16Z</time>
      </trkpt>
      <trkpt lat="47.42897" lon="-3.15455">
        <ele>-2.2659912</ele>
        <time>2011-08-11T17:40:26Z</time>
      </trkpt>
      <trkpt lat="47.42928" lon="-3.15506">
        <ele>-2.2659912</ele>
        <time>2011-08-11T17:40:36Z</time>
      </trkpt>
      <trkpt lat="47.4296" lon="-3.1555">
        <ele>-1.7852783</ele>
        <time>2011-08-11T17:40:46Z</time>
      </trkpt>
      <trkpt lat="47.42994" lon="-3.156">
        <ele>-1.7852783</ele>
        <time>2011-08-11T17:40:56Z</time>
      </trkpt>
      <trkpt lat="47.43027" lon="-3.15654">
        <ele>-1.7852783</ele>
        <time>2011-08-11T17:41:06Z</time>
      </trkpt>
      <trkpt lat="47.43053" lon="-3.15704">
        <ele>-1.3046875</ele>
        <time>2011-08-11T17:41:16Z</time>
      </trkpt>
      <trkpt lat="47.43077" lon="-3.15752">
        <ele>-1.7852783</ele>
        <time>2011-08-11T17:41:26Z</time>
      </trkpt>
      <trkpt lat="47.43103" lon="-3.158">
        <ele>-2.7467041</ele>
        <time>2011-08-11T17:41:36Z</time>
      </trkpt>
      <trkpt lat="47.43128" lon="-3.15852">
        <ele>-1.3046875</ele>
        <time>2011-08-11T17:41:46Z</time>
      </trkpt>
      <trkpt lat="47.43157" lon="-3.159">
        <ele>-1.3046875</ele>
        <time>2011-08-11T17:41:56Z</time>
      </trkpt>
      <trkpt lat="47.4318" lon="-3.15948">
        <ele>-3.7078857</ele>
        <time>2011-08-11T17:42:06Z</time>
      </trkpt>
      <trkpt lat="47.43207" lon="-3.15994">
        <ele>-6.1112061</ele>
        <time>2011-08-11T17:42:16Z</time>
      </trkpt>
      <trkpt lat="47.43239" lon="-3.16043">
        <ele>-7.5531006</ele>
        <time>2011-08-11T17:42:26Z</time>
      </trkpt>
      <trkpt lat="47.43273" lon="-3.16095">
        <ele>-9.4758301</ele>
        <time>2011-08-11T17:42:36Z</time>
      </trkpt>
      <trkpt lat="47.43304" lon="-3.16142">
        <ele>-12.3598633</ele>
        <time>2011-08-11T17:42:46Z</time>
      </trkpt>
      <trkpt lat="47.43336" lon="-3.16192">
        <ele>-13.8017578</ele>
        <time>2011-08-11T17:42:56Z</time>
      </trkpt>
      <trkpt lat="47.43366" lon="-3.16244">
        <ele>-13.8017578</ele>
        <time>2011-08-11T17:43:06Z</time>
      </trkpt>
      <trkpt lat="47.43395" lon="-3.16295">
        <ele>-12.8404541</ele>
        <time>2011-08-11T17:43:16Z</time>
      </trkpt>
      <trkpt lat="47.43425" lon="-3.16349">
        <ele>-12.3598633</ele>
        <time>2011-08-11T17:43:26Z</time>
      </trkpt>
      <trkpt lat="47.43458" lon="-3.16399">
        <ele>-11.8791504</ele>
        <time>2011-08-11T17:43:36Z</time>
      </trkpt>
      <trkpt lat="47.43494" lon="-3.16454">
        <ele>-11.8791504</ele>
        <time>2011-08-11T17:43:46Z</time>
      </trkpt>
      <trkpt lat="47.43523" lon="-3.16505">
        <ele>-9.4758301</ele>
        <time>2011-08-11T17:43:56Z</time>
      </trkpt>
      <trkpt lat="47.43556" lon="-3.16558">
        <ele>-8.9952393</ele>
        <time>2011-08-11T17:44:06Z</time>
      </trkpt>
      <trkpt lat="47.43585" lon="-3.16608">
        <ele>-8.5146484</ele>
        <time>2011-08-11T17:44:16Z</time>
      </trkpt>
      <trkpt lat="47.43621" lon="-3.16661">
        <ele>-6.1112061</ele>
        <time>2011-08-11T17:44:26Z</time>
      </trkpt>
      <trkpt lat="47.43651" lon="-3.16713">
        <ele>-4.6693115</ele>
        <time>2011-08-11T17:44:36Z</time>
      </trkpt>
      <trkpt lat="47.4368" lon="-3.16762">
        <ele>-6.1112061</ele>
        <time>2011-08-11T17:44:46Z</time>
      </trkpt>
      <trkpt lat="47.43705" lon="-3.16814">
        <ele>-7.0725098</ele>
        <time>2011-08-11T17:44:56Z</time>
      </trkpt>
      <trkpt lat="47.43723" lon="-3.16861">
        <ele>-6.1112061</ele>
        <time>2011-08-11T17:45:06Z</time>
      </trkpt>
      <trkpt lat="47.43742" lon="-3.169">
        <ele>-7.0725098</ele>
        <time>2011-08-11T17:45:16Z</time>
      </trkpt>
      <trkpt lat="47.43768" lon="-3.16945">
        <ele>-8.0339355</ele>
        <time>2011-08-11T17:45:26Z</time>
      </trkpt>
      <trkpt lat="47.43802" lon="-3.16996">
        <ele>-8.9952393</ele>
        <time>2011-08-11T17:45:36Z</time>
      </trkpt>
      <trkpt lat="47.43842" lon="-3.17042">
        <ele>-10.4372559</ele>
        <time>2011-08-11T17:45:46Z</time>
      </trkpt>
      <trkpt lat="47.43883" lon="-3.17093">
        <ele>-8.9952393</ele>
        <time>2011-08-11T17:45:56Z</time>
      </trkpt>
      <trkpt lat="47.4392" lon="-3.17148">
        <ele>-10.4372559</ele>
        <time>2011-08-11T17:46:06Z</time>
      </trkpt>
      <trkpt lat="47.43961" lon="-3.17205">
        <ele>-10.9178467</ele>
        <time>2011-08-11T17:46:16Z</time>
      </trkpt>
      <trkpt lat="47.44003" lon="-3.17254">
        <ele>-10.9178467</ele>
        <time>2011-08-11T17:46:26Z</time>
      </trkpt>
      <trkpt lat="47.44043" lon="-3.1731">
        <ele>-11.8791504</ele>
        <time>2011-08-11T17:46:36Z</time>
      </trkpt>
      <trkpt lat="47.44081" lon="-3.17358">
        <ele>-12.3598633</ele>
        <time>2011-08-11T17:46:46Z</time>
      </trkpt>
      <trkpt lat="47.44118" lon="-3.17413">
        <ele>-12.3598633</ele>
        <time>2011-08-11T17:46:56Z</time>
      </trkpt>
      <trkpt lat="47.44149" lon="-3.1747">
        <ele>-12.3598633</ele>
        <time>2011-08-11T17:47:06Z</time>
      </trkpt>
      <trkpt lat="47.44184" lon="-3.17521">
        <ele>-12.8404541</ele>
        <time>2011-08-11T17:47:16Z</time>
      </trkpt>
      <trkpt lat="47.44218" lon="-3.17574">
        <ele>-11.8791504</ele>
        <time>2011-08-11T17:47:26Z</time>
      </trkpt>
      <trkpt lat="47.44253" lon="-3.17626">
        <ele>-10.4372559</ele>
        <time>2011-08-11T17:47:36Z</time>
      </trkpt>
      <trkpt lat="47.44288" lon="-3.17678">
        <ele>-7.5531006</ele>
        <time>2011-08-11T17:47:46Z</time>
      </trkpt>
      <trkpt lat="47.44319" lon="-3.17735">
        <ele>-8.0339355</ele>
        <time>2011-08-11T17:47:56Z</time>
      </trkpt>
      <trkpt lat="47.44353" lon="-3.17785">
        <ele>-6.5919189</ele>
        <time>2011-08-11T17:48:06Z</time>
      </trkpt>
      <trkpt lat="47.44394" lon="-3.17835">
        <ele>-4.6693115</ele>
        <time>2011-08-11T17:48:16Z</time>
      </trkpt>
      <trkpt lat="47.4443" lon="-3.1789">
        <ele>-4.6693115</ele>
        <time>2011-08-11T17:48:26Z</time>
      </trkpt>
      <trkpt lat="47.44465" lon="-3.17942">
        <ele>-5.6304932</ele>
        <time>2011-08-11T17:48:36Z</time>
      </trkpt>
      <trkpt lat="47.44501" lon="-3.17999">
        <ele>-3.2272949</ele>
        <time>2011-08-11T17:48:46Z</time>
      </trkpt>
      <trkpt lat="47.44538" lon="-3.18054">
        <ele>-2.2659912</ele>
        <time>2011-08-11T17:48:56Z</time>
      </trkpt>
      <trkpt lat="47.44574" lon="-3.18102">
        <ele>-2.2659912</ele>
        <time>2011-08-11T17:49:06Z</time>
      </trkpt>
      <trkpt lat="47.44618" lon="-3.18153">
        <ele>-4.1885986</ele>
        <time>2011-08-11T17:49:16Z</time>
      </trkpt>
      <trkpt lat="47.44654" lon="-3.18203">
        <ele>-5.6304932</ele>
        <time>2011-08-11T17:49:26Z</time>
      </trkpt>
      <trkpt lat="47.44685" lon="-3.18257">
        <ele>-5.1499023</ele>
        <time>2011-08-11T17:49:36Z</time>
      </trkpt>
      <trkpt lat="47.44715" lon="-3.18308">
        <ele>-6.1112061</ele>
        <time>2011-08-11T17:49:46Z</time>
      </trkpt>
      <trkpt lat="47.44746" lon="-3.18358">
        <ele>-5.6304932</ele>
        <time>2011-08-11T17:49:56Z</time>
      </trkpt>
      <trkpt lat="47.4478" lon="-3.18408">
        <ele>-3.7078857</ele>
        <time>2011-08-11T17:50:06Z</time>
      </trkpt>
      <trkpt lat="47.44812" lon="-3.18462">
        <ele>-3.7078857</ele>
        <time>2011-08-11T17:50:16Z</time>
      </trkpt>
      <trkpt lat="47.44837" lon="-3.18517">
        <ele>-3.7078857</ele>
        <time>2011-08-11T17:50:26Z</time>
      </trkpt>
      <trkpt lat="47.44868" lon="-3.18567">
        <ele>-3.7078857</ele>
        <time>2011-08-11T17:50:36Z</time>
      </trkpt>
      <trkpt lat="47.44902" lon="-3.18617">
        <ele>-4.6693115</ele>
        <time>2011-08-11T17:50:46Z</time>
      </trkpt>
      <trkpt lat="47.44936" lon="-3.18669">
        <ele>-4.6693115</ele>
        <time>2011-08-11T17:50:56Z</time>
      </trkpt>
      <trkpt lat="47.44964" lon="-3.18718">
        <ele>-4.6693115</ele>
        <time>2011-08-11T17:51:06Z</time>
      </trkpt>
      <trkpt lat="47.44994" lon="-3.18768">
        <ele>-3.7078857</ele>
        <time>2011-08-11T17:51:16Z</time>
      </trkpt>
      <trkpt lat="47.45019" lon="-3.18822">
        <ele>-4.1885986</ele>
        <time>2011-08-11T17:51:26Z</time>
      </trkpt>
      <trkpt lat="47.45047" lon="-3.18872">
        <ele>-4.6693115</ele>
        <time>2011-08-11T17:51:36Z</time>
      </trkpt>
      <trkpt lat="47.45069" lon="-3.18923">
        <ele>-4.1885986</ele>
        <time>2011-08-11T17:51:46Z</time>
      </trkpt>
      <trkpt lat="47.45103" lon="-3.1899">
        <ele>-2.2659912</ele>
        <time>2011-08-11T17:51:59Z</time>
      </trkpt>
      <trkpt lat="47.4513" lon="-3.1904">
        <ele>-4.6693115</ele>
        <time>2011-08-11T17:52:09Z</time>
      </trkpt>
      <trkpt lat="47.45158" lon="-3.19091">
        <ele>-5.1499023</ele>
        <time>2011-08-11T17:52:19Z</time>
      </trkpt>
      <trkpt lat="47.45186" lon="-3.1914">
        <ele>-5.1499023</ele>
        <time>2011-08-11T17:52:29Z</time>
      </trkpt>
      <trkpt lat="47.45222" lon="-3.19193">
        <ele>-3.7078857</ele>
        <time>2011-08-11T17:52:39Z</time>
      </trkpt>
      <trkpt lat="47.45255" lon="-3.19244">
        <ele>-5.6304932</ele>
        <time>2011-08-11T17:52:49Z</time>
      </trkpt>
      <trkpt lat="47.45281" lon="-3.193">
        <ele>-4.6693115</ele>
        <time>2011-08-11T17:52:59Z</time>
      </trkpt>
      <trkpt lat="47.45305" lon="-3.19353">
        <ele>-4.1885986</ele>
        <time>2011-08-11T17:53:09Z</time>
      </trkpt>
      <trkpt lat="47.45327" lon="-3.19405">
        <ele>-5.1499023</ele>
        <time>2011-08-11T17:53:19Z</time>
      </trkpt>
      <trkpt lat="47.4535" lon="-3.19462">
        <ele>-5.1499023</ele>
        <time>2011-08-11T17:53:30Z</time>
      </trkpt>
      <trkpt lat="47.45372" lon="-3.19517">
        <ele>-5.6304932</ele>
        <time>2011-08-11T17:53:41Z</time>
      </trkpt>
      <trkpt lat="47.45393" lon="-3.19568">
        <ele>-6.1112061</ele>
        <time>2011-08-11T17:53:51Z</time>
      </trkpt>
      <trkpt lat="47.45421" lon="-3.19621">
        <ele>-6.5919189</ele>
        <time>2011-08-11T17:54:01Z</time>
      </trkpt>
      <trkpt lat="47.45451" lon="-3.19672">
        <ele>-6.5919189</ele>
        <time>2011-08-11T17:54:11Z</time>
      </trkpt>
      <trkpt lat="47.45475" lon="-3.19727">
        <ele>-6.1112061</ele>
        <time>2011-08-11T17:54:21Z</time>
      </trkpt>
      <trkpt lat="47.45499" lon="-3.1978">
        <ele>-5.6304932</ele>
        <time>2011-08-11T17:54:31Z</time>
      </trkpt>
      <trkpt lat="47.45522" lon="-3.19832">
        <ele>-6.5919189</ele>
        <time>2011-08-11T17:54:41Z</time>
      </trkpt>
      <trkpt lat="47.45545" lon="-3.19883">
        <ele>-4.1885986</ele>
        <time>2011-08-11T17:54:51Z</time>
      </trkpt>
      <trkpt lat="47.45566" lon="-3.19934">
        <ele>-5.6304932</ele>
        <time>2011-08-11T17:55:01Z</time>
      </trkpt>
      <trkpt lat="47.45589" lon="-3.19985">
        <ele>-5.1499023</ele>
        <time>2011-08-11T17:55:11Z</time>
      </trkpt>
      <trkpt lat="47.4561" lon="-3.20035">
        <ele>-4.6693115</ele>
        <time>2011-08-11T17:55:21Z</time>
      </trkpt>
      <trkpt lat="47.45636" lon="-3.20097">
        <ele>-5.1499023</ele>
        <time>2011-08-11T17:55:33Z</time>
      </trkpt>
      <trkpt lat="47.45665" lon="-3.20162">
        <ele>-5.6304932</ele>
        <time>2011-08-11T17:55:46Z</time>
      </trkpt>
      <trkpt lat="47.45688" lon="-3.20211">
        <ele>-8.9952393</ele>
        <time>2011-08-11T17:55:56Z</time>
      </trkpt>
      <trkpt lat="47.45708" lon="-3.20258">
        <ele>-8.0339355</ele>
        <time>2011-08-11T17:56:06Z</time>
      </trkpt>
      <trkpt lat="47.45729" lon="-3.20308">
        <ele>-8.0339355</ele>
        <time>2011-08-11T17:56:16Z</time>
      </trkpt>
      <trkpt lat="47.45749" lon="-3.20358">
        <ele>-8.0339355</ele>
        <time>2011-08-11T17:56:26Z</time>
      </trkpt>
      <trkpt lat="47.45771" lon="-3.20405">
        <ele>-7.0725098</ele>
        <time>2011-08-11T17:56:36Z</time>
      </trkpt>
      <trkpt lat="47.45792" lon="-3.20454">
        <ele>-6.5919189</ele>
        <time>2011-08-11T17:56:46Z</time>
      </trkpt>
      <trkpt lat="47.45815" lon="-3.20503">
        <ele>-6.5919189</ele>
        <time>2011-08-11T17:56:56Z</time>
      </trkpt>
      <trkpt lat="47.45844" lon="-3.20555">
        <ele>-7.0725098</ele>
        <time>2011-08-11T17:57:06Z</time>
      </trkpt>
      <trkpt lat="47.45876" lon="-3.20601">
        <ele>-7.0725098</ele>
        <time>2011-08-11T17:57:16Z</time>
      </trkpt>
      <trkpt lat="47.45917" lon="-3.20645">
        <ele>-8.0339355</ele>
        <time>2011-08-11T17:57:26Z</time>
      </trkpt>
      <trkpt lat="47.45966" lon="-3.20691">
        <ele>-2.7467041</ele>
        <time>2011-08-11T17:57:36Z</time>
      </trkpt>
      <trkpt lat="47.46016" lon="-3.20729">
        <ele>-2.7467041</ele>
        <time>2011-08-11T17:57:46Z</time>
      </trkpt>
      <trkpt lat="47.46066" lon="-3.20763">
        <ele>-4.1885986</ele>
        <time>2011-08-11T17:57:56Z</time>
      </trkpt>
      <trkpt lat="47.46115" lon="-3.20795">
        <ele>-6.1112061</ele>
        <time>2011-08-11T17:58:06Z</time>
      </trkpt>
      <trkpt lat="47.46164" lon="-3.20825">
        <ele>-8.0339355</ele>
        <time>2011-08-11T17:58:16Z</time>
      </trkpt>
      <trkpt lat="47.46205" lon="-3.20867">
        <ele>-8.5146484</ele>
        <time>2011-08-11T17:58:26Z</time>
      </trkpt>
      <trkpt lat="47.46239" lon="-3.20921">
        <ele>-8.9952393</ele>
        <time>2011-08-11T17:58:36Z</time>
      </trkpt>
      <trkpt lat="47.46273" lon="-3.20976">
        <ele>-8.9952393</ele>
        <time>2011-08-11T17:58:46Z</time>
      </trkpt>
      <trkpt lat="47.46308" lon="-3.21024">
        <ele>-10.9178467</ele>
        <time>2011-08-11T17:58:56Z</time>
      </trkpt>
      <trkpt lat="47.46348" lon="-3.21072">
        <ele>-11.3984375</ele>
        <time>2011-08-11T17:59:06Z</time>
      </trkpt>
      <trkpt lat="47.46385" lon="-3.21124">
        <ele>-13.3210449</ele>
        <time>2011-08-11T17:59:16Z</time>
      </trkpt>
      <trkpt lat="47.46425" lon="-3.21176">
        <ele>-12.3598633</ele>
        <time>2011-08-11T17:59:26Z</time>
      </trkpt>
      <trkpt lat="47.46465" lon="-3.21221">
        <ele>-11.8791504</ele>
        <time>2011-08-11T17:59:36Z</time>
      </trkpt>
      <trkpt lat="47.46509" lon="-3.21266">
        <ele>-13.3210449</ele>
        <time>2011-08-11T17:59:46Z</time>
      </trkpt>
      <trkpt lat="47.46555" lon="-3.21313">
        <ele>-9.956543</ele>
        <time>2011-08-11T17:59:56Z</time>
      </trkpt>
      <trkpt lat="47.46596" lon="-3.21364">
        <ele>-8.0339355</ele>
        <time>2011-08-11T18:00:06Z</time>
      </trkpt>
      <trkpt lat="47.46636" lon="-3.21411">
        <ele>-8.9952393</ele>
        <time>2011-08-11T18:00:16Z</time>
      </trkpt>
      <trkpt lat="47.46682" lon="-3.2145">
        <ele>-9.4758301</ele>
        <time>2011-08-11T18:00:26Z</time>
      </trkpt>
      <trkpt lat="47.46728" lon="-3.2149">
        <ele>-5.1499023</ele>
        <time>2011-08-11T18:00:36Z</time>
      </trkpt>
      <trkpt lat="47.46769" lon="-3.21537">
        <ele>-6.1112061</ele>
        <time>2011-08-11T18:00:46Z</time>
      </trkpt>
      <trkpt lat="47.46808" lon="-3.21586">
        <ele>-4.1885986</ele>
        <time>2011-08-11T18:00:56Z</time>
      </trkpt>
      <trkpt lat="47.46846" lon="-3.21634">
        <ele>-4.6693115</ele>
        <time>2011-08-11T18:01:06Z</time>
      </trkpt>
      <trkpt lat="47.46882" lon="-3.21684">
        <ele>-2.2659912</ele>
        <time>2011-08-11T18:01:16Z</time>
      </trkpt>
      <trkpt lat="47.46916" lon="-3.21738">
        <ele>-3.7078857</ele>
        <time>2011-08-11T18:01:26Z</time>
      </trkpt>
      <trkpt lat="47.46948" lon="-3.2179">
        <ele>-8.0339355</ele>
        <time>2011-08-11T18:01:36Z</time>
      </trkpt>
      <trkpt lat="47.46985" lon="-3.21839">
        <ele>-8.5146484</ele>
        <time>2011-08-11T18:01:46Z</time>
      </trkpt>
      <trkpt lat="47.47028" lon="-3.21887">
        <ele>-5.1499023</ele>
        <time>2011-08-11T18:01:56Z</time>
      </trkpt>
      <trkpt lat="47.47071" lon="-3.21934">
        <ele>-4.1885986</ele>
        <time>2011-08-11T18:02:06Z</time>
      </trkpt>
      <trkpt lat="47.47109" lon="-3.21983">
        <ele>-5.6304932</ele>
        <time>2011-08-11T18:02:16Z</time>
      </trkpt>
      <trkpt lat="47.47141" lon="-3.22036">
        <ele>-5.6304932</ele>
        <time>2011-08-11T18:02:26Z</time>
      </trkpt>
      <trkpt lat="47.47172" lon="-3.22087">
        <ele>-7.0725098</ele>
        <time>2011-08-11T18:02:36Z</time>
      </trkpt>
      <trkpt lat="47.47208" lon="-3.22138">
        <ele>-9.956543</ele>
        <time>2011-08-11T18:02:46Z</time>
      </trkpt>
      <trkpt lat="47.4725" lon="-3.22184">
        <ele>-6.5919189</ele>
        <time>2011-08-11T18:02:56Z</time>
      </trkpt>
      <trkpt lat="47.47296" lon="-3.22228">
        <ele>-7.5531006</ele>
        <time>2011-08-11T18:03:06Z</time>
      </trkpt>
      <trkpt lat="47.47336" lon="-3.22273">
        <ele>-10.4372559</ele>
        <time>2011-08-11T18:03:16Z</time>
      </trkpt>
      <trkpt lat="47.47381" lon="-3.22316">
        <ele>-4.1885986</ele>
        <time>2011-08-11T18:03:26Z</time>
      </trkpt>
      <trkpt lat="47.47425" lon="-3.22357">
        <ele>-4.6693115</ele>
        <time>2011-08-11T18:03:36Z</time>
      </trkpt>
      <trkpt lat="47.47463" lon="-3.22404">
        <ele>-4.1885986</ele>
        <time>2011-08-11T18:03:46Z</time>
      </trkpt>
      <trkpt lat="47.47499" lon="-3.22454">
        <ele>-7.0725098</ele>
        <time>2011-08-11T18:03:56Z</time>
      </trkpt>
      <trkpt lat="47.47543" lon="-3.22495">
        <ele>-6.1112061</ele>
        <time>2011-08-11T18:04:06Z</time>
      </trkpt>
      <trkpt lat="47.47586" lon="-3.22537">
        <ele>-6.5919189</ele>
        <time>2011-08-11T18:04:16Z</time>
      </trkpt>
      <trkpt lat="47.47634" lon="-3.22578">
        <ele>-4.6693115</ele>
        <time>2011-08-11T18:04:26Z</time>
      </trkpt>
      <trkpt lat="47.47681" lon="-3.22616">
        <ele>-5.1499023</ele>
        <time>2011-08-11T18:04:36Z</time>
      </trkpt>
      <trkpt lat="47.47719" lon="-3.2266">
        <ele>-5.1499023</ele>
        <time>2011-08-11T18:04:46Z</time>
      </trkpt>
      <trkpt lat="47.47745" lon="-3.2271">
        <ele>-6.1112061</ele>
        <time>2011-08-11T18:04:56Z</time>
      </trkpt>
      <trkpt lat="47.47778" lon="-3.22759">
        <ele>-6.5919189</ele>
        <time>2011-08-11T18:05:06Z</time>
      </trkpt>
      <trkpt lat="47.47812" lon="-3.2281">
        <ele>-5.6304932</ele>
        <time>2011-08-11T18:05:16Z</time>
      </trkpt>
      <trkpt lat="47.47848" lon="-3.22859">
        <ele>-5.1499023</ele>
        <time>2011-08-11T18:05:26Z</time>
      </trkpt>
      <trkpt lat="47.47888" lon="-3.22906">
        <ele>-3.7078857</ele>
        <time>2011-08-11T18:05:36Z</time>
      </trkpt>
      <trkpt lat="47.4793" lon="-3.22953">
        <ele>-3.7078857</ele>
        <time>2011-08-11T18:05:46Z</time>
      </trkpt>
      <trkpt lat="47.47972" lon="-3.23">
        <ele>-3.2272949</ele>
        <time>2011-08-11T18:05:56Z</time>
      </trkpt>
      <trkpt lat="47.48012" lon="-3.2305">
        <ele>-3.2272949</ele>
        <time>2011-08-11T18:06:06Z</time>
      </trkpt>
      <trkpt lat="47.48053" lon="-3.23099">
        <ele>-1.7852783</ele>
        <time>2011-08-11T18:06:16Z</time>
      </trkpt>
      <trkpt lat="47.48092" lon="-3.23147">
        <ele>-2.7467041</ele>
        <time>2011-08-11T18:06:26Z</time>
      </trkpt>
      <trkpt lat="47.48136" lon="-3.23194">
        <ele>-1.7852783</ele>
        <time>2011-08-11T18:06:36Z</time>
      </trkpt>
      <trkpt lat="47.4818" lon="-3.2324">
        <ele>-4.6693115</ele>
        <time>2011-08-11T18:06:46Z</time>
      </trkpt>
      <trkpt lat="47.48219" lon="-3.23287">
        <ele>-7.0725098</ele>
        <time>2011-08-11T18:06:56Z</time>
      </trkpt>
      <trkpt lat="47.48252" lon="-3.23338">
        <ele>-6.5919189</ele>
        <time>2011-08-11T18:07:06Z</time>
      </trkpt>
      <trkpt lat="47.48283" lon="-3.2339">
        <ele>-7.5531006</ele>
        <time>2011-08-11T18:07:16Z</time>
      </trkpt>
      <trkpt lat="47.48318" lon="-3.23438">
        <ele>-9.956543</ele>
        <time>2011-08-11T18:07:26Z</time>
      </trkpt>
      <trkpt lat="47.48363" lon="-3.23483">
        <ele>-8.9952393</ele>
        <time>2011-08-11T18:07:36Z</time>
      </trkpt>
      <trkpt lat="47.4841" lon="-3.23527">
        <ele>-7.0725098</ele>
        <time>2011-08-11T18:07:46Z</time>
      </trkpt>
      <trkpt lat="47.48459" lon="-3.23566">
        <ele>-8.0339355</ele>
        <time>2011-08-11T18:07:56Z</time>
      </trkpt>
      <trkpt lat="47.48505" lon="-3.23606">
        <ele>-8.9952393</ele>
        <time>2011-08-11T18:08:06Z</time>
      </trkpt>
      <trkpt lat="47.48553" lon="-3.23645">
        <ele>-8.9952393</ele>
        <time>2011-08-11T18:08:16Z</time>
      </trkpt>
      <trkpt lat="47.48596" lon="-3.23686">
        <ele>-8.0339355</ele>
        <time>2011-08-11T18:08:26Z</time>
      </trkpt>
      <trkpt lat="47.48631" lon="-3.23738">
        <ele>-8.0339355</ele>
        <time>2011-08-11T18:08:36Z</time>
      </trkpt>
      <trkpt lat="47.4867" lon="-3.23785">
        <ele>-5.6304932</ele>
        <time>2011-08-11T18:08:46Z</time>
      </trkpt>
      <trkpt lat="47.48709" lon="-3.23835">
        <ele>-1.3046875</ele>
        <time>2011-08-11T18:08:56Z</time>
      </trkpt>
      <trkpt lat="47.48753" lon="-3.23879">
        <ele>-4.1885986</ele>
        <time>2011-08-11T18:09:06Z</time>
      </trkpt>
      <trkpt lat="47.48797" lon="-3.23927">
        <ele>-5.6304932</ele>
        <time>2011-08-11T18:09:16Z</time>
      </trkpt>
      <trkpt lat="47.48838" lon="-3.23975">
        <ele>-7.5531006</ele>
        <time>2011-08-11T18:09:26Z</time>
      </trkpt>
      <trkpt lat="47.48882" lon="-3.24013">
        <ele>-11.8791504</ele>
        <time>2011-08-11T18:09:36Z</time>
      </trkpt>
      <trkpt lat="47.48926" lon="-3.24052">
        <ele>-8.9952393</ele>
        <time>2011-08-11T18:09:46Z</time>
      </trkpt>
      <trkpt lat="47.48968" lon="-3.24094">
        <ele>-5.1499023</ele>
        <time>2011-08-11T18:09:56Z</time>
      </trkpt>
      <trkpt lat="47.49013" lon="-3.24138">
        <ele>-6.5919189</ele>
        <time>2011-08-11T18:10:06Z</time>
      </trkpt>
      <trkpt lat="47.4906" lon="-3.24181">
        <ele>-9.956543</ele>
        <time>2011-08-11T18:10:16Z</time>
      </trkpt>
      <trkpt lat="47.49106" lon="-3.24226">
        <ele>-8.0339355</ele>
        <time>2011-08-11T18:10:26Z</time>
      </trkpt>
      <trkpt lat="47.49147" lon="-3.24277">
        <ele>-11.3984375</ele>
        <time>2011-08-11T18:10:36Z</time>
      </trkpt>
      <trkpt lat="47.4919" lon="-3.24314">
        <ele>-11.3984375</ele>
        <time>2011-08-11T18:10:46Z</time>
      </trkpt>
      <trkpt lat="47.49235" lon="-3.24358">
        <ele>-10.4372559</ele>
        <time>2011-08-11T18:10:56Z</time>
      </trkpt>
      <trkpt lat="47.49282" lon="-3.24404">
        <ele>-11.3984375</ele>
        <time>2011-08-11T18:11:06Z</time>
      </trkpt>
      <trkpt lat="47.49326" lon="-3.24453">
        <ele>-10.4372559</ele>
        <time>2011-08-11T18:11:16Z</time>
      </trkpt>
      <trkpt lat="47.49369" lon="-3.24498">
        <ele>-9.4758301</ele>
        <time>2011-08-11T18:11:26Z</time>
      </trkpt>
      <trkpt lat="47.49398" lon="-3.24551">
        <ele>-9.956543</ele>
        <time>2011-08-11T18:11:36Z</time>
      </trkpt>
      <trkpt lat="47.49427" lon="-3.24604">
        <ele>-8.5146484</ele>
        <time>2011-08-11T18:11:46Z</time>
      </trkpt>
      <trkpt lat="47.49462" lon="-3.24655">
        <ele>-8.0339355</ele>
        <time>2011-08-11T18:11:56Z</time>
      </trkpt>
      <trkpt lat="47.49502" lon="-3.24703">
        <ele>-6.1112061</ele>
        <time>2011-08-11T18:12:06Z</time>
      </trkpt>
      <trkpt lat="47.49546" lon="-3.24746">
        <ele>-5.1499023</ele>
        <time>2011-08-11T18:12:16Z</time>
      </trkpt>
      <trkpt lat="47.49592" lon="-3.24795">
        <ele>-3.2272949</ele>
        <time>2011-08-11T18:12:26Z</time>
      </trkpt>
      <trkpt lat="47.49633" lon="-3.24844">
        <ele>-2.7467041</ele>
        <time>2011-08-11T18:12:36Z</time>
      </trkpt>
      <trkpt lat="47.49674" lon="-3.24894">
        <ele>-4.6693115</ele>
        <time>2011-08-11T18:12:46Z</time>
      </trkpt>
      <trkpt lat="47.4972" lon="-3.24937">
        <ele>-3.2272949</ele>
        <time>2011-08-11T18:12:56Z</time>
      </trkpt>
      <trkpt lat="47.49765" lon="-3.24982">
        <ele>-1.7852783</ele>
        <time>2011-08-11T18:13:06Z</time>
      </trkpt>
      <trkpt lat="47.49814" lon="-3.25025">
        <ele>-1.3046875</ele>
        <time>2011-08-11T18:13:16Z</time>
      </trkpt>
      <trkpt lat="47.49864" lon="-3.25058">
        <ele>-2.7467041</ele>
        <time>2011-08-11T18:13:26Z</time>
      </trkpt>
      <trkpt lat="47.49906" lon="-3.25101">
        <ele>-3.2272949</ele>
        <time>2011-08-11T18:13:36Z</time>
      </trkpt>
      <trkpt lat="47.49946" lon="-3.25147">
        <ele>-7.0725098</ele>
        <time>2011-08-11T18:13:46Z</time>
      </trkpt>
      <trkpt lat="47.49981" lon="-3.252">
        <ele>-7.0725098</ele>
        <time>2011-08-11T18:13:56Z</time>
      </trkpt>
      <trkpt lat="47.50019" lon="-3.25251">
        <ele>-8.0339355</ele>
        <time>2011-08-11T18:14:06Z</time>
      </trkpt>
      <trkpt lat="47.50054" lon="-3.25307">
        <ele>-8.5146484</ele>
        <time>2011-08-11T18:14:16Z</time>
      </trkpt>
      <trkpt lat="47.5009" lon="-3.25357">
        <ele>-9.956543</ele>
        <time>2011-08-11T18:14:26Z</time>
      </trkpt>
      <trkpt lat="47.50133" lon="-3.25399">
        <ele>-9.956543</ele>
        <time>2011-08-11T18:14:36Z</time>
      </trkpt>
      <trkpt lat="47.50176" lon="-3.25445">
        <ele>-8.5146484</ele>
        <time>2011-08-11T18:14:46Z</time>
      </trkpt>
      <trkpt lat="47.50212" lon="-3.25496">
        <ele>-5.6304932</ele>
        <time>2011-08-11T18:14:56Z</time>
      </trkpt>
      <trkpt lat="47.50248" lon="-3.25547">
        <ele>-8.5146484</ele>
        <time>2011-08-11T18:15:06Z</time>
      </trkpt>
      <trkpt lat="47.50289" lon="-3.2559">
        <ele>-7.0725098</ele>
        <time>2011-08-11T18:15:16Z</time>
      </trkpt>
      <trkpt lat="47.50331" lon="-3.25635">
        <ele>-5.6304932</ele>
        <time>2011-08-11T18:15:26Z</time>
      </trkpt>
      <trkpt lat="47.50367" lon="-3.25683">
        <ele>-5.6304932</ele>
        <time>2011-08-11T18:15:36Z</time>
      </trkpt>
      <trkpt lat="47.50406" lon="-3.25729">
        <ele>-6.5919189</ele>
        <time>2011-08-11T18:15:46Z</time>
      </trkpt>
      <trkpt lat="47.50447" lon="-3.25776">
        <ele>-7.0725098</ele>
        <time>2011-08-11T18:15:56Z</time>
      </trkpt>
      <trkpt lat="47.50487" lon="-3.25822">
        <ele>-6.5919189</ele>
        <time>2011-08-11T18:16:06Z</time>
      </trkpt>
      <trkpt lat="47.50526" lon="-3.2587">
        <ele>-6.5919189</ele>
        <time>2011-08-11T18:16:16Z</time>
      </trkpt>
      <trkpt lat="47.5056" lon="-3.25918">
        <ele>-7.0725098</ele>
        <time>2011-08-11T18:16:26Z</time>
      </trkpt>
      <trkpt lat="47.50597" lon="-3.25964">
        <ele>-8.0339355</ele>
        <time>2011-08-11T18:16:36Z</time>
      </trkpt>
      <trkpt lat="47.50625" lon="-3.26014">
        <ele>-9.4758301</ele>
        <time>2011-08-11T18:16:46Z</time>
      </trkpt>
      <trkpt lat="47.50653" lon="-3.26063">
        <ele>-9.4758301</ele>
        <time>2011-08-11T18:16:56Z</time>
      </trkpt>
      <trkpt lat="47.5069" lon="-3.2611">
        <ele>-9.956543</ele>
        <time>2011-08-11T18:17:06Z</time>
      </trkpt>
      <trkpt lat="47.50731" lon="-3.26156">
        <ele>-8.5146484</ele>
        <time>2011-08-11T18:17:16Z</time>
      </trkpt>
      <trkpt lat="47.50769" lon="-3.26197">
        <ele>-12.3598633</ele>
        <time>2011-08-11T18:17:26Z</time>
      </trkpt>
      <trkpt lat="47.5081" lon="-3.26243">
        <ele>-13.3210449</ele>
        <time>2011-08-11T18:17:36Z</time>
      </trkpt>
      <trkpt lat="47.5085" lon="-3.26288">
        <ele>-13.8017578</ele>
        <time>2011-08-11T18:17:46Z</time>
      </trkpt>
      <trkpt lat="47.50897" lon="-3.26334">
        <ele>-10.9178467</ele>
        <time>2011-08-11T18:17:56Z</time>
      </trkpt>
      <trkpt lat="47.50934" lon="-3.26383">
        <ele>-8.5146484</ele>
        <time>2011-08-11T18:18:06Z</time>
      </trkpt>
      <trkpt lat="47.50968" lon="-3.2643">
        <ele>-8.5146484</ele>
        <time>2011-08-11T18:18:16Z</time>
      </trkpt>
      <trkpt lat="47.51002" lon="-3.26479">
        <ele>-7.5531006</ele>
        <time>2011-08-11T18:18:26Z</time>
      </trkpt>
      <trkpt lat="47.51039" lon="-3.26529">
        <ele>-7.0725098</ele>
        <time>2011-08-11T18:18:36Z</time>
      </trkpt>
      <trkpt lat="47.51077" lon="-3.26576">
        <ele>-7.5531006</ele>
        <time>2011-08-11T18:18:46Z</time>
      </trkpt>
      <trkpt lat="47.51123" lon="-3.26617">
        <ele>-4.1885986</ele>
        <time>2011-08-11T18:18:56Z</time>
      </trkpt>
      <trkpt lat="47.5117" lon="-3.26658">
        <ele>-5.6304932</ele>
        <time>2011-08-11T18:19:06Z</time>
      </trkpt>
      <trkpt lat="47.51215" lon="-3.26698">
        <ele>-5.6304932</ele>
        <time>2011-08-11T18:19:16Z</time>
      </trkpt>
      <trkpt lat="47.5126" lon="-3.26737">
        <ele>-6.1112061</ele>
        <time>2011-08-11T18:19:26Z</time>
      </trkpt>
      <trkpt lat="47.51305" lon="-3.26776">
        <ele>-9.956543</ele>
        <time>2011-08-11T18:19:36Z</time>
      </trkpt>
      <trkpt lat="47.51352" lon="-3.26822">
        <ele>-10.9178467</ele>
        <time>2011-08-11T18:19:46Z</time>
      </trkpt>
      <trkpt lat="47.51395" lon="-3.26866">
        <ele>-12.3598633</ele>
        <time>2011-08-11T18:19:56Z</time>
      </trkpt>
      <trkpt lat="47.51437" lon="-3.26913">
        <ele>-11.8791504</ele>
        <time>2011-08-11T18:20:06Z</time>
      </trkpt>
      <trkpt lat="47.51475" lon="-3.26958">
        <ele>-10.9178467</ele>
        <time>2011-08-11T18:20:16Z</time>
      </trkpt>
      <trkpt lat="47.51507" lon="-3.27011">
        <ele>-8.5146484</ele>
        <time>2011-08-11T18:20:26Z</time>
      </trkpt>
      <trkpt lat="47.51536" lon="-3.27062">
        <ele>-7.5531006</ele>
        <time>2011-08-11T18:20:36Z</time>
      </trkpt>
      <trkpt lat="47.51566" lon="-3.27114">
        <ele>-4.6693115</ele>
        <time>2011-08-11T18:20:46Z</time>
      </trkpt>
      <trkpt lat="47.51598" lon="-3.27161">
        <ele>-3.7078857</ele>
        <time>2011-08-11T18:20:56Z</time>
      </trkpt>
      <trkpt lat="47.51627" lon="-3.27215">
        <ele>-3.2272949</ele>
        <time>2011-08-11T18:21:06Z</time>
      </trkpt>
      <trkpt lat="47.51659" lon="-3.27269">
        <ele>-2.7467041</ele>
        <time>2011-08-11T18:21:16Z</time>
      </trkpt>
      <trkpt lat="47.51694" lon="-3.27319">
        <ele>-2.2659912</ele>
        <time>2011-08-11T18:21:26Z</time>
      </trkpt>
      <trkpt lat="47.5173" lon="-3.27369">
        <ele>-2.2659912</ele>
        <time>2011-08-11T18:21:36Z</time>
      </trkpt>
      <trkpt lat="47.51764" lon="-3.27418">
        <ele>-1.7852783</ele>
        <time>2011-08-11T18:21:46Z</time>
      </trkpt>
      <trkpt lat="47.51799" lon="-3.2747">
        <ele>-1.7852783</ele>
        <time>2011-08-11T18:21:56Z</time>
      </trkpt>
      <trkpt lat="47.51835" lon="-3.2752">
        <ele>-2.7467041</ele>
        <time>2011-08-11T18:22:06Z</time>
      </trkpt>
      <trkpt lat="47.51868" lon="-3.27574">
        <ele>-0.8240967</ele>
        <time>2011-08-11T18:22:16Z</time>
      </trkpt>
      <trkpt lat="47.51898" lon="-3.27623">
        <ele>-2.7467041</ele>
        <time>2011-08-11T18:22:26Z</time>
      </trkpt>
      <trkpt lat="47.51933" lon="-3.27674">
        <ele>-3.7078857</ele>
        <time>2011-08-11T18:22:36Z</time>
      </trkpt>
      <trkpt lat="47.51975" lon="-3.27721">
        <ele>-4.6693115</ele>
        <time>2011-08-11T18:22:46Z</time>
      </trkpt>
      <trkpt lat="47.52016" lon="-3.27768">
        <ele>-4.1885986</ele>
        <time>2011-08-11T18:22:56Z</time>
      </trkpt>
      <trkpt lat="47.52053" lon="-3.27819">
        <ele>-3.2272949</ele>
        <time>2011-08-11T18:23:06Z</time>
      </trkpt>
      <trkpt lat="47.52089" lon="-3.2787">
        <ele>-2.2659912</ele>
        <time>2011-08-11T18:23:16Z</time>
      </trkpt>
      <trkpt lat="47.52122" lon="-3.2792">
        <ele>0.1374512</ele>
        <time>2011-08-11T18:23:26Z</time>
      </trkpt>
      <trkpt lat="47.52153" lon="-3.27972">
        <ele>-1.3046875</ele>
        <time>2011-08-11T18:23:36Z</time>
      </trkpt>
      <trkpt lat="47.52181" lon="-3.28024">
        <ele>-1.3046875</ele>
        <time>2011-08-11T18:23:46Z</time>
      </trkpt>
      <trkpt lat="47.5221" lon="-3.28075">
        <ele>-1.7852783</ele>
        <time>2011-08-11T18:23:56Z</time>
      </trkpt>
      <trkpt lat="47.52239" lon="-3.28123">
        <ele>-1.7852783</ele>
        <time>2011-08-11T18:24:06Z</time>
      </trkpt>
      <trkpt lat="47.52274" lon="-3.28171">
        <ele>-4.1885986</ele>
        <time>2011-08-11T18:24:16Z</time>
      </trkpt>
      <trkpt lat="47.52315" lon="-3.2822">
        <ele>-3.7078857</ele>
        <time>2011-08-11T18:24:26Z</time>
      </trkpt>
      <trkpt lat="47.52352" lon="-3.28272">
        <ele>-3.7078857</ele>
        <time>2011-08-11T18:24:36Z</time>
      </trkpt>
      <trkpt lat="47.52386" lon="-3.28324">
        <ele>-3.7078857</ele>
        <time>2011-08-11T18:24:46Z</time>
      </trkpt>
      <trkpt lat="47.52419" lon="-3.28372">
        <ele>-4.1885986</ele>
        <time>2011-08-11T18:24:56Z</time>
      </trkpt>
      <trkpt lat="47.52454" lon="-3.28423">
        <ele>-4.6693115</ele>
        <time>2011-08-11T18:25:06Z</time>
      </trkpt>
      <trkpt lat="47.52496" lon="-3.28476">
        <ele>-3.2272949</ele>
        <time>2011-08-11T18:25:16Z</time>
      </trkpt>
      <trkpt lat="47.52533" lon="-3.28529">
        <ele>-2.7467041</ele>
        <time>2011-08-11T18:25:26Z</time>
      </trkpt>
      <trkpt lat="47.52565" lon="-3.28581">
        <ele>-2.7467041</ele>
        <time>2011-08-11T18:25:36Z</time>
      </trkpt>
      <trkpt lat="47.52602" lon="-3.28631">
        <ele>-2.2659912</ele>
        <time>2011-08-11T18:25:46Z</time>
      </trkpt>
      <trkpt lat="47.52638" lon="-3.28681">
        <ele>-3.2272949</ele>
        <time>2011-08-11T18:25:56Z</time>
      </trkpt>
      <trkpt lat="47.52677" lon="-3.2873">
        <ele>-2.2659912</ele>
        <time>2011-08-11T18:26:06Z</time>
      </trkpt>
      <trkpt lat="47.52716" lon="-3.28782">
        <ele>-1.7852783</ele>
        <time>2011-08-11T18:26:16Z</time>
      </trkpt>
      <trkpt lat="47.52753" lon="-3.2883">
        <ele>-3.7078857</ele>
        <time>2011-08-11T18:26:26Z</time>
      </trkpt>
      <trkpt lat="47.52789" lon="-3.28881">
        <ele>-5.1499023</ele>
        <time>2011-08-11T18:26:36Z</time>
      </trkpt>
      <trkpt lat="47.52828" lon="-3.28929">
        <ele>-5.6304932</ele>
        <time>2011-08-11T18:26:46Z</time>
      </trkpt>
      <trkpt lat="47.52866" lon="-3.28979">
        <ele>-6.1112061</ele>
        <time>2011-08-11T18:26:56Z</time>
      </trkpt>
      <trkpt lat="47.52905" lon="-3.29027">
        <ele>-3.2272949</ele>
        <time>2011-08-11T18:27:06Z</time>
      </trkpt>
      <trkpt lat="47.5294" lon="-3.29074">
        <ele>-4.6693115</ele>
        <time>2011-08-11T18:27:16Z</time>
      </trkpt>
      <trkpt lat="47.52977" lon="-3.29123">
        <ele>-4.1885986</ele>
        <time>2011-08-11T18:27:26Z</time>
      </trkpt>
      <trkpt lat="47.53017" lon="-3.29167">
        <ele>-6.1112061</ele>
        <time>2011-08-11T18:27:36Z</time>
      </trkpt>
      <trkpt lat="47.53063" lon="-3.29206">
        <ele>-3.7078857</ele>
        <time>2011-08-11T18:27:46Z</time>
      </trkpt>
      <trkpt lat="47.531" lon="-3.29254">
        <ele>-2.2659912</ele>
        <time>2011-08-11T18:27:56Z</time>
      </trkpt>
      <trkpt lat="47.53128" lon="-3.29305">
        <ele>-3.7078857</ele>
        <time>2011-08-11T18:28:06Z</time>
      </trkpt>
      <trkpt lat="47.53158" lon="-3.29353">
        <ele>-2.2659912</ele>
        <time>2011-08-11T18:28:16Z</time>
      </trkpt>
      <trkpt lat="47.5319" lon="-3.29402">
        <ele>-3.2272949</ele>
        <time>2011-08-11T18:28:26Z</time>
      </trkpt>
      <trkpt lat="47.53223" lon="-3.29454">
        <ele>-2.7467041</ele>
        <time>2011-08-11T18:28:36Z</time>
      </trkpt>
      <trkpt lat="47.5326" lon="-3.29506">
        <ele>-1.7852783</ele>
        <time>2011-08-11T18:28:46Z</time>
      </trkpt>
      <trkpt lat="47.53291" lon="-3.29555">
        <ele>-0.8240967</ele>
        <time>2011-08-11T18:28:56Z</time>
      </trkpt>
      <trkpt lat="47.53322" lon="-3.29605">
        <ele>-1.3046875</ele>
        <time>2011-08-11T18:29:06Z</time>
      </trkpt>
      <trkpt lat="47.53354" lon="-3.29653">
        <ele>-2.2659912</ele>
        <time>2011-08-11T18:29:16Z</time>
      </trkpt>
      <trkpt lat="47.53393" lon="-3.29707">
        <ele>-4.1885986</ele>
        <time>2011-08-11T18:29:26Z</time>
      </trkpt>
      <trkpt lat="47.53433" lon="-3.29757">
        <ele>-3.2272949</ele>
        <time>2011-08-11T18:29:36Z</time>
      </trkpt>
      <trkpt lat="47.53478" lon="-3.29807">
        <ele>-3.2272949</ele>
        <time>2011-08-11T18:29:46Z</time>
      </trkpt>
      <trkpt lat="47.53518" lon="-3.29857">
        <ele>-2.7467041</ele>
        <time>2011-08-11T18:29:56Z</time>
      </trkpt>
      <trkpt lat="47.53555" lon="-3.29905">
        <ele>-1.7852783</ele>
        <time>2011-08-11T18:30:06Z</time>
      </trkpt>
      <trkpt lat="47.53589" lon="-3.29955">
        <ele>-2.2659912</ele>
        <time>2011-08-11T18:30:16Z</time>
      </trkpt>
      <trkpt lat="47.53619" lon="-3.30007">
        <ele>-1.7852783</ele>
        <time>2011-08-11T18:30:26Z</time>
      </trkpt>
      <trkpt lat="47.53649" lon="-3.30059">
        <ele>-2.2659912</ele>
        <time>2011-08-11T18:30:36Z</time>
      </trkpt>
      <trkpt lat="47.53679" lon="-3.30109">
        <ele>-2.2659912</ele>
        <time>2011-08-11T18:30:46Z</time>
      </trkpt>
      <trkpt lat="47.53714" lon="-3.30156">
        <ele>-2.2659912</ele>
        <time>2011-08-11T18:30:56Z</time>
      </trkpt>
      <trkpt lat="47.53748" lon="-3.30205">
        <ele>-3.7078857</ele>
        <time>2011-08-11T18:31:06Z</time>
      </trkpt>
      <trkpt lat="47.53777" lon="-3.30253">
        <ele>-3.7078857</ele>
        <time>2011-08-11T18:31:16Z</time>
      </trkpt>
      <trkpt lat="47.5381" lon="-3.303">
        <ele>-2.7467041</ele>
        <time>2011-08-11T18:31:26Z</time>
      </trkpt>
      <trkpt lat="47.53852" lon="-3.30348">
        <ele>-2.2659912</ele>
        <time>2011-08-11T18:31:36Z</time>
      </trkpt>
      <trkpt lat="47.53889" lon="-3.30401">
        <ele>-2.2659912</ele>
        <time>2011-08-11T18:31:46Z</time>
      </trkpt>
      <trkpt lat="47.53928" lon="-3.30448">
        <ele>-1.3046875</ele>
        <time>2011-08-11T18:31:56Z</time>
      </trkpt>
      <trkpt lat="47.53972" lon="-3.30492">
        <ele>-1.3046875</ele>
        <time>2011-08-11T18:32:06Z</time>
      </trkpt>
      <trkpt lat="47.5401" lon="-3.30539">
        <ele>-1.3046875</ele>
        <time>2011-08-11T18:32:16Z</time>
      </trkpt>
      <trkpt lat="47.54046" lon="-3.30591">
        <ele>0.618042</ele>
        <time>2011-08-11T18:32:26Z</time>
      </trkpt>
      <trkpt lat="47.54079" lon="-3.30641">
        <ele>0.1374512</ele>
        <time>2011-08-11T18:32:36Z</time>
      </trkpt>
      <trkpt lat="47.54112" lon="-3.3069">
        <ele>-0.3433838</ele>
        <time>2011-08-11T18:32:46Z</time>
      </trkpt>
      <trkpt lat="47.54142" lon="-3.30741">
        <ele>-1.3046875</ele>
        <time>2011-08-11T18:32:56Z</time>
      </trkpt>
      <trkpt lat="47.54172" lon="-3.30791">
        <ele>-0.3433838</ele>
        <time>2011-08-11T18:33:06Z</time>
      </trkpt>
      <trkpt lat="47.54196" lon="-3.3084">
        <ele>3.0212402</ele>
        <time>2011-08-11T18:33:16Z</time>
      </trkpt>
      <trkpt lat="47.54223" lon="-3.30888">
        <ele>3.982666</ele>
        <time>2011-08-11T18:33:26Z</time>
      </trkpt>
      <trkpt lat="47.54257" lon="-3.30933">
        <ele>2.0600586</ele>
        <time>2011-08-11T18:33:36Z</time>
      </trkpt>
      <trkpt lat="47.54298" lon="-3.30986">
        <ele>-1.7852783</ele>
        <time>2011-08-11T18:33:46Z</time>
      </trkpt>
      <trkpt lat="47.54335" lon="-3.31039">
        <ele>-3.7078857</ele>
        <time>2011-08-11T18:33:56Z</time>
      </trkpt>
      <trkpt lat="47.54373" lon="-3.31092">
        <ele>-2.2659912</ele>
        <time>2011-08-11T18:34:06Z</time>
      </trkpt>
      <trkpt lat="47.54406" lon="-3.31146">
        <ele>-0.8240967</ele>
        <time>2011-08-11T18:34:16Z</time>
      </trkpt>
      <trkpt lat="47.54436" lon="-3.31197">
        <ele>-0.8240967</ele>
        <time>2011-08-11T18:34:26Z</time>
      </trkpt>
      <trkpt lat="47.54469" lon="-3.31248">
        <ele>-1.3046875</ele>
        <time>2011-08-11T18:34:36Z</time>
      </trkpt>
      <trkpt lat="47.54499" lon="-3.31299">
        <ele>-2.7467041</ele>
        <time>2011-08-11T18:34:46Z</time>
      </trkpt>
      <trkpt lat="47.54526" lon="-3.31348">
        <ele>-3.2272949</ele>
        <time>2011-08-11T18:34:56Z</time>
      </trkpt>
      <trkpt lat="47.54554" lon="-3.31393">
        <ele>-5.6304932</ele>
        <time>2011-08-11T18:35:06Z</time>
      </trkpt>
      <trkpt lat="47.5459" lon="-3.3144">
        <ele>-6.1112061</ele>
        <time>2011-08-11T18:35:16Z</time>
      </trkpt>
      <trkpt lat="47.54626" lon="-3.3149">
        <ele>-3.7078857</ele>
        <time>2011-08-11T18:35:26Z</time>
      </trkpt>
      <trkpt lat="47.54654" lon="-3.31537">
        <ele>-3.2272949</ele>
        <time>2011-08-11T18:35:36Z</time>
      </trkpt>
      <trkpt lat="47.54686" lon="-3.31587">
        <ele>-2.7467041</ele>
        <time>2011-08-11T18:35:46Z</time>
      </trkpt>
      <trkpt lat="47.54722" lon="-3.31642">
        <ele>-4.1885986</ele>
        <time>2011-08-11T18:35:56Z</time>
      </trkpt>
      <trkpt lat="47.54757" lon="-3.31693">
        <ele>-3.7078857</ele>
        <time>2011-08-11T18:36:06Z</time>
      </trkpt>
      <trkpt lat="47.54785" lon="-3.31742">
        <ele>-2.2659912</ele>
        <time>2011-08-11T18:36:16Z</time>
      </trkpt>
      <trkpt lat="47.54802" lon="-3.31791">
        <ele>-2.7467041</ele>
        <time>2011-08-11T18:36:26Z</time>
      </trkpt>
      <trkpt lat="47.54825" lon="-3.31837">
        <ele>-2.2659912</ele>
        <time>2011-08-11T18:36:36Z</time>
      </trkpt>
      <trkpt lat="47.54859" lon="-3.31886">
        <ele>-2.2659912</ele>
        <time>2011-08-11T18:36:46Z</time>
      </trkpt>
      <trkpt lat="47.54904" lon="-3.31932">
        <ele>-1.7852783</ele>
        <time>2011-08-11T18:36:56Z</time>
      </trkpt>
      <trkpt lat="47.54949" lon="-3.31984">
        <ele>-0.3433838</ele>
        <time>2011-08-11T18:37:06Z</time>
      </trkpt>
      <trkpt lat="47.54987" lon="-3.32034">
        <ele>0.618042</ele>
        <time>2011-08-11T18:37:16Z</time>
      </trkpt>
      <trkpt lat="47.55023" lon="-3.32084">
        <ele>0.618042</ele>
        <time>2011-08-11T18:37:26Z</time>
      </trkpt>
      <trkpt lat="47.55056" lon="-3.32135">
        <ele>2.0600586</ele>
        <time>2011-08-11T18:37:36Z</time>
      </trkpt>
      <trkpt lat="47.55085" lon="-3.32189">
        <ele>1.0986328</ele>
        <time>2011-08-11T18:37:46Z</time>
      </trkpt>
      <trkpt lat="47.5511" lon="-3.32239">
        <ele>-0.3433838</ele>
        <time>2011-08-11T18:37:56Z</time>
      </trkpt>
      <trkpt lat="47.55147" lon="-3.3229">
        <ele>-0.8240967</ele>
        <time>2011-08-11T18:38:06Z</time>
      </trkpt>
      <trkpt lat="47.55185" lon="-3.32341">
        <ele>1.0986328</ele>
        <time>2011-08-11T18:38:16Z</time>
      </trkpt>
      <trkpt lat="47.55219" lon="-3.32398">
        <ele>-0.3433838</ele>
        <time>2011-08-11T18:38:26Z</time>
      </trkpt>
      <trkpt lat="47.55252" lon="-3.3245">
        <ele>-3.7078857</ele>
        <time>2011-08-11T18:38:36Z</time>
      </trkpt>
      <trkpt lat="47.55283" lon="-3.32501">
        <ele>-4.6693115</ele>
        <time>2011-08-11T18:38:46Z</time>
      </trkpt>
      <trkpt lat="47.55312" lon="-3.32551">
        <ele>-5.1499023</ele>
        <time>2011-08-11T18:38:56Z</time>
      </trkpt>
      <trkpt lat="47.55341" lon="-3.32603">
        <ele>-6.1112061</ele>
        <time>2011-08-11T18:39:06Z</time>
      </trkpt>
      <trkpt lat="47.55375" lon="-3.32653">
        <ele>-5.1499023</ele>
        <time>2011-08-11T18:39:16Z</time>
      </trkpt>
      <trkpt lat="47.55408" lon="-3.3271">
        <ele>-5.6304932</ele>
        <time>2011-08-11T18:39:26Z</time>
      </trkpt>
      <trkpt lat="47.55436" lon="-3.32763">
        <ele>-5.1499023</ele>
        <time>2011-08-11T18:39:36Z</time>
      </trkpt>
      <trkpt lat="47.55462" lon="-3.32814">
        <ele>-4.6693115</ele>
        <time>2011-08-11T18:39:46Z</time>
      </trkpt>
      <trkpt lat="47.55488" lon="-3.32865">
        <ele>-5.1499023</ele>
        <time>2011-08-11T18:39:56Z</time>
      </trkpt>
      <trkpt lat="47.5551" lon="-3.32915">
        <ele>-4.6693115</ele>
        <time>2011-08-11T18:40:06Z</time>
      </trkpt>
      <trkpt lat="47.55531" lon="-3.32963">
        <ele>-3.2272949</ele>
        <time>2011-08-11T18:40:16Z</time>
      </trkpt>
      <trkpt lat="47.55554" lon="-3.33014">
        <ele>-3.2272949</ele>
        <time>2011-08-11T18:40:26Z</time>
      </trkpt>
      <trkpt lat="47.55581" lon="-3.33065">
        <ele>-2.7467041</ele>
        <time>2011-08-11T18:40:36Z</time>
      </trkpt>
      <trkpt lat="47.55617" lon="-3.33115">
        <ele>-2.7467041</ele>
        <time>2011-08-11T18:40:46Z</time>
      </trkpt>
      <trkpt lat="47.55656" lon="-3.33168">
        <ele>1.0986328</ele>
        <time>2011-08-11T18:40:56Z</time>
      </trkpt>
      <trkpt lat="47.55694" lon="-3.33218">
        <ele>0.1374512</ele>
        <time>2011-08-11T18:41:06Z</time>
      </trkpt>
      <trkpt lat="47.55734" lon="-3.33271">
        <ele>1.0986328</ele>
        <time>2011-08-11T18:41:16Z</time>
      </trkpt>
      <trkpt lat="47.55779" lon="-3.33325">
        <ele>1.0986328</ele>
        <time>2011-08-11T18:41:26Z</time>
      </trkpt>
      <trkpt lat="47.55823" lon="-3.33374">
        <ele>-0.3433838</ele>
        <time>2011-08-11T18:41:36Z</time>
      </trkpt>
      <trkpt lat="47.55864" lon="-3.33424">
        <ele>-0.8240967</ele>
        <time>2011-08-11T18:41:46Z</time>
      </trkpt>
      <trkpt lat="47.55897" lon="-3.33479">
        <ele>-1.7852783</ele>
        <time>2011-08-11T18:41:56Z</time>
      </trkpt>
      <trkpt lat="47.55925" lon="-3.33534">
        <ele>-0.3433838</ele>
        <time>2011-08-11T18:42:06Z</time>
      </trkpt>
      <trkpt lat="47.55956" lon="-3.33584">
        <ele>2.0600586</ele>
        <time>2011-08-11T18:42:16Z</time>
      </trkpt>
      <trkpt lat="47.55987" lon="-3.33638">
        <ele>0.618042</ele>
        <time>2011-08-11T18:42:26Z</time>
      </trkpt>
      <trkpt lat="47.56022" lon="-3.33689">
        <ele>0.618042</ele>
        <time>2011-08-11T18:42:36Z</time>
      </trkpt>
      <trkpt lat="47.56061" lon="-3.33736">
        <ele>0.1374512</ele>
        <time>2011-08-11T18:42:46Z</time>
      </trkpt>
      <trkpt lat="47.56098" lon="-3.33786">
        <ele>1.0986328</ele>
        <time>2011-08-11T18:42:56Z</time>
      </trkpt>
      <trkpt lat="47.56134" lon="-3.3384">
        <ele>-1.7852783</ele>
        <time>2011-08-11T18:43:06Z</time>
      </trkpt>
      <trkpt lat="47.56163" lon="-3.33893">
        <ele>-1.7852783</ele>
        <time>2011-08-11T18:43:16Z</time>
      </trkpt>
      <trkpt lat="47.56192" lon="-3.33945">
        <ele>-0.3433838</ele>
        <time>2011-08-11T18:43:26Z</time>
      </trkpt>
      <trkpt lat="47.56224" lon="-3.33999">
        <ele>-1.3046875</ele>
        <time>2011-08-11T18:43:36Z</time>
      </trkpt>
      <trkpt lat="47.56263" lon="-3.34042">
        <ele>-2.7467041</ele>
        <time>2011-08-11T18:43:46Z</time>
      </trkpt>
      <trkpt lat="47.56305" lon="-3.34085">
        <ele>-2.7467041</ele>
        <time>2011-08-11T18:43:56Z</time>
      </trkpt>
      <trkpt lat="47.56349" lon="-3.34125">
        <ele>-1.3046875</ele>
        <time>2011-08-11T18:44:06Z</time>
      </trkpt>
      <trkpt lat="47.56392" lon="-3.34173">
        <ele>-2.2659912</ele>
        <time>2011-08-11T18:44:16Z</time>
      </trkpt>
      <trkpt lat="47.56429" lon="-3.34227">
        <ele>-1.3046875</ele>
        <time>2011-08-11T18:44:26Z</time>
      </trkpt>
      <trkpt lat="47.56465" lon="-3.3428">
        <ele>-1.7852783</ele>
        <time>2011-08-11T18:44:36Z</time>
      </trkpt>
      <trkpt lat="47.56502" lon="-3.34332">
        <ele>-2.7467041</ele>
        <time>2011-08-11T18:44:46Z</time>
      </trkpt>
      <trkpt lat="47.56539" lon="-3.34387">
        <ele>-2.2659912</ele>
        <time>2011-08-11T18:44:56Z</time>
      </trkpt>
      <trkpt lat="47.56581" lon="-3.34441">
        <ele>-2.2659912</ele>
        <time>2011-08-11T18:45:06Z</time>
      </trkpt>
      <trkpt lat="47.56628" lon="-3.34489">
        <ele>-2.2659912</ele>
        <time>2011-08-11T18:45:16Z</time>
      </trkpt>
      <trkpt lat="47.56669" lon="-3.34536">
        <ele>-2.2659912</ele>
        <time>2011-08-11T18:45:26Z</time>
      </trkpt>
      <trkpt lat="47.5671" lon="-3.34583">
        <ele>-2.2659912</ele>
        <time>2011-08-11T18:45:36Z</time>
      </trkpt>
      <trkpt lat="47.5675" lon="-3.34634">
        <ele>-2.2659912</ele>
        <time>2011-08-11T18:45:46Z</time>
      </trkpt>
      <trkpt lat="47.56793" lon="-3.34686">
        <ele>-1.7852783</ele>
        <time>2011-08-11T18:45:56Z</time>
      </trkpt>
      <trkpt lat="47.56832" lon="-3.34732">
        <ele>-1.7852783</ele>
        <time>2011-08-11T18:46:06Z</time>
      </trkpt>
      <trkpt lat="47.56873" lon="-3.34781">
        <ele>-2.7467041</ele>
        <time>2011-08-11T18:46:16Z</time>
      </trkpt>
      <trkpt lat="47.56917" lon="-3.34825">
        <ele>-0.8240967</ele>
        <time>2011-08-11T18:46:26Z</time>
      </trkpt>
      <trkpt lat="47.56958" lon="-3.34868">
        <ele>-0.3433838</ele>
        <time>2011-08-11T18:46:36Z</time>
      </trkpt>
      <trkpt lat="47.57002" lon="-3.34918">
        <ele>-0.3433838</ele>
        <time>2011-08-11T18:46:46Z</time>
      </trkpt>
      <trkpt lat="47.57041" lon="-3.34963">
        <ele>-0.3433838</ele>
        <time>2011-08-11T18:46:56Z</time>
      </trkpt>
      <trkpt lat="47.57083" lon="-3.35015">
        <ele>-0.8240967</ele>
        <time>2011-08-11T18:47:06Z</time>
      </trkpt>
      <trkpt lat="47.57126" lon="-3.35062">
        <ele>-0.3433838</ele>
        <time>2011-08-11T18:47:16Z</time>
      </trkpt>
      <trkpt lat="47.57168" lon="-3.35104">
        <ele>3.0212402</ele>
        <time>2011-08-11T18:47:26Z</time>
      </trkpt>
      <trkpt lat="47.57208" lon="-3.3515">
        <ele>1.0986328</ele>
        <time>2011-08-11T18:47:36Z</time>
      </trkpt>
      <trkpt lat="47.5725" lon="-3.35201">
        <ele>0.1374512</ele>
        <time>2011-08-11T18:47:46Z</time>
      </trkpt>
      <trkpt lat="47.57291" lon="-3.35248">
        <ele>0.618042</ele>
        <time>2011-08-11T18:47:56Z</time>
      </trkpt>
      <trkpt lat="47.57329" lon="-3.35294">
        <ele>-0.3433838</ele>
        <time>2011-08-11T18:48:06Z</time>
      </trkpt>
      <trkpt lat="47.57369" lon="-3.35339">
        <ele>-0.3433838</ele>
        <time>2011-08-11T18:48:16Z</time>
      </trkpt>
      <trkpt lat="47.57409" lon="-3.35383">
        <ele>0.1374512</ele>
        <time>2011-08-11T18:48:26Z</time>
      </trkpt>
      <trkpt lat="47.57446" lon="-3.35433">
        <ele>-0.3433838</ele>
        <time>2011-08-11T18:48:36Z</time>
      </trkpt>
      <trkpt lat="47.57486" lon="-3.35478">
        <ele>-2.7467041</ele>
        <time>2011-08-11T18:48:46Z</time>
      </trkpt>
      <trkpt lat="47.57525" lon="-3.35528">
        <ele>-2.2659912</ele>
        <time>2011-08-11T18:48:56Z</time>
      </trkpt>
      <trkpt lat="47.57567" lon="-3.35577">
        <ele>-0.8240967</ele>
        <time>2011-08-11T18:49:06Z</time>
      </trkpt>
      <trkpt lat="47.57602" lon="-3.35624">
        <ele>-1.7852783</ele>
        <time>2011-08-11T18:49:16Z</time>
      </trkpt>
      <trkpt lat="47.57638" lon="-3.35675">
        <ele>-2.7467041</ele>
        <time>2011-08-11T18:49:26Z</time>
      </trkpt>
      <trkpt lat="47.57676" lon="-3.35723">
        <ele>-1.7852783</ele>
        <time>2011-08-11T18:49:36Z</time>
      </trkpt>
      <trkpt lat="47.57716" lon="-3.35766">
        <ele>-0.8240967</ele>
        <time>2011-08-11T18:49:46Z</time>
      </trkpt>
      <trkpt lat="47.57757" lon="-3.35808">
        <ele>-0.3433838</ele>
        <time>2011-08-11T18:49:56Z</time>
      </trkpt>
      <trkpt lat="47.57802" lon="-3.35847">
        <ele>-1.3046875</ele>
        <time>2011-08-11T18:50:06Z</time>
      </trkpt>
      <trkpt lat="47.57845" lon="-3.35885">
        <ele>-1.7852783</ele>
        <time>2011-08-11T18:50:16Z</time>
      </trkpt>
      <trkpt lat="47.57893" lon="-3.35929">
        <ele>-0.8240967</ele>
        <time>2011-08-11T18:50:26Z</time>
      </trkpt>
      <trkpt lat="47.57935" lon="-3.35973">
        <ele>-0.3433838</ele>
        <time>2011-08-11T18:50:36Z</time>
      </trkpt>
      <trkpt lat="47.57978" lon="-3.36013">
        <ele>-0.3433838</ele>
        <time>2011-08-11T18:50:46Z</time>
      </trkpt>
      <trkpt lat="47.58016" lon="-3.36062">
        <ele>-0.3433838</ele>
        <time>2011-08-11T18:50:56Z</time>
      </trkpt>
      <trkpt lat="47.58055" lon="-3.36106">
        <ele>1.0986328</ele>
        <time>2011-08-11T18:51:06Z</time>
      </trkpt>
      <trkpt lat="47.58093" lon="-3.36151">
        <ele>2.5406494</ele>
        <time>2011-08-11T18:51:16Z</time>
      </trkpt>
      <trkpt lat="47.5813" lon="-3.36191">
        <ele>0.1374512</ele>
        <time>2011-08-11T18:51:26Z</time>
      </trkpt>
      <trkpt lat="47.58165" lon="-3.36238">
        <ele>-2.2659912</ele>
        <time>2011-08-11T18:51:36Z</time>
      </trkpt>
      <trkpt lat="47.58203" lon="-3.36284">
        <ele>-1.3046875</ele>
        <time>2011-08-11T18:51:46Z</time>
      </trkpt>
      <trkpt lat="47.58242" lon="-3.3633">
        <ele>-1.3046875</ele>
        <time>2011-08-11T18:51:56Z</time>
      </trkpt>
      <trkpt lat="47.58282" lon="-3.36372">
        <ele>-0.3433838</ele>
        <time>2011-08-11T18:52:06Z</time>
      </trkpt>
      <trkpt lat="47.58326" lon="-3.36411">
        <ele>0.1374512</ele>
        <time>2011-08-11T18:52:16Z</time>
      </trkpt>
      <trkpt lat="47.58372" lon="-3.36452">
        <ele>0.1374512</ele>
        <time>2011-08-11T18:52:26Z</time>
      </trkpt>
      <trkpt lat="47.58413" lon="-3.36496">
        <ele>0.1374512</ele>
        <time>2011-08-11T18:52:36Z</time>
      </trkpt>
      <trkpt lat="47.58452" lon="-3.36538">
        <ele>0.618042</ele>
        <time>2011-08-11T18:52:46Z</time>
      </trkpt>
      <trkpt lat="47.58493" lon="-3.36578">
        <ele>2.0600586</ele>
        <time>2011-08-11T18:52:56Z</time>
      </trkpt>
      <trkpt lat="47.58532" lon="-3.36622">
        <ele>1.5793457</ele>
        <time>2011-08-11T18:53:06Z</time>
      </trkpt>
      <trkpt lat="47.58574" lon="-3.36666">
        <ele>1.0986328</ele>
        <time>2011-08-11T18:53:16Z</time>
      </trkpt>
      <trkpt lat="47.58618" lon="-3.36705">
        <ele>1.0986328</ele>
        <time>2011-08-11T18:53:26Z</time>
      </trkpt>
      <trkpt lat="47.58663" lon="-3.36747">
        <ele>0.1374512</ele>
        <time>2011-08-11T18:53:36Z</time>
      </trkpt>
      <trkpt lat="47.58707" lon="-3.36793">
        <ele>-0.3433838</ele>
        <time>2011-08-11T18:53:46Z</time>
      </trkpt>
      <trkpt lat="47.58753" lon="-3.36838">
        <ele>-0.3433838</ele>
        <time>2011-08-11T18:53:56Z</time>
      </trkpt>
      <trkpt lat="47.58796" lon="-3.36876">
        <ele>1.5793457</ele>
        <time>2011-08-11T18:54:06Z</time>
      </trkpt>
      <trkpt lat="47.58843" lon="-3.36918">
        <ele>2.0600586</ele>
        <time>2011-08-11T18:54:16Z</time>
      </trkpt>
      <trkpt lat="47.58884" lon="-3.36963">
        <ele>1.0986328</ele>
        <time>2011-08-11T18:54:26Z</time>
      </trkpt>
      <trkpt lat="47.58926" lon="-3.36999">
        <ele>2.0600586</ele>
        <time>2011-08-11T18:54:36Z</time>
      </trkpt>
      <trkpt lat="47.58972" lon="-3.37033">
        <ele>1.5793457</ele>
        <time>2011-08-11T18:54:46Z</time>
      </trkpt>
      <trkpt lat="47.59015" lon="-3.37076">
        <ele>1.0986328</ele>
        <time>2011-08-11T18:54:56Z</time>
      </trkpt>
      <trkpt lat="47.59055" lon="-3.37118">
        <ele>1.0986328</ele>
        <time>2011-08-11T18:55:06Z</time>
      </trkpt>
      <trkpt lat="47.59101" lon="-3.37161">
        <ele>2.0600586</ele>
        <time>2011-08-11T18:55:16Z</time>
      </trkpt>
      <trkpt lat="47.59142" lon="-3.37196">
        <ele>2.0600586</ele>
        <time>2011-08-11T18:55:26Z</time>
      </trkpt>
      <trkpt lat="47.59185" lon="-3.37235">
        <ele>2.0600586</ele>
        <time>2011-08-11T18:55:36Z</time>
      </trkpt>
      <trkpt lat="47.5923" lon="-3.3727">
        <ele>1.5793457</ele>
        <time>2011-08-11T18:55:46Z</time>
      </trkpt>
      <trkpt lat="47.59273" lon="-3.37311">
        <ele>0.618042</ele>
        <time>2011-08-11T18:55:56Z</time>
      </trkpt>
      <trkpt lat="47.59311" lon="-3.3736">
        <ele>-1.3046875</ele>
        <time>2011-08-11T18:56:06Z</time>
      </trkpt>
      <trkpt lat="47.59347" lon="-3.37404">
        <ele>-1.3046875</ele>
        <time>2011-08-11T18:56:16Z</time>
      </trkpt>
      <trkpt lat="47.59383" lon="-3.3745">
        <ele>-1.7852783</ele>
        <time>2011-08-11T18:56:26Z</time>
      </trkpt>
      <trkpt lat="47.5942" lon="-3.37494">
        <ele>-1.3046875</ele>
        <time>2011-08-11T18:56:36Z</time>
      </trkpt>
      <trkpt lat="47.59457" lon="-3.37541">
        <ele>0.618042</ele>
        <time>2011-08-11T18:56:46Z</time>
      </trkpt>
      <trkpt lat="47.59497" lon="-3.37585">
        <ele>0.1374512</ele>
        <time>2011-08-11T18:56:56Z</time>
      </trkpt>
      <trkpt lat="47.59531" lon="-3.37632">
        <ele>-0.3433838</ele>
        <time>2011-08-11T18:57:06Z</time>
      </trkpt>
      <trkpt lat="47.59567" lon="-3.37679">
        <ele>-0.3433838</ele>
        <time>2011-08-11T18:57:16Z</time>
      </trkpt>
      <trkpt lat="47.59602" lon="-3.37726">
        <ele>0.618042</ele>
        <time>2011-08-11T18:57:26Z</time>
      </trkpt>
      <trkpt lat="47.59634" lon="-3.37776">
        <ele>-0.3433838</ele>
        <time>2011-08-11T18:57:36Z</time>
      </trkpt>
      <trkpt lat="47.59665" lon="-3.37826">
        <ele>-0.3433838</ele>
        <time>2011-08-11T18:57:46Z</time>
      </trkpt>
      <trkpt lat="47.59697" lon="-3.37872">
        <ele>0.1374512</ele>
        <time>2011-08-11T18:57:56Z</time>
      </trkpt>
      <trkpt lat="47.59727" lon="-3.37916">
        <ele>0.618042</ele>
        <time>2011-08-11T18:58:06Z</time>
      </trkpt>
      <trkpt lat="47.5976" lon="-3.37963">
        <ele>2.0600586</ele>
        <time>2011-08-11T18:58:16Z</time>
      </trkpt>
      <trkpt lat="47.59794" lon="-3.3801">
        <ele>1.0986328</ele>
        <time>2011-08-11T18:58:26Z</time>
      </trkpt>
      <trkpt lat="47.59825" lon="-3.38058">
        <ele>0.1374512</ele>
        <time>2011-08-11T18:58:36Z</time>
      </trkpt>
      <trkpt lat="47.59858" lon="-3.38108">
        <ele>0.1374512</ele>
        <time>2011-08-11T18:58:46Z</time>
      </trkpt>
      <trkpt lat="47.59894" lon="-3.38154">
        <ele>-0.3433838</ele>
        <time>2011-08-11T18:58:56Z</time>
      </trkpt>
      <trkpt lat="47.59929" lon="-3.38201">
        <ele>0.618042</ele>
        <time>2011-08-11T18:59:06Z</time>
      </trkpt>
      <trkpt lat="47.59962" lon="-3.38248">
        <ele>0.1374512</ele>
        <time>2011-08-11T18:59:16Z</time>
      </trkpt>
      <trkpt lat="47.59998" lon="-3.38296">
        <ele>0.1374512</ele>
        <time>2011-08-11T18:59:26Z</time>
      </trkpt>
      <trkpt lat="47.60035" lon="-3.38343">
        <ele>-0.3433838</ele>
        <time>2011-08-11T18:59:36Z</time>
      </trkpt>
      <trkpt lat="47.60068" lon="-3.38386">
        <ele>0.1374512</ele>
        <time>2011-08-11T18:59:46Z</time>
      </trkpt>
      <trkpt lat="47.60103" lon="-3.38433">
        <ele>0.1374512</ele>
        <time>2011-08-11T18:59:56Z</time>
      </trkpt>
      <trkpt lat="47.60139" lon="-3.38481">
        <ele>1.5793457</ele>
        <time>2011-08-11T19:00:06Z</time>
      </trkpt>
      <trkpt lat="47.60173" lon="-3.38529">
        <ele>0.618042</ele>
        <time>2011-08-11T19:00:16Z</time>
      </trkpt>
      <trkpt lat="47.60202" lon="-3.38575">
        <ele>-0.8240967</ele>
        <time>2011-08-11T19:00:26Z</time>
      </trkpt>
      <trkpt lat="47.60236" lon="-3.38619">
        <ele>0.618042</ele>
        <time>2011-08-11T19:00:36Z</time>
      </trkpt>
      <trkpt lat="47.60273" lon="-3.38668">
        <ele>1.0986328</ele>
        <time>2011-08-11T19:00:46Z</time>
      </trkpt>
      <trkpt lat="47.6031" lon="-3.38715">
        <ele>0.1374512</ele>
        <time>2011-08-11T19:00:56Z</time>
      </trkpt>
      <trkpt lat="47.60345" lon="-3.3876">
        <ele>2.5406494</ele>
        <time>2011-08-11T19:01:06Z</time>
      </trkpt>
      <trkpt lat="47.60386" lon="-3.38796">
        <ele>3.0212402</ele>
        <time>2011-08-11T19:01:16Z</time>
      </trkpt>
      <trkpt lat="47.60423" lon="-3.38844">
        <ele>0.618042</ele>
        <time>2011-08-11T19:01:26Z</time>
      </trkpt>
      <trkpt lat="47.60457" lon="-3.3889">
        <ele>1.0986328</ele>
        <time>2011-08-11T19:01:36Z</time>
      </trkpt>
      <trkpt lat="47.60489" lon="-3.3894">
        <ele>4.9438477</ele>
        <time>2011-08-11T19:01:46Z</time>
      </trkpt>
      <trkpt lat="47.60521" lon="-3.38987">
        <ele>3.5019531</ele>
        <time>2011-08-11T19:01:56Z</time>
      </trkpt>
      <trkpt lat="47.6056" lon="-3.39029">
        <ele>0.1374512</ele>
        <time>2011-08-11T19:02:06Z</time>
      </trkpt>
      <trkpt lat="47.60595" lon="-3.39078">
        <ele>3.0212402</ele>
        <time>2011-08-11T19:02:16Z</time>
      </trkpt>
      <trkpt lat="47.60629" lon="-3.39124">
        <ele>3.5019531</ele>
        <time>2011-08-11T19:02:26Z</time>
      </trkpt>
      <trkpt lat="47.60664" lon="-3.39166">
        <ele>2.5406494</ele>
        <time>2011-08-11T19:02:36Z</time>
      </trkpt>
      <trkpt lat="47.60698" lon="-3.39209">
        <ele>4.4632568</ele>
        <time>2011-08-11T19:02:46Z</time>
      </trkpt>
      <trkpt lat="47.60735" lon="-3.39256">
        <ele>3.5019531</ele>
        <time>2011-08-11T19:02:56Z</time>
      </trkpt>
      <trkpt lat="47.60774" lon="-3.39299">
        <ele>4.9438477</ele>
        <time>2011-08-11T19:03:06Z</time>
      </trkpt>
      <trkpt lat="47.60815" lon="-3.39339">
        <ele>4.4632568</ele>
        <time>2011-08-11T19:03:16Z</time>
      </trkpt>
      <trkpt lat="47.60856" lon="-3.39383">
        <ele>3.982666</ele>
        <time>2011-08-11T19:03:26Z</time>
      </trkpt>
      <trkpt lat="47.60899" lon="-3.39424">
        <ele>4.4632568</ele>
        <time>2011-08-11T19:03:36Z</time>
      </trkpt>
      <trkpt lat="47.60943" lon="-3.39466">
        <ele>4.9438477</ele>
        <time>2011-08-11T19:03:46Z</time>
      </trkpt>
      <trkpt lat="47.60984" lon="-3.39506">
        <ele>3.982666</ele>
        <time>2011-08-11T19:03:56Z</time>
      </trkpt>
      <trkpt lat="47.61026" lon="-3.39549">
        <ele>3.5019531</ele>
        <time>2011-08-11T19:04:06Z</time>
      </trkpt>
      <trkpt lat="47.61064" lon="-3.39595">
        <ele>3.5019531</ele>
        <time>2011-08-11T19:04:16Z</time>
      </trkpt>
      <trkpt lat="47.61101" lon="-3.39636">
        <ele>2.5406494</ele>
        <time>2011-08-11T19:04:26Z</time>
      </trkpt>
      <trkpt lat="47.6114" lon="-3.39675">
        <ele>3.982666</ele>
        <time>2011-08-11T19:04:36Z</time>
      </trkpt>
      <trkpt lat="47.61181" lon="-3.39713">
        <ele>4.4632568</ele>
        <time>2011-08-11T19:04:46Z</time>
      </trkpt>
      <trkpt lat="47.61226" lon="-3.39755">
        <ele>3.5019531</ele>
        <time>2011-08-11T19:04:56Z</time>
      </trkpt>
      <trkpt lat="47.61264" lon="-3.39802">
        <ele>3.0212402</ele>
        <time>2011-08-11T19:05:06Z</time>
      </trkpt>
      <trkpt lat="47.61298" lon="-3.39844">
        <ele>3.5019531</ele>
        <time>2011-08-11T19:05:16Z</time>
      </trkpt>
      <trkpt lat="47.61337" lon="-3.39884">
        <ele>3.982666</ele>
        <time>2011-08-11T19:05:26Z</time>
      </trkpt>
      <trkpt lat="47.61377" lon="-3.3993">
        <ele>3.5019531</ele>
        <time>2011-08-11T19:05:36Z</time>
      </trkpt>
      <trkpt lat="47.61414" lon="-3.39972">
        <ele>4.4632568</ele>
        <time>2011-08-11T19:05:46Z</time>
      </trkpt>
      <trkpt lat="47.61452" lon="-3.40015">
        <ele>4.9438477</ele>
        <time>2011-08-11T19:05:56Z</time>
      </trkpt>
      <trkpt lat="47.61493" lon="-3.40055">
        <ele>3.5019531</ele>
        <time>2011-08-11T19:06:06Z</time>
      </trkpt>
      <trkpt lat="47.61538" lon="-3.40095">
        <ele>3.982666</ele>
        <time>2011-08-11T19:06:16Z</time>
      </trkpt>
      <trkpt lat="47.61585" lon="-3.40134">
        <ele>2.0600586</ele>
        <time>2011-08-11T19:06:26Z</time>
      </trkpt>
      <trkpt lat="47.61631" lon="-3.40171">
        <ele>2.0600586</ele>
        <time>2011-08-11T19:06:36Z</time>
      </trkpt>
      <trkpt lat="47.6168" lon="-3.40209">
        <ele>2.0600586</ele>
        <time>2011-08-11T19:06:46Z</time>
      </trkpt>
      <trkpt lat="47.61725" lon="-3.40247">
        <ele>2.5406494</ele>
        <time>2011-08-11T19:06:56Z</time>
      </trkpt>
      <trkpt lat="47.6176" lon="-3.40293">
        <ele>3.982666</ele>
        <time>2011-08-11T19:07:06Z</time>
      </trkpt>
      <trkpt lat="47.61789" lon="-3.40336">
        <ele>4.9438477</ele>
        <time>2011-08-11T19:07:16Z</time>
      </trkpt>
      <trkpt lat="47.61817" lon="-3.40384">
        <ele>3.0212402</ele>
        <time>2011-08-11T19:07:26Z</time>
      </trkpt>
      <trkpt lat="47.61844" lon="-3.4043">
        <ele>3.5019531</ele>
        <time>2011-08-11T19:07:36Z</time>
      </trkpt>
      <trkpt lat="47.6187" lon="-3.40474">
        <ele>5.4245605</ele>
        <time>2011-08-11T19:07:46Z</time>
      </trkpt>
      <trkpt lat="47.61895" lon="-3.40514">
        <ele>7.347168</ele>
        <time>2011-08-11T19:07:56Z</time>
      </trkpt>
      <trkpt lat="47.61914" lon="-3.40555">
        <ele>7.347168</ele>
        <time>2011-08-11T19:08:06Z</time>
      </trkpt>
      <trkpt lat="47.6193" lon="-3.40591">
        <ele>3.982666</ele>
        <time>2011-08-11T19:08:16Z</time>
      </trkpt>
      <trkpt lat="47.61944" lon="-3.40625">
        <ele>4.4632568</ele>
        <time>2011-08-11T19:08:26Z</time>
      </trkpt>
      <trkpt lat="47.61952" lon="-3.40655">
        <ele>4.9438477</ele>
        <time>2011-08-11T19:08:36Z</time>
      </trkpt>
      <trkpt lat="47.61961" lon="-3.4068">
        <ele>5.4245605</ele>
        <time>2011-08-11T19:08:46Z</time>
      </trkpt>
      <trkpt lat="47.61971" lon="-3.40703">
        <ele>6.3858643</ele>
        <time>2011-08-11T19:08:56Z</time>
      </trkpt>
      <trkpt lat="47.61979" lon="-3.40724">
        <ele>4.9438477</ele>
        <time>2011-08-11T19:09:06Z</time>
      </trkpt>
      <trkpt lat="47.61984" lon="-3.40739">
        <ele>4.9438477</ele>
        <time>2011-08-11T19:09:16Z</time>
      </trkpt>
      <trkpt lat="47.61989" lon="-3.4075">
        <ele>5.9052734</ele>
        <time>2011-08-11T19:09:26Z</time>
      </trkpt>
      <trkpt lat="47.61999" lon="-3.40764">
        <ele>6.8664551</ele>
        <time>2011-08-11T19:09:36Z</time>
      </trkpt>
      <trkpt lat="47.62015" lon="-3.40783">
        <ele>5.4245605</ele>
        <time>2011-08-11T19:09:46Z</time>
      </trkpt>
      <trkpt lat="47.62033" lon="-3.40811">
        <ele>3.982666</ele>
        <time>2011-08-11T19:09:56Z</time>
      </trkpt>
      <trkpt lat="47.62056" lon="-3.40847">
        <ele>4.4632568</ele>
        <time>2011-08-11T19:10:06Z</time>
      </trkpt>
      <trkpt lat="47.62077" lon="-3.40879">
        <ele>1.5793457</ele>
        <time>2011-08-11T19:10:16Z</time>
      </trkpt>
      <trkpt lat="47.62092" lon="-3.40914">
        <ele>1.5793457</ele>
        <time>2011-08-11T19:10:26Z</time>
      </trkpt>
      <trkpt lat="47.62104" lon="-3.40943">
        <ele>3.0212402</ele>
        <time>2011-08-11T19:10:36Z</time>
      </trkpt>
      <trkpt lat="47.62124" lon="-3.40974">
        <ele>3.0212402</ele>
        <time>2011-08-11T19:10:46Z</time>
      </trkpt>
      <trkpt lat="47.62146" lon="-3.41">
        <ele>3.5019531</ele>
        <time>2011-08-11T19:10:56Z</time>
      </trkpt>
      <trkpt lat="47.62171" lon="-3.41017">
        <ele>4.4632568</ele>
        <time>2011-08-11T19:11:06Z</time>
      </trkpt>
      <trkpt lat="47.62195" lon="-3.41031">
        <ele>3.982666</ele>
        <time>2011-08-11T19:11:16Z</time>
      </trkpt>
      <trkpt lat="47.6222" lon="-3.41042">
        <ele>3.0212402</ele>
        <time>2011-08-11T19:11:26Z</time>
      </trkpt>
      <trkpt lat="47.62248" lon="-3.4105">
        <ele>1.5793457</ele>
        <time>2011-08-11T19:11:36Z</time>
      </trkpt>
      <trkpt lat="47.62277" lon="-3.41054">
        <ele>3.0212402</ele>
        <time>2011-08-11T19:11:46Z</time>
      </trkpt>
      <trkpt lat="47.62307" lon="-3.41057">
        <ele>5.4245605</ele>
        <time>2011-08-11T19:11:56Z</time>
      </trkpt>
      <trkpt lat="47.62336" lon="-3.4106">
        <ele>4.4632568</ele>
        <time>2011-08-11T19:12:06Z</time>
      </trkpt>
      <trkpt lat="47.62364" lon="-3.4106">
        <ele>-0.3433838</ele>
        <time>2011-08-11T19:12:16Z</time>
      </trkpt>
      <trkpt lat="47.62394" lon="-3.41061">
        <ele>1.0986328</ele>
        <time>2011-08-11T19:12:26Z</time>
      </trkpt>
      <trkpt lat="47.62425" lon="-3.41062">
        <ele>2.0600586</ele>
        <time>2011-08-11T19:12:36Z</time>
      </trkpt>
      <trkpt lat="47.62454" lon="-3.41061">
        <ele>3.5019531</ele>
        <time>2011-08-11T19:12:46Z</time>
      </trkpt>
      <trkpt lat="47.62483" lon="-3.41058">
        <ele>3.0212402</ele>
        <time>2011-08-11T19:12:56Z</time>
      </trkpt>
      <trkpt lat="47.62514" lon="-3.41051">
        <ele>3.5019531</ele>
        <time>2011-08-11T19:13:06Z</time>
      </trkpt>
      <trkpt lat="47.62542" lon="-3.41049">
        <ele>0.618042</ele>
        <time>2011-08-11T19:13:16Z</time>
      </trkpt>
      <trkpt lat="47.62568" lon="-3.4105">
        <ele>1.0986328</ele>
        <time>2011-08-11T19:13:26Z</time>
      </trkpt>
      <trkpt lat="47.62597" lon="-3.41056">
        <ele>1.5793457</ele>
        <time>2011-08-11T19:13:36Z</time>
      </trkpt>
      <trkpt lat="47.62626" lon="-3.41059">
        <ele>-0.3433838</ele>
        <time>2011-08-11T19:13:46Z</time>
      </trkpt>
      <trkpt lat="47.62655" lon="-3.41065">
        <ele>-0.3433838</ele>
        <time>2011-08-11T19:13:56Z</time>
      </trkpt>
      <trkpt lat="47.62682" lon="-3.4107">
        <ele>-3.7078857</ele>
        <time>2011-08-11T19:14:06Z</time>
      </trkpt>
      <trkpt lat="47.62707" lon="-3.41077">
        <ele>-0.8240967</ele>
        <time>2011-08-11T19:14:16Z</time>
      </trkpt>
      <trkpt lat="47.62734" lon="-3.41084">
        <ele>1.0986328</ele>
        <time>2011-08-11T19:14:26Z</time>
      </trkpt>
      <trkpt lat="47.62758" lon="-3.4109">
        <ele>1.0986328</ele>
        <time>2011-08-11T19:14:36Z</time>
      </trkpt>
      <trkpt lat="47.62783" lon="-3.41094">
        <ele>-1.7852783</ele>
        <time>2011-08-11T19:14:46Z</time>
      </trkpt>
      <trkpt lat="47.62808" lon="-3.411">
        <ele>-1.3046875</ele>
        <time>2011-08-11T19:14:56Z</time>
      </trkpt>
      <trkpt lat="47.62835" lon="-3.41108">
        <ele>2.0600586</ele>
        <time>2011-08-11T19:15:06Z</time>
      </trkpt>
      <trkpt lat="47.62862" lon="-3.41116">
        <ele>2.5406494</ele>
        <time>2011-08-11T19:15:16Z</time>
      </trkpt>
      <trkpt lat="47.62888" lon="-3.41124">
        <ele>1.0986328</ele>
        <time>2011-08-11T19:15:26Z</time>
      </trkpt>
      <trkpt lat="47.62915" lon="-3.41131">
        <ele>0.618042</ele>
        <time>2011-08-11T19:15:36Z</time>
      </trkpt>
      <trkpt lat="47.62939" lon="-3.41138">
        <ele>1.5793457</ele>
        <time>2011-08-11T19:15:46Z</time>
      </trkpt>
      <trkpt lat="47.62963" lon="-3.41146">
        <ele>1.0986328</ele>
        <time>2011-08-11T19:15:56Z</time>
      </trkpt>
      <trkpt lat="47.62985" lon="-3.41152">
        <ele>2.0600586</ele>
        <time>2011-08-11T19:16:06Z</time>
      </trkpt>
      <trkpt lat="47.63006" lon="-3.41158">
        <ele>-0.3433838</ele>
        <time>2011-08-11T19:16:16Z</time>
      </trkpt>
      <trkpt lat="47.63026" lon="-3.41164">
        <ele>1.0986328</ele>
        <time>2011-08-11T19:16:26Z</time>
      </trkpt>
      <trkpt lat="47.63044" lon="-3.41168">
        <ele>3.0212402</ele>
        <time>2011-08-11T19:16:36Z</time>
      </trkpt>
      <trkpt lat="47.63062" lon="-3.41174">
        <ele>3.5019531</ele>
        <time>2011-08-11T19:16:46Z</time>
      </trkpt>
      <trkpt lat="47.63081" lon="-3.41182">
        <ele>3.0212402</ele>
        <time>2011-08-11T19:16:56Z</time>
      </trkpt>
      <trkpt lat="47.63098" lon="-3.41191">
        <ele>2.0600586</ele>
        <time>2011-08-11T19:17:06Z</time>
      </trkpt>
      <trkpt lat="47.63117" lon="-3.41202">
        <ele>3.982666</ele>
        <time>2011-08-11T19:17:16Z</time>
      </trkpt>
      <trkpt lat="47.63134" lon="-3.41212">
        <ele>5.4245605</ele>
        <time>2011-08-11T19:17:26Z</time>
      </trkpt>
      <trkpt lat="47.63151" lon="-3.41223">
        <ele>4.9438477</ele>
        <time>2011-08-11T19:17:36Z</time>
      </trkpt>
      <trkpt lat="47.63171" lon="-3.41233">
        <ele>3.5019531</ele>
        <time>2011-08-11T19:17:46Z</time>
      </trkpt>
      <trkpt lat="47.63192" lon="-3.41243">
        <ele>5.4245605</ele>
        <time>2011-08-11T19:17:56Z</time>
      </trkpt>
      <trkpt lat="47.63214" lon="-3.41255">
        <ele>4.9438477</ele>
        <time>2011-08-11T19:18:06Z</time>
      </trkpt>
      <trkpt lat="47.63235" lon="-3.41268">
        <ele>3.5019531</ele>
        <time>2011-08-11T19:18:16Z</time>
      </trkpt>
      <trkpt lat="47.63255" lon="-3.41277">
        <ele>2.5406494</ele>
        <time>2011-08-11T19:18:26Z</time>
      </trkpt>
      <trkpt lat="47.63276" lon="-3.41285">
        <ele>3.5019531</ele>
        <time>2011-08-11T19:18:36Z</time>
      </trkpt>
      <trkpt lat="47.63296" lon="-3.41292">
        <ele>3.982666</ele>
        <time>2011-08-11T19:18:46Z</time>
      </trkpt>
      <trkpt lat="47.63314" lon="-3.41299">
        <ele>4.9438477</ele>
        <time>2011-08-11T19:18:56Z</time>
      </trkpt>
      <trkpt lat="47.63324" lon="-3.41312">
        <ele>3.0212402</ele>
        <time>2011-08-11T19:19:06Z</time>
      </trkpt>
      <trkpt lat="47.63331" lon="-3.41323">
        <ele>2.5406494</ele>
        <time>2011-08-11T19:19:16Z</time>
      </trkpt>
      <trkpt lat="47.63337" lon="-3.41332">
        <ele>5.4245605</ele>
        <time>2011-08-11T19:19:26Z</time>
      </trkpt>
      <trkpt lat="47.63345" lon="-3.4134">
        <ele>6.3858643</ele>
        <time>2011-08-11T19:19:36Z</time>
      </trkpt>
      <trkpt lat="47.63346" lon="-3.41342">
        <ele>6.3858643</ele>
        <time>2011-08-11T19:19:46Z</time>
      </trkpt>
      <trkpt lat="47.63349" lon="-3.41346">
        <ele>5.4245605</ele>
        <time>2011-08-11T19:19:55Z</time>
      </trkpt>
    </trkseg>
  </trk>
  <trk>
    <name><![CDATA[ACTIVE LOG 005]]></name>
    <trkseg>
      <trkpt lat="47.63477" lon="-3.41306">
        <ele>3.982666</ele>
        <time>2011-08-12T07:23:22Z</time>
      </trkpt>
      <trkpt lat="47.63496" lon="-3.41311">
        <ele>3.5019531</ele>
        <time>2011-08-12T07:23:32Z</time>
      </trkpt>
      <trkpt lat="47.63512" lon="-3.41317">
        <ele>1.0986328</ele>
        <time>2011-08-12T07:23:42Z</time>
      </trkpt>
      <trkpt lat="47.63511" lon="-3.4128">
        <ele>-4.1885986</ele>
        <time>2011-08-12T07:23:52Z</time>
      </trkpt>
      <trkpt lat="47.63516" lon="-3.41257">
        <ele>-3.2272949</ele>
        <time>2011-08-12T07:24:02Z</time>
      </trkpt>
      <trkpt lat="47.63529" lon="-3.41248">
        <ele>1.5793457</ele>
        <time>2011-08-12T07:24:12Z</time>
      </trkpt>
      <trkpt lat="47.63543" lon="-3.41244">
        <ele>-4.1885986</ele>
        <time>2011-08-12T07:24:22Z</time>
      </trkpt>
      <trkpt lat="47.63557" lon="-3.41243">
        <ele>-7.0725098</ele>
        <time>2011-08-12T07:24:32Z</time>
      </trkpt>
      <trkpt lat="47.63571" lon="-3.41246">
        <ele>-8.5146484</ele>
        <time>2011-08-12T07:24:42Z</time>
      </trkpt>
      <trkpt lat="47.6359" lon="-3.41247">
        <ele>-7.5531006</ele>
        <time>2011-08-12T07:24:52Z</time>
      </trkpt>
      <trkpt lat="47.6361" lon="-3.41244">
        <ele>-7.0725098</ele>
        <time>2011-08-12T07:25:02Z</time>
      </trkpt>
      <trkpt lat="47.6363" lon="-3.41241">
        <ele>-5.1499023</ele>
        <time>2011-08-12T07:25:12Z</time>
      </trkpt>
      <trkpt lat="47.63654" lon="-3.41235">
        <ele>-2.2659912</ele>
        <time>2011-08-12T07:25:22Z</time>
      </trkpt>
      <trkpt lat="47.63678" lon="-3.41227">
        <ele>-2.2659912</ele>
        <time>2011-08-12T07:25:32Z</time>
      </trkpt>
      <trkpt lat="47.63702" lon="-3.4122">
        <ele>-1.7852783</ele>
        <time>2011-08-12T07:25:42Z</time>
      </trkpt>
      <trkpt lat="47.63727" lon="-3.41217">
        <ele>-2.2659912</ele>
        <time>2011-08-12T07:25:52Z</time>
      </trkpt>
      <trkpt lat="47.63749" lon="-3.41213">
        <ele>-2.2659912</ele>
        <time>2011-08-12T07:26:02Z</time>
      </trkpt>
      <trkpt lat="47.63774" lon="-3.41214">
        <ele>-2.2659912</ele>
        <time>2011-08-12T07:26:12Z</time>
      </trkpt>
      <trkpt lat="47.63799" lon="-3.41209">
        <ele>0.618042</ele>
        <time>2011-08-12T07:26:22Z</time>
      </trkpt>
      <trkpt lat="47.6382" lon="-3.41207">
        <ele>1.0986328</ele>
        <time>2011-08-12T07:26:32Z</time>
      </trkpt>
      <trkpt lat="47.63839" lon="-3.41193">
        <ele>-0.3433838</ele>
        <time>2011-08-12T07:26:42Z</time>
      </trkpt>
      <trkpt lat="47.63858" lon="-3.41181">
        <ele>-1.3046875</ele>
        <time>2011-08-12T07:26:52Z</time>
      </trkpt>
      <trkpt lat="47.63878" lon="-3.41178">
        <ele>-0.8240967</ele>
        <time>2011-08-12T07:27:02Z</time>
      </trkpt>
      <trkpt lat="47.63896" lon="-3.41178">
        <ele>1.0986328</ele>
        <time>2011-08-12T07:27:12Z</time>
      </trkpt>
      <trkpt lat="47.63918" lon="-3.41175">
        <ele>1.0986328</ele>
        <time>2011-08-12T07:27:22Z</time>
      </trkpt>
      <trkpt lat="47.63941" lon="-3.41176">
        <ele>3.0212402</ele>
        <time>2011-08-12T07:27:32Z</time>
      </trkpt>
      <trkpt lat="47.63966" lon="-3.41175">
        <ele>-0.3433838</ele>
        <time>2011-08-12T07:27:42Z</time>
      </trkpt>
      <trkpt lat="47.63991" lon="-3.41174">
        <ele>2.0600586</ele>
        <time>2011-08-12T07:27:52Z</time>
      </trkpt>
      <trkpt lat="47.64015" lon="-3.41174">
        <ele>1.0986328</ele>
        <time>2011-08-12T07:28:02Z</time>
      </trkpt>
      <trkpt lat="47.64039" lon="-3.41178">
        <ele>-0.3433838</ele>
        <time>2011-08-12T07:28:12Z</time>
      </trkpt>
      <trkpt lat="47.64062" lon="-3.41184">
        <ele>-0.3433838</ele>
        <time>2011-08-12T07:28:22Z</time>
      </trkpt>
      <trkpt lat="47.64083" lon="-3.41192">
        <ele>0.1374512</ele>
        <time>2011-08-12T07:28:32Z</time>
      </trkpt>
      <trkpt lat="47.64103" lon="-3.412">
        <ele>0.1374512</ele>
        <time>2011-08-12T07:28:42Z</time>
      </trkpt>
      <trkpt lat="47.64122" lon="-3.41206">
        <ele>-1.3046875</ele>
        <time>2011-08-12T07:28:52Z</time>
      </trkpt>
      <trkpt lat="47.64143" lon="-3.41211">
        <ele>-0.8240967</ele>
        <time>2011-08-12T07:29:02Z</time>
      </trkpt>
      <trkpt lat="47.64165" lon="-3.41216">
        <ele>-3.2272949</ele>
        <time>2011-08-12T07:29:12Z</time>
      </trkpt>
      <trkpt lat="47.64188" lon="-3.4122">
        <ele>-5.6304932</ele>
        <time>2011-08-12T07:29:22Z</time>
      </trkpt>
      <trkpt lat="47.64209" lon="-3.41227">
        <ele>-5.6304932</ele>
        <time>2011-08-12T07:29:32Z</time>
      </trkpt>
      <trkpt lat="47.64229" lon="-3.41236">
        <ele>-8.5146484</ele>
        <time>2011-08-12T07:29:42Z</time>
      </trkpt>
      <trkpt lat="47.64248" lon="-3.41241">
        <ele>-5.6304932</ele>
        <time>2011-08-12T07:29:52Z</time>
      </trkpt>
      <trkpt lat="47.64269" lon="-3.41246">
        <ele>-1.7852783</ele>
        <time>2011-08-12T07:30:02Z</time>
      </trkpt>
      <trkpt lat="47.64288" lon="-3.41251">
        <ele>-0.3433838</ele>
        <time>2011-08-12T07:30:12Z</time>
      </trkpt>
      <trkpt lat="47.64307" lon="-3.41256">
        <ele>-2.2659912</ele>
        <time>2011-08-12T07:30:22Z</time>
      </trkpt>
      <trkpt lat="47.64327" lon="-3.4126">
        <ele>-3.2272949</ele>
        <time>2011-08-12T07:30:32Z</time>
      </trkpt>
      <trkpt lat="47.64346" lon="-3.41265">
        <ele>-3.2272949</ele>
        <time>2011-08-12T07:30:42Z</time>
      </trkpt>
      <trkpt lat="47.64367" lon="-3.41267">
        <ele>-5.1499023</ele>
        <time>2011-08-12T07:30:52Z</time>
      </trkpt>
      <trkpt lat="47.64387" lon="-3.41272">
        <ele>-3.2272949</ele>
        <time>2011-08-12T07:31:02Z</time>
      </trkpt>
      <trkpt lat="47.64407" lon="-3.41276">
        <ele>-2.7467041</ele>
        <time>2011-08-12T07:31:12Z</time>
      </trkpt>
      <trkpt lat="47.64428" lon="-3.41284">
        <ele>-1.7852783</ele>
        <time>2011-08-12T07:31:22Z</time>
      </trkpt>
      <trkpt lat="47.64451" lon="-3.4129">
        <ele>-2.2659912</ele>
        <time>2011-08-12T07:31:32Z</time>
      </trkpt>
      <trkpt lat="47.64472" lon="-3.41297">
        <ele>-1.7852783</ele>
        <time>2011-08-12T07:31:42Z</time>
      </trkpt>
      <trkpt lat="47.64495" lon="-3.41302">
        <ele>-3.2272949</ele>
        <time>2011-08-12T07:31:52Z</time>
      </trkpt>
      <trkpt lat="47.64517" lon="-3.41308">
        <ele>0.618042</ele>
        <time>2011-08-12T07:32:02Z</time>
      </trkpt>
      <trkpt lat="47.64541" lon="-3.41315">
        <ele>-0.3433838</ele>
        <time>2011-08-12T07:32:12Z</time>
      </trkpt>
      <trkpt lat="47.64564" lon="-3.41323">
        <ele>-1.7852783</ele>
        <time>2011-08-12T07:32:22Z</time>
      </trkpt>
      <trkpt lat="47.64591" lon="-3.41331">
        <ele>-1.3046875</ele>
        <time>2011-08-12T07:32:32Z</time>
      </trkpt>
      <trkpt lat="47.64615" lon="-3.41339">
        <ele>0.1374512</ele>
        <time>2011-08-12T07:32:42Z</time>
      </trkpt>
      <trkpt lat="47.64637" lon="-3.4135">
        <ele>3.0212402</ele>
        <time>2011-08-12T07:32:52Z</time>
      </trkpt>
      <trkpt lat="47.64662" lon="-3.41357">
        <ele>4.9438477</ele>
        <time>2011-08-12T07:33:02Z</time>
      </trkpt>
      <trkpt lat="47.64683" lon="-3.41362">
        <ele>1.5793457</ele>
        <time>2011-08-12T07:33:12Z</time>
      </trkpt>
      <trkpt lat="47.64705" lon="-3.41371">
        <ele>1.5793457</ele>
        <time>2011-08-12T07:33:22Z</time>
      </trkpt>
      <trkpt lat="47.64725" lon="-3.41379">
        <ele>1.5793457</ele>
        <time>2011-08-12T07:33:32Z</time>
      </trkpt>
      <trkpt lat="47.64748" lon="-3.41387">
        <ele>3.0212402</ele>
        <time>2011-08-12T07:33:42Z</time>
      </trkpt>
      <trkpt lat="47.64767" lon="-3.41398">
        <ele>3.0212402</ele>
        <time>2011-08-12T07:33:52Z</time>
      </trkpt>
      <trkpt lat="47.64786" lon="-3.41409">
        <ele>1.5793457</ele>
        <time>2011-08-12T07:34:02Z</time>
      </trkpt>
      <trkpt lat="47.64807" lon="-3.41419">
        <ele>3.0212402</ele>
        <time>2011-08-12T07:34:12Z</time>
      </trkpt>
      <trkpt lat="47.64828" lon="-3.41428">
        <ele>1.5793457</ele>
        <time>2011-08-12T07:34:22Z</time>
      </trkpt>
      <trkpt lat="47.6485" lon="-3.41437">
        <ele>-0.3433838</ele>
        <time>2011-08-12T07:34:32Z</time>
      </trkpt>
      <trkpt lat="47.64871" lon="-3.41448">
        <ele>-0.8240967</ele>
        <time>2011-08-12T07:34:42Z</time>
      </trkpt>
      <trkpt lat="47.64892" lon="-3.41458">
        <ele>0.618042</ele>
        <time>2011-08-12T07:34:52Z</time>
      </trkpt>
      <trkpt lat="47.64912" lon="-3.41471">
        <ele>1.5793457</ele>
        <time>2011-08-12T07:35:02Z</time>
      </trkpt>
      <trkpt lat="47.64929" lon="-3.41484">
        <ele>-0.8240967</ele>
        <time>2011-08-12T07:35:12Z</time>
      </trkpt>
      <trkpt lat="47.6495" lon="-3.41495">
        <ele>-1.3046875</ele>
        <time>2011-08-12T07:35:22Z</time>
      </trkpt>
      <trkpt lat="47.64972" lon="-3.41507">
        <ele>-2.7467041</ele>
        <time>2011-08-12T07:35:32Z</time>
      </trkpt>
      <trkpt lat="47.64994" lon="-3.41519">
        <ele>-1.3046875</ele>
        <time>2011-08-12T07:35:42Z</time>
      </trkpt>
      <trkpt lat="47.65017" lon="-3.41527">
        <ele>-1.7852783</ele>
        <time>2011-08-12T07:35:52Z</time>
      </trkpt>
      <trkpt lat="47.65038" lon="-3.41539">
        <ele>-3.7078857</ele>
        <time>2011-08-12T07:36:02Z</time>
      </trkpt>
      <trkpt lat="47.65062" lon="-3.4155">
        <ele>-0.8240967</ele>
        <time>2011-08-12T07:36:12Z</time>
      </trkpt>
      <trkpt lat="47.65081" lon="-3.41564">
        <ele>-0.3433838</ele>
        <time>2011-08-12T07:36:22Z</time>
      </trkpt>
      <trkpt lat="47.65104" lon="-3.41574">
        <ele>0.618042</ele>
        <time>2011-08-12T07:36:32Z</time>
      </trkpt>
      <trkpt lat="47.65128" lon="-3.41583">
        <ele>3.0212402</ele>
        <time>2011-08-12T07:36:42Z</time>
      </trkpt>
      <trkpt lat="47.65151" lon="-3.41595">
        <ele>5.9052734</ele>
        <time>2011-08-12T07:36:52Z</time>
      </trkpt>
      <trkpt lat="47.65171" lon="-3.41606">
        <ele>6.8664551</ele>
        <time>2011-08-12T07:37:02Z</time>
      </trkpt>
      <trkpt lat="47.65193" lon="-3.41616">
        <ele>6.8664551</ele>
        <time>2011-08-12T07:37:12Z</time>
      </trkpt>
      <trkpt lat="47.65212" lon="-3.41628">
        <ele>6.3858643</ele>
        <time>2011-08-12T07:37:22Z</time>
      </trkpt>
      <trkpt lat="47.65233" lon="-3.4164">
        <ele>5.4245605</ele>
        <time>2011-08-12T07:37:32Z</time>
      </trkpt>
      <trkpt lat="47.65255" lon="-3.41651">
        <ele>3.5019531</ele>
        <time>2011-08-12T07:37:42Z</time>
      </trkpt>
      <trkpt lat="47.65278" lon="-3.41661">
        <ele>2.5406494</ele>
        <time>2011-08-12T07:37:52Z</time>
      </trkpt>
      <trkpt lat="47.65298" lon="-3.41669">
        <ele>1.0986328</ele>
        <time>2011-08-12T07:38:02Z</time>
      </trkpt>
      <trkpt lat="47.65321" lon="-3.41677">
        <ele>-0.8240967</ele>
        <time>2011-08-12T07:38:12Z</time>
      </trkpt>
      <trkpt lat="47.65348" lon="-3.41687">
        <ele>-2.7467041</ele>
        <time>2011-08-12T07:38:22Z</time>
      </trkpt>
      <trkpt lat="47.65372" lon="-3.41696">
        <ele>-2.2659912</ele>
        <time>2011-08-12T07:38:32Z</time>
      </trkpt>
      <trkpt lat="47.65396" lon="-3.41708">
        <ele>-3.2272949</ele>
        <time>2011-08-12T07:38:42Z</time>
      </trkpt>
      <trkpt lat="47.65419" lon="-3.41717">
        <ele>-2.2659912</ele>
        <time>2011-08-12T07:38:52Z</time>
      </trkpt>
      <trkpt lat="47.65442" lon="-3.41728">
        <ele>0.618042</ele>
        <time>2011-08-12T07:39:02Z</time>
      </trkpt>
      <trkpt lat="47.65465" lon="-3.41739">
        <ele>3.5019531</ele>
        <time>2011-08-12T07:39:12Z</time>
      </trkpt>
      <trkpt lat="47.65489" lon="-3.41749">
        <ele>2.5406494</ele>
        <time>2011-08-12T07:39:22Z</time>
      </trkpt>
      <trkpt lat="47.65512" lon="-3.4176">
        <ele>0.1374512</ele>
        <time>2011-08-12T07:39:32Z</time>
      </trkpt>
      <trkpt lat="47.65536" lon="-3.41772">
        <ele>0.1374512</ele>
        <time>2011-08-12T07:39:42Z</time>
      </trkpt>
      <trkpt lat="47.6556" lon="-3.41783">
        <ele>-3.2272949</ele>
        <time>2011-08-12T07:39:52Z</time>
      </trkpt>
      <trkpt lat="47.65587" lon="-3.41786">
        <ele>-0.8240967</ele>
        <time>2011-08-12T07:40:02Z</time>
      </trkpt>
      <trkpt lat="47.65612" lon="-3.41794">
        <ele>1.0986328</ele>
        <time>2011-08-12T07:40:12Z</time>
      </trkpt>
      <trkpt lat="47.65635" lon="-3.41803">
        <ele>-2.2659912</ele>
        <time>2011-08-12T07:40:22Z</time>
      </trkpt>
      <trkpt lat="47.65656" lon="-3.41816">
        <ele>-4.1885986</ele>
        <time>2011-08-12T07:40:32Z</time>
      </trkpt>
      <trkpt lat="47.65675" lon="-3.41827">
        <ele>-4.1885986</ele>
        <time>2011-08-12T07:40:42Z</time>
      </trkpt>
      <trkpt lat="47.65699" lon="-3.41839">
        <ele>-3.7078857</ele>
        <time>2011-08-12T07:40:52Z</time>
      </trkpt>
      <trkpt lat="47.65719" lon="-3.41851">
        <ele>-4.1885986</ele>
        <time>2011-08-12T07:41:02Z</time>
      </trkpt>
      <trkpt lat="47.65738" lon="-3.41863">
        <ele>-4.1885986</ele>
        <time>2011-08-12T07:41:12Z</time>
      </trkpt>
      <trkpt lat="47.65759" lon="-3.41874">
        <ele>-5.1499023</ele>
        <time>2011-08-12T07:41:22Z</time>
      </trkpt>
      <trkpt lat="47.65781" lon="-3.41885">
        <ele>-5.1499023</ele>
        <time>2011-08-12T07:41:32Z</time>
      </trkpt>
      <trkpt lat="47.65802" lon="-3.41898">
        <ele>-5.6304932</ele>
        <time>2011-08-12T07:41:42Z</time>
      </trkpt>
      <trkpt lat="47.65824" lon="-3.41905">
        <ele>-5.6304932</ele>
        <time>2011-08-12T07:41:52Z</time>
      </trkpt>
      <trkpt lat="47.65845" lon="-3.41918">
        <ele>-5.6304932</ele>
        <time>2011-08-12T07:42:02Z</time>
      </trkpt>
      <trkpt lat="47.6586" lon="-3.4193">
        <ele>-6.1112061</ele>
        <time>2011-08-12T07:42:12Z</time>
      </trkpt>
      <trkpt lat="47.65876" lon="-3.4194">
        <ele>-6.5919189</ele>
        <time>2011-08-12T07:42:22Z</time>
      </trkpt>
      <trkpt lat="47.65892" lon="-3.41951">
        <ele>-6.1112061</ele>
        <time>2011-08-12T07:42:32Z</time>
      </trkpt>
      <trkpt lat="47.65906" lon="-3.4196">
        <ele>-6.5919189</ele>
        <time>2011-08-12T07:42:42Z</time>
      </trkpt>
      <trkpt lat="47.65926" lon="-3.41968">
        <ele>-7.5531006</ele>
        <time>2011-08-12T07:42:52Z</time>
      </trkpt>
      <trkpt lat="47.65946" lon="-3.41977">
        <ele>-10.4372559</ele>
        <time>2011-08-12T07:43:02Z</time>
      </trkpt>
      <trkpt lat="47.65964" lon="-3.41988">
        <ele>-9.956543</ele>
        <time>2011-08-12T07:43:12Z</time>
      </trkpt>
      <trkpt lat="47.65985" lon="-3.41999">
        <ele>-8.9952393</ele>
        <time>2011-08-12T07:43:22Z</time>
      </trkpt>
      <trkpt lat="47.66004" lon="-3.42009">
        <ele>-9.4758301</ele>
        <time>2011-08-12T07:43:32Z</time>
      </trkpt>
      <trkpt lat="47.66024" lon="-3.4202">
        <ele>-9.4758301</ele>
        <time>2011-08-12T07:43:42Z</time>
      </trkpt>
      <trkpt lat="47.66044" lon="-3.42029">
        <ele>-10.4372559</ele>
        <time>2011-08-12T07:43:52Z</time>
      </trkpt>
      <trkpt lat="47.66067" lon="-3.4204">
        <ele>-11.3984375</ele>
        <time>2011-08-12T07:44:02Z</time>
      </trkpt>
      <trkpt lat="47.66087" lon="-3.42053">
        <ele>-11.3984375</ele>
        <time>2011-08-12T07:44:12Z</time>
      </trkpt>
      <trkpt lat="47.66106" lon="-3.42065">
        <ele>-9.956543</ele>
        <time>2011-08-12T07:44:22Z</time>
      </trkpt>
      <trkpt lat="47.66128" lon="-3.42075">
        <ele>-7.0725098</ele>
        <time>2011-08-12T07:44:32Z</time>
      </trkpt>
      <trkpt lat="47.66146" lon="-3.42086">
        <ele>-7.5531006</ele>
        <time>2011-08-12T07:44:42Z</time>
      </trkpt>
      <trkpt lat="47.66163" lon="-3.42098">
        <ele>-8.0339355</ele>
        <time>2011-08-12T07:44:52Z</time>
      </trkpt>
      <trkpt lat="47.66181" lon="-3.42109">
        <ele>-5.6304932</ele>
        <time>2011-08-12T07:45:02Z</time>
      </trkpt>
      <trkpt lat="47.662" lon="-3.42118">
        <ele>-2.7467041</ele>
        <time>2011-08-12T07:45:12Z</time>
      </trkpt>
      <trkpt lat="47.66217" lon="-3.42126">
        <ele>-1.7852783</ele>
        <time>2011-08-12T07:45:22Z</time>
      </trkpt>
      <trkpt lat="47.6624" lon="-3.42131">
        <ele>-1.7852783</ele>
        <time>2011-08-12T07:45:32Z</time>
      </trkpt>
      <trkpt lat="47.66264" lon="-3.42138">
        <ele>-1.3046875</ele>
        <time>2011-08-12T07:45:42Z</time>
      </trkpt>
      <trkpt lat="47.66285" lon="-3.42145">
        <ele>-1.3046875</ele>
        <time>2011-08-12T07:45:52Z</time>
      </trkpt>
      <trkpt lat="47.66307" lon="-3.42152">
        <ele>-5.1499023</ele>
        <time>2011-08-12T07:46:02Z</time>
      </trkpt>
      <trkpt lat="47.6633" lon="-3.42163">
        <ele>-4.6693115</ele>
        <time>2011-08-12T07:46:12Z</time>
      </trkpt>
      <trkpt lat="47.66351" lon="-3.42175">
        <ele>-3.2272949</ele>
        <time>2011-08-12T07:46:22Z</time>
      </trkpt>
      <trkpt lat="47.66372" lon="-3.42186">
        <ele>-5.1499023</ele>
        <time>2011-08-12T07:46:32Z</time>
      </trkpt>
      <trkpt lat="47.66391" lon="-3.42197">
        <ele>-5.1499023</ele>
        <time>2011-08-12T07:46:42Z</time>
      </trkpt>
      <trkpt lat="47.66411" lon="-3.42208">
        <ele>-5.1499023</ele>
        <time>2011-08-12T07:46:52Z</time>
      </trkpt>
      <trkpt lat="47.66434" lon="-3.42217">
        <ele>-5.6304932</ele>
        <time>2011-08-12T07:47:02Z</time>
      </trkpt>
      <trkpt lat="47.66454" lon="-3.4223">
        <ele>-2.7467041</ele>
        <time>2011-08-12T07:47:12Z</time>
      </trkpt>
      <trkpt lat="47.66476" lon="-3.42241">
        <ele>0.1374512</ele>
        <time>2011-08-12T07:47:22Z</time>
      </trkpt>
      <trkpt lat="47.66498" lon="-3.4225">
        <ele>0.618042</ele>
        <time>2011-08-12T07:47:32Z</time>
      </trkpt>
      <trkpt lat="47.66516" lon="-3.42259">
        <ele>-0.3433838</ele>
        <time>2011-08-12T07:47:42Z</time>
      </trkpt>
      <trkpt lat="47.66539" lon="-3.42268">
        <ele>-2.2659912</ele>
        <time>2011-08-12T07:47:52Z</time>
      </trkpt>
      <trkpt lat="47.66558" lon="-3.42275">
        <ele>-3.7078857</ele>
        <time>2011-08-12T07:48:02Z</time>
      </trkpt>
      <trkpt lat="47.66576" lon="-3.42285">
        <ele>-5.1499023</ele>
        <time>2011-08-12T07:48:12Z</time>
      </trkpt>
      <trkpt lat="47.66598" lon="-3.42296">
        <ele>-0.8240967</ele>
        <time>2011-08-12T07:48:22Z</time>
      </trkpt>
      <trkpt lat="47.6662" lon="-3.42305">
        <ele>-0.3433838</ele>
        <time>2011-08-12T07:48:32Z</time>
      </trkpt>
      <trkpt lat="47.66639" lon="-3.42316">
        <ele>-2.2659912</ele>
        <time>2011-08-12T07:48:42Z</time>
      </trkpt>
      <trkpt lat="47.66661" lon="-3.42327">
        <ele>-3.2272949</ele>
        <time>2011-08-12T07:48:52Z</time>
      </trkpt>
      <trkpt lat="47.6668" lon="-3.42337">
        <ele>-0.8240967</ele>
        <time>2011-08-12T07:49:02Z</time>
      </trkpt>
      <trkpt lat="47.667" lon="-3.4235">
        <ele>-0.8240967</ele>
        <time>2011-08-12T07:49:12Z</time>
      </trkpt>
      <trkpt lat="47.6672" lon="-3.42361">
        <ele>2.5406494</ele>
        <time>2011-08-12T07:49:22Z</time>
      </trkpt>
      <trkpt lat="47.66741" lon="-3.42371">
        <ele>3.0212402</ele>
        <time>2011-08-12T07:49:32Z</time>
      </trkpt>
      <trkpt lat="47.66764" lon="-3.42384">
        <ele>2.5406494</ele>
        <time>2011-08-12T07:49:42Z</time>
      </trkpt>
      <trkpt lat="47.66784" lon="-3.42398">
        <ele>2.5406494</ele>
        <time>2011-08-12T07:49:52Z</time>
      </trkpt>
      <trkpt lat="47.66802" lon="-3.4241">
        <ele>1.0986328</ele>
        <time>2011-08-12T07:50:02Z</time>
      </trkpt>
      <trkpt lat="47.66819" lon="-3.42421">
        <ele>-0.3433838</ele>
        <time>2011-08-12T07:50:12Z</time>
      </trkpt>
      <trkpt lat="47.66837" lon="-3.42431">
        <ele>-1.7852783</ele>
        <time>2011-08-12T07:50:22Z</time>
      </trkpt>
      <trkpt lat="47.66855" lon="-3.42447">
        <ele>-2.2659912</ele>
        <time>2011-08-12T07:50:32Z</time>
      </trkpt>
      <trkpt lat="47.66871" lon="-3.42462">
        <ele>-2.2659912</ele>
        <time>2011-08-12T07:50:42Z</time>
      </trkpt>
      <trkpt lat="47.66888" lon="-3.42477">
        <ele>-2.7467041</ele>
        <time>2011-08-12T07:50:52Z</time>
      </trkpt>
      <trkpt lat="47.66907" lon="-3.42492">
        <ele>1.0986328</ele>
        <time>2011-08-12T07:51:02Z</time>
      </trkpt>
      <trkpt lat="47.66928" lon="-3.42507">
        <ele>-0.3433838</ele>
        <time>2011-08-12T07:51:12Z</time>
      </trkpt>
      <trkpt lat="47.66945" lon="-3.42515">
        <ele>-0.3433838</ele>
        <time>2011-08-12T07:51:22Z</time>
      </trkpt>
      <trkpt lat="47.6696" lon="-3.42525">
        <ele>1.0986328</ele>
        <time>2011-08-12T07:51:32Z</time>
      </trkpt>
      <trkpt lat="47.66977" lon="-3.42532">
        <ele>0.1374512</ele>
        <time>2011-08-12T07:51:42Z</time>
      </trkpt>
      <trkpt lat="47.66997" lon="-3.42543">
        <ele>0.1374512</ele>
        <time>2011-08-12T07:51:52Z</time>
      </trkpt>
      <trkpt lat="47.6702" lon="-3.42552">
        <ele>-1.3046875</ele>
        <time>2011-08-12T07:52:02Z</time>
      </trkpt>
      <trkpt lat="47.67043" lon="-3.42559">
        <ele>-0.8240967</ele>
        <time>2011-08-12T07:52:12Z</time>
      </trkpt>
      <trkpt lat="47.67064" lon="-3.42572">
        <ele>-0.8240967</ele>
        <time>2011-08-12T07:52:22Z</time>
      </trkpt>
      <trkpt lat="47.67082" lon="-3.42588">
        <ele>1.0986328</ele>
        <time>2011-08-12T07:52:32Z</time>
      </trkpt>
      <trkpt lat="47.67104" lon="-3.42598">
        <ele>4.4632568</ele>
        <time>2011-08-12T07:52:42Z</time>
      </trkpt>
      <trkpt lat="47.6712" lon="-3.42614">
        <ele>6.3858643</ele>
        <time>2011-08-12T07:52:52Z</time>
      </trkpt>
      <trkpt lat="47.67129" lon="-3.42634">
        <ele>9.2698975</ele>
        <time>2011-08-12T07:53:02Z</time>
      </trkpt>
      <trkpt lat="47.67151" lon="-3.42647">
        <ele>9.7506104</ele>
        <time>2011-08-12T07:53:12Z</time>
      </trkpt>
      <trkpt lat="47.67171" lon="-3.42658">
        <ele>9.7506104</ele>
        <time>2011-08-12T07:53:22Z</time>
      </trkpt>
      <trkpt lat="47.67191" lon="-3.4267">
        <ele>4.9438477</ele>
        <time>2011-08-12T07:53:32Z</time>
      </trkpt>
      <trkpt lat="47.67213" lon="-3.42685">
        <ele>-5.6304932</ele>
        <time>2011-08-12T07:53:42Z</time>
      </trkpt>
      <trkpt lat="47.67233" lon="-3.42703">
        <ele>-8.5146484</ele>
        <time>2011-08-12T07:53:52Z</time>
      </trkpt>
      <trkpt lat="47.67253" lon="-3.42717">
        <ele>-8.5146484</ele>
        <time>2011-08-12T07:54:02Z</time>
      </trkpt>
      <trkpt lat="47.67272" lon="-3.42731">
        <ele>-5.6304932</ele>
        <time>2011-08-12T07:54:12Z</time>
      </trkpt>
      <trkpt lat="47.67293" lon="-3.42747">
        <ele>-4.1885986</ele>
        <time>2011-08-12T07:54:22Z</time>
      </trkpt>
      <trkpt lat="47.67311" lon="-3.42761">
        <ele>-3.7078857</ele>
        <time>2011-08-12T07:54:32Z</time>
      </trkpt>
      <trkpt lat="47.67329" lon="-3.42775">
        <ele>-3.2272949</ele>
        <time>2011-08-12T07:54:42Z</time>
      </trkpt>
      <trkpt lat="47.67344" lon="-3.42788">
        <ele>-4.1885986</ele>
        <time>2011-08-12T07:54:52Z</time>
      </trkpt>
      <trkpt lat="47.67366" lon="-3.42808">
        <ele>-3.7078857</ele>
        <time>2011-08-12T07:55:02Z</time>
      </trkpt>
      <trkpt lat="47.67385" lon="-3.42823">
        <ele>-2.7467041</ele>
        <time>2011-08-12T07:55:12Z</time>
      </trkpt>
      <trkpt lat="47.67398" lon="-3.42832">
        <ele>-0.8240967</ele>
        <time>2011-08-12T07:55:22Z</time>
      </trkpt>
      <trkpt lat="47.67413" lon="-3.42845">
        <ele>2.5406494</ele>
        <time>2011-08-12T07:55:32Z</time>
      </trkpt>
      <trkpt lat="47.67434" lon="-3.42859">
        <ele>1.5793457</ele>
        <time>2011-08-12T07:55:42Z</time>
      </trkpt>
      <trkpt lat="47.67454" lon="-3.42871">
        <ele>2.0600586</ele>
        <time>2011-08-12T07:55:52Z</time>
      </trkpt>
      <trkpt lat="47.67474" lon="-3.42882">
        <ele>2.5406494</ele>
        <time>2011-08-12T07:56:02Z</time>
      </trkpt>
      <trkpt lat="47.67495" lon="-3.42896">
        <ele>2.5406494</ele>
        <time>2011-08-12T07:56:12Z</time>
      </trkpt>
      <trkpt lat="47.67516" lon="-3.42912">
        <ele>2.0600586</ele>
        <time>2011-08-12T07:56:22Z</time>
      </trkpt>
      <trkpt lat="47.67537" lon="-3.42926">
        <ele>2.0600586</ele>
        <time>2011-08-12T07:56:32Z</time>
      </trkpt>
      <trkpt lat="47.67561" lon="-3.42941">
        <ele>2.0600586</ele>
        <time>2011-08-12T07:56:42Z</time>
      </trkpt>
      <trkpt lat="47.67581" lon="-3.42955">
        <ele>1.5793457</ele>
        <time>2011-08-12T07:56:52Z</time>
      </trkpt>
      <trkpt lat="47.676" lon="-3.42973">
        <ele>1.0986328</ele>
        <time>2011-08-12T07:57:02Z</time>
      </trkpt>
      <trkpt lat="47.67616" lon="-3.42993">
        <ele>0.618042</ele>
        <time>2011-08-12T07:57:12Z</time>
      </trkpt>
      <trkpt lat="47.67632" lon="-3.43008">
        <ele>-0.3433838</ele>
        <time>2011-08-12T07:57:22Z</time>
      </trkpt>
      <trkpt lat="47.67652" lon="-3.43026">
        <ele>0.1374512</ele>
        <time>2011-08-12T07:57:32Z</time>
      </trkpt>
      <trkpt lat="47.67669" lon="-3.43027">
        <ele>3.0212402</ele>
        <time>2011-08-12T07:57:42Z</time>
      </trkpt>
      <trkpt lat="47.6769" lon="-3.43038">
        <ele>5.4245605</ele>
        <time>2011-08-12T07:57:52Z</time>
      </trkpt>
      <trkpt lat="47.6771" lon="-3.43052">
        <ele>6.3858643</ele>
        <time>2011-08-12T07:58:02Z</time>
      </trkpt>
      <trkpt lat="47.67732" lon="-3.43069">
        <ele>9.7506104</ele>
        <time>2011-08-12T07:58:12Z</time>
      </trkpt>
      <trkpt lat="47.67749" lon="-3.43088">
        <ele>14.5570068</ele>
        <time>2011-08-12T07:58:22Z</time>
      </trkpt>
      <trkpt lat="47.67768" lon="-3.43101">
        <ele>17.9217529</ele>
        <time>2011-08-12T07:58:32Z</time>
      </trkpt>
      <trkpt lat="47.67792" lon="-3.43115">
        <ele>20.8056641</ele>
        <time>2011-08-12T07:58:42Z</time>
      </trkpt>
      <trkpt lat="47.67813" lon="-3.43132">
        <ele>23.2089844</ele>
        <time>2011-08-12T07:58:52Z</time>
      </trkpt>
      <trkpt lat="47.67833" lon="-3.43142">
        <ele>23.6895752</ele>
        <time>2011-08-12T07:59:02Z</time>
      </trkpt>
      <trkpt lat="47.67854" lon="-3.43157">
        <ele>23.2089844</ele>
        <time>2011-08-12T07:59:12Z</time>
      </trkpt>
      <trkpt lat="47.67875" lon="-3.4317">
        <ele>15.9990234</ele>
        <time>2011-08-12T07:59:22Z</time>
      </trkpt>
      <trkpt lat="47.67893" lon="-3.43181">
        <ele>11.1925049</ele>
        <time>2011-08-12T07:59:32Z</time>
      </trkpt>
      <trkpt lat="47.67912" lon="-3.43195">
        <ele>7.347168</ele>
        <time>2011-08-12T07:59:42Z</time>
      </trkpt>
      <trkpt lat="47.67933" lon="-3.4321">
        <ele>4.4632568</ele>
        <time>2011-08-12T07:59:52Z</time>
      </trkpt>
      <trkpt lat="47.67954" lon="-3.43226">
        <ele>2.0600586</ele>
        <time>2011-08-12T08:00:02Z</time>
      </trkpt>
      <trkpt lat="47.67974" lon="-3.43239">
        <ele>-0.3433838</ele>
        <time>2011-08-12T08:00:12Z</time>
      </trkpt>
      <trkpt lat="47.67992" lon="-3.43253">
        <ele>-2.7467041</ele>
        <time>2011-08-12T08:00:22Z</time>
      </trkpt>
      <trkpt lat="47.68011" lon="-3.43267">
        <ele>-2.7467041</ele>
        <time>2011-08-12T08:00:32Z</time>
      </trkpt>
      <trkpt lat="47.68029" lon="-3.43282">
        <ele>-2.2659912</ele>
        <time>2011-08-12T08:00:42Z</time>
      </trkpt>
      <trkpt lat="47.68047" lon="-3.43299">
        <ele>-2.7467041</ele>
        <time>2011-08-12T08:00:52Z</time>
      </trkpt>
      <trkpt lat="47.68064" lon="-3.43314">
        <ele>-2.7467041</ele>
        <time>2011-08-12T08:01:02Z</time>
      </trkpt>
      <trkpt lat="47.68078" lon="-3.43331">
        <ele>-2.2659912</ele>
        <time>2011-08-12T08:01:12Z</time>
      </trkpt>
      <trkpt lat="47.68097" lon="-3.43349">
        <ele>-3.7078857</ele>
        <time>2011-08-12T08:01:22Z</time>
      </trkpt>
      <trkpt lat="47.68115" lon="-3.43366">
        <ele>-4.1885986</ele>
        <time>2011-08-12T08:01:32Z</time>
      </trkpt>
      <trkpt lat="47.6813" lon="-3.43383">
        <ele>-3.7078857</ele>
        <time>2011-08-12T08:01:42Z</time>
      </trkpt>
      <trkpt lat="47.68143" lon="-3.43398">
        <ele>-3.2272949</ele>
        <time>2011-08-12T08:01:52Z</time>
      </trkpt>
      <trkpt lat="47.68157" lon="-3.43416">
        <ele>-3.7078857</ele>
        <time>2011-08-12T08:02:02Z</time>
      </trkpt>
      <trkpt lat="47.68171" lon="-3.43429">
        <ele>0.1374512</ele>
        <time>2011-08-12T08:02:12Z</time>
      </trkpt>
      <trkpt lat="47.68188" lon="-3.43445">
        <ele>3.5019531</ele>
        <time>2011-08-12T08:02:22Z</time>
      </trkpt>
      <trkpt lat="47.68204" lon="-3.43457">
        <ele>7.347168</ele>
        <time>2011-08-12T08:02:32Z</time>
      </trkpt>
      <trkpt lat="47.68223" lon="-3.4347">
        <ele>10.711792</ele>
        <time>2011-08-12T08:02:42Z</time>
      </trkpt>
      <trkpt lat="47.68246" lon="-3.43485">
        <ele>11.1925049</ele>
        <time>2011-08-12T08:02:52Z</time>
      </trkpt>
      <trkpt lat="47.6827" lon="-3.43501">
        <ele>13.1151123</ele>
        <time>2011-08-12T08:03:02Z</time>
      </trkpt>
      <trkpt lat="47.68293" lon="-3.43518">
        <ele>10.711792</ele>
        <time>2011-08-12T08:03:12Z</time>
      </trkpt>
      <trkpt lat="47.68317" lon="-3.43535">
        <ele>12.6343994</ele>
        <time>2011-08-12T08:03:22Z</time>
      </trkpt>
      <trkpt lat="47.68342" lon="-3.43553">
        <ele>10.2312012</ele>
        <time>2011-08-12T08:03:32Z</time>
      </trkpt>
      <trkpt lat="47.68372" lon="-3.43574">
        <ele>5.9052734</ele>
        <time>2011-08-12T08:03:42Z</time>
      </trkpt>
      <trkpt lat="47.68397" lon="-3.43593">
        <ele>0.1374512</ele>
        <time>2011-08-12T08:03:52Z</time>
      </trkpt>
      <trkpt lat="47.68416" lon="-3.43615">
        <ele>-3.7078857</ele>
        <time>2011-08-12T08:04:02Z</time>
      </trkpt>
      <trkpt lat="47.68437" lon="-3.43634">
        <ele>-6.5919189</ele>
        <time>2011-08-12T08:04:12Z</time>
      </trkpt>
      <trkpt lat="47.68456" lon="-3.43652">
        <ele>-3.7078857</ele>
        <time>2011-08-12T08:04:22Z</time>
      </trkpt>
      <trkpt lat="47.68473" lon="-3.43671">
        <ele>-3.7078857</ele>
        <time>2011-08-12T08:04:32Z</time>
      </trkpt>
      <trkpt lat="47.68491" lon="-3.43689">
        <ele>-2.2659912</ele>
        <time>2011-08-12T08:04:42Z</time>
      </trkpt>
      <trkpt lat="47.68512" lon="-3.43707">
        <ele>-1.7852783</ele>
        <time>2011-08-12T08:04:52Z</time>
      </trkpt>
      <trkpt lat="47.68535" lon="-3.43723">
        <ele>-3.2272949</ele>
        <time>2011-08-12T08:05:02Z</time>
      </trkpt>
      <trkpt lat="47.68561" lon="-3.43737">
        <ele>-1.3046875</ele>
        <time>2011-08-12T08:05:12Z</time>
      </trkpt>
      <trkpt lat="47.68589" lon="-3.43752">
        <ele>-0.8240967</ele>
        <time>2011-08-12T08:05:22Z</time>
      </trkpt>
      <trkpt lat="47.68615" lon="-3.43773">
        <ele>-1.3046875</ele>
        <time>2011-08-12T08:05:32Z</time>
      </trkpt>
      <trkpt lat="47.68642" lon="-3.43791">
        <ele>-0.3433838</ele>
        <time>2011-08-12T08:05:42Z</time>
      </trkpt>
      <trkpt lat="47.6867" lon="-3.43809">
        <ele>0.618042</ele>
        <time>2011-08-12T08:05:52Z</time>
      </trkpt>
      <trkpt lat="47.68695" lon="-3.43826">
        <ele>-0.3433838</ele>
        <time>2011-08-12T08:06:02Z</time>
      </trkpt>
      <trkpt lat="47.6872" lon="-3.43846">
        <ele>-0.3433838</ele>
        <time>2011-08-12T08:06:12Z</time>
      </trkpt>
      <trkpt lat="47.68744" lon="-3.43871">
        <ele>-0.8240967</ele>
        <time>2011-08-12T08:06:22Z</time>
      </trkpt>
      <trkpt lat="47.68767" lon="-3.4389">
        <ele>-1.3046875</ele>
        <time>2011-08-12T08:06:32Z</time>
      </trkpt>
      <trkpt lat="47.68788" lon="-3.43909">
        <ele>-1.7852783</ele>
        <time>2011-08-12T08:06:42Z</time>
      </trkpt>
      <trkpt lat="47.68809" lon="-3.43929">
        <ele>-2.2659912</ele>
        <time>2011-08-12T08:06:52Z</time>
      </trkpt>
      <trkpt lat="47.68831" lon="-3.43948">
        <ele>-5.6304932</ele>
        <time>2011-08-12T08:07:02Z</time>
      </trkpt>
      <trkpt lat="47.68854" lon="-3.43968">
        <ele>-5.6304932</ele>
        <time>2011-08-12T08:07:12Z</time>
      </trkpt>
      <trkpt lat="47.68875" lon="-3.43989">
        <ele>-8.9952393</ele>
        <time>2011-08-12T08:07:22Z</time>
      </trkpt>
      <trkpt lat="47.68898" lon="-3.44008">
        <ele>-14.2824707</ele>
        <time>2011-08-12T08:07:32Z</time>
      </trkpt>
      <trkpt lat="47.68913" lon="-3.44031">
        <ele>-12.8404541</ele>
        <time>2011-08-12T08:07:42Z</time>
      </trkpt>
      <trkpt lat="47.68927" lon="-3.4405">
        <ele>-8.0339355</ele>
        <time>2011-08-12T08:07:52Z</time>
      </trkpt>
      <trkpt lat="47.68949" lon="-3.44059">
        <ele>-5.1499023</ele>
        <time>2011-08-12T08:08:02Z</time>
      </trkpt>
      <trkpt lat="47.68969" lon="-3.44075">
        <ele>-4.6693115</ele>
        <time>2011-08-12T08:08:12Z</time>
      </trkpt>
      <trkpt lat="47.68987" lon="-3.44093">
        <ele>-5.1499023</ele>
        <time>2011-08-12T08:08:22Z</time>
      </trkpt>
      <trkpt lat="47.69005" lon="-3.44109">
        <ele>-6.5919189</ele>
        <time>2011-08-12T08:08:32Z</time>
      </trkpt>
      <trkpt lat="47.69025" lon="-3.44122">
        <ele>-6.5919189</ele>
        <time>2011-08-12T08:08:42Z</time>
      </trkpt>
      <trkpt lat="47.69051" lon="-3.4414">
        <ele>-6.1112061</ele>
        <time>2011-08-12T08:08:52Z</time>
      </trkpt>
      <trkpt lat="47.69071" lon="-3.44154">
        <ele>-6.5919189</ele>
        <time>2011-08-12T08:09:02Z</time>
      </trkpt>
      <trkpt lat="47.69094" lon="-3.4417">
        <ele>-7.5531006</ele>
        <time>2011-08-12T08:09:12Z</time>
      </trkpt>
      <trkpt lat="47.69113" lon="-3.44186">
        <ele>-9.4758301</ele>
        <time>2011-08-12T08:09:22Z</time>
      </trkpt>
      <trkpt lat="47.69131" lon="-3.44206">
        <ele>-10.9178467</ele>
        <time>2011-08-12T08:09:32Z</time>
      </trkpt>
      <trkpt lat="47.69151" lon="-3.44225">
        <ele>-9.4758301</ele>
        <time>2011-08-12T08:09:42Z</time>
      </trkpt>
      <trkpt lat="47.69178" lon="-3.44239">
        <ele>-8.9952393</ele>
        <time>2011-08-12T08:09:52Z</time>
      </trkpt>
      <trkpt lat="47.69205" lon="-3.44254">
        <ele>-6.1112061</ele>
        <time>2011-08-12T08:10:02Z</time>
      </trkpt>
      <trkpt lat="47.69229" lon="-3.44265">
        <ele>-5.6304932</ele>
        <time>2011-08-12T08:10:12Z</time>
      </trkpt>
      <trkpt lat="47.69254" lon="-3.44277">
        <ele>-4.6693115</ele>
        <time>2011-08-12T08:10:22Z</time>
      </trkpt>
      <trkpt lat="47.69272" lon="-3.44291">
        <ele>-4.6693115</ele>
        <time>2011-08-12T08:10:32Z</time>
      </trkpt>
      <trkpt lat="47.69289" lon="-3.44304">
        <ele>-3.2272949</ele>
        <time>2011-08-12T08:10:42Z</time>
      </trkpt>
      <trkpt lat="47.69303" lon="-3.44309">
        <ele>-3.7078857</ele>
        <time>2011-08-12T08:10:52Z</time>
      </trkpt>
      <trkpt lat="47.69313" lon="-3.44313">
        <ele>-5.6304932</ele>
        <time>2011-08-12T08:11:02Z</time>
      </trkpt>
      <trkpt lat="47.6932" lon="-3.44314">
        <ele>-7.0725098</ele>
        <time>2011-08-12T08:11:12Z</time>
      </trkpt>
      <trkpt lat="47.69328" lon="-3.44311">
        <ele>-6.5919189</ele>
        <time>2011-08-12T08:11:22Z</time>
      </trkpt>
      <trkpt lat="47.69336" lon="-3.44315">
        <ele>-3.7078857</ele>
        <time>2011-08-12T08:11:32Z</time>
      </trkpt>
      <trkpt lat="47.69342" lon="-3.44317">
        <ele>-4.1885986</ele>
        <time>2011-08-12T08:11:42Z</time>
      </trkpt>
      <trkpt lat="47.6934" lon="-3.44311">
        <ele>-3.2272949</ele>
        <time>2011-08-12T08:11:52Z</time>
      </trkpt>
      <trkpt lat="47.69339" lon="-3.4431">
        <ele>-3.2272949</ele>
        <time>2011-08-12T08:12:02Z</time>
      </trkpt>
      <trkpt lat="47.69337" lon="-3.44309">
        <ele>-2.7467041</ele>
        <time>2011-08-12T08:12:12Z</time>
      </trkpt>
      <trkpt lat="47.69331" lon="-3.44311">
        <ele>-2.7467041</ele>
        <time>2011-08-12T08:12:22Z</time>
      </trkpt>
      <trkpt lat="47.6933" lon="-3.44307">
        <ele>-2.7467041</ele>
        <time>2011-08-12T08:12:32Z</time>
      </trkpt>
      <trkpt lat="47.69324" lon="-3.44306">
        <ele>-2.7467041</ele>
        <time>2011-08-12T08:12:42Z</time>
      </trkpt>
      <trkpt lat="47.6932" lon="-3.44306">
        <ele>-3.2272949</ele>
        <time>2011-08-12T08:12:52Z</time>
      </trkpt>
      <trkpt lat="47.69315" lon="-3.44311">
        <ele>-3.7078857</ele>
        <time>2011-08-12T08:13:02Z</time>
      </trkpt>
      <trkpt lat="47.69306" lon="-3.44313">
        <ele>-4.6693115</ele>
        <time>2011-08-12T08:13:12Z</time>
      </trkpt>
      <trkpt lat="47.69297" lon="-3.44321">
        <ele>-6.1112061</ele>
        <time>2011-08-12T08:13:22Z</time>
      </trkpt>
      <trkpt lat="47.69289" lon="-3.44327">
        <ele>-6.5919189</ele>
        <time>2011-08-12T08:13:32Z</time>
      </trkpt>
      <trkpt lat="47.69281" lon="-3.44332">
        <ele>-5.1499023</ele>
        <time>2011-08-12T08:13:42Z</time>
      </trkpt>
      <trkpt lat="47.69276" lon="-3.4434">
        <ele>-4.1885986</ele>
        <time>2011-08-12T08:13:52Z</time>
      </trkpt>
      <trkpt lat="47.6927" lon="-3.4435">
        <ele>-4.6693115</ele>
        <time>2011-08-12T08:14:02Z</time>
      </trkpt>
      <trkpt lat="47.69265" lon="-3.4436">
        <ele>-3.2272949</ele>
        <time>2011-08-12T08:14:12Z</time>
      </trkpt>
      <trkpt lat="47.6926" lon="-3.44372">
        <ele>-1.7852783</ele>
        <time>2011-08-12T08:14:22Z</time>
      </trkpt>
      <trkpt lat="47.69257" lon="-3.44385">
        <ele>-2.7467041</ele>
        <time>2011-08-12T08:14:32Z</time>
      </trkpt>
      <trkpt lat="47.69249" lon="-3.44399">
        <ele>-2.7467041</ele>
        <time>2011-08-12T08:14:42Z</time>
      </trkpt>
      <trkpt lat="47.69244" lon="-3.44407">
        <ele>-3.2272949</ele>
        <time>2011-08-12T08:14:52Z</time>
      </trkpt>
      <trkpt lat="47.6924" lon="-3.44411">
        <ele>-3.2272949</ele>
        <time>2011-08-12T08:15:02Z</time>
      </trkpt>
      <trkpt lat="47.69232" lon="-3.44421">
        <ele>-3.7078857</ele>
        <time>2011-08-12T08:15:12Z</time>
      </trkpt>
      <trkpt lat="47.69221" lon="-3.44433">
        <ele>-1.3046875</ele>
        <time>2011-08-12T08:15:22Z</time>
      </trkpt>
      <trkpt lat="47.69198" lon="-3.44444">
        <ele>-1.7852783</ele>
        <time>2011-08-12T08:15:32Z</time>
      </trkpt>
      <trkpt lat="47.69183" lon="-3.44469">
        <ele>-3.7078857</ele>
        <time>2011-08-12T08:15:42Z</time>
      </trkpt>
      <trkpt lat="47.69167" lon="-3.44495">
        <ele>-2.2659912</ele>
        <time>2011-08-12T08:15:52Z</time>
      </trkpt>
      <trkpt lat="47.69154" lon="-3.44519">
        <ele>-1.3046875</ele>
        <time>2011-08-12T08:16:02Z</time>
      </trkpt>
      <trkpt lat="47.69139" lon="-3.44543">
        <ele>-0.3433838</ele>
        <time>2011-08-12T08:16:12Z</time>
      </trkpt>
      <trkpt lat="47.69122" lon="-3.44564">
        <ele>0.618042</ele>
        <time>2011-08-12T08:16:22Z</time>
      </trkpt>
      <trkpt lat="47.69105" lon="-3.44588">
        <ele>1.5793457</ele>
        <time>2011-08-12T08:16:32Z</time>
      </trkpt>
      <trkpt lat="47.69086" lon="-3.44619">
        <ele>3.0212402</ele>
        <time>2011-08-12T08:16:42Z</time>
      </trkpt>
      <trkpt lat="47.69072" lon="-3.44643">
        <ele>2.0600586</ele>
        <time>2011-08-12T08:16:52Z</time>
      </trkpt>
      <trkpt lat="47.69058" lon="-3.44673">
        <ele>2.0600586</ele>
        <time>2011-08-12T08:17:02Z</time>
      </trkpt>
      <trkpt lat="47.69046" lon="-3.447">
        <ele>-1.3046875</ele>
        <time>2011-08-12T08:17:12Z</time>
      </trkpt>
      <trkpt lat="47.69031" lon="-3.44728">
        <ele>0.1374512</ele>
        <time>2011-08-12T08:17:22Z</time>
      </trkpt>
      <trkpt lat="47.69008" lon="-3.44753">
        <ele>2.0600586</ele>
        <time>2011-08-12T08:17:32Z</time>
      </trkpt>
      <trkpt lat="47.68983" lon="-3.4478">
        <ele>4.4632568</ele>
        <time>2011-08-12T08:17:42Z</time>
      </trkpt>
      <trkpt lat="47.68955" lon="-3.44807">
        <ele>1.5793457</ele>
        <time>2011-08-12T08:17:52Z</time>
      </trkpt>
      <trkpt lat="47.6893" lon="-3.44835">
        <ele>-0.8240967</ele>
        <time>2011-08-12T08:18:02Z</time>
      </trkpt>
      <trkpt lat="47.68904" lon="-3.44863">
        <ele>-2.2659912</ele>
        <time>2011-08-12T08:18:12Z</time>
      </trkpt>
      <trkpt lat="47.6888" lon="-3.44894">
        <ele>-2.7467041</ele>
        <time>2011-08-12T08:18:22Z</time>
      </trkpt>
      <trkpt lat="47.68855" lon="-3.44924">
        <ele>-1.7852783</ele>
        <time>2011-08-12T08:18:32Z</time>
      </trkpt>
      <trkpt lat="47.68831" lon="-3.44958">
        <ele>-1.7852783</ele>
        <time>2011-08-12T08:18:42Z</time>
      </trkpt>
      <trkpt lat="47.68808" lon="-3.44989">
        <ele>-1.3046875</ele>
        <time>2011-08-12T08:18:52Z</time>
      </trkpt>
      <trkpt lat="47.68785" lon="-3.45019">
        <ele>-1.3046875</ele>
        <time>2011-08-12T08:19:02Z</time>
      </trkpt>
      <trkpt lat="47.68762" lon="-3.45048">
        <ele>-2.7467041</ele>
        <time>2011-08-12T08:19:12Z</time>
      </trkpt>
      <trkpt lat="47.68739" lon="-3.45077">
        <ele>-3.2272949</ele>
        <time>2011-08-12T08:19:22Z</time>
      </trkpt>
      <trkpt lat="47.68717" lon="-3.45108">
        <ele>-5.1499023</ele>
        <time>2011-08-12T08:19:32Z</time>
      </trkpt>
      <trkpt lat="47.68693" lon="-3.45138">
        <ele>-3.2272949</ele>
        <time>2011-08-12T08:19:42Z</time>
      </trkpt>
      <trkpt lat="47.68671" lon="-3.45167">
        <ele>0.1374512</ele>
        <time>2011-08-12T08:19:52Z</time>
      </trkpt>
      <trkpt lat="47.68648" lon="-3.45201">
        <ele>2.5406494</ele>
        <time>2011-08-12T08:20:02Z</time>
      </trkpt>
      <trkpt lat="47.68625" lon="-3.45234">
        <ele>3.5019531</ele>
        <time>2011-08-12T08:20:12Z</time>
      </trkpt>
      <trkpt lat="47.68598" lon="-3.45262">
        <ele>1.0986328</ele>
        <time>2011-08-12T08:20:22Z</time>
      </trkpt>
      <trkpt lat="47.68575" lon="-3.45293">
        <ele>-0.8240967</ele>
        <time>2011-08-12T08:20:32Z</time>
      </trkpt>
      <trkpt lat="47.68552" lon="-3.45322">
        <ele>-2.7467041</ele>
        <time>2011-08-12T08:20:42Z</time>
      </trkpt>
      <trkpt lat="47.68529" lon="-3.45355">
        <ele>-2.7467041</ele>
        <time>2011-08-12T08:20:52Z</time>
      </trkpt>
      <trkpt lat="47.68513" lon="-3.45383">
        <ele>0.1374512</ele>
        <time>2011-08-12T08:21:02Z</time>
      </trkpt>
      <trkpt lat="47.68496" lon="-3.4541">
        <ele>0.618042</ele>
        <time>2011-08-12T08:21:12Z</time>
      </trkpt>
      <trkpt lat="47.68481" lon="-3.45441">
        <ele>1.0986328</ele>
        <time>2011-08-12T08:21:22Z</time>
      </trkpt>
      <trkpt lat="47.68464" lon="-3.45467">
        <ele>2.0600586</ele>
        <time>2011-08-12T08:21:32Z</time>
      </trkpt>
      <trkpt lat="47.68443" lon="-3.45495">
        <ele>2.5406494</ele>
        <time>2011-08-12T08:21:42Z</time>
      </trkpt>
      <trkpt lat="47.68417" lon="-3.45521">
        <ele>2.5406494</ele>
        <time>2011-08-12T08:21:52Z</time>
      </trkpt>
      <trkpt lat="47.68392" lon="-3.45548">
        <ele>3.0212402</ele>
        <time>2011-08-12T08:22:02Z</time>
      </trkpt>
      <trkpt lat="47.68366" lon="-3.45572">
        <ele>2.5406494</ele>
        <time>2011-08-12T08:22:12Z</time>
      </trkpt>
      <trkpt lat="47.68339" lon="-3.45603">
        <ele>2.0600586</ele>
        <time>2011-08-12T08:22:22Z</time>
      </trkpt>
      <trkpt lat="47.68316" lon="-3.45635">
        <ele>1.0986328</ele>
        <time>2011-08-12T08:22:32Z</time>
      </trkpt>
      <trkpt lat="47.68292" lon="-3.45664">
        <ele>-0.8240967</ele>
        <time>2011-08-12T08:22:42Z</time>
      </trkpt>
      <trkpt lat="47.6827" lon="-3.4569">
        <ele>-1.3046875</ele>
        <time>2011-08-12T08:22:52Z</time>
      </trkpt>
      <trkpt lat="47.68247" lon="-3.45718">
        <ele>-0.3433838</ele>
        <time>2011-08-12T08:23:02Z</time>
      </trkpt>
      <trkpt lat="47.68227" lon="-3.45746">
        <ele>-0.3433838</ele>
        <time>2011-08-12T08:23:12Z</time>
      </trkpt>
      <trkpt lat="47.68204" lon="-3.45772">
        <ele>0.1374512</ele>
        <time>2011-08-12T08:23:22Z</time>
      </trkpt>
      <trkpt lat="47.68181" lon="-3.45802">
        <ele>0.1374512</ele>
        <time>2011-08-12T08:23:32Z</time>
      </trkpt>
      <trkpt lat="47.6816" lon="-3.45831">
        <ele>-0.3433838</ele>
        <time>2011-08-12T08:23:42Z</time>
      </trkpt>
      <trkpt lat="47.6814" lon="-3.4586">
        <ele>-1.7852783</ele>
        <time>2011-08-12T08:23:52Z</time>
      </trkpt>
      <trkpt lat="47.68121" lon="-3.45887">
        <ele>-2.7467041</ele>
        <time>2011-08-12T08:24:02Z</time>
      </trkpt>
      <trkpt lat="47.68101" lon="-3.45915">
        <ele>-4.1885986</ele>
        <time>2011-08-12T08:24:12Z</time>
      </trkpt>
      <trkpt lat="47.6808" lon="-3.45937">
        <ele>-5.6304932</ele>
        <time>2011-08-12T08:24:22Z</time>
      </trkpt>
      <trkpt lat="47.68059" lon="-3.45965">
        <ele>-8.5146484</ele>
        <time>2011-08-12T08:24:32Z</time>
      </trkpt>
      <trkpt lat="47.68042" lon="-3.4599">
        <ele>-11.3984375</ele>
        <time>2011-08-12T08:24:42Z</time>
      </trkpt>
      <trkpt lat="47.68025" lon="-3.46015">
        <ele>-15.7243652</ele>
        <time>2011-08-12T08:24:52Z</time>
      </trkpt>
      <trkpt lat="47.68004" lon="-3.46039">
        <ele>-18.6083984</ele>
        <time>2011-08-12T08:25:02Z</time>
      </trkpt>
      <trkpt lat="47.67982" lon="-3.46066">
        <ele>-21.9730225</ele>
        <time>2011-08-12T08:25:12Z</time>
      </trkpt>
      <trkpt lat="47.67956" lon="-3.46091">
        <ele>-24.8569336</ele>
        <time>2011-08-12T08:25:22Z</time>
      </trkpt>
      <trkpt lat="47.67938" lon="-3.46119">
        <ele>-27.2602539</ele>
        <time>2011-08-12T08:25:32Z</time>
      </trkpt>
      <trkpt lat="47.67921" lon="-3.46147">
        <ele>-29.1828613</ele>
        <time>2011-08-12T08:25:42Z</time>
      </trkpt>
      <trkpt lat="47.67901" lon="-3.4617">
        <ele>-30.6247559</ele>
        <time>2011-08-12T08:25:52Z</time>
      </trkpt>
      <trkpt lat="47.67881" lon="-3.46196">
        <ele>-32.0668945</ele>
        <time>2011-08-12T08:26:02Z</time>
      </trkpt>
      <trkpt lat="47.67862" lon="-3.4622">
        <ele>-33.0281982</ele>
        <time>2011-08-12T08:26:12Z</time>
      </trkpt>
      <trkpt lat="47.67843" lon="-3.46244">
        <ele>-32.0668945</ele>
        <time>2011-08-12T08:26:22Z</time>
      </trkpt>
      <trkpt lat="47.67825" lon="-3.46267">
        <ele>-31.5861816</ele>
        <time>2011-08-12T08:26:32Z</time>
      </trkpt>
      <trkpt lat="47.67805" lon="-3.46288">
        <ele>-31.1054688</ele>
        <time>2011-08-12T08:26:42Z</time>
      </trkpt>
      <trkpt lat="47.67786" lon="-3.46313">
        <ele>-28.2215576</ele>
        <time>2011-08-12T08:26:52Z</time>
      </trkpt>
      <trkpt lat="47.67762" lon="-3.4634">
        <ele>-22.4536133</ele>
        <time>2011-08-12T08:27:02Z</time>
      </trkpt>
      <trkpt lat="47.67741" lon="-3.46359">
        <ele>-17.1663818</ele>
        <time>2011-08-12T08:27:12Z</time>
      </trkpt>
      <trkpt lat="47.67717" lon="-3.46384">
        <ele>-14.2824707</ele>
        <time>2011-08-12T08:27:22Z</time>
      </trkpt>
      <trkpt lat="47.67698" lon="-3.4641">
        <ele>-10.4372559</ele>
        <time>2011-08-12T08:27:32Z</time>
      </trkpt>
      <trkpt lat="47.67679" lon="-3.46436">
        <ele>-8.5146484</ele>
        <time>2011-08-12T08:27:42Z</time>
      </trkpt>
      <trkpt lat="47.6766" lon="-3.46462">
        <ele>-8.0339355</ele>
        <time>2011-08-12T08:27:52Z</time>
      </trkpt>
      <trkpt lat="47.67642" lon="-3.4649">
        <ele>-7.0725098</ele>
        <time>2011-08-12T08:28:02Z</time>
      </trkpt>
      <trkpt lat="47.67624" lon="-3.46516">
        <ele>-7.0725098</ele>
        <time>2011-08-12T08:28:12Z</time>
      </trkpt>
      <trkpt lat="47.67605" lon="-3.46539">
        <ele>-8.9952393</ele>
        <time>2011-08-12T08:28:22Z</time>
      </trkpt>
      <trkpt lat="47.67591" lon="-3.4656">
        <ele>-9.4758301</ele>
        <time>2011-08-12T08:28:32Z</time>
      </trkpt>
      <trkpt lat="47.67571" lon="-3.46584">
        <ele>-7.5531006</ele>
        <time>2011-08-12T08:28:42Z</time>
      </trkpt>
      <trkpt lat="47.67553" lon="-3.46612">
        <ele>-9.956543</ele>
        <time>2011-08-12T08:28:52Z</time>
      </trkpt>
      <trkpt lat="47.67536" lon="-3.46633">
        <ele>-10.9178467</ele>
        <time>2011-08-12T08:29:02Z</time>
      </trkpt>
      <trkpt lat="47.67515" lon="-3.46657">
        <ele>-8.9952393</ele>
        <time>2011-08-12T08:29:12Z</time>
      </trkpt>
      <trkpt lat="47.67499" lon="-3.46683">
        <ele>-8.0339355</ele>
        <time>2011-08-12T08:29:22Z</time>
      </trkpt>
      <trkpt lat="47.6748" lon="-3.46705">
        <ele>-6.1112061</ele>
        <time>2011-08-12T08:29:32Z</time>
      </trkpt>
      <trkpt lat="47.67464" lon="-3.46728">
        <ele>-6.1112061</ele>
        <time>2011-08-12T08:29:42Z</time>
      </trkpt>
      <trkpt lat="47.67447" lon="-3.46749">
        <ele>-5.6304932</ele>
        <time>2011-08-12T08:29:52Z</time>
      </trkpt>
      <trkpt lat="47.67432" lon="-3.46771">
        <ele>-6.1112061</ele>
        <time>2011-08-12T08:30:02Z</time>
      </trkpt>
      <trkpt lat="47.67417" lon="-3.46789">
        <ele>-5.1499023</ele>
        <time>2011-08-12T08:30:12Z</time>
      </trkpt>
      <trkpt lat="47.67398" lon="-3.46803">
        <ele>-6.1112061</ele>
        <time>2011-08-12T08:30:22Z</time>
      </trkpt>
      <trkpt lat="47.6738" lon="-3.46821">
        <ele>-5.6304932</ele>
        <time>2011-08-12T08:30:32Z</time>
      </trkpt>
      <trkpt lat="47.6736" lon="-3.46842">
        <ele>-1.7852783</ele>
        <time>2011-08-12T08:30:42Z</time>
      </trkpt>
      <trkpt lat="47.67341" lon="-3.46861">
        <ele>-3.2272949</ele>
        <time>2011-08-12T08:30:52Z</time>
      </trkpt>
      <trkpt lat="47.67327" lon="-3.46881">
        <ele>-4.6693115</ele>
        <time>2011-08-12T08:31:02Z</time>
      </trkpt>
      <trkpt lat="47.6731" lon="-3.46898">
        <ele>-0.3433838</ele>
        <time>2011-08-12T08:31:12Z</time>
      </trkpt>
      <trkpt lat="47.67294" lon="-3.46918">
        <ele>-5.1499023</ele>
        <time>2011-08-12T08:31:22Z</time>
      </trkpt>
      <trkpt lat="47.6728" lon="-3.4694">
        <ele>-7.5531006</ele>
        <time>2011-08-12T08:31:32Z</time>
      </trkpt>
      <trkpt lat="47.67265" lon="-3.46959">
        <ele>-8.0339355</ele>
        <time>2011-08-12T08:31:42Z</time>
      </trkpt>
      <trkpt lat="47.67249" lon="-3.46978">
        <ele>-7.5531006</ele>
        <time>2011-08-12T08:31:52Z</time>
      </trkpt>
      <trkpt lat="47.67233" lon="-3.46995">
        <ele>-8.9952393</ele>
        <time>2011-08-12T08:32:02Z</time>
      </trkpt>
      <trkpt lat="47.67218" lon="-3.47009">
        <ele>-7.5531006</ele>
        <time>2011-08-12T08:32:12Z</time>
      </trkpt>
      <trkpt lat="47.67203" lon="-3.47024">
        <ele>-6.5919189</ele>
        <time>2011-08-12T08:32:22Z</time>
      </trkpt>
      <trkpt lat="47.67187" lon="-3.47037">
        <ele>-6.5919189</ele>
        <time>2011-08-12T08:32:32Z</time>
      </trkpt>
      <trkpt lat="47.67168" lon="-3.47046">
        <ele>-5.6304932</ele>
        <time>2011-08-12T08:32:42Z</time>
      </trkpt>
      <trkpt lat="47.67147" lon="-3.4706">
        <ele>-3.7078857</ele>
        <time>2011-08-12T08:32:52Z</time>
      </trkpt>
      <trkpt lat="47.67129" lon="-3.4707">
        <ele>-2.2659912</ele>
        <time>2011-08-12T08:33:02Z</time>
      </trkpt>
      <trkpt lat="47.67109" lon="-3.47082">
        <ele>-1.7852783</ele>
        <time>2011-08-12T08:33:12Z</time>
      </trkpt>
      <trkpt lat="47.67086" lon="-3.47099">
        <ele>-0.8240967</ele>
        <time>2011-08-12T08:33:22Z</time>
      </trkpt>
      <trkpt lat="47.67065" lon="-3.47117">
        <ele>-0.3433838</ele>
        <time>2011-08-12T08:33:32Z</time>
      </trkpt>
      <trkpt lat="47.67044" lon="-3.47133">
        <ele>-0.3433838</ele>
        <time>2011-08-12T08:33:42Z</time>
      </trkpt>
      <trkpt lat="47.67024" lon="-3.47147">
        <ele>0.1374512</ele>
        <time>2011-08-12T08:33:52Z</time>
      </trkpt>
      <trkpt lat="47.67005" lon="-3.47166">
        <ele>0.1374512</ele>
        <time>2011-08-12T08:34:02Z</time>
      </trkpt>
      <trkpt lat="47.66986" lon="-3.4718">
        <ele>-0.8240967</ele>
        <time>2011-08-12T08:34:12Z</time>
      </trkpt>
      <trkpt lat="47.66963" lon="-3.47192">
        <ele>-1.3046875</ele>
        <time>2011-08-12T08:34:22Z</time>
      </trkpt>
      <trkpt lat="47.66939" lon="-3.47202">
        <ele>-0.8240967</ele>
        <time>2011-08-12T08:34:32Z</time>
      </trkpt>
      <trkpt lat="47.66917" lon="-3.47219">
        <ele>-1.3046875</ele>
        <time>2011-08-12T08:34:42Z</time>
      </trkpt>
      <trkpt lat="47.66897" lon="-3.47233">
        <ele>-1.7852783</ele>
        <time>2011-08-12T08:34:52Z</time>
      </trkpt>
      <trkpt lat="47.66876" lon="-3.47244">
        <ele>-1.3046875</ele>
        <time>2011-08-12T08:35:02Z</time>
      </trkpt>
      <trkpt lat="47.66856" lon="-3.47258">
        <ele>-0.8240967</ele>
        <time>2011-08-12T08:35:12Z</time>
      </trkpt>
      <trkpt lat="47.66835" lon="-3.47268">
        <ele>0.618042</ele>
        <time>2011-08-12T08:35:22Z</time>
      </trkpt>
      <trkpt lat="47.66815" lon="-3.47285">
        <ele>1.0986328</ele>
        <time>2011-08-12T08:35:32Z</time>
      </trkpt>
      <trkpt lat="47.66796" lon="-3.47297">
        <ele>1.0986328</ele>
        <time>2011-08-12T08:35:42Z</time>
      </trkpt>
      <trkpt lat="47.66775" lon="-3.47309">
        <ele>0.618042</ele>
        <time>2011-08-12T08:35:52Z</time>
      </trkpt>
      <trkpt lat="47.66754" lon="-3.47323">
        <ele>0.1374512</ele>
        <time>2011-08-12T08:36:02Z</time>
      </trkpt>
      <trkpt lat="47.66737" lon="-3.47336">
        <ele>-1.3046875</ele>
        <time>2011-08-12T08:36:12Z</time>
      </trkpt>
      <trkpt lat="47.66718" lon="-3.47349">
        <ele>-2.7467041</ele>
        <time>2011-08-12T08:36:22Z</time>
      </trkpt>
      <trkpt lat="47.66698" lon="-3.47364">
        <ele>0.618042</ele>
        <time>2011-08-12T08:36:32Z</time>
      </trkpt>
      <trkpt lat="47.66677" lon="-3.47381">
        <ele>0.618042</ele>
        <time>2011-08-12T08:36:42Z</time>
      </trkpt>
      <trkpt lat="47.66656" lon="-3.47396">
        <ele>-2.2659912</ele>
        <time>2011-08-12T08:36:52Z</time>
      </trkpt>
      <trkpt lat="47.66634" lon="-3.47411">
        <ele>-3.2272949</ele>
        <time>2011-08-12T08:37:02Z</time>
      </trkpt>
      <trkpt lat="47.66614" lon="-3.4743">
        <ele>-4.6693115</ele>
        <time>2011-08-12T08:37:12Z</time>
      </trkpt>
      <trkpt lat="47.66598" lon="-3.47448">
        <ele>-4.6693115</ele>
        <time>2011-08-12T08:37:22Z</time>
      </trkpt>
      <trkpt lat="47.66583" lon="-3.47465">
        <ele>-3.7078857</ele>
        <time>2011-08-12T08:37:32Z</time>
      </trkpt>
      <trkpt lat="47.66568" lon="-3.47482">
        <ele>-2.7467041</ele>
        <time>2011-08-12T08:37:42Z</time>
      </trkpt>
      <trkpt lat="47.66553" lon="-3.47496">
        <ele>-2.7467041</ele>
        <time>2011-08-12T08:37:52Z</time>
      </trkpt>
      <trkpt lat="47.66536" lon="-3.47509">
        <ele>-2.7467041</ele>
        <time>2011-08-12T08:38:02Z</time>
      </trkpt>
      <trkpt lat="47.66516" lon="-3.47519">
        <ele>-3.2272949</ele>
        <time>2011-08-12T08:38:12Z</time>
      </trkpt>
      <trkpt lat="47.66494" lon="-3.47534">
        <ele>-2.7467041</ele>
        <time>2011-08-12T08:38:22Z</time>
      </trkpt>
      <trkpt lat="47.66472" lon="-3.47552">
        <ele>-4.6693115</ele>
        <time>2011-08-12T08:38:32Z</time>
      </trkpt>
      <trkpt lat="47.66453" lon="-3.47569">
        <ele>-3.2272949</ele>
        <time>2011-08-12T08:38:42Z</time>
      </trkpt>
      <trkpt lat="47.66434" lon="-3.47585">
        <ele>-3.7078857</ele>
        <time>2011-08-12T08:38:52Z</time>
      </trkpt>
      <trkpt lat="47.66414" lon="-3.47602">
        <ele>-4.6693115</ele>
        <time>2011-08-12T08:39:02Z</time>
      </trkpt>
      <trkpt lat="47.66392" lon="-3.47619">
        <ele>-1.7852783</ele>
        <time>2011-08-12T08:39:12Z</time>
      </trkpt>
      <trkpt lat="47.66373" lon="-3.47632">
        <ele>-5.6304932</ele>
        <time>2011-08-12T08:39:22Z</time>
      </trkpt>
      <trkpt lat="47.66352" lon="-3.47651">
        <ele>-7.0725098</ele>
        <time>2011-08-12T08:39:32Z</time>
      </trkpt>
      <trkpt lat="47.6633" lon="-3.47673">
        <ele>-7.5531006</ele>
        <time>2011-08-12T08:39:42Z</time>
      </trkpt>
      <trkpt lat="47.66307" lon="-3.47695">
        <ele>-8.0339355</ele>
        <time>2011-08-12T08:39:52Z</time>
      </trkpt>
      <trkpt lat="47.6629" lon="-3.47715">
        <ele>-8.5146484</ele>
        <time>2011-08-12T08:40:02Z</time>
      </trkpt>
      <trkpt lat="47.66276" lon="-3.47733">
        <ele>-9.4758301</ele>
        <time>2011-08-12T08:40:12Z</time>
      </trkpt>
      <trkpt lat="47.66265" lon="-3.47747">
        <ele>-7.0725098</ele>
        <time>2011-08-12T08:40:22Z</time>
      </trkpt>
      <trkpt lat="47.66257" lon="-3.47753">
        <ele>-6.1112061</ele>
        <time>2011-08-12T08:40:32Z</time>
      </trkpt>
      <trkpt lat="47.66252" lon="-3.47756">
        <ele>-7.5531006</ele>
        <time>2011-08-12T08:40:42Z</time>
      </trkpt>
      <trkpt lat="47.66251" lon="-3.47758">
        <ele>-7.5531006</ele>
        <time>2011-08-12T08:40:52Z</time>
      </trkpt>
      <trkpt lat="47.66251" lon="-3.47754">
        <ele>-7.5531006</ele>
        <time>2011-08-12T08:41:02Z</time>
      </trkpt>
      <trkpt lat="47.66254" lon="-3.4775">
        <ele>-7.0725098</ele>
        <time>2011-08-12T08:41:12Z</time>
      </trkpt>
      <trkpt lat="47.66264" lon="-3.47746">
        <ele>-4.6693115</ele>
        <time>2011-08-12T08:41:22Z</time>
      </trkpt>
      <trkpt lat="47.66272" lon="-3.47743">
        <ele>-4.1885986</ele>
        <time>2011-08-12T08:41:32Z</time>
      </trkpt>
      <trkpt lat="47.66278" lon="-3.47737">
        <ele>-4.1885986</ele>
        <time>2011-08-12T08:41:42Z</time>
      </trkpt>
      <trkpt lat="47.66282" lon="-3.47734">
        <ele>-5.1499023</ele>
        <time>2011-08-12T08:41:52Z</time>
      </trkpt>
      <trkpt lat="47.66291" lon="-3.47731">
        <ele>-6.1112061</ele>
        <time>2011-08-12T08:42:02Z</time>
      </trkpt>
      <trkpt lat="47.66298" lon="-3.47732">
        <ele>-4.6693115</ele>
        <time>2011-08-12T08:42:12Z</time>
      </trkpt>
      <trkpt lat="47.66305" lon="-3.47734">
        <ele>-2.2659912</ele>
        <time>2011-08-12T08:42:22Z</time>
      </trkpt>
      <trkpt lat="47.66314" lon="-3.47734">
        <ele>-0.8240967</ele>
        <time>2011-08-12T08:42:32Z</time>
      </trkpt>
      <trkpt lat="47.66326" lon="-3.47738">
        <ele>1.0986328</ele>
        <time>2011-08-12T08:42:42Z</time>
      </trkpt>
      <trkpt lat="47.66339" lon="-3.47739">
        <ele>-1.7852783</ele>
        <time>2011-08-12T08:42:52Z</time>
      </trkpt>
      <trkpt lat="47.66352" lon="-3.4775">
        <ele>-1.7852783</ele>
        <time>2011-08-12T08:43:02Z</time>
      </trkpt>
      <trkpt lat="47.66364" lon="-3.47756">
        <ele>-3.7078857</ele>
        <time>2011-08-12T08:43:12Z</time>
      </trkpt>
      <trkpt lat="47.66374" lon="-3.47762">
        <ele>-4.1885986</ele>
        <time>2011-08-12T08:43:22Z</time>
      </trkpt>
      <trkpt lat="47.66379" lon="-3.47766">
        <ele>-5.1499023</ele>
        <time>2011-08-12T08:43:32Z</time>
      </trkpt>
      <trkpt lat="47.66388" lon="-3.47772">
        <ele>-5.6304932</ele>
        <time>2011-08-12T08:43:42Z</time>
      </trkpt>
      <trkpt lat="47.66399" lon="-3.47777">
        <ele>-5.6304932</ele>
        <time>2011-08-12T08:43:52Z</time>
      </trkpt>
      <trkpt lat="47.66411" lon="-3.47785">
        <ele>-3.7078857</ele>
        <time>2011-08-12T08:44:02Z</time>
      </trkpt>
      <trkpt lat="47.66425" lon="-3.47791">
        <ele>-1.3046875</ele>
        <time>2011-08-12T08:44:12Z</time>
      </trkpt>
      <trkpt lat="47.6644" lon="-3.47802">
        <ele>0.1374512</ele>
        <time>2011-08-12T08:44:22Z</time>
      </trkpt>
      <trkpt lat="47.66453" lon="-3.47817">
        <ele>-2.7467041</ele>
        <time>2011-08-12T08:44:32Z</time>
      </trkpt>
      <trkpt lat="47.66462" lon="-3.47818">
        <ele>-0.8240967</ele>
        <time>2011-08-12T08:44:42Z</time>
      </trkpt>
      <trkpt lat="47.66477" lon="-3.47829">
        <ele>-4.1885986</ele>
        <time>2011-08-12T08:44:52Z</time>
      </trkpt>
      <trkpt lat="47.66488" lon="-3.47836">
        <ele>-2.7467041</ele>
        <time>2011-08-12T08:45:02Z</time>
      </trkpt>
      <trkpt lat="47.66494" lon="-3.4784">
        <ele>-2.7467041</ele>
        <time>2011-08-12T08:45:12Z</time>
      </trkpt>
      <trkpt lat="47.66499" lon="-3.47839">
        <ele>-2.7467041</ele>
        <time>2011-08-12T08:45:22Z</time>
      </trkpt>
      <trkpt lat="47.665" lon="-3.4784">
        <ele>-2.2659912</ele>
        <time>2011-08-12T08:45:32Z</time>
      </trkpt>
      <trkpt lat="47.665" lon="-3.47839">
        <ele>-2.2659912</ele>
        <time>2011-08-12T08:45:42Z</time>
      </trkpt>
      <trkpt lat="47.665" lon="-3.47835">
        <ele>-1.7852783</ele>
        <time>2011-08-12T08:45:52Z</time>
      </trkpt>
      <trkpt lat="47.66504" lon="-3.47835">
        <ele>-5.1499023</ele>
        <time>2011-08-12T08:46:02Z</time>
      </trkpt>
      <trkpt lat="47.66506" lon="-3.47832">
        <ele>-4.6693115</ele>
        <time>2011-08-12T08:46:12Z</time>
      </trkpt>
      <trkpt lat="47.66508" lon="-3.47831">
        <ele>-5.1499023</ele>
        <time>2011-08-12T08:46:22Z</time>
      </trkpt>
      <trkpt lat="47.66514" lon="-3.47828">
        <ele>-5.1499023</ele>
        <time>2011-08-12T08:46:32Z</time>
      </trkpt>
      <trkpt lat="47.66518" lon="-3.47827">
        <ele>-5.1499023</ele>
        <time>2011-08-12T08:46:42Z</time>
      </trkpt>
      <trkpt lat="47.66518" lon="-3.47821">
        <ele>-4.6693115</ele>
        <time>2011-08-12T08:46:52Z</time>
      </trkpt>
      <trkpt lat="47.66524" lon="-3.47818">
        <ele>-4.1885986</ele>
        <time>2011-08-12T08:47:02Z</time>
      </trkpt>
      <trkpt lat="47.66532" lon="-3.47816">
        <ele>-3.7078857</ele>
        <time>2011-08-12T08:47:12Z</time>
      </trkpt>
      <trkpt lat="47.66541" lon="-3.47815">
        <ele>-2.2659912</ele>
        <time>2011-08-12T08:47:22Z</time>
      </trkpt>
      <trkpt lat="47.66555" lon="-3.4782">
        <ele>-4.1885986</ele>
        <time>2011-08-12T08:47:32Z</time>
      </trkpt>
      <trkpt lat="47.66565" lon="-3.47831">
        <ele>-6.1112061</ele>
        <time>2011-08-12T08:47:42Z</time>
      </trkpt>
      <trkpt lat="47.66575" lon="-3.47842">
        <ele>-5.6304932</ele>
        <time>2011-08-12T08:47:52Z</time>
      </trkpt>
      <trkpt lat="47.66589" lon="-3.47849">
        <ele>-3.7078857</ele>
        <time>2011-08-12T08:48:02Z</time>
      </trkpt>
      <trkpt lat="47.66605" lon="-3.47863">
        <ele>-2.7467041</ele>
        <time>2011-08-12T08:48:12Z</time>
      </trkpt>
      <trkpt lat="47.66626" lon="-3.47876">
        <ele>-0.3433838</ele>
        <time>2011-08-12T08:48:22Z</time>
      </trkpt>
      <trkpt lat="47.66649" lon="-3.47896">
        <ele>1.0986328</ele>
        <time>2011-08-12T08:48:32Z</time>
      </trkpt>
      <trkpt lat="47.66674" lon="-3.4791">
        <ele>4.4632568</ele>
        <time>2011-08-12T08:48:42Z</time>
      </trkpt>
      <trkpt lat="47.66698" lon="-3.4793">
        <ele>2.0600586</ele>
        <time>2011-08-12T08:48:52Z</time>
      </trkpt>
      <trkpt lat="47.66724" lon="-3.47951">
        <ele>0.618042</ele>
        <time>2011-08-12T08:49:02Z</time>
      </trkpt>
      <trkpt lat="47.6675" lon="-3.47969">
        <ele>0.1374512</ele>
        <time>2011-08-12T08:49:12Z</time>
      </trkpt>
      <trkpt lat="47.66776" lon="-3.47989">
        <ele>0.1374512</ele>
        <time>2011-08-12T08:49:22Z</time>
      </trkpt>
      <trkpt lat="47.668" lon="-3.48008">
        <ele>-0.8240967</ele>
        <time>2011-08-12T08:49:32Z</time>
      </trkpt>
      <trkpt lat="47.66826" lon="-3.48026">
        <ele>-2.7467041</ele>
        <time>2011-08-12T08:49:42Z</time>
      </trkpt>
      <trkpt lat="47.66849" lon="-3.48047">
        <ele>-3.2272949</ele>
        <time>2011-08-12T08:49:52Z</time>
      </trkpt>
      <trkpt lat="47.66872" lon="-3.48068">
        <ele>-5.6304932</ele>
        <time>2011-08-12T08:50:02Z</time>
      </trkpt>
      <trkpt lat="47.66894" lon="-3.48087">
        <ele>-7.0725098</ele>
        <time>2011-08-12T08:50:12Z</time>
      </trkpt>
      <trkpt lat="47.66919" lon="-3.48107">
        <ele>-6.1112061</ele>
        <time>2011-08-12T08:50:22Z</time>
      </trkpt>
      <trkpt lat="47.66941" lon="-3.48128">
        <ele>-6.5919189</ele>
        <time>2011-08-12T08:50:32Z</time>
      </trkpt>
      <trkpt lat="47.66963" lon="-3.48149">
        <ele>-6.1112061</ele>
        <time>2011-08-12T08:50:42Z</time>
      </trkpt>
      <trkpt lat="47.66983" lon="-3.4817">
        <ele>-3.2272949</ele>
        <time>2011-08-12T08:50:52Z</time>
      </trkpt>
      <trkpt lat="47.67002" lon="-3.48188">
        <ele>-4.1885986</ele>
        <time>2011-08-12T08:51:02Z</time>
      </trkpt>
      <trkpt lat="47.67022" lon="-3.48206">
        <ele>-6.1112061</ele>
        <time>2011-08-12T08:51:12Z</time>
      </trkpt>
      <trkpt lat="47.67044" lon="-3.48223">
        <ele>-6.1112061</ele>
        <time>2011-08-12T08:51:22Z</time>
      </trkpt>
      <trkpt lat="47.67066" lon="-3.48241">
        <ele>-5.1499023</ele>
        <time>2011-08-12T08:51:32Z</time>
      </trkpt>
      <trkpt lat="47.67088" lon="-3.48258">
        <ele>-5.1499023</ele>
        <time>2011-08-12T08:51:42Z</time>
      </trkpt>
      <trkpt lat="47.6711" lon="-3.48274">
        <ele>-5.6304932</ele>
        <time>2011-08-12T08:51:52Z</time>
      </trkpt>
      <trkpt lat="47.67134" lon="-3.48288">
        <ele>-2.7467041</ele>
        <time>2011-08-12T08:52:02Z</time>
      </trkpt>
      <trkpt lat="47.67157" lon="-3.48302">
        <ele>-3.7078857</ele>
        <time>2011-08-12T08:52:12Z</time>
      </trkpt>
      <trkpt lat="47.67182" lon="-3.48317">
        <ele>-3.7078857</ele>
        <time>2011-08-12T08:52:22Z</time>
      </trkpt>
      <trkpt lat="47.67207" lon="-3.48331">
        <ele>-3.7078857</ele>
        <time>2011-08-12T08:52:32Z</time>
      </trkpt>
      <trkpt lat="47.6723" lon="-3.4835">
        <ele>-4.1885986</ele>
        <time>2011-08-12T08:52:42Z</time>
      </trkpt>
      <trkpt lat="47.67253" lon="-3.48367">
        <ele>-6.5919189</ele>
        <time>2011-08-12T08:52:52Z</time>
      </trkpt>
      <trkpt lat="47.67276" lon="-3.48381">
        <ele>-6.5919189</ele>
        <time>2011-08-12T08:53:02Z</time>
      </trkpt>
      <trkpt lat="47.67302" lon="-3.48395">
        <ele>-6.1112061</ele>
        <time>2011-08-12T08:53:12Z</time>
      </trkpt>
      <trkpt lat="47.67327" lon="-3.48412">
        <ele>-7.5531006</ele>
        <time>2011-08-12T08:53:22Z</time>
      </trkpt>
      <trkpt lat="47.67352" lon="-3.48426">
        <ele>-5.6304932</ele>
        <time>2011-08-12T08:53:32Z</time>
      </trkpt>
      <trkpt lat="47.67375" lon="-3.4844">
        <ele>-6.1112061</ele>
        <time>2011-08-12T08:53:42Z</time>
      </trkpt>
      <trkpt lat="47.67399" lon="-3.48453">
        <ele>-10.4372559</ele>
        <time>2011-08-12T08:53:52Z</time>
      </trkpt>
      <trkpt lat="47.67422" lon="-3.48466">
        <ele>-11.3984375</ele>
        <time>2011-08-12T08:54:02Z</time>
      </trkpt>
      <trkpt lat="47.67446" lon="-3.48479">
        <ele>-11.3984375</ele>
        <time>2011-08-12T08:54:12Z</time>
      </trkpt>
      <trkpt lat="47.67469" lon="-3.48491">
        <ele>-11.8791504</ele>
        <time>2011-08-12T08:54:22Z</time>
      </trkpt>
      <trkpt lat="47.67494" lon="-3.48504">
        <ele>-11.8791504</ele>
        <time>2011-08-12T08:54:32Z</time>
      </trkpt>
      <trkpt lat="47.67519" lon="-3.48517">
        <ele>-12.8404541</ele>
        <time>2011-08-12T08:54:42Z</time>
      </trkpt>
      <trkpt lat="47.67544" lon="-3.4853">
        <ele>-8.5146484</ele>
        <time>2011-08-12T08:54:52Z</time>
      </trkpt>
      <trkpt lat="47.67567" lon="-3.48545">
        <ele>-7.0725098</ele>
        <time>2011-08-12T08:55:02Z</time>
      </trkpt>
      <trkpt lat="47.67592" lon="-3.48562">
        <ele>-6.1112061</ele>
        <time>2011-08-12T08:55:12Z</time>
      </trkpt>
      <trkpt lat="47.67615" lon="-3.48577">
        <ele>-7.0725098</ele>
        <time>2011-08-12T08:55:22Z</time>
      </trkpt>
      <trkpt lat="47.67638" lon="-3.4859">
        <ele>-5.6304932</ele>
        <time>2011-08-12T08:55:32Z</time>
      </trkpt>
      <trkpt lat="47.67663" lon="-3.486">
        <ele>-3.2272949</ele>
        <time>2011-08-12T08:55:42Z</time>
      </trkpt>
      <trkpt lat="47.67686" lon="-3.48607">
        <ele>-4.1885986</ele>
        <time>2011-08-12T08:55:52Z</time>
      </trkpt>
      <trkpt lat="47.67711" lon="-3.48614">
        <ele>-5.6304932</ele>
        <time>2011-08-12T08:56:02Z</time>
      </trkpt>
      <trkpt lat="47.67735" lon="-3.4862">
        <ele>-5.1499023</ele>
        <time>2011-08-12T08:56:12Z</time>
      </trkpt>
      <trkpt lat="47.67757" lon="-3.48632">
        <ele>-6.5919189</ele>
        <time>2011-08-12T08:56:22Z</time>
      </trkpt>
      <trkpt lat="47.67781" lon="-3.48644">
        <ele>-4.1885986</ele>
        <time>2011-08-12T08:56:32Z</time>
      </trkpt>
      <trkpt lat="47.67805" lon="-3.48658">
        <ele>-3.2272949</ele>
        <time>2011-08-12T08:56:42Z</time>
      </trkpt>
      <trkpt lat="47.67828" lon="-3.48674">
        <ele>-4.1885986</ele>
        <time>2011-08-12T08:56:52Z</time>
      </trkpt>
      <trkpt lat="47.67853" lon="-3.48689">
        <ele>-5.6304932</ele>
        <time>2011-08-12T08:57:02Z</time>
      </trkpt>
      <trkpt lat="47.67877" lon="-3.48704">
        <ele>-7.5531006</ele>
        <time>2011-08-12T08:57:12Z</time>
      </trkpt>
      <trkpt lat="47.679" lon="-3.48718">
        <ele>-8.0339355</ele>
        <time>2011-08-12T08:57:22Z</time>
      </trkpt>
      <trkpt lat="47.67923" lon="-3.48733">
        <ele>-8.0339355</ele>
        <time>2011-08-12T08:57:32Z</time>
      </trkpt>
      <trkpt lat="47.67946" lon="-3.48747">
        <ele>-3.2272949</ele>
        <time>2011-08-12T08:57:42Z</time>
      </trkpt>
      <trkpt lat="47.67968" lon="-3.48759">
        <ele>-3.2272949</ele>
        <time>2011-08-12T08:57:52Z</time>
      </trkpt>
      <trkpt lat="47.67991" lon="-3.48771">
        <ele>-3.7078857</ele>
        <time>2011-08-12T08:58:02Z</time>
      </trkpt>
      <trkpt lat="47.68014" lon="-3.48781">
        <ele>-4.6693115</ele>
        <time>2011-08-12T08:58:12Z</time>
      </trkpt>
      <trkpt lat="47.68039" lon="-3.48791">
        <ele>-3.7078857</ele>
        <time>2011-08-12T08:58:22Z</time>
      </trkpt>
      <trkpt lat="47.68063" lon="-3.48801">
        <ele>-4.1885986</ele>
        <time>2011-08-12T08:58:32Z</time>
      </trkpt>
      <trkpt lat="47.68087" lon="-3.48811">
        <ele>-5.6304932</ele>
        <time>2011-08-12T08:58:42Z</time>
      </trkpt>
      <trkpt lat="47.68111" lon="-3.4882">
        <ele>-7.5531006</ele>
        <time>2011-08-12T08:58:52Z</time>
      </trkpt>
      <trkpt lat="47.68135" lon="-3.48827">
        <ele>-7.5531006</ele>
        <time>2011-08-12T08:59:02Z</time>
      </trkpt>
      <trkpt lat="47.68158" lon="-3.48838">
        <ele>-5.6304932</ele>
        <time>2011-08-12T08:59:12Z</time>
      </trkpt>
      <trkpt lat="47.68182" lon="-3.4885">
        <ele>-5.1499023</ele>
        <time>2011-08-12T08:59:22Z</time>
      </trkpt>
      <trkpt lat="47.68204" lon="-3.48866">
        <ele>-5.6304932</ele>
        <time>2011-08-12T08:59:32Z</time>
      </trkpt>
      <trkpt lat="47.68225" lon="-3.48881">
        <ele>-7.5531006</ele>
        <time>2011-08-12T08:59:42Z</time>
      </trkpt>
      <trkpt lat="47.68247" lon="-3.48893">
        <ele>-5.6304932</ele>
        <time>2011-08-12T08:59:52Z</time>
      </trkpt>
      <trkpt lat="47.68267" lon="-3.48902">
        <ele>-6.1112061</ele>
        <time>2011-08-12T09:00:02Z</time>
      </trkpt>
      <trkpt lat="47.6829" lon="-3.48915">
        <ele>-8.9952393</ele>
        <time>2011-08-12T09:00:12Z</time>
      </trkpt>
      <trkpt lat="47.68312" lon="-3.48926">
        <ele>-9.4758301</ele>
        <time>2011-08-12T09:00:22Z</time>
      </trkpt>
      <trkpt lat="47.68334" lon="-3.48937">
        <ele>-9.956543</ele>
        <time>2011-08-12T09:00:32Z</time>
      </trkpt>
      <trkpt lat="47.68358" lon="-3.48947">
        <ele>-8.0339355</ele>
        <time>2011-08-12T09:00:42Z</time>
      </trkpt>
      <trkpt lat="47.68382" lon="-3.48959">
        <ele>-7.5531006</ele>
        <time>2011-08-12T09:00:52Z</time>
      </trkpt>
      <trkpt lat="47.68405" lon="-3.4897">
        <ele>-8.0339355</ele>
        <time>2011-08-12T09:01:02Z</time>
      </trkpt>
      <trkpt lat="47.6843" lon="-3.48981">
        <ele>-7.0725098</ele>
        <time>2011-08-12T09:01:12Z</time>
      </trkpt>
      <trkpt lat="47.68453" lon="-3.48994">
        <ele>-8.0339355</ele>
        <time>2011-08-12T09:01:22Z</time>
      </trkpt>
      <trkpt lat="47.68477" lon="-3.49009">
        <ele>-10.4372559</ele>
        <time>2011-08-12T09:01:32Z</time>
      </trkpt>
      <trkpt lat="47.68501" lon="-3.49023">
        <ele>-9.4758301</ele>
        <time>2011-08-12T09:01:42Z</time>
      </trkpt>
      <trkpt lat="47.68524" lon="-3.4904">
        <ele>-8.5146484</ele>
        <time>2011-08-12T09:01:52Z</time>
      </trkpt>
      <trkpt lat="47.68549" lon="-3.49056">
        <ele>-10.9178467</ele>
        <time>2011-08-12T09:02:02Z</time>
      </trkpt>
      <trkpt lat="47.68571" lon="-3.49073">
        <ele>-13.8017578</ele>
        <time>2011-08-12T09:02:12Z</time>
      </trkpt>
      <trkpt lat="47.6859" lon="-3.49091">
        <ele>-15.7243652</ele>
        <time>2011-08-12T09:02:22Z</time>
      </trkpt>
      <trkpt lat="47.68609" lon="-3.49109">
        <ele>-14.7630615</ele>
        <time>2011-08-12T09:02:32Z</time>
      </trkpt>
      <trkpt lat="47.68629" lon="-3.49122">
        <ele>-9.956543</ele>
        <time>2011-08-12T09:02:42Z</time>
      </trkpt>
      <trkpt lat="47.68648" lon="-3.49138">
        <ele>-1.3046875</ele>
        <time>2011-08-12T09:02:52Z</time>
      </trkpt>
      <trkpt lat="47.6867" lon="-3.49153">
        <ele>4.4632568</ele>
        <time>2011-08-12T09:03:02Z</time>
      </trkpt>
      <trkpt lat="47.68692" lon="-3.49168">
        <ele>5.9052734</ele>
        <time>2011-08-12T09:03:12Z</time>
      </trkpt>
      <trkpt lat="47.68714" lon="-3.49184">
        <ele>3.982666</ele>
        <time>2011-08-12T09:03:22Z</time>
      </trkpt>
      <trkpt lat="47.68736" lon="-3.49198">
        <ele>5.4245605</ele>
        <time>2011-08-12T09:03:32Z</time>
      </trkpt>
      <trkpt lat="47.68756" lon="-3.49215">
        <ele>5.9052734</ele>
        <time>2011-08-12T09:03:42Z</time>
      </trkpt>
      <trkpt lat="47.68776" lon="-3.49233">
        <ele>6.8664551</ele>
        <time>2011-08-12T09:03:52Z</time>
      </trkpt>
      <trkpt lat="47.68798" lon="-3.4925">
        <ele>4.9438477</ele>
        <time>2011-08-12T09:04:02Z</time>
      </trkpt>
      <trkpt lat="47.68819" lon="-3.49266">
        <ele>-4.6693115</ele>
        <time>2011-08-12T09:04:12Z</time>
      </trkpt>
      <trkpt lat="47.6884" lon="-3.49283">
        <ele>-20.5310059</ele>
        <time>2011-08-12T09:04:22Z</time>
      </trkpt>
      <trkpt lat="47.68861" lon="-3.49301">
        <ele>-25.3376465</ele>
        <time>2011-08-12T09:04:32Z</time>
      </trkpt>
      <trkpt lat="47.6888" lon="-3.49322">
        <ele>-27.7409668</ele>
        <time>2011-08-12T09:04:42Z</time>
      </trkpt>
      <trkpt lat="47.68901" lon="-3.49342">
        <ele>-29.6635742</ele>
        <time>2011-08-12T09:04:52Z</time>
      </trkpt>
      <trkpt lat="47.68922" lon="-3.49361">
        <ele>-26.779541</ele>
        <time>2011-08-12T09:05:02Z</time>
      </trkpt>
      <trkpt lat="47.68944" lon="-3.4938">
        <ele>-12.8404541</ele>
        <time>2011-08-12T09:05:12Z</time>
      </trkpt>
      <trkpt lat="47.68965" lon="-3.494">
        <ele>-10.9178467</ele>
        <time>2011-08-12T09:05:22Z</time>
      </trkpt>
      <trkpt lat="47.68986" lon="-3.49421">
        <ele>-8.5146484</ele>
        <time>2011-08-12T09:05:32Z</time>
      </trkpt>
      <trkpt lat="47.69006" lon="-3.49443">
        <ele>-7.5531006</ele>
        <time>2011-08-12T09:05:42Z</time>
      </trkpt>
      <trkpt lat="47.69029" lon="-3.49462">
        <ele>-7.5531006</ele>
        <time>2011-08-12T09:05:52Z</time>
      </trkpt>
      <trkpt lat="47.6905" lon="-3.4948">
        <ele>-7.5531006</ele>
        <time>2011-08-12T09:06:02Z</time>
      </trkpt>
      <trkpt lat="47.69069" lon="-3.49495">
        <ele>-7.0725098</ele>
        <time>2011-08-12T09:06:12Z</time>
      </trkpt>
      <trkpt lat="47.69091" lon="-3.49511">
        <ele>-6.1112061</ele>
        <time>2011-08-12T09:06:22Z</time>
      </trkpt>
      <trkpt lat="47.69114" lon="-3.49526">
        <ele>-4.6693115</ele>
        <time>2011-08-12T09:06:32Z</time>
      </trkpt>
      <trkpt lat="47.69136" lon="-3.49542">
        <ele>-2.2659912</ele>
        <time>2011-08-12T09:06:42Z</time>
      </trkpt>
      <trkpt lat="47.69158" lon="-3.49559">
        <ele>-0.8240967</ele>
        <time>2011-08-12T09:06:52Z</time>
      </trkpt>
      <trkpt lat="47.69181" lon="-3.49575">
        <ele>0.1374512</ele>
        <time>2011-08-12T09:07:02Z</time>
      </trkpt>
      <trkpt lat="47.69201" lon="-3.49592">
        <ele>1.0986328</ele>
        <time>2011-08-12T09:07:12Z</time>
      </trkpt>
      <trkpt lat="47.69223" lon="-3.49609">
        <ele>1.5793457</ele>
        <time>2011-08-12T09:07:22Z</time>
      </trkpt>
      <trkpt lat="47.69243" lon="-3.49626">
        <ele>1.5793457</ele>
        <time>2011-08-12T09:07:32Z</time>
      </trkpt>
      <trkpt lat="47.69264" lon="-3.49643">
        <ele>0.618042</ele>
        <time>2011-08-12T09:07:42Z</time>
      </trkpt>
      <trkpt lat="47.69284" lon="-3.49662">
        <ele>1.0986328</ele>
        <time>2011-08-12T09:07:52Z</time>
      </trkpt>
      <trkpt lat="47.69306" lon="-3.49679">
        <ele>-0.3433838</ele>
        <time>2011-08-12T09:08:02Z</time>
      </trkpt>
      <trkpt lat="47.69326" lon="-3.49696">
        <ele>-3.2272949</ele>
        <time>2011-08-12T09:08:12Z</time>
      </trkpt>
      <trkpt lat="47.69347" lon="-3.49715">
        <ele>-4.1885986</ele>
        <time>2011-08-12T09:08:22Z</time>
      </trkpt>
      <trkpt lat="47.69369" lon="-3.49732">
        <ele>-3.7078857</ele>
        <time>2011-08-12T09:08:32Z</time>
      </trkpt>
      <trkpt lat="47.69391" lon="-3.49748">
        <ele>-5.1499023</ele>
        <time>2011-08-12T09:08:42Z</time>
      </trkpt>
      <trkpt lat="47.69413" lon="-3.49765">
        <ele>-5.6304932</ele>
        <time>2011-08-12T09:08:52Z</time>
      </trkpt>
      <trkpt lat="47.69434" lon="-3.49784">
        <ele>-7.0725098</ele>
        <time>2011-08-12T09:09:02Z</time>
      </trkpt>
      <trkpt lat="47.69455" lon="-3.498">
        <ele>-8.9952393</ele>
        <time>2011-08-12T09:09:12Z</time>
      </trkpt>
      <trkpt lat="47.69476" lon="-3.49815">
        <ele>-8.9952393</ele>
        <time>2011-08-12T09:09:22Z</time>
      </trkpt>
      <trkpt lat="47.69498" lon="-3.4983">
        <ele>-7.5531006</ele>
        <time>2011-08-12T09:09:32Z</time>
      </trkpt>
      <trkpt lat="47.69517" lon="-3.49845">
        <ele>-7.0725098</ele>
        <time>2011-08-12T09:09:42Z</time>
      </trkpt>
      <trkpt lat="47.69538" lon="-3.49863">
        <ele>-8.5146484</ele>
        <time>2011-08-12T09:09:52Z</time>
      </trkpt>
      <trkpt lat="47.69557" lon="-3.49879">
        <ele>-13.3210449</ele>
        <time>2011-08-12T09:10:02Z</time>
      </trkpt>
      <trkpt lat="47.69576" lon="-3.49898">
        <ele>-16.685791</ele>
        <time>2011-08-12T09:10:12Z</time>
      </trkpt>
      <trkpt lat="47.69595" lon="-3.49916">
        <ele>-21.0115967</ele>
        <time>2011-08-12T09:10:22Z</time>
      </trkpt>
      <trkpt lat="47.69616" lon="-3.49932">
        <ele>-18.6083984</ele>
        <time>2011-08-12T09:10:32Z</time>
      </trkpt>
      <trkpt lat="47.69637" lon="-3.49948">
        <ele>-17.1663818</ele>
        <time>2011-08-12T09:10:42Z</time>
      </trkpt>
      <trkpt lat="47.69658" lon="-3.49962">
        <ele>-10.4372559</ele>
        <time>2011-08-12T09:10:52Z</time>
      </trkpt>
      <trkpt lat="47.69677" lon="-3.4998">
        <ele>-7.5531006</ele>
        <time>2011-08-12T09:11:02Z</time>
      </trkpt>
      <trkpt lat="47.69698" lon="-3.49998">
        <ele>-6.1112061</ele>
        <time>2011-08-12T09:11:12Z</time>
      </trkpt>
      <trkpt lat="47.69719" lon="-3.50015">
        <ele>-6.5919189</ele>
        <time>2011-08-12T09:11:22Z</time>
      </trkpt>
      <trkpt lat="47.69741" lon="-3.50031">
        <ele>-5.6304932</ele>
        <time>2011-08-12T09:11:32Z</time>
      </trkpt>
      <trkpt lat="47.69763" lon="-3.50046">
        <ele>-3.2272949</ele>
        <time>2011-08-12T09:11:42Z</time>
      </trkpt>
      <trkpt lat="47.69783" lon="-3.50064">
        <ele>-6.5919189</ele>
        <time>2011-08-12T09:11:52Z</time>
      </trkpt>
      <trkpt lat="47.69802" lon="-3.50079">
        <ele>-8.5146484</ele>
        <time>2011-08-12T09:12:02Z</time>
      </trkpt>
      <trkpt lat="47.69821" lon="-3.50093">
        <ele>-8.5146484</ele>
        <time>2011-08-12T09:12:12Z</time>
      </trkpt>
      <trkpt lat="47.69839" lon="-3.50111">
        <ele>-6.1112061</ele>
        <time>2011-08-12T09:12:22Z</time>
      </trkpt>
      <trkpt lat="47.6986" lon="-3.50126">
        <ele>-6.5919189</ele>
        <time>2011-08-12T09:12:32Z</time>
      </trkpt>
      <trkpt lat="47.69881" lon="-3.50141">
        <ele>-7.5531006</ele>
        <time>2011-08-12T09:12:42Z</time>
      </trkpt>
      <trkpt lat="47.69904" lon="-3.50157">
        <ele>-6.5919189</ele>
        <time>2011-08-12T09:12:52Z</time>
      </trkpt>
      <trkpt lat="47.69927" lon="-3.5017">
        <ele>-5.1499023</ele>
        <time>2011-08-12T09:13:02Z</time>
      </trkpt>
      <trkpt lat="47.6995" lon="-3.50183">
        <ele>-4.6693115</ele>
        <time>2011-08-12T09:13:12Z</time>
      </trkpt>
      <trkpt lat="47.69974" lon="-3.50199">
        <ele>-6.1112061</ele>
        <time>2011-08-12T09:13:22Z</time>
      </trkpt>
      <trkpt lat="47.69993" lon="-3.50217">
        <ele>-9.4758301</ele>
        <time>2011-08-12T09:13:32Z</time>
      </trkpt>
      <trkpt lat="47.70011" lon="-3.50238">
        <ele>-9.956543</ele>
        <time>2011-08-12T09:13:42Z</time>
      </trkpt>
      <trkpt lat="47.70028" lon="-3.50256">
        <ele>-11.8791504</ele>
        <time>2011-08-12T09:13:52Z</time>
      </trkpt>
      <trkpt lat="47.70045" lon="-3.50277">
        <ele>-13.3210449</ele>
        <time>2011-08-12T09:14:02Z</time>
      </trkpt>
      <trkpt lat="47.70062" lon="-3.50295">
        <ele>-14.2824707</ele>
        <time>2011-08-12T09:14:12Z</time>
      </trkpt>
      <trkpt lat="47.70078" lon="-3.50316">
        <ele>-15.7243652</ele>
        <time>2011-08-12T09:14:22Z</time>
      </trkpt>
      <trkpt lat="47.70095" lon="-3.50336">
        <ele>-16.2052002</ele>
        <time>2011-08-12T09:14:32Z</time>
      </trkpt>
      <trkpt lat="47.70112" lon="-3.50356">
        <ele>-17.1663818</ele>
        <time>2011-08-12T09:14:42Z</time>
      </trkpt>
      <trkpt lat="47.70127" lon="-3.50376">
        <ele>-17.1663818</ele>
        <time>2011-08-12T09:14:52Z</time>
      </trkpt>
      <trkpt lat="47.7014" lon="-3.50392">
        <ele>-17.6470947</ele>
        <time>2011-08-12T09:15:02Z</time>
      </trkpt>
      <trkpt lat="47.70154" lon="-3.5041">
        <ele>-19.0889893</ele>
        <time>2011-08-12T09:15:12Z</time>
      </trkpt>
      <trkpt lat="47.7017" lon="-3.50428">
        <ele>-19.0889893</ele>
        <time>2011-08-12T09:15:22Z</time>
      </trkpt>
      <trkpt lat="47.70187" lon="-3.50447">
        <ele>-18.6083984</ele>
        <time>2011-08-12T09:15:32Z</time>
      </trkpt>
      <trkpt lat="47.70204" lon="-3.50462">
        <ele>-17.6470947</ele>
        <time>2011-08-12T09:15:42Z</time>
      </trkpt>
      <trkpt lat="47.70223" lon="-3.50481">
        <ele>-18.6083984</ele>
        <time>2011-08-12T09:15:52Z</time>
      </trkpt>
      <trkpt lat="47.70243" lon="-3.50495">
        <ele>-16.685791</ele>
        <time>2011-08-12T09:16:02Z</time>
      </trkpt>
      <trkpt lat="47.70261" lon="-3.50512">
        <ele>-12.3598633</ele>
        <time>2011-08-12T09:16:12Z</time>
      </trkpt>
      <trkpt lat="47.70282" lon="-3.50527">
        <ele>-11.3984375</ele>
        <time>2011-08-12T09:16:22Z</time>
      </trkpt>
      <trkpt lat="47.70304" lon="-3.50541">
        <ele>-10.9178467</ele>
        <time>2011-08-12T09:16:32Z</time>
      </trkpt>
      <trkpt lat="47.70325" lon="-3.50561">
        <ele>-8.5146484</ele>
        <time>2011-08-12T09:16:42Z</time>
      </trkpt>
      <trkpt lat="47.70342" lon="-3.5058">
        <ele>-8.9952393</ele>
        <time>2011-08-12T09:16:52Z</time>
      </trkpt>
      <trkpt lat="47.70359" lon="-3.50601">
        <ele>-8.9952393</ele>
        <time>2011-08-12T09:17:02Z</time>
      </trkpt>
      <trkpt lat="47.70377" lon="-3.50621">
        <ele>-8.9952393</ele>
        <time>2011-08-12T09:17:12Z</time>
      </trkpt>
      <trkpt lat="47.70396" lon="-3.5064">
        <ele>-8.9952393</ele>
        <time>2011-08-12T09:17:22Z</time>
      </trkpt>
      <trkpt lat="47.70417" lon="-3.50659">
        <ele>-7.0725098</ele>
        <time>2011-08-12T09:17:32Z</time>
      </trkpt>
      <trkpt lat="47.70435" lon="-3.50681">
        <ele>-7.0725098</ele>
        <time>2011-08-12T09:17:42Z</time>
      </trkpt>
      <trkpt lat="47.70452" lon="-3.50701">
        <ele>-7.5531006</ele>
        <time>2011-08-12T09:17:52Z</time>
      </trkpt>
      <trkpt lat="47.7047" lon="-3.50722">
        <ele>-5.6304932</ele>
        <time>2011-08-12T09:18:02Z</time>
      </trkpt>
      <trkpt lat="47.70488" lon="-3.50736">
        <ele>-1.3046875</ele>
        <time>2011-08-12T09:18:12Z</time>
      </trkpt>
      <trkpt lat="47.70508" lon="-3.50752">
        <ele>0.1374512</ele>
        <time>2011-08-12T09:18:22Z</time>
      </trkpt>
      <trkpt lat="47.70527" lon="-3.50767">
        <ele>4.9438477</ele>
        <time>2011-08-12T09:18:32Z</time>
      </trkpt>
      <trkpt lat="47.70545" lon="-3.50783">
        <ele>3.982666</ele>
        <time>2011-08-12T09:18:42Z</time>
      </trkpt>
      <trkpt lat="47.70565" lon="-3.508">
        <ele>4.4632568</ele>
        <time>2011-08-12T09:18:52Z</time>
      </trkpt>
      <trkpt lat="47.70585" lon="-3.50821">
        <ele>2.5406494</ele>
        <time>2011-08-12T09:19:02Z</time>
      </trkpt>
      <trkpt lat="47.70602" lon="-3.50842">
        <ele>1.5793457</ele>
        <time>2011-08-12T09:19:12Z</time>
      </trkpt>
      <trkpt lat="47.70622" lon="-3.50861">
        <ele>1.5793457</ele>
        <time>2011-08-12T09:19:22Z</time>
      </trkpt>
      <trkpt lat="47.7064" lon="-3.50881">
        <ele>2.0600586</ele>
        <time>2011-08-12T09:19:32Z</time>
      </trkpt>
      <trkpt lat="47.70659" lon="-3.50901">
        <ele>3.982666</ele>
        <time>2011-08-12T09:19:42Z</time>
      </trkpt>
      <trkpt lat="47.70676" lon="-3.50921">
        <ele>4.4632568</ele>
        <time>2011-08-12T09:19:52Z</time>
      </trkpt>
      <trkpt lat="47.70693" lon="-3.50942">
        <ele>3.0212402</ele>
        <time>2011-08-12T09:20:02Z</time>
      </trkpt>
      <trkpt lat="47.7071" lon="-3.50966">
        <ele>3.0212402</ele>
        <time>2011-08-12T09:20:12Z</time>
      </trkpt>
      <trkpt lat="47.70725" lon="-3.50986">
        <ele>3.5019531</ele>
        <time>2011-08-12T09:20:22Z</time>
      </trkpt>
      <trkpt lat="47.70739" lon="-3.5101">
        <ele>3.982666</ele>
        <time>2011-08-12T09:20:32Z</time>
      </trkpt>
      <trkpt lat="47.70753" lon="-3.51032">
        <ele>3.982666</ele>
        <time>2011-08-12T09:20:42Z</time>
      </trkpt>
      <trkpt lat="47.70766" lon="-3.51054">
        <ele>1.5793457</ele>
        <time>2011-08-12T09:20:52Z</time>
      </trkpt>
      <trkpt lat="47.7078" lon="-3.51076">
        <ele>2.5406494</ele>
        <time>2011-08-12T09:21:02Z</time>
      </trkpt>
      <trkpt lat="47.70794" lon="-3.51096">
        <ele>3.982666</ele>
        <time>2011-08-12T09:21:12Z</time>
      </trkpt>
      <trkpt lat="47.70808" lon="-3.51114">
        <ele>5.9052734</ele>
        <time>2011-08-12T09:21:22Z</time>
      </trkpt>
      <trkpt lat="47.70823" lon="-3.51133">
        <ele>6.3858643</ele>
        <time>2011-08-12T09:21:32Z</time>
      </trkpt>
      <trkpt lat="47.70839" lon="-3.51152">
        <ele>7.347168</ele>
        <time>2011-08-12T09:21:42Z</time>
      </trkpt>
      <trkpt lat="47.70853" lon="-3.51172">
        <ele>4.4632568</ele>
        <time>2011-08-12T09:21:52Z</time>
      </trkpt>
      <trkpt lat="47.70871" lon="-3.51191">
        <ele>3.5019531</ele>
        <time>2011-08-12T09:22:02Z</time>
      </trkpt>
      <trkpt lat="47.70887" lon="-3.51214">
        <ele>5.4245605</ele>
        <time>2011-08-12T09:22:12Z</time>
      </trkpt>
      <trkpt lat="47.70905" lon="-3.51235">
        <ele>3.982666</ele>
        <time>2011-08-12T09:22:22Z</time>
      </trkpt>
      <trkpt lat="47.70921" lon="-3.51256">
        <ele>2.5406494</ele>
        <time>2011-08-12T09:22:32Z</time>
      </trkpt>
      <trkpt lat="47.70936" lon="-3.51276">
        <ele>1.5793457</ele>
        <time>2011-08-12T09:22:42Z</time>
      </trkpt>
      <trkpt lat="47.70953" lon="-3.51293">
        <ele>3.0212402</ele>
        <time>2011-08-12T09:22:52Z</time>
      </trkpt>
      <trkpt lat="47.70971" lon="-3.5131">
        <ele>1.0986328</ele>
        <time>2011-08-12T09:23:02Z</time>
      </trkpt>
      <trkpt lat="47.70989" lon="-3.51327">
        <ele>3.0212402</ele>
        <time>2011-08-12T09:23:12Z</time>
      </trkpt>
      <trkpt lat="47.71007" lon="-3.51344">
        <ele>4.4632568</ele>
        <time>2011-08-12T09:23:22Z</time>
      </trkpt>
      <trkpt lat="47.71026" lon="-3.51359">
        <ele>3.0212402</ele>
        <time>2011-08-12T09:23:32Z</time>
      </trkpt>
      <trkpt lat="47.71044" lon="-3.51373">
        <ele>2.0600586</ele>
        <time>2011-08-12T09:23:42Z</time>
      </trkpt>
      <trkpt lat="47.71065" lon="-3.51386">
        <ele>2.0600586</ele>
        <time>2011-08-12T09:23:52Z</time>
      </trkpt>
      <trkpt lat="47.71087" lon="-3.514">
        <ele>0.618042</ele>
        <time>2011-08-12T09:24:02Z</time>
      </trkpt>
      <trkpt lat="47.71111" lon="-3.51412">
        <ele>1.0986328</ele>
        <time>2011-08-12T09:24:12Z</time>
      </trkpt>
      <trkpt lat="47.71137" lon="-3.51425">
        <ele>0.618042</ele>
        <time>2011-08-12T09:24:22Z</time>
      </trkpt>
      <trkpt lat="47.71165" lon="-3.51439">
        <ele>0.1374512</ele>
        <time>2011-08-12T09:24:32Z</time>
      </trkpt>
      <trkpt lat="47.71192" lon="-3.51452">
        <ele>0.1374512</ele>
        <time>2011-08-12T09:24:42Z</time>
      </trkpt>
      <trkpt lat="47.71223" lon="-3.51463">
        <ele>0.618042</ele>
        <time>2011-08-12T09:24:52Z</time>
      </trkpt>
      <trkpt lat="47.71254" lon="-3.51472">
        <ele>0.618042</ele>
        <time>2011-08-12T09:25:02Z</time>
      </trkpt>
      <trkpt lat="47.71288" lon="-3.5148">
        <ele>0.1374512</ele>
        <time>2011-08-12T09:25:12Z</time>
      </trkpt>
      <trkpt lat="47.71319" lon="-3.51494">
        <ele>-1.3046875</ele>
        <time>2011-08-12T09:25:22Z</time>
      </trkpt>
      <trkpt lat="47.71349" lon="-3.51509">
        <ele>1.0986328</ele>
        <time>2011-08-12T09:25:32Z</time>
      </trkpt>
      <trkpt lat="47.71377" lon="-3.51528">
        <ele>3.0212402</ele>
        <time>2011-08-12T09:25:42Z</time>
      </trkpt>
      <trkpt lat="47.71404" lon="-3.51547">
        <ele>3.982666</ele>
        <time>2011-08-12T09:25:52Z</time>
      </trkpt>
      <trkpt lat="47.7143" lon="-3.5157">
        <ele>3.982666</ele>
        <time>2011-08-12T09:26:02Z</time>
      </trkpt>
      <trkpt lat="47.71456" lon="-3.5159">
        <ele>3.0212402</ele>
        <time>2011-08-12T09:26:12Z</time>
      </trkpt>
      <trkpt lat="47.71482" lon="-3.5161">
        <ele>2.0600586</ele>
        <time>2011-08-12T09:26:22Z</time>
      </trkpt>
      <trkpt lat="47.71509" lon="-3.51628">
        <ele>1.0986328</ele>
        <time>2011-08-12T09:26:32Z</time>
      </trkpt>
      <trkpt lat="47.71537" lon="-3.51646">
        <ele>0.618042</ele>
        <time>2011-08-12T09:26:42Z</time>
      </trkpt>
      <trkpt lat="47.71565" lon="-3.51663">
        <ele>-0.3433838</ele>
        <time>2011-08-12T09:26:52Z</time>
      </trkpt>
      <trkpt lat="47.71592" lon="-3.5168">
        <ele>-3.2272949</ele>
        <time>2011-08-12T09:27:02Z</time>
      </trkpt>
      <trkpt lat="47.71622" lon="-3.51694">
        <ele>-2.2659912</ele>
        <time>2011-08-12T09:27:12Z</time>
      </trkpt>
      <trkpt lat="47.71652" lon="-3.51707">
        <ele>-2.2659912</ele>
        <time>2011-08-12T09:27:22Z</time>
      </trkpt>
      <trkpt lat="47.71681" lon="-3.51718">
        <ele>-1.7852783</ele>
        <time>2011-08-12T09:27:32Z</time>
      </trkpt>
      <trkpt lat="47.71709" lon="-3.51727">
        <ele>-0.8240967</ele>
        <time>2011-08-12T09:27:42Z</time>
      </trkpt>
      <trkpt lat="47.71738" lon="-3.51739">
        <ele>0.618042</ele>
        <time>2011-08-12T09:27:52Z</time>
      </trkpt>
      <trkpt lat="47.71765" lon="-3.51751">
        <ele>-0.3433838</ele>
        <time>2011-08-12T09:28:02Z</time>
      </trkpt>
      <trkpt lat="47.71792" lon="-3.51764">
        <ele>-2.7467041</ele>
        <time>2011-08-12T09:28:12Z</time>
      </trkpt>
      <trkpt lat="47.7182" lon="-3.51776">
        <ele>-4.1885986</ele>
        <time>2011-08-12T09:28:22Z</time>
      </trkpt>
      <trkpt lat="47.71847" lon="-3.51789">
        <ele>-2.7467041</ele>
        <time>2011-08-12T09:28:32Z</time>
      </trkpt>
      <trkpt lat="47.71875" lon="-3.51802">
        <ele>-2.7467041</ele>
        <time>2011-08-12T09:28:42Z</time>
      </trkpt>
      <trkpt lat="47.71901" lon="-3.51817">
        <ele>-3.2272949</ele>
        <time>2011-08-12T09:28:52Z</time>
      </trkpt>
      <trkpt lat="47.7193" lon="-3.51832">
        <ele>-2.2659912</ele>
        <time>2011-08-12T09:29:02Z</time>
      </trkpt>
      <trkpt lat="47.7196" lon="-3.51846">
        <ele>-1.3046875</ele>
        <time>2011-08-12T09:29:12Z</time>
      </trkpt>
      <trkpt lat="47.71988" lon="-3.5186">
        <ele>-2.2659912</ele>
        <time>2011-08-12T09:29:22Z</time>
      </trkpt>
      <trkpt lat="47.72017" lon="-3.51875">
        <ele>-2.2659912</ele>
        <time>2011-08-12T09:29:32Z</time>
      </trkpt>
      <trkpt lat="47.72049" lon="-3.51889">
        <ele>-0.8240967</ele>
        <time>2011-08-12T09:29:42Z</time>
      </trkpt>
      <trkpt lat="47.72081" lon="-3.51903">
        <ele>0.1374512</ele>
        <time>2011-08-12T09:29:52Z</time>
      </trkpt>
      <trkpt lat="47.72112" lon="-3.51919">
        <ele>1.0986328</ele>
        <time>2011-08-12T09:30:02Z</time>
      </trkpt>
      <trkpt lat="47.72141" lon="-3.51938">
        <ele>5.4245605</ele>
        <time>2011-08-12T09:30:12Z</time>
      </trkpt>
      <trkpt lat="47.72164" lon="-3.51959">
        <ele>4.4632568</ele>
        <time>2011-08-12T09:30:22Z</time>
      </trkpt>
      <trkpt lat="47.72185" lon="-3.51977">
        <ele>3.5019531</ele>
        <time>2011-08-12T09:30:32Z</time>
      </trkpt>
      <trkpt lat="47.72204" lon="-3.52001">
        <ele>3.0212402</ele>
        <time>2011-08-12T09:30:42Z</time>
      </trkpt>
      <trkpt lat="47.72222" lon="-3.52018">
        <ele>1.0986328</ele>
        <time>2011-08-12T09:30:52Z</time>
      </trkpt>
      <trkpt lat="47.72242" lon="-3.52034">
        <ele>2.0600586</ele>
        <time>2011-08-12T09:31:02Z</time>
      </trkpt>
      <trkpt lat="47.72264" lon="-3.52048">
        <ele>4.9438477</ele>
        <time>2011-08-12T09:31:12Z</time>
      </trkpt>
      <trkpt lat="47.72286" lon="-3.52068">
        <ele>4.9438477</ele>
        <time>2011-08-12T09:31:22Z</time>
      </trkpt>
      <trkpt lat="47.72306" lon="-3.52088">
        <ele>3.0212402</ele>
        <time>2011-08-12T09:31:32Z</time>
      </trkpt>
      <trkpt lat="47.72329" lon="-3.52105">
        <ele>5.9052734</ele>
        <time>2011-08-12T09:31:42Z</time>
      </trkpt>
      <trkpt lat="47.72353" lon="-3.52121">
        <ele>6.8664551</ele>
        <time>2011-08-12T09:31:52Z</time>
      </trkpt>
      <trkpt lat="47.72375" lon="-3.52139">
        <ele>8.7891846</ele>
        <time>2011-08-12T09:32:02Z</time>
      </trkpt>
      <trkpt lat="47.72398" lon="-3.52159">
        <ele>7.347168</ele>
        <time>2011-08-12T09:32:12Z</time>
      </trkpt>
      <trkpt lat="47.7242" lon="-3.52179">
        <ele>6.8664551</ele>
        <time>2011-08-12T09:32:22Z</time>
      </trkpt>
      <trkpt lat="47.72445" lon="-3.52194">
        <ele>9.7506104</ele>
        <time>2011-08-12T09:32:32Z</time>
      </trkpt>
      <trkpt lat="47.72466" lon="-3.52215">
        <ele>11.1925049</ele>
        <time>2011-08-12T09:32:42Z</time>
      </trkpt>
      <trkpt lat="47.72487" lon="-3.52234">
        <ele>7.347168</ele>
        <time>2011-08-12T09:32:52Z</time>
      </trkpt>
      <trkpt lat="47.7251" lon="-3.52252">
        <ele>7.347168</ele>
        <time>2011-08-12T09:33:02Z</time>
      </trkpt>
      <trkpt lat="47.72532" lon="-3.52271">
        <ele>5.9052734</ele>
        <time>2011-08-12T09:33:12Z</time>
      </trkpt>
      <trkpt lat="47.72555" lon="-3.52287">
        <ele>6.3858643</ele>
        <time>2011-08-12T09:33:22Z</time>
      </trkpt>
      <trkpt lat="47.72579" lon="-3.523">
        <ele>6.3858643</ele>
        <time>2011-08-12T09:33:32Z</time>
      </trkpt>
      <trkpt lat="47.72602" lon="-3.52316">
        <ele>7.347168</ele>
        <time>2011-08-12T09:33:42Z</time>
      </trkpt>
      <trkpt lat="47.72627" lon="-3.52332">
        <ele>9.2698975</ele>
        <time>2011-08-12T09:33:52Z</time>
      </trkpt>
      <trkpt lat="47.7265" lon="-3.52349">
        <ele>6.8664551</ele>
        <time>2011-08-12T09:34:02Z</time>
      </trkpt>
      <trkpt lat="47.72671" lon="-3.52366">
        <ele>1.5793457</ele>
        <time>2011-08-12T09:34:12Z</time>
      </trkpt>
      <trkpt lat="47.72693" lon="-3.52379">
        <ele>2.5406494</ele>
        <time>2011-08-12T09:34:22Z</time>
      </trkpt>
      <trkpt lat="47.72717" lon="-3.52393">
        <ele>2.5406494</ele>
        <time>2011-08-12T09:34:32Z</time>
      </trkpt>
      <trkpt lat="47.72742" lon="-3.52406">
        <ele>4.4632568</ele>
        <time>2011-08-12T09:34:42Z</time>
      </trkpt>
      <trkpt lat="47.72767" lon="-3.52419">
        <ele>5.4245605</ele>
        <time>2011-08-12T09:34:52Z</time>
      </trkpt>
      <trkpt lat="47.72791" lon="-3.52433">
        <ele>3.0212402</ele>
        <time>2011-08-12T09:35:02Z</time>
      </trkpt>
      <trkpt lat="47.72815" lon="-3.52449">
        <ele>3.5019531</ele>
        <time>2011-08-12T09:35:12Z</time>
      </trkpt>
      <trkpt lat="47.72842" lon="-3.52464">
        <ele>3.982666</ele>
        <time>2011-08-12T09:35:22Z</time>
      </trkpt>
      <trkpt lat="47.72869" lon="-3.52481">
        <ele>3.5019531</ele>
        <time>2011-08-12T09:35:32Z</time>
      </trkpt>
      <trkpt lat="47.72894" lon="-3.52501">
        <ele>4.9438477</ele>
        <time>2011-08-12T09:35:42Z</time>
      </trkpt>
      <trkpt lat="47.7292" lon="-3.52517">
        <ele>3.982666</ele>
        <time>2011-08-12T09:35:52Z</time>
      </trkpt>
      <trkpt lat="47.72945" lon="-3.52536">
        <ele>3.0212402</ele>
        <time>2011-08-12T09:36:02Z</time>
      </trkpt>
      <trkpt lat="47.72972" lon="-3.52555">
        <ele>3.982666</ele>
        <time>2011-08-12T09:36:12Z</time>
      </trkpt>
      <trkpt lat="47.72999" lon="-3.52575">
        <ele>5.4245605</ele>
        <time>2011-08-12T09:36:22Z</time>
      </trkpt>
      <trkpt lat="47.73026" lon="-3.52596">
        <ele>3.982666</ele>
        <time>2011-08-12T09:36:32Z</time>
      </trkpt>
      <trkpt lat="47.73055" lon="-3.52614">
        <ele>5.9052734</ele>
        <time>2011-08-12T09:36:42Z</time>
      </trkpt>
      <trkpt lat="47.73085" lon="-3.52637">
        <ele>5.9052734</ele>
        <time>2011-08-12T09:36:52Z</time>
      </trkpt>
      <trkpt lat="47.73114" lon="-3.52658">
        <ele>3.982666</ele>
        <time>2011-08-12T09:37:02Z</time>
      </trkpt>
      <trkpt lat="47.73145" lon="-3.52676">
        <ele>3.0212402</ele>
        <time>2011-08-12T09:37:12Z</time>
      </trkpt>
      <trkpt lat="47.73177" lon="-3.52693">
        <ele>0.1374512</ele>
        <time>2011-08-12T09:37:22Z</time>
      </trkpt>
      <trkpt lat="47.73211" lon="-3.52708">
        <ele>3.5019531</ele>
        <time>2011-08-12T09:37:32Z</time>
      </trkpt>
      <trkpt lat="47.73243" lon="-3.52723">
        <ele>6.3858643</ele>
        <time>2011-08-12T09:37:42Z</time>
      </trkpt>
      <trkpt lat="47.73272" lon="-3.52742">
        <ele>6.3858643</ele>
        <time>2011-08-12T09:37:52Z</time>
      </trkpt>
      <trkpt lat="47.73302" lon="-3.52765">
        <ele>7.347168</ele>
        <time>2011-08-12T09:38:02Z</time>
      </trkpt>
      <trkpt lat="47.73334" lon="-3.52784">
        <ele>8.3085938</ele>
        <time>2011-08-12T09:38:12Z</time>
      </trkpt>
      <trkpt lat="47.73363" lon="-3.52806">
        <ele>5.4245605</ele>
        <time>2011-08-12T09:38:22Z</time>
      </trkpt>
      <trkpt lat="47.73392" lon="-3.52829">
        <ele>5.4245605</ele>
        <time>2011-08-12T09:38:32Z</time>
      </trkpt>
      <trkpt lat="47.7342" lon="-3.52852">
        <ele>6.3858643</ele>
        <time>2011-08-12T09:38:42Z</time>
      </trkpt>
      <trkpt lat="47.73449" lon="-3.52876">
        <ele>4.4632568</ele>
        <time>2011-08-12T09:38:52Z</time>
      </trkpt>
      <trkpt lat="47.73476" lon="-3.52898">
        <ele>0.618042</ele>
        <time>2011-08-12T09:39:02Z</time>
      </trkpt>
      <trkpt lat="47.73506" lon="-3.5292">
        <ele>0.618042</ele>
        <time>2011-08-12T09:39:12Z</time>
      </trkpt>
      <trkpt lat="47.73536" lon="-3.52945">
        <ele>2.5406494</ele>
        <time>2011-08-12T09:39:22Z</time>
      </trkpt>
      <trkpt lat="47.73571" lon="-3.52961">
        <ele>3.982666</ele>
        <time>2011-08-12T09:39:32Z</time>
      </trkpt>
      <trkpt lat="47.73606" lon="-3.52983">
        <ele>3.982666</ele>
        <time>2011-08-12T09:39:42Z</time>
      </trkpt>
      <trkpt lat="47.7364" lon="-3.53006">
        <ele>1.5793457</ele>
        <time>2011-08-12T09:39:52Z</time>
      </trkpt>
      <trkpt lat="47.73673" lon="-3.53033">
        <ele>2.0600586</ele>
        <time>2011-08-12T09:40:02Z</time>
      </trkpt>
      <trkpt lat="47.73707" lon="-3.53059">
        <ele>1.0986328</ele>
        <time>2011-08-12T09:40:12Z</time>
      </trkpt>
      <trkpt lat="47.73741" lon="-3.53084">
        <ele>3.5019531</ele>
        <time>2011-08-12T09:40:22Z</time>
      </trkpt>
      <trkpt lat="47.73776" lon="-3.53112">
        <ele>0.618042</ele>
        <time>2011-08-12T09:40:32Z</time>
      </trkpt>
      <trkpt lat="47.73808" lon="-3.53141">
        <ele>-1.3046875</ele>
        <time>2011-08-12T09:40:42Z</time>
      </trkpt>
      <trkpt lat="47.73842" lon="-3.53168">
        <ele>-1.3046875</ele>
        <time>2011-08-12T09:40:52Z</time>
      </trkpt>
      <trkpt lat="47.73877" lon="-3.53192">
        <ele>-4.6693115</ele>
        <time>2011-08-12T09:41:02Z</time>
      </trkpt>
      <trkpt lat="47.73904" lon="-3.53228">
        <ele>4.9438477</ele>
        <time>2011-08-12T09:41:12Z</time>
      </trkpt>
      <trkpt lat="47.73935" lon="-3.53254">
        <ele>4.9438477</ele>
        <time>2011-08-12T09:41:22Z</time>
      </trkpt>
      <trkpt lat="47.73963" lon="-3.53281">
        <ele>5.4245605</ele>
        <time>2011-08-12T09:41:32Z</time>
      </trkpt>
      <trkpt lat="47.73996" lon="-3.53311">
        <ele>3.0212402</ele>
        <time>2011-08-12T09:41:42Z</time>
      </trkpt>
      <trkpt lat="47.74029" lon="-3.53336">
        <ele>2.0600586</ele>
        <time>2011-08-12T09:41:52Z</time>
      </trkpt>
      <trkpt lat="47.74065" lon="-3.53367">
        <ele>2.0600586</ele>
        <time>2011-08-12T09:42:02Z</time>
      </trkpt>
      <trkpt lat="47.74097" lon="-3.53394">
        <ele>3.5019531</ele>
        <time>2011-08-12T09:42:12Z</time>
      </trkpt>
      <trkpt lat="47.74133" lon="-3.5342">
        <ele>3.0212402</ele>
        <time>2011-08-12T09:42:22Z</time>
      </trkpt>
      <trkpt lat="47.74167" lon="-3.5345">
        <ele>4.4632568</ele>
        <time>2011-08-12T09:42:32Z</time>
      </trkpt>
      <trkpt lat="47.74202" lon="-3.53479">
        <ele>4.9438477</ele>
        <time>2011-08-12T09:42:42Z</time>
      </trkpt>
      <trkpt lat="47.74233" lon="-3.53512">
        <ele>4.9438477</ele>
        <time>2011-08-12T09:42:52Z</time>
      </trkpt>
      <trkpt lat="47.7426" lon="-3.53545">
        <ele>2.5406494</ele>
        <time>2011-08-12T09:43:02Z</time>
      </trkpt>
      <trkpt lat="47.74289" lon="-3.53576">
        <ele>3.5019531</ele>
        <time>2011-08-12T09:43:12Z</time>
      </trkpt>
      <trkpt lat="47.74319" lon="-3.53607">
        <ele>6.3858643</ele>
        <time>2011-08-12T09:43:22Z</time>
      </trkpt>
      <trkpt lat="47.7435" lon="-3.53635">
        <ele>7.347168</ele>
        <time>2011-08-12T09:43:32Z</time>
      </trkpt>
      <trkpt lat="47.74383" lon="-3.53663">
        <ele>4.9438477</ele>
        <time>2011-08-12T09:43:42Z</time>
      </trkpt>
      <trkpt lat="47.74418" lon="-3.53691">
        <ele>3.0212402</ele>
        <time>2011-08-12T09:43:52Z</time>
      </trkpt>
      <trkpt lat="47.74457" lon="-3.53715">
        <ele>1.0986328</ele>
        <time>2011-08-12T09:44:02Z</time>
      </trkpt>
      <trkpt lat="47.74489" lon="-3.53748">
        <ele>2.5406494</ele>
        <time>2011-08-12T09:44:12Z</time>
      </trkpt>
      <trkpt lat="47.74516" lon="-3.53782">
        <ele>3.0212402</ele>
        <time>2011-08-12T09:44:22Z</time>
      </trkpt>
      <trkpt lat="47.74538" lon="-3.53815">
        <ele>1.5793457</ele>
        <time>2011-08-12T09:44:32Z</time>
      </trkpt>
      <trkpt lat="47.74562" lon="-3.53842">
        <ele>2.5406494</ele>
        <time>2011-08-12T09:44:42Z</time>
      </trkpt>
      <trkpt lat="47.74589" lon="-3.53865">
        <ele>5.4245605</ele>
        <time>2011-08-12T09:44:52Z</time>
      </trkpt>
      <trkpt lat="47.74615" lon="-3.53895">
        <ele>7.347168</ele>
        <time>2011-08-12T09:45:02Z</time>
      </trkpt>
      <trkpt lat="47.7464" lon="-3.53926">
        <ele>8.7891846</ele>
        <time>2011-08-12T09:45:12Z</time>
      </trkpt>
      <trkpt lat="47.74665" lon="-3.53956">
        <ele>9.7506104</ele>
        <time>2011-08-12T09:45:22Z</time>
      </trkpt>
      <trkpt lat="47.74691" lon="-3.53987">
        <ele>6.3858643</ele>
        <time>2011-08-12T09:45:32Z</time>
      </trkpt>
      <trkpt lat="47.74717" lon="-3.54015">
        <ele>6.3858643</ele>
        <time>2011-08-12T09:45:42Z</time>
      </trkpt>
      <trkpt lat="47.74737" lon="-3.5405">
        <ele>4.4632568</ele>
        <time>2011-08-12T09:45:52Z</time>
      </trkpt>
      <trkpt lat="47.7476" lon="-3.54077">
        <ele>4.9438477</ele>
        <time>2011-08-12T09:46:02Z</time>
      </trkpt>
      <trkpt lat="47.74784" lon="-3.54108">
        <ele>4.9438477</ele>
        <time>2011-08-12T09:46:12Z</time>
      </trkpt>
      <trkpt lat="47.74814" lon="-3.54136">
        <ele>5.9052734</ele>
        <time>2011-08-12T09:46:22Z</time>
      </trkpt>
      <trkpt lat="47.74843" lon="-3.54163">
        <ele>8.7891846</ele>
        <time>2011-08-12T09:46:32Z</time>
      </trkpt>
      <trkpt lat="47.74874" lon="-3.54192">
        <ele>7.8278809</ele>
        <time>2011-08-12T09:46:42Z</time>
      </trkpt>
      <trkpt lat="47.74906" lon="-3.54218">
        <ele>6.3858643</ele>
        <time>2011-08-12T09:46:52Z</time>
      </trkpt>
      <trkpt lat="47.74936" lon="-3.54249">
        <ele>5.9052734</ele>
        <time>2011-08-12T09:47:02Z</time>
      </trkpt>
      <trkpt lat="47.74962" lon="-3.54283">
        <ele>3.982666</ele>
        <time>2011-08-12T09:47:12Z</time>
      </trkpt>
      <trkpt lat="47.74988" lon="-3.54311">
        <ele>5.9052734</ele>
        <time>2011-08-12T09:47:22Z</time>
      </trkpt>
      <trkpt lat="47.75015" lon="-3.54343">
        <ele>4.4632568</ele>
        <time>2011-08-12T09:47:32Z</time>
      </trkpt>
      <trkpt lat="47.75041" lon="-3.54374">
        <ele>3.982666</ele>
        <time>2011-08-12T09:47:42Z</time>
      </trkpt>
      <trkpt lat="47.75066" lon="-3.54403">
        <ele>3.982666</ele>
        <time>2011-08-12T09:47:52Z</time>
      </trkpt>
      <trkpt lat="47.75089" lon="-3.54433">
        <ele>4.9438477</ele>
        <time>2011-08-12T09:48:02Z</time>
      </trkpt>
      <trkpt lat="47.75114" lon="-3.54464">
        <ele>6.3858643</ele>
        <time>2011-08-12T09:48:12Z</time>
      </trkpt>
      <trkpt lat="47.7514" lon="-3.54494">
        <ele>6.8664551</ele>
        <time>2011-08-12T09:48:22Z</time>
      </trkpt>
      <trkpt lat="47.75168" lon="-3.54521">
        <ele>8.3085938</ele>
        <time>2011-08-12T09:48:32Z</time>
      </trkpt>
      <trkpt lat="47.75195" lon="-3.54549">
        <ele>7.347168</ele>
        <time>2011-08-12T09:48:42Z</time>
      </trkpt>
      <trkpt lat="47.75224" lon="-3.54578">
        <ele>6.8664551</ele>
        <time>2011-08-12T09:48:52Z</time>
      </trkpt>
      <trkpt lat="47.75253" lon="-3.54604">
        <ele>5.4245605</ele>
        <time>2011-08-12T09:49:02Z</time>
      </trkpt>
      <trkpt lat="47.75281" lon="-3.54629">
        <ele>5.9052734</ele>
        <time>2011-08-12T09:49:12Z</time>
      </trkpt>
      <trkpt lat="47.7531" lon="-3.54657">
        <ele>7.8278809</ele>
        <time>2011-08-12T09:49:22Z</time>
      </trkpt>
      <trkpt lat="47.75335" lon="-3.54689">
        <ele>6.3858643</ele>
        <time>2011-08-12T09:49:32Z</time>
      </trkpt>
      <trkpt lat="47.75358" lon="-3.54717">
        <ele>5.4245605</ele>
        <time>2011-08-12T09:49:42Z</time>
      </trkpt>
      <trkpt lat="47.75383" lon="-3.54747">
        <ele>4.9438477</ele>
        <time>2011-08-12T09:49:52Z</time>
      </trkpt>
      <trkpt lat="47.75408" lon="-3.54775">
        <ele>5.9052734</ele>
        <time>2011-08-12T09:50:02Z</time>
      </trkpt>
      <trkpt lat="47.75431" lon="-3.54806">
        <ele>6.3858643</ele>
        <time>2011-08-12T09:50:12Z</time>
      </trkpt>
      <trkpt lat="47.75457" lon="-3.54835">
        <ele>6.3858643</ele>
        <time>2011-08-12T09:50:22Z</time>
      </trkpt>
      <trkpt lat="47.75482" lon="-3.54861">
        <ele>3.982666</ele>
        <time>2011-08-12T09:50:32Z</time>
      </trkpt>
      <trkpt lat="47.75512" lon="-3.54888">
        <ele>3.982666</ele>
        <time>2011-08-12T09:50:42Z</time>
      </trkpt>
      <trkpt lat="47.75542" lon="-3.54913">
        <ele>4.4632568</ele>
        <time>2011-08-12T09:50:52Z</time>
      </trkpt>
      <trkpt lat="47.75573" lon="-3.54936">
        <ele>4.9438477</ele>
        <time>2011-08-12T09:51:02Z</time>
      </trkpt>
      <trkpt lat="47.75604" lon="-3.54956">
        <ele>3.5019531</ele>
        <time>2011-08-12T09:51:12Z</time>
      </trkpt>
      <trkpt lat="47.75638" lon="-3.54975">
        <ele>2.5406494</ele>
        <time>2011-08-12T09:51:22Z</time>
      </trkpt>
      <trkpt lat="47.75673" lon="-3.54993">
        <ele>4.9438477</ele>
        <time>2011-08-12T09:51:32Z</time>
      </trkpt>
      <trkpt lat="47.75707" lon="-3.55013">
        <ele>5.9052734</ele>
        <time>2011-08-12T09:51:42Z</time>
      </trkpt>
      <trkpt lat="47.75737" lon="-3.55033">
        <ele>4.9438477</ele>
        <time>2011-08-12T09:51:52Z</time>
      </trkpt>
      <trkpt lat="47.75761" lon="-3.55044">
        <ele>2.5406494</ele>
        <time>2011-08-12T09:52:02Z</time>
      </trkpt>
      <trkpt lat="47.7578" lon="-3.55055">
        <ele>1.5793457</ele>
        <time>2011-08-12T09:52:12Z</time>
      </trkpt>
      <trkpt lat="47.75792" lon="-3.55065">
        <ele>1.5793457</ele>
        <time>2011-08-12T09:52:22Z</time>
      </trkpt>
      <trkpt lat="47.75803" lon="-3.55072">
        <ele>3.982666</ele>
        <time>2011-08-12T09:52:32Z</time>
      </trkpt>
      <trkpt lat="47.75809" lon="-3.55074">
        <ele>5.4245605</ele>
        <time>2011-08-12T09:52:42Z</time>
      </trkpt>
      <trkpt lat="47.75817" lon="-3.5507">
        <ele>5.4245605</ele>
        <time>2011-08-12T09:52:52Z</time>
      </trkpt>
      <trkpt lat="47.75822" lon="-3.55069">
        <ele>3.0212402</ele>
        <time>2011-08-12T09:53:02Z</time>
      </trkpt>
      <trkpt lat="47.75828" lon="-3.55066">
        <ele>2.5406494</ele>
        <time>2011-08-12T09:53:12Z</time>
      </trkpt>
      <trkpt lat="47.75835" lon="-3.55066">
        <ele>2.5406494</ele>
        <time>2011-08-12T09:53:22Z</time>
      </trkpt>
      <trkpt lat="47.75838" lon="-3.55062">
        <ele>2.5406494</ele>
        <time>2011-08-12T09:53:32Z</time>
      </trkpt>
      <trkpt lat="47.75836" lon="-3.55057">
        <ele>2.5406494</ele>
        <time>2011-08-12T09:53:42Z</time>
      </trkpt>
      <trkpt lat="47.75833" lon="-3.55051">
        <ele>1.5793457</ele>
        <time>2011-08-12T09:53:52Z</time>
      </trkpt>
      <trkpt lat="47.75829" lon="-3.55047">
        <ele>0.1374512</ele>
        <time>2011-08-12T09:54:02Z</time>
      </trkpt>
      <trkpt lat="47.75823" lon="-3.55042">
        <ele>0.1374512</ele>
        <time>2011-08-12T09:54:12Z</time>
      </trkpt>
      <trkpt lat="47.75814" lon="-3.55037">
        <ele>1.0986328</ele>
        <time>2011-08-12T09:54:22Z</time>
      </trkpt>
      <trkpt lat="47.75805" lon="-3.55034">
        <ele>2.0600586</ele>
        <time>2011-08-12T09:54:32Z</time>
      </trkpt>
      <trkpt lat="47.75801" lon="-3.55034">
        <ele>3.5019531</ele>
        <time>2011-08-12T09:54:42Z</time>
      </trkpt>
      <trkpt lat="47.75796" lon="-3.55032">
        <ele>3.982666</ele>
        <time>2011-08-12T09:54:52Z</time>
      </trkpt>
      <trkpt lat="47.75791" lon="-3.55029">
        <ele>3.982666</ele>
        <time>2011-08-12T09:55:02Z</time>
      </trkpt>
      <trkpt lat="47.75783" lon="-3.55031">
        <ele>3.982666</ele>
        <time>2011-08-12T09:55:12Z</time>
      </trkpt>
      <trkpt lat="47.75772" lon="-3.55035">
        <ele>3.982666</ele>
        <time>2011-08-12T09:55:22Z</time>
      </trkpt>
      <trkpt lat="47.75753" lon="-3.55037">
        <ele>1.0986328</ele>
        <time>2011-08-12T09:55:32Z</time>
      </trkpt>
      <trkpt lat="47.75731" lon="-3.55041">
        <ele>2.0600586</ele>
        <time>2011-08-12T09:55:42Z</time>
      </trkpt>
      <trkpt lat="47.75706" lon="-3.55051">
        <ele>3.982666</ele>
        <time>2011-08-12T09:55:52Z</time>
      </trkpt>
      <trkpt lat="47.75684" lon="-3.55064">
        <ele>4.9438477</ele>
        <time>2011-08-12T09:56:02Z</time>
      </trkpt>
      <trkpt lat="47.75665" lon="-3.55079">
        <ele>6.8664551</ele>
        <time>2011-08-12T09:56:12Z</time>
      </trkpt>
      <trkpt lat="47.75652" lon="-3.55091">
        <ele>6.3858643</ele>
        <time>2011-08-12T09:56:22Z</time>
      </trkpt>
      <trkpt lat="47.75637" lon="-3.55098">
        <ele>5.9052734</ele>
        <time>2011-08-12T09:56:32Z</time>
      </trkpt>
      <trkpt lat="47.75618" lon="-3.55104">
        <ele>4.9438477</ele>
        <time>2011-08-12T09:56:42Z</time>
      </trkpt>
      <trkpt lat="47.75593" lon="-3.55112">
        <ele>5.4245605</ele>
        <time>2011-08-12T09:56:52Z</time>
      </trkpt>
      <trkpt lat="47.75563" lon="-3.55119">
        <ele>7.347168</ele>
        <time>2011-08-12T09:57:02Z</time>
      </trkpt>
      <trkpt lat="47.75531" lon="-3.55111">
        <ele>9.7506104</ele>
        <time>2011-08-12T09:57:12Z</time>
      </trkpt>
      <trkpt lat="47.75504" lon="-3.55097">
        <ele>10.2312012</ele>
        <time>2011-08-12T09:57:22Z</time>
      </trkpt>
      <trkpt lat="47.7547" lon="-3.55089">
        <ele>11.1925049</ele>
        <time>2011-08-12T09:57:32Z</time>
      </trkpt>
      <trkpt lat="47.75443" lon="-3.55094">
        <ele>9.7506104</ele>
        <time>2011-08-12T09:57:42Z</time>
      </trkpt>
      <trkpt lat="47.7542" lon="-3.55095">
        <ele>6.8664551</ele>
        <time>2011-08-12T09:57:52Z</time>
      </trkpt>
      <trkpt lat="47.75393" lon="-3.55091">
        <ele>4.9438477</ele>
        <time>2011-08-12T09:58:02Z</time>
      </trkpt>
      <trkpt lat="47.75366" lon="-3.5509">
        <ele>1.0986328</ele>
        <time>2011-08-12T09:58:12Z</time>
      </trkpt>
      <trkpt lat="47.75335" lon="-3.55092">
        <ele>0.1374512</ele>
        <time>2011-08-12T09:58:22Z</time>
      </trkpt>
      <trkpt lat="47.75308" lon="-3.55088">
        <ele>0.618042</ele>
        <time>2011-08-12T09:58:32Z</time>
      </trkpt>
      <trkpt lat="47.75284" lon="-3.5508">
        <ele>2.5406494</ele>
        <time>2011-08-12T09:58:42Z</time>
      </trkpt>
      <trkpt lat="47.75258" lon="-3.55075">
        <ele>-0.3433838</ele>
        <time>2011-08-12T09:58:52Z</time>
      </trkpt>
      <trkpt lat="47.75232" lon="-3.55078">
        <ele>-0.3433838</ele>
        <time>2011-08-12T09:59:02Z</time>
      </trkpt>
      <trkpt lat="47.75205" lon="-3.55084">
        <ele>-0.8240967</ele>
        <time>2011-08-12T09:59:12Z</time>
      </trkpt>
      <trkpt lat="47.75178" lon="-3.55088">
        <ele>1.0986328</ele>
        <time>2011-08-12T09:59:22Z</time>
      </trkpt>
      <trkpt lat="47.75152" lon="-3.5509">
        <ele>2.5406494</ele>
        <time>2011-08-12T09:59:32Z</time>
      </trkpt>
      <trkpt lat="47.75131" lon="-3.5509">
        <ele>2.5406494</ele>
        <time>2011-08-12T09:59:42Z</time>
      </trkpt>
      <trkpt lat="47.75109" lon="-3.55087">
        <ele>5.4245605</ele>
        <time>2011-08-12T09:59:52Z</time>
      </trkpt>
      <trkpt lat="47.75084" lon="-3.55084">
        <ele>4.9438477</ele>
        <time>2011-08-12T10:00:02Z</time>
      </trkpt>
      <trkpt lat="47.75061" lon="-3.55082">
        <ele>4.9438477</ele>
        <time>2011-08-12T10:00:12Z</time>
      </trkpt>
      <trkpt lat="47.75036" lon="-3.5508">
        <ele>4.9438477</ele>
        <time>2011-08-12T10:00:22Z</time>
      </trkpt>
      <trkpt lat="47.75009" lon="-3.55085">
        <ele>5.4245605</ele>
        <time>2011-08-12T10:00:32Z</time>
      </trkpt>
      <trkpt lat="47.74983" lon="-3.55093">
        <ele>4.4632568</ele>
        <time>2011-08-12T10:00:42Z</time>
      </trkpt>
      <trkpt lat="47.7496" lon="-3.55102">
        <ele>0.1374512</ele>
        <time>2011-08-12T10:00:52Z</time>
      </trkpt>
      <trkpt lat="47.7494" lon="-3.55108">
        <ele>-2.7467041</ele>
        <time>2011-08-12T10:01:02Z</time>
      </trkpt>
      <trkpt lat="47.74917" lon="-3.55111">
        <ele>-1.7852783</ele>
        <time>2011-08-12T10:01:12Z</time>
      </trkpt>
      <trkpt lat="47.74897" lon="-3.55111">
        <ele>-1.7852783</ele>
        <time>2011-08-12T10:01:22Z</time>
      </trkpt>
      <trkpt lat="47.74877" lon="-3.55115">
        <ele>-3.2272949</ele>
        <time>2011-08-12T10:01:32Z</time>
      </trkpt>
      <trkpt lat="47.74859" lon="-3.55122">
        <ele>-1.3046875</ele>
        <time>2011-08-12T10:01:42Z</time>
      </trkpt>
      <trkpt lat="47.74835" lon="-3.55127">
        <ele>-3.2272949</ele>
        <time>2011-08-12T10:01:52Z</time>
      </trkpt>
      <trkpt lat="47.74819" lon="-3.55129">
        <ele>-0.8240967</ele>
        <time>2011-08-12T10:02:02Z</time>
      </trkpt>
      <trkpt lat="47.74798" lon="-3.55133">
        <ele>-2.7467041</ele>
        <time>2011-08-12T10:02:12Z</time>
      </trkpt>
      <trkpt lat="47.74776" lon="-3.55138">
        <ele>-3.7078857</ele>
        <time>2011-08-12T10:02:22Z</time>
      </trkpt>
      <trkpt lat="47.74752" lon="-3.55146">
        <ele>-1.3046875</ele>
        <time>2011-08-12T10:02:32Z</time>
      </trkpt>
      <trkpt lat="47.74732" lon="-3.55148">
        <ele>-1.7852783</ele>
        <time>2011-08-12T10:02:42Z</time>
      </trkpt>
      <trkpt lat="47.74711" lon="-3.55151">
        <ele>-2.7467041</ele>
        <time>2011-08-12T10:02:52Z</time>
      </trkpt>
      <trkpt lat="47.74687" lon="-3.55151">
        <ele>-0.8240967</ele>
        <time>2011-08-12T10:03:02Z</time>
      </trkpt>
      <trkpt lat="47.74665" lon="-3.5515">
        <ele>0.618042</ele>
        <time>2011-08-12T10:03:12Z</time>
      </trkpt>
      <trkpt lat="47.74642" lon="-3.55151">
        <ele>1.0986328</ele>
        <time>2011-08-12T10:03:22Z</time>
      </trkpt>
      <trkpt lat="47.7462" lon="-3.55148">
        <ele>3.0212402</ele>
        <time>2011-08-12T10:03:32Z</time>
      </trkpt>
      <trkpt lat="47.74597" lon="-3.55149">
        <ele>2.5406494</ele>
        <time>2011-08-12T10:03:42Z</time>
      </trkpt>
      <trkpt lat="47.74572" lon="-3.55147">
        <ele>2.5406494</ele>
        <time>2011-08-12T10:03:52Z</time>
      </trkpt>
      <trkpt lat="47.74548" lon="-3.55146">
        <ele>3.5019531</ele>
        <time>2011-08-12T10:04:02Z</time>
      </trkpt>
      <trkpt lat="47.74526" lon="-3.55141">
        <ele>4.9438477</ele>
        <time>2011-08-12T10:04:12Z</time>
      </trkpt>
      <trkpt lat="47.74499" lon="-3.55139">
        <ele>5.9052734</ele>
        <time>2011-08-12T10:04:22Z</time>
      </trkpt>
      <trkpt lat="47.74474" lon="-3.55139">
        <ele>5.4245605</ele>
        <time>2011-08-12T10:04:32Z</time>
      </trkpt>
      <trkpt lat="47.74452" lon="-3.55146">
        <ele>5.4245605</ele>
        <time>2011-08-12T10:04:42Z</time>
      </trkpt>
      <trkpt lat="47.74431" lon="-3.55153">
        <ele>4.9438477</ele>
        <time>2011-08-12T10:04:52Z</time>
      </trkpt>
      <trkpt lat="47.74411" lon="-3.55164">
        <ele>8.3085938</ele>
        <time>2011-08-12T10:05:02Z</time>
      </trkpt>
      <trkpt lat="47.74388" lon="-3.55169">
        <ele>10.2312012</ele>
        <time>2011-08-12T10:05:12Z</time>
      </trkpt>
      <trkpt lat="47.74367" lon="-3.5517">
        <ele>10.711792</ele>
        <time>2011-08-12T10:05:22Z</time>
      </trkpt>
      <trkpt lat="47.74347" lon="-3.55175">
        <ele>13.1151123</ele>
        <time>2011-08-12T10:05:32Z</time>
      </trkpt>
      <trkpt lat="47.74327" lon="-3.55179">
        <ele>16.4797363</ele>
        <time>2011-08-12T10:05:42Z</time>
      </trkpt>
      <trkpt lat="47.74307" lon="-3.55187">
        <ele>17.4411621</ele>
        <time>2011-08-12T10:05:52Z</time>
      </trkpt>
      <trkpt lat="47.7429" lon="-3.55202">
        <ele>20.8056641</ele>
        <time>2011-08-12T10:06:02Z</time>
      </trkpt>
      <trkpt lat="47.74271" lon="-3.55207">
        <ele>23.2089844</ele>
        <time>2011-08-12T10:06:12Z</time>
      </trkpt>
      <trkpt lat="47.7425" lon="-3.55216">
        <ele>26.5736084</ele>
        <time>2011-08-12T10:06:22Z</time>
      </trkpt>
      <trkpt lat="47.74233" lon="-3.55208">
        <ele>21.7669678</ele>
        <time>2011-08-12T10:06:32Z</time>
      </trkpt>
      <trkpt lat="47.7422" lon="-3.55201">
        <ele>17.4411621</ele>
        <time>2011-08-12T10:06:42Z</time>
      </trkpt>
      <trkpt lat="47.74204" lon="-3.55204">
        <ele>14.5570068</ele>
        <time>2011-08-12T10:06:52Z</time>
      </trkpt>
      <trkpt lat="47.74186" lon="-3.55212">
        <ele>10.711792</ele>
        <time>2011-08-12T10:07:02Z</time>
      </trkpt>
      <trkpt lat="47.74173" lon="-3.55223">
        <ele>8.7891846</ele>
        <time>2011-08-12T10:07:12Z</time>
      </trkpt>
      <trkpt lat="47.74159" lon="-3.55227">
        <ele>6.3858643</ele>
        <time>2011-08-12T10:07:22Z</time>
      </trkpt>
      <trkpt lat="47.74145" lon="-3.55232">
        <ele>3.5019531</ele>
        <time>2011-08-12T10:07:32Z</time>
      </trkpt>
      <trkpt lat="47.7413" lon="-3.55234">
        <ele>3.0212402</ele>
        <time>2011-08-12T10:07:42Z</time>
      </trkpt>
      <trkpt lat="47.74114" lon="-3.55241">
        <ele>3.982666</ele>
        <time>2011-08-12T10:07:52Z</time>
      </trkpt>
      <trkpt lat="47.74099" lon="-3.55248">
        <ele>4.4632568</ele>
        <time>2011-08-12T10:08:02Z</time>
      </trkpt>
      <trkpt lat="47.74087" lon="-3.55255">
        <ele>3.0212402</ele>
        <time>2011-08-12T10:08:12Z</time>
      </trkpt>
      <trkpt lat="47.74072" lon="-3.55261">
        <ele>5.4245605</ele>
        <time>2011-08-12T10:08:22Z</time>
      </trkpt>
      <trkpt lat="47.74056" lon="-3.55268">
        <ele>7.347168</ele>
        <time>2011-08-12T10:08:32Z</time>
      </trkpt>
      <trkpt lat="47.74045" lon="-3.55272">
        <ele>9.7506104</ele>
        <time>2011-08-12T10:08:42Z</time>
      </trkpt>
      <trkpt lat="47.74036" lon="-3.55276">
        <ele>10.2312012</ele>
        <time>2011-08-12T10:08:52Z</time>
      </trkpt>
      <trkpt lat="47.74029" lon="-3.55279">
        <ele>12.1538086</ele>
        <time>2011-08-12T10:09:02Z</time>
      </trkpt>
      <trkpt lat="47.74018" lon="-3.55287">
        <ele>13.1151123</ele>
        <time>2011-08-12T10:09:12Z</time>
      </trkpt>
      <trkpt lat="47.74005" lon="-3.55292">
        <ele>13.5958252</ele>
        <time>2011-08-12T10:09:22Z</time>
      </trkpt>
      <trkpt lat="47.73996" lon="-3.55298">
        <ele>14.076416</ele>
        <time>2011-08-12T10:09:32Z</time>
      </trkpt>
      <trkpt lat="47.73987" lon="-3.55306">
        <ele>15.0377197</ele>
        <time>2011-08-12T10:09:42Z</time>
      </trkpt>
      <trkpt lat="47.73975" lon="-3.55316">
        <ele>15.5184326</ele>
        <time>2011-08-12T10:09:52Z</time>
      </trkpt>
      <trkpt lat="47.73962" lon="-3.55311">
        <ele>15.9990234</ele>
        <time>2011-08-12T10:10:02Z</time>
      </trkpt>
      <trkpt lat="47.73944" lon="-3.55309">
        <ele>16.4797363</ele>
        <time>2011-08-12T10:10:12Z</time>
      </trkpt>
      <trkpt lat="47.73928" lon="-3.5531">
        <ele>15.9990234</ele>
        <time>2011-08-12T10:10:22Z</time>
      </trkpt>
      <trkpt lat="47.73911" lon="-3.5531">
        <ele>15.9990234</ele>
        <time>2011-08-12T10:10:32Z</time>
      </trkpt>
      <trkpt lat="47.73894" lon="-3.55313">
        <ele>15.9990234</ele>
        <time>2011-08-12T10:10:42Z</time>
      </trkpt>
      <trkpt lat="47.73872" lon="-3.55306">
        <ele>7.8278809</ele>
        <time>2011-08-12T10:10:52Z</time>
      </trkpt>
      <trkpt lat="47.73852" lon="-3.55306">
        <ele>2.5406494</ele>
        <time>2011-08-12T10:11:02Z</time>
      </trkpt>
      <trkpt lat="47.73837" lon="-3.55312">
        <ele>-1.3046875</ele>
        <time>2011-08-12T10:11:12Z</time>
      </trkpt>
      <trkpt lat="47.73822" lon="-3.55318">
        <ele>-4.1885986</ele>
        <time>2011-08-12T10:11:22Z</time>
      </trkpt>
      <trkpt lat="47.73809" lon="-3.55321">
        <ele>-6.1112061</ele>
        <time>2011-08-12T10:11:32Z</time>
      </trkpt>
      <trkpt lat="47.73797" lon="-3.55328">
        <ele>-7.5531006</ele>
        <time>2011-08-12T10:11:42Z</time>
      </trkpt>
      <trkpt lat="47.73783" lon="-3.55329">
        <ele>-9.4758301</ele>
        <time>2011-08-12T10:11:52Z</time>
      </trkpt>
      <trkpt lat="47.73766" lon="-3.55327">
        <ele>-10.4372559</ele>
        <time>2011-08-12T10:12:02Z</time>
      </trkpt>
      <trkpt lat="47.73753" lon="-3.55332">
        <ele>-11.8791504</ele>
        <time>2011-08-12T10:12:12Z</time>
      </trkpt>
      <trkpt lat="47.73737" lon="-3.55334">
        <ele>-12.3598633</ele>
        <time>2011-08-12T10:12:22Z</time>
      </trkpt>
      <trkpt lat="47.73721" lon="-3.55341">
        <ele>-13.8017578</ele>
        <time>2011-08-12T10:12:32Z</time>
      </trkpt>
      <trkpt lat="47.73704" lon="-3.55347">
        <ele>-14.2824707</ele>
        <time>2011-08-12T10:12:42Z</time>
      </trkpt>
      <trkpt lat="47.73689" lon="-3.5535">
        <ele>-11.3984375</ele>
        <time>2011-08-12T10:12:52Z</time>
      </trkpt>
      <trkpt lat="47.73672" lon="-3.55353">
        <ele>-9.4758301</ele>
        <time>2011-08-12T10:13:02Z</time>
      </trkpt>
      <trkpt lat="47.73656" lon="-3.55358">
        <ele>-8.5146484</ele>
        <time>2011-08-12T10:13:12Z</time>
      </trkpt>
      <trkpt lat="47.73641" lon="-3.55361">
        <ele>-8.5146484</ele>
        <time>2011-08-12T10:13:22Z</time>
      </trkpt>
      <trkpt lat="47.73623" lon="-3.55368">
        <ele>-8.9952393</ele>
        <time>2011-08-12T10:13:32Z</time>
      </trkpt>
      <trkpt lat="47.73609" lon="-3.5537">
        <ele>-9.4758301</ele>
        <time>2011-08-12T10:13:42Z</time>
      </trkpt>
      <trkpt lat="47.73595" lon="-3.55377">
        <ele>-8.9952393</ele>
        <time>2011-08-12T10:13:52Z</time>
      </trkpt>
      <trkpt lat="47.7358" lon="-3.55385">
        <ele>-8.5146484</ele>
        <time>2011-08-12T10:14:02Z</time>
      </trkpt>
      <trkpt lat="47.73567" lon="-3.55389">
        <ele>-8.9952393</ele>
        <time>2011-08-12T10:14:12Z</time>
      </trkpt>
      <trkpt lat="47.73553" lon="-3.55393">
        <ele>-7.0725098</ele>
        <time>2011-08-12T10:14:22Z</time>
      </trkpt>
      <trkpt lat="47.7354" lon="-3.55398">
        <ele>-6.1112061</ele>
        <time>2011-08-12T10:14:32Z</time>
      </trkpt>
      <trkpt lat="47.73525" lon="-3.55399">
        <ele>-5.1499023</ele>
        <time>2011-08-12T10:14:42Z</time>
      </trkpt>
      <trkpt lat="47.7351" lon="-3.55406">
        <ele>-4.1885986</ele>
        <time>2011-08-12T10:14:52Z</time>
      </trkpt>
      <trkpt lat="47.73494" lon="-3.55414">
        <ele>-3.2272949</ele>
        <time>2011-08-12T10:15:02Z</time>
      </trkpt>
      <trkpt lat="47.73478" lon="-3.55421">
        <ele>-1.3046875</ele>
        <time>2011-08-12T10:15:12Z</time>
      </trkpt>
      <trkpt lat="47.73465" lon="-3.55428">
        <ele>-0.3433838</ele>
        <time>2011-08-12T10:15:22Z</time>
      </trkpt>
      <trkpt lat="47.73461" lon="-3.55432">
        <ele>-3.7078857</ele>
        <time>2011-08-12T10:15:32Z</time>
      </trkpt>
      <trkpt lat="47.73451" lon="-3.55438">
        <ele>-6.1112061</ele>
        <time>2011-08-12T10:15:42Z</time>
      </trkpt>
      <trkpt lat="47.73443" lon="-3.55441">
        <ele>-7.5531006</ele>
        <time>2011-08-12T10:15:52Z</time>
      </trkpt>
      <trkpt lat="47.73433" lon="-3.55447">
        <ele>-9.956543</ele>
        <time>2011-08-12T10:16:02Z</time>
      </trkpt>
      <trkpt lat="47.73423" lon="-3.55453">
        <ele>-12.3598633</ele>
        <time>2011-08-12T10:16:12Z</time>
      </trkpt>
      <trkpt lat="47.73413" lon="-3.55455">
        <ele>-13.3210449</ele>
        <time>2011-08-12T10:16:22Z</time>
      </trkpt>
      <trkpt lat="47.73401" lon="-3.55464">
        <ele>-17.1663818</ele>
        <time>2011-08-12T10:16:32Z</time>
      </trkpt>
      <trkpt lat="47.73393" lon="-3.55468">
        <ele>-19.5697021</ele>
        <time>2011-08-12T10:16:42Z</time>
      </trkpt>
      <trkpt lat="47.73385" lon="-3.55472">
        <ele>-18.6083984</ele>
        <time>2011-08-12T10:16:52Z</time>
      </trkpt>
      <trkpt lat="47.73378" lon="-3.55476">
        <ele>-18.6083984</ele>
        <time>2011-08-12T10:17:02Z</time>
      </trkpt>
      <trkpt lat="47.73365" lon="-3.5548">
        <ele>-19.0889893</ele>
        <time>2011-08-12T10:17:12Z</time>
      </trkpt>
      <trkpt lat="47.73351" lon="-3.55478">
        <ele>-19.0889893</ele>
        <time>2011-08-12T10:17:22Z</time>
      </trkpt>
      <trkpt lat="47.73335" lon="-3.55486">
        <ele>-19.0889893</ele>
        <time>2011-08-12T10:17:32Z</time>
      </trkpt>
      <trkpt lat="47.73322" lon="-3.55485">
        <ele>-17.6470947</ele>
        <time>2011-08-12T10:17:42Z</time>
      </trkpt>
      <trkpt lat="47.73305" lon="-3.55482">
        <ele>-13.8017578</ele>
        <time>2011-08-12T10:17:52Z</time>
      </trkpt>
      <trkpt lat="47.73287" lon="-3.55484">
        <ele>-12.8404541</ele>
        <time>2011-08-12T10:18:02Z</time>
      </trkpt>
      <trkpt lat="47.73268" lon="-3.55489">
        <ele>-11.8791504</ele>
        <time>2011-08-12T10:18:12Z</time>
      </trkpt>
      <trkpt lat="47.73253" lon="-3.55497">
        <ele>-10.4372559</ele>
        <time>2011-08-12T10:18:22Z</time>
      </trkpt>
      <trkpt lat="47.73234" lon="-3.55504">
        <ele>-10.4372559</ele>
        <time>2011-08-12T10:18:32Z</time>
      </trkpt>
      <trkpt lat="47.7322" lon="-3.55509">
        <ele>-11.3984375</ele>
        <time>2011-08-12T10:18:42Z</time>
      </trkpt>
      <trkpt lat="47.73207" lon="-3.5552">
        <ele>-9.956543</ele>
        <time>2011-08-12T10:18:52Z</time>
      </trkpt>
      <trkpt lat="47.73196" lon="-3.55529">
        <ele>-8.9952393</ele>
        <time>2011-08-12T10:19:02Z</time>
      </trkpt>
      <trkpt lat="47.73184" lon="-3.55534">
        <ele>-6.5919189</ele>
        <time>2011-08-12T10:19:12Z</time>
      </trkpt>
      <trkpt lat="47.7317" lon="-3.5553">
        <ele>-7.0725098</ele>
        <time>2011-08-12T10:19:22Z</time>
      </trkpt>
      <trkpt lat="47.7315" lon="-3.55548">
        <ele>-6.5919189</ele>
        <time>2011-08-12T10:19:32Z</time>
      </trkpt>
      <trkpt lat="47.73125" lon="-3.55548">
        <ele>-1.3046875</ele>
        <time>2011-08-12T10:19:42Z</time>
      </trkpt>
      <trkpt lat="47.73108" lon="-3.55541">
        <ele>0.1374512</ele>
        <time>2011-08-12T10:19:52Z</time>
      </trkpt>
      <trkpt lat="47.73085" lon="-3.55537">
        <ele>-1.3046875</ele>
        <time>2011-08-12T10:20:02Z</time>
      </trkpt>
      <trkpt lat="47.73061" lon="-3.55533">
        <ele>-2.2659912</ele>
        <time>2011-08-12T10:20:12Z</time>
      </trkpt>
      <trkpt lat="47.73037" lon="-3.55531">
        <ele>-4.1885986</ele>
        <time>2011-08-12T10:20:22Z</time>
      </trkpt>
      <trkpt lat="47.73012" lon="-3.55532">
        <ele>-4.6693115</ele>
        <time>2011-08-12T10:20:32Z</time>
      </trkpt>
      <trkpt lat="47.72987" lon="-3.55534">
        <ele>-7.0725098</ele>
        <time>2011-08-12T10:20:42Z</time>
      </trkpt>
      <trkpt lat="47.72963" lon="-3.55534">
        <ele>-5.6304932</ele>
        <time>2011-08-12T10:20:52Z</time>
      </trkpt>
      <trkpt lat="47.72943" lon="-3.55536">
        <ele>-6.5919189</ele>
        <time>2011-08-12T10:21:02Z</time>
      </trkpt>
      <trkpt lat="47.7292" lon="-3.5554">
        <ele>-8.5146484</ele>
        <time>2011-08-12T10:21:12Z</time>
      </trkpt>
      <trkpt lat="47.72899" lon="-3.55541">
        <ele>-10.4372559</ele>
        <time>2011-08-12T10:21:22Z</time>
      </trkpt>
      <trkpt lat="47.72877" lon="-3.55543">
        <ele>-7.5531006</ele>
        <time>2011-08-12T10:21:32Z</time>
      </trkpt>
      <trkpt lat="47.72854" lon="-3.55544">
        <ele>-5.1499023</ele>
        <time>2011-08-12T10:21:42Z</time>
      </trkpt>
      <trkpt lat="47.72838" lon="-3.55545">
        <ele>-3.7078857</ele>
        <time>2011-08-12T10:21:52Z</time>
      </trkpt>
      <trkpt lat="47.72816" lon="-3.5555">
        <ele>-2.7467041</ele>
        <time>2011-08-12T10:22:02Z</time>
      </trkpt>
      <trkpt lat="47.72799" lon="-3.55558">
        <ele>-2.7467041</ele>
        <time>2011-08-12T10:22:12Z</time>
      </trkpt>
      <trkpt lat="47.7278" lon="-3.55561">
        <ele>-3.7078857</ele>
        <time>2011-08-12T10:22:22Z</time>
      </trkpt>
      <trkpt lat="47.72765" lon="-3.5557">
        <ele>-1.7852783</ele>
        <time>2011-08-12T10:22:32Z</time>
      </trkpt>
      <trkpt lat="47.72748" lon="-3.55576">
        <ele>0.1374512</ele>
        <time>2011-08-12T10:22:42Z</time>
      </trkpt>
      <trkpt lat="47.72733" lon="-3.55582">
        <ele>0.618042</ele>
        <time>2011-08-12T10:22:52Z</time>
      </trkpt>
      <trkpt lat="47.72715" lon="-3.55593">
        <ele>2.5406494</ele>
        <time>2011-08-12T10:23:02Z</time>
      </trkpt>
      <trkpt lat="47.72696" lon="-3.55596">
        <ele>-1.3046875</ele>
        <time>2011-08-12T10:23:12Z</time>
      </trkpt>
      <trkpt lat="47.72681" lon="-3.55603">
        <ele>-2.2659912</ele>
        <time>2011-08-12T10:23:22Z</time>
      </trkpt>
      <trkpt lat="47.72666" lon="-3.5561">
        <ele>-0.3433838</ele>
        <time>2011-08-12T10:23:32Z</time>
      </trkpt>
      <trkpt lat="47.72652" lon="-3.55617">
        <ele>-1.7852783</ele>
        <time>2011-08-12T10:23:42Z</time>
      </trkpt>
      <trkpt lat="47.72636" lon="-3.55625">
        <ele>-2.7467041</ele>
        <time>2011-08-12T10:23:52Z</time>
      </trkpt>
      <trkpt lat="47.72623" lon="-3.55633">
        <ele>-2.7467041</ele>
        <time>2011-08-12T10:24:02Z</time>
      </trkpt>
      <trkpt lat="47.72607" lon="-3.55642">
        <ele>-2.7467041</ele>
        <time>2011-08-12T10:24:12Z</time>
      </trkpt>
      <trkpt lat="47.72592" lon="-3.55651">
        <ele>-2.2659912</ele>
        <time>2011-08-12T10:24:22Z</time>
      </trkpt>
      <trkpt lat="47.72578" lon="-3.5566">
        <ele>-1.3046875</ele>
        <time>2011-08-12T10:24:32Z</time>
      </trkpt>
      <trkpt lat="47.72568" lon="-3.55668">
        <ele>-1.7852783</ele>
        <time>2011-08-12T10:24:42Z</time>
      </trkpt>
      <trkpt lat="47.72555" lon="-3.55675">
        <ele>-0.3433838</ele>
        <time>2011-08-12T10:24:52Z</time>
      </trkpt>
      <trkpt lat="47.72544" lon="-3.55681">
        <ele>-1.3046875</ele>
        <time>2011-08-12T10:25:02Z</time>
      </trkpt>
      <trkpt lat="47.72535" lon="-3.55692">
        <ele>-1.7852783</ele>
        <time>2011-08-12T10:25:12Z</time>
      </trkpt>
      <trkpt lat="47.72523" lon="-3.557">
        <ele>-2.7467041</ele>
        <time>2011-08-12T10:25:22Z</time>
      </trkpt>
      <trkpt lat="47.72508" lon="-3.55707">
        <ele>-3.2272949</ele>
        <time>2011-08-12T10:25:32Z</time>
      </trkpt>
      <trkpt lat="47.72494" lon="-3.55713">
        <ele>-4.6693115</ele>
        <time>2011-08-12T10:25:42Z</time>
      </trkpt>
      <trkpt lat="47.72482" lon="-3.55717">
        <ele>-7.5531006</ele>
        <time>2011-08-12T10:25:52Z</time>
      </trkpt>
      <trkpt lat="47.72468" lon="-3.55723">
        <ele>-7.5531006</ele>
        <time>2011-08-12T10:26:02Z</time>
      </trkpt>
      <trkpt lat="47.72452" lon="-3.5573">
        <ele>-8.0339355</ele>
        <time>2011-08-12T10:26:12Z</time>
      </trkpt>
      <trkpt lat="47.72433" lon="-3.55736">
        <ele>-8.9952393</ele>
        <time>2011-08-12T10:26:22Z</time>
      </trkpt>
      <trkpt lat="47.72417" lon="-3.55745">
        <ele>-8.5146484</ele>
        <time>2011-08-12T10:26:32Z</time>
      </trkpt>
      <trkpt lat="47.72398" lon="-3.5575">
        <ele>-8.9952393</ele>
        <time>2011-08-12T10:26:42Z</time>
      </trkpt>
      <trkpt lat="47.7238" lon="-3.55757">
        <ele>-10.9178467</ele>
        <time>2011-08-12T10:26:52Z</time>
      </trkpt>
      <trkpt lat="47.72361" lon="-3.55762">
        <ele>-11.8791504</ele>
        <time>2011-08-12T10:27:02Z</time>
      </trkpt>
      <trkpt lat="47.72339" lon="-3.55767">
        <ele>-7.0725098</ele>
        <time>2011-08-12T10:27:12Z</time>
      </trkpt>
      <trkpt lat="47.72314" lon="-3.55769">
        <ele>-7.0725098</ele>
        <time>2011-08-12T10:27:22Z</time>
      </trkpt>
      <trkpt lat="47.7229" lon="-3.55768">
        <ele>-5.6304932</ele>
        <time>2011-08-12T10:27:32Z</time>
      </trkpt>
      <trkpt lat="47.72266" lon="-3.55768">
        <ele>-4.1885986</ele>
        <time>2011-08-12T10:27:42Z</time>
      </trkpt>
      <trkpt lat="47.7224" lon="-3.55769">
        <ele>-1.7852783</ele>
        <time>2011-08-12T10:27:52Z</time>
      </trkpt>
      <trkpt lat="47.72216" lon="-3.55772">
        <ele>-3.7078857</ele>
        <time>2011-08-12T10:28:02Z</time>
      </trkpt>
      <trkpt lat="47.72193" lon="-3.55776">
        <ele>-6.1112061</ele>
        <time>2011-08-12T10:28:12Z</time>
      </trkpt>
      <trkpt lat="47.72173" lon="-3.5578">
        <ele>-7.5531006</ele>
        <time>2011-08-12T10:28:22Z</time>
      </trkpt>
      <trkpt lat="47.7215" lon="-3.5579">
        <ele>-7.5531006</ele>
        <time>2011-08-12T10:28:32Z</time>
      </trkpt>
      <trkpt lat="47.72131" lon="-3.55801">
        <ele>-1.7852783</ele>
        <time>2011-08-12T10:28:42Z</time>
      </trkpt>
      <trkpt lat="47.72113" lon="-3.55811">
        <ele>-2.2659912</ele>
        <time>2011-08-12T10:28:52Z</time>
      </trkpt>
      <trkpt lat="47.72098" lon="-3.55817">
        <ele>-3.2272949</ele>
        <time>2011-08-12T10:29:02Z</time>
      </trkpt>
      <trkpt lat="47.72082" lon="-3.55822">
        <ele>-4.6693115</ele>
        <time>2011-08-12T10:29:12Z</time>
      </trkpt>
      <trkpt lat="47.72067" lon="-3.55832">
        <ele>-5.6304932</ele>
        <time>2011-08-12T10:29:22Z</time>
      </trkpt>
      <trkpt lat="47.72053" lon="-3.55843">
        <ele>-4.1885986</ele>
        <time>2011-08-12T10:29:32Z</time>
      </trkpt>
      <trkpt lat="47.72038" lon="-3.55852">
        <ele>-3.2272949</ele>
        <time>2011-08-12T10:29:42Z</time>
      </trkpt>
      <trkpt lat="47.72024" lon="-3.5586">
        <ele>-3.7078857</ele>
        <time>2011-08-12T10:29:52Z</time>
      </trkpt>
      <trkpt lat="47.72011" lon="-3.55869">
        <ele>-3.7078857</ele>
        <time>2011-08-12T10:30:02Z</time>
      </trkpt>
      <trkpt lat="47.71999" lon="-3.55878">
        <ele>-3.7078857</ele>
        <time>2011-08-12T10:30:12Z</time>
      </trkpt>
      <trkpt lat="47.71988" lon="-3.55888">
        <ele>-3.7078857</ele>
        <time>2011-08-12T10:30:22Z</time>
      </trkpt>
      <trkpt lat="47.71974" lon="-3.55898">
        <ele>-2.7467041</ele>
        <time>2011-08-12T10:30:32Z</time>
      </trkpt>
      <trkpt lat="47.71961" lon="-3.55907">
        <ele>-0.8240967</ele>
        <time>2011-08-12T10:30:42Z</time>
      </trkpt>
      <trkpt lat="47.71947" lon="-3.55915">
        <ele>-0.8240967</ele>
        <time>2011-08-12T10:30:52Z</time>
      </trkpt>
      <trkpt lat="47.71933" lon="-3.5592">
        <ele>0.1374512</ele>
        <time>2011-08-12T10:31:02Z</time>
      </trkpt>
      <trkpt lat="47.71919" lon="-3.55927">
        <ele>0.618042</ele>
        <time>2011-08-12T10:31:12Z</time>
      </trkpt>
      <trkpt lat="47.71906" lon="-3.55933">
        <ele>-1.3046875</ele>
        <time>2011-08-12T10:31:22Z</time>
      </trkpt>
      <trkpt lat="47.71891" lon="-3.55937">
        <ele>-0.3433838</ele>
        <time>2011-08-12T10:31:32Z</time>
      </trkpt>
      <trkpt lat="47.71876" lon="-3.55947">
        <ele>-1.7852783</ele>
        <time>2011-08-12T10:31:42Z</time>
      </trkpt>
      <trkpt lat="47.71859" lon="-3.55956">
        <ele>-1.7852783</ele>
        <time>2011-08-12T10:31:52Z</time>
      </trkpt>
      <trkpt lat="47.71841" lon="-3.55963">
        <ele>-2.7467041</ele>
        <time>2011-08-12T10:32:02Z</time>
      </trkpt>
      <trkpt lat="47.71824" lon="-3.55969">
        <ele>-4.1885986</ele>
        <time>2011-08-12T10:32:12Z</time>
      </trkpt>
      <trkpt lat="47.71808" lon="-3.55974">
        <ele>-5.1499023</ele>
        <time>2011-08-12T10:32:22Z</time>
      </trkpt>
      <trkpt lat="47.71789" lon="-3.55981">
        <ele>-7.5531006</ele>
        <time>2011-08-12T10:32:32Z</time>
      </trkpt>
      <trkpt lat="47.71771" lon="-3.55986">
        <ele>-8.0339355</ele>
        <time>2011-08-12T10:32:42Z</time>
      </trkpt>
      <trkpt lat="47.71752" lon="-3.55992">
        <ele>-8.5146484</ele>
        <time>2011-08-12T10:32:52Z</time>
      </trkpt>
      <trkpt lat="47.71731" lon="-3.56002">
        <ele>-6.5919189</ele>
        <time>2011-08-12T10:33:02Z</time>
      </trkpt>
      <trkpt lat="47.71709" lon="-3.5601">
        <ele>-7.0725098</ele>
        <time>2011-08-12T10:33:12Z</time>
      </trkpt>
      <trkpt lat="47.71689" lon="-3.56014">
        <ele>-7.5531006</ele>
        <time>2011-08-12T10:33:22Z</time>
      </trkpt>
      <trkpt lat="47.71666" lon="-3.56017">
        <ele>-8.0339355</ele>
        <time>2011-08-12T10:33:32Z</time>
      </trkpt>
      <trkpt lat="47.71644" lon="-3.56021">
        <ele>-8.5146484</ele>
        <time>2011-08-12T10:33:42Z</time>
      </trkpt>
      <trkpt lat="47.7162" lon="-3.56026">
        <ele>-1.7852783</ele>
        <time>2011-08-12T10:33:52Z</time>
      </trkpt>
      <trkpt lat="47.71599" lon="-3.56031">
        <ele>-4.6693115</ele>
        <time>2011-08-12T10:34:02Z</time>
      </trkpt>
      <trkpt lat="47.71572" lon="-3.56038">
        <ele>-3.7078857</ele>
        <time>2011-08-12T10:34:12Z</time>
      </trkpt>
      <trkpt lat="47.71551" lon="-3.56045">
        <ele>-2.7467041</ele>
        <time>2011-08-12T10:34:22Z</time>
      </trkpt>
      <trkpt lat="47.71527" lon="-3.56047">
        <ele>-7.0725098</ele>
        <time>2011-08-12T10:34:32Z</time>
      </trkpt>
      <trkpt lat="47.71506" lon="-3.56053">
        <ele>-7.5531006</ele>
        <time>2011-08-12T10:34:42Z</time>
      </trkpt>
      <trkpt lat="47.71481" lon="-3.56063">
        <ele>-2.7467041</ele>
        <time>2011-08-12T10:34:52Z</time>
      </trkpt>
      <trkpt lat="47.71459" lon="-3.56066">
        <ele>-4.1885986</ele>
        <time>2011-08-12T10:35:02Z</time>
      </trkpt>
      <trkpt lat="47.71437" lon="-3.56073">
        <ele>-3.7078857</ele>
        <time>2011-08-12T10:35:12Z</time>
      </trkpt>
      <trkpt lat="47.71416" lon="-3.56074">
        <ele>-5.6304932</ele>
        <time>2011-08-12T10:35:22Z</time>
      </trkpt>
      <trkpt lat="47.71392" lon="-3.56085">
        <ele>-1.7852783</ele>
        <time>2011-08-12T10:35:32Z</time>
      </trkpt>
      <trkpt lat="47.71368" lon="-3.56088">
        <ele>-0.8240967</ele>
        <time>2011-08-12T10:35:42Z</time>
      </trkpt>
      <trkpt lat="47.71349" lon="-3.56087">
        <ele>-4.1885986</ele>
        <time>2011-08-12T10:35:52Z</time>
      </trkpt>
      <trkpt lat="47.71326" lon="-3.5609">
        <ele>-3.2272949</ele>
        <time>2011-08-12T10:36:02Z</time>
      </trkpt>
      <trkpt lat="47.71304" lon="-3.56097">
        <ele>-4.6693115</ele>
        <time>2011-08-12T10:36:12Z</time>
      </trkpt>
      <trkpt lat="47.71281" lon="-3.56103">
        <ele>-8.5146484</ele>
        <time>2011-08-12T10:36:22Z</time>
      </trkpt>
      <trkpt lat="47.71259" lon="-3.56108">
        <ele>-10.9178467</ele>
        <time>2011-08-12T10:36:32Z</time>
      </trkpt>
      <trkpt lat="47.71236" lon="-3.56116">
        <ele>-9.956543</ele>
        <time>2011-08-12T10:36:42Z</time>
      </trkpt>
      <trkpt lat="47.71216" lon="-3.56126">
        <ele>-11.3984375</ele>
        <time>2011-08-12T10:36:52Z</time>
      </trkpt>
      <trkpt lat="47.71196" lon="-3.56131">
        <ele>-12.3598633</ele>
        <time>2011-08-12T10:37:02Z</time>
      </trkpt>
      <trkpt lat="47.71177" lon="-3.56137">
        <ele>-12.8404541</ele>
        <time>2011-08-12T10:37:12Z</time>
      </trkpt>
      <trkpt lat="47.71159" lon="-3.56148">
        <ele>-10.4372559</ele>
        <time>2011-08-12T10:37:22Z</time>
      </trkpt>
      <trkpt lat="47.71141" lon="-3.56157">
        <ele>-8.0339355</ele>
        <time>2011-08-12T10:37:32Z</time>
      </trkpt>
      <trkpt lat="47.71125" lon="-3.56169">
        <ele>-3.2272949</ele>
        <time>2011-08-12T10:37:42Z</time>
      </trkpt>
      <trkpt lat="47.71105" lon="-3.56179">
        <ele>-2.7467041</ele>
        <time>2011-08-12T10:37:52Z</time>
      </trkpt>
      <trkpt lat="47.71087" lon="-3.56186">
        <ele>-5.1499023</ele>
        <time>2011-08-12T10:38:02Z</time>
      </trkpt>
      <trkpt lat="47.71071" lon="-3.56191">
        <ele>-8.0339355</ele>
        <time>2011-08-12T10:38:12Z</time>
      </trkpt>
      <trkpt lat="47.71053" lon="-3.56194">
        <ele>-11.3984375</ele>
        <time>2011-08-12T10:38:22Z</time>
      </trkpt>
      <trkpt lat="47.71035" lon="-3.56201">
        <ele>-13.3210449</ele>
        <time>2011-08-12T10:38:32Z</time>
      </trkpt>
      <trkpt lat="47.71015" lon="-3.56211">
        <ele>-15.7243652</ele>
        <time>2011-08-12T10:38:42Z</time>
      </trkpt>
      <trkpt lat="47.70995" lon="-3.56218">
        <ele>-17.1663818</ele>
        <time>2011-08-12T10:38:52Z</time>
      </trkpt>
      <trkpt lat="47.70972" lon="-3.56228">
        <ele>-14.7630615</ele>
        <time>2011-08-12T10:39:02Z</time>
      </trkpt>
      <trkpt lat="47.70949" lon="-3.56236">
        <ele>-16.685791</ele>
        <time>2011-08-12T10:39:12Z</time>
      </trkpt>
      <trkpt lat="47.70927" lon="-3.56246">
        <ele>-14.7630615</ele>
        <time>2011-08-12T10:39:22Z</time>
      </trkpt>
      <trkpt lat="47.70908" lon="-3.56256">
        <ele>-10.4372559</ele>
        <time>2011-08-12T10:39:32Z</time>
      </trkpt>
      <trkpt lat="47.70885" lon="-3.56272">
        <ele>-6.1112061</ele>
        <time>2011-08-12T10:39:42Z</time>
      </trkpt>
      <trkpt lat="47.70863" lon="-3.56284">
        <ele>-6.5919189</ele>
        <time>2011-08-12T10:39:52Z</time>
      </trkpt>
      <trkpt lat="47.70843" lon="-3.56295">
        <ele>-8.0339355</ele>
        <time>2011-08-12T10:40:02Z</time>
      </trkpt>
      <trkpt lat="47.70823" lon="-3.56305">
        <ele>-11.8791504</ele>
        <time>2011-08-12T10:40:12Z</time>
      </trkpt>
      <trkpt lat="47.70797" lon="-3.56314">
        <ele>-6.5919189</ele>
        <time>2011-08-12T10:40:22Z</time>
      </trkpt>
      <trkpt lat="47.7078" lon="-3.56325">
        <ele>-8.0339355</ele>
        <time>2011-08-12T10:40:32Z</time>
      </trkpt>
      <trkpt lat="47.70756" lon="-3.56339">
        <ele>-0.8240967</ele>
        <time>2011-08-12T10:40:42Z</time>
      </trkpt>
      <trkpt lat="47.70737" lon="-3.56347">
        <ele>-1.3046875</ele>
        <time>2011-08-12T10:40:52Z</time>
      </trkpt>
      <trkpt lat="47.70718" lon="-3.56361">
        <ele>-0.3433838</ele>
        <time>2011-08-12T10:41:02Z</time>
      </trkpt>
      <trkpt lat="47.707" lon="-3.56372">
        <ele>-4.1885986</ele>
        <time>2011-08-12T10:41:12Z</time>
      </trkpt>
      <trkpt lat="47.7068" lon="-3.56381">
        <ele>-8.5146484</ele>
        <time>2011-08-12T10:41:22Z</time>
      </trkpt>
      <trkpt lat="47.70661" lon="-3.56393">
        <ele>-9.4758301</ele>
        <time>2011-08-12T10:41:32Z</time>
      </trkpt>
      <trkpt lat="47.70641" lon="-3.56403">
        <ele>-11.8791504</ele>
        <time>2011-08-12T10:41:42Z</time>
      </trkpt>
      <trkpt lat="47.70622" lon="-3.56418">
        <ele>-11.3984375</ele>
        <time>2011-08-12T10:41:52Z</time>
      </trkpt>
      <trkpt lat="47.70605" lon="-3.56433">
        <ele>-10.4372559</ele>
        <time>2011-08-12T10:42:02Z</time>
      </trkpt>
      <trkpt lat="47.70594" lon="-3.5645">
        <ele>-9.956543</ele>
        <time>2011-08-12T10:42:12Z</time>
      </trkpt>
      <trkpt lat="47.70578" lon="-3.56461">
        <ele>-8.0339355</ele>
        <time>2011-08-12T10:42:22Z</time>
      </trkpt>
      <trkpt lat="47.70563" lon="-3.56471">
        <ele>-8.0339355</ele>
        <time>2011-08-12T10:42:32Z</time>
      </trkpt>
      <trkpt lat="47.70548" lon="-3.56482">
        <ele>-8.9952393</ele>
        <time>2011-08-12T10:42:42Z</time>
      </trkpt>
      <trkpt lat="47.7053" lon="-3.5649">
        <ele>-8.9952393</ele>
        <time>2011-08-12T10:42:52Z</time>
      </trkpt>
      <trkpt lat="47.7051" lon="-3.56509">
        <ele>0.618042</ele>
        <time>2011-08-12T10:43:02Z</time>
      </trkpt>
      <trkpt lat="47.7049" lon="-3.5652">
        <ele>1.0986328</ele>
        <time>2011-08-12T10:43:12Z</time>
      </trkpt>
      <trkpt lat="47.70473" lon="-3.5653">
        <ele>-0.8240967</ele>
        <time>2011-08-12T10:43:22Z</time>
      </trkpt>
      <trkpt lat="47.70453" lon="-3.56539">
        <ele>-2.2659912</ele>
        <time>2011-08-12T10:43:32Z</time>
      </trkpt>
      <trkpt lat="47.70432" lon="-3.56547">
        <ele>-2.7467041</ele>
        <time>2011-08-12T10:43:42Z</time>
      </trkpt>
      <trkpt lat="47.7041" lon="-3.56553">
        <ele>-2.2659912</ele>
        <time>2011-08-12T10:43:52Z</time>
      </trkpt>
      <trkpt lat="47.70386" lon="-3.56561">
        <ele>-4.6693115</ele>
        <time>2011-08-12T10:44:02Z</time>
      </trkpt>
      <trkpt lat="47.70364" lon="-3.56567">
        <ele>-3.7078857</ele>
        <time>2011-08-12T10:44:12Z</time>
      </trkpt>
      <trkpt lat="47.70338" lon="-3.56575">
        <ele>-1.7852783</ele>
        <time>2011-08-12T10:44:22Z</time>
      </trkpt>
      <trkpt lat="47.70311" lon="-3.56581">
        <ele>0.618042</ele>
        <time>2011-08-12T10:44:32Z</time>
      </trkpt>
      <trkpt lat="47.70288" lon="-3.56588">
        <ele>-4.1885986</ele>
        <time>2011-08-12T10:44:42Z</time>
      </trkpt>
      <trkpt lat="47.70262" lon="-3.56597">
        <ele>-1.7852783</ele>
        <time>2011-08-12T10:44:52Z</time>
      </trkpt>
      <trkpt lat="47.70241" lon="-3.56605">
        <ele>-3.2272949</ele>
        <time>2011-08-12T10:45:02Z</time>
      </trkpt>
      <trkpt lat="47.70219" lon="-3.5661">
        <ele>-2.7467041</ele>
        <time>2011-08-12T10:45:12Z</time>
      </trkpt>
      <trkpt lat="47.70194" lon="-3.56616">
        <ele>-1.7852783</ele>
        <time>2011-08-12T10:45:22Z</time>
      </trkpt>
      <trkpt lat="47.7017" lon="-3.56625">
        <ele>-0.8240967</ele>
        <time>2011-08-12T10:45:32Z</time>
      </trkpt>
      <trkpt lat="47.70149" lon="-3.56632">
        <ele>-2.2659912</ele>
        <time>2011-08-12T10:45:42Z</time>
      </trkpt>
      <trkpt lat="47.70125" lon="-3.56639">
        <ele>-1.7852783</ele>
        <time>2011-08-12T10:45:52Z</time>
      </trkpt>
      <trkpt lat="47.70102" lon="-3.56648">
        <ele>-2.2659912</ele>
        <time>2011-08-12T10:46:02Z</time>
      </trkpt>
      <trkpt lat="47.70079" lon="-3.56655">
        <ele>-2.7467041</ele>
        <time>2011-08-12T10:46:12Z</time>
      </trkpt>
      <trkpt lat="47.70057" lon="-3.56668">
        <ele>-3.7078857</ele>
        <time>2011-08-12T10:46:22Z</time>
      </trkpt>
      <trkpt lat="47.70033" lon="-3.56675">
        <ele>-2.2659912</ele>
        <time>2011-08-12T10:46:32Z</time>
      </trkpt>
      <trkpt lat="47.70011" lon="-3.56684">
        <ele>-4.6693115</ele>
        <time>2011-08-12T10:46:42Z</time>
      </trkpt>
      <trkpt lat="47.69987" lon="-3.56693">
        <ele>-3.7078857</ele>
        <time>2011-08-12T10:46:52Z</time>
      </trkpt>
      <trkpt lat="47.69965" lon="-3.56701">
        <ele>-5.6304932</ele>
        <time>2011-08-12T10:47:02Z</time>
      </trkpt>
      <trkpt lat="47.69941" lon="-3.56711">
        <ele>-4.1885986</ele>
        <time>2011-08-12T10:47:12Z</time>
      </trkpt>
      <trkpt lat="47.69918" lon="-3.56721">
        <ele>-5.6304932</ele>
        <time>2011-08-12T10:47:22Z</time>
      </trkpt>
      <trkpt lat="47.69892" lon="-3.56727">
        <ele>-3.7078857</ele>
        <time>2011-08-12T10:47:32Z</time>
      </trkpt>
      <trkpt lat="47.69864" lon="-3.5673">
        <ele>-2.7467041</ele>
        <time>2011-08-12T10:47:42Z</time>
      </trkpt>
      <trkpt lat="47.69837" lon="-3.56734">
        <ele>-0.8240967</ele>
        <time>2011-08-12T10:47:52Z</time>
      </trkpt>
      <trkpt lat="47.69809" lon="-3.56737">
        <ele>2.5406494</ele>
        <time>2011-08-12T10:48:02Z</time>
      </trkpt>
      <trkpt lat="47.69784" lon="-3.56743">
        <ele>0.1374512</ele>
        <time>2011-08-12T10:48:12Z</time>
      </trkpt>
      <trkpt lat="47.69758" lon="-3.56749">
        <ele>-0.3433838</ele>
        <time>2011-08-12T10:48:22Z</time>
      </trkpt>
      <trkpt lat="47.69735" lon="-3.56757">
        <ele>-0.8240967</ele>
        <time>2011-08-12T10:48:32Z</time>
      </trkpt>
      <trkpt lat="47.69713" lon="-3.56767">
        <ele>-3.2272949</ele>
        <time>2011-08-12T10:48:42Z</time>
      </trkpt>
      <trkpt lat="47.69691" lon="-3.5678">
        <ele>-1.3046875</ele>
        <time>2011-08-12T10:48:52Z</time>
      </trkpt>
      <trkpt lat="47.69673" lon="-3.56793">
        <ele>-1.7852783</ele>
        <time>2011-08-12T10:49:02Z</time>
      </trkpt>
      <trkpt lat="47.69656" lon="-3.56805">
        <ele>-1.7852783</ele>
        <time>2011-08-12T10:49:12Z</time>
      </trkpt>
      <trkpt lat="47.69635" lon="-3.56813">
        <ele>-3.2272949</ele>
        <time>2011-08-12T10:49:22Z</time>
      </trkpt>
      <trkpt lat="47.69613" lon="-3.56821">
        <ele>-4.6693115</ele>
        <time>2011-08-12T10:49:32Z</time>
      </trkpt>
      <trkpt lat="47.69591" lon="-3.56828">
        <ele>-4.1885986</ele>
        <time>2011-08-12T10:49:42Z</time>
      </trkpt>
      <trkpt lat="47.69569" lon="-3.56835">
        <ele>-3.2272949</ele>
        <time>2011-08-12T10:49:52Z</time>
      </trkpt>
      <trkpt lat="47.69545" lon="-3.56836">
        <ele>-6.5919189</ele>
        <time>2011-08-12T10:50:02Z</time>
      </trkpt>
      <trkpt lat="47.6952" lon="-3.56837">
        <ele>-7.5531006</ele>
        <time>2011-08-12T10:50:12Z</time>
      </trkpt>
      <trkpt lat="47.69494" lon="-3.56848">
        <ele>-4.6693115</ele>
        <time>2011-08-12T10:50:22Z</time>
      </trkpt>
      <trkpt lat="47.6947" lon="-3.56858">
        <ele>-4.6693115</ele>
        <time>2011-08-12T10:50:32Z</time>
      </trkpt>
      <trkpt lat="47.69451" lon="-3.56872">
        <ele>-6.1112061</ele>
        <time>2011-08-12T10:50:42Z</time>
      </trkpt>
      <trkpt lat="47.69435" lon="-3.56888">
        <ele>-6.5919189</ele>
        <time>2011-08-12T10:50:52Z</time>
      </trkpt>
      <trkpt lat="47.69421" lon="-3.56903">
        <ele>-6.1112061</ele>
        <time>2011-08-12T10:51:02Z</time>
      </trkpt>
      <trkpt lat="47.69407" lon="-3.56917">
        <ele>-6.1112061</ele>
        <time>2011-08-12T10:51:12Z</time>
      </trkpt>
      <trkpt lat="47.69394" lon="-3.56927">
        <ele>-3.2272949</ele>
        <time>2011-08-12T10:51:22Z</time>
      </trkpt>
      <trkpt lat="47.69377" lon="-3.56937">
        <ele>-2.7467041</ele>
        <time>2011-08-12T10:51:32Z</time>
      </trkpt>
      <trkpt lat="47.69361" lon="-3.56948">
        <ele>-2.7467041</ele>
        <time>2011-08-12T10:51:42Z</time>
      </trkpt>
      <trkpt lat="47.69341" lon="-3.56958">
        <ele>-2.2659912</ele>
        <time>2011-08-12T10:51:52Z</time>
      </trkpt>
      <trkpt lat="47.6932" lon="-3.5697">
        <ele>-2.7467041</ele>
        <time>2011-08-12T10:52:02Z</time>
      </trkpt>
      <trkpt lat="47.693" lon="-3.56982">
        <ele>-5.6304932</ele>
        <time>2011-08-12T10:52:12Z</time>
      </trkpt>
      <trkpt lat="47.69279" lon="-3.56998">
        <ele>-3.7078857</ele>
        <time>2011-08-12T10:52:22Z</time>
      </trkpt>
      <trkpt lat="47.69258" lon="-3.5701">
        <ele>-0.3433838</ele>
        <time>2011-08-12T10:52:32Z</time>
      </trkpt>
      <trkpt lat="47.69239" lon="-3.57027">
        <ele>0.618042</ele>
        <time>2011-08-12T10:52:42Z</time>
      </trkpt>
      <trkpt lat="47.69222" lon="-3.57039">
        <ele>-0.3433838</ele>
        <time>2011-08-12T10:52:52Z</time>
      </trkpt>
      <trkpt lat="47.69207" lon="-3.57048">
        <ele>-3.2272949</ele>
        <time>2011-08-12T10:53:02Z</time>
      </trkpt>
      <trkpt lat="47.69187" lon="-3.5706">
        <ele>-3.7078857</ele>
        <time>2011-08-12T10:53:12Z</time>
      </trkpt>
      <trkpt lat="47.69168" lon="-3.57074">
        <ele>-1.7852783</ele>
        <time>2011-08-12T10:53:22Z</time>
      </trkpt>
      <trkpt lat="47.69149" lon="-3.57086">
        <ele>-0.8240967</ele>
        <time>2011-08-12T10:53:32Z</time>
      </trkpt>
      <trkpt lat="47.69131" lon="-3.57101">
        <ele>-2.2659912</ele>
        <time>2011-08-12T10:53:42Z</time>
      </trkpt>
      <trkpt lat="47.69111" lon="-3.57114">
        <ele>0.1374512</ele>
        <time>2011-08-12T10:53:52Z</time>
      </trkpt>
      <trkpt lat="47.69094" lon="-3.57129">
        <ele>-2.7467041</ele>
        <time>2011-08-12T10:54:02Z</time>
      </trkpt>
      <trkpt lat="47.69076" lon="-3.57144">
        <ele>-4.6693115</ele>
        <time>2011-08-12T10:54:12Z</time>
      </trkpt>
      <trkpt lat="47.69059" lon="-3.57161">
        <ele>-4.6693115</ele>
        <time>2011-08-12T10:54:22Z</time>
      </trkpt>
      <trkpt lat="47.69039" lon="-3.57178">
        <ele>1.5793457</ele>
        <time>2011-08-12T10:54:32Z</time>
      </trkpt>
      <trkpt lat="47.69021" lon="-3.57193">
        <ele>2.5406494</ele>
        <time>2011-08-12T10:54:42Z</time>
      </trkpt>
      <trkpt lat="47.68999" lon="-3.57208">
        <ele>1.5793457</ele>
        <time>2011-08-12T10:54:52Z</time>
      </trkpt>
      <trkpt lat="47.68983" lon="-3.57224">
        <ele>-4.6693115</ele>
        <time>2011-08-12T10:55:02Z</time>
      </trkpt>
      <trkpt lat="47.68966" lon="-3.5724">
        <ele>-6.5919189</ele>
        <time>2011-08-12T10:55:12Z</time>
      </trkpt>
      <trkpt lat="47.68948" lon="-3.57255">
        <ele>-6.1112061</ele>
        <time>2011-08-12T10:55:22Z</time>
      </trkpt>
      <trkpt lat="47.68928" lon="-3.57272">
        <ele>-5.1499023</ele>
        <time>2011-08-12T10:55:32Z</time>
      </trkpt>
      <trkpt lat="47.68907" lon="-3.57288">
        <ele>-3.2272949</ele>
        <time>2011-08-12T10:55:42Z</time>
      </trkpt>
      <trkpt lat="47.6889" lon="-3.57304">
        <ele>-4.1885986</ele>
        <time>2011-08-12T10:55:52Z</time>
      </trkpt>
      <trkpt lat="47.68871" lon="-3.57319">
        <ele>-2.7467041</ele>
        <time>2011-08-12T10:56:02Z</time>
      </trkpt>
      <trkpt lat="47.6885" lon="-3.57331">
        <ele>-5.6304932</ele>
        <time>2011-08-12T10:56:12Z</time>
      </trkpt>
      <trkpt lat="47.68828" lon="-3.57346">
        <ele>-2.7467041</ele>
        <time>2011-08-12T10:56:22Z</time>
      </trkpt>
      <trkpt lat="47.68804" lon="-3.57358">
        <ele>-3.2272949</ele>
        <time>2011-08-12T10:56:32Z</time>
      </trkpt>
      <trkpt lat="47.68776" lon="-3.57369">
        <ele>-3.7078857</ele>
        <time>2011-08-12T10:56:42Z</time>
      </trkpt>
      <trkpt lat="47.6875" lon="-3.57384">
        <ele>-2.7467041</ele>
        <time>2011-08-12T10:56:52Z</time>
      </trkpt>
      <trkpt lat="47.68727" lon="-3.57401">
        <ele>-5.1499023</ele>
        <time>2011-08-12T10:57:02Z</time>
      </trkpt>
      <trkpt lat="47.68705" lon="-3.5742">
        <ele>-4.6693115</ele>
        <time>2011-08-12T10:57:12Z</time>
      </trkpt>
      <trkpt lat="47.68681" lon="-3.57434">
        <ele>-1.3046875</ele>
        <time>2011-08-12T10:57:22Z</time>
      </trkpt>
      <trkpt lat="47.68663" lon="-3.57449">
        <ele>-2.2659912</ele>
        <time>2011-08-12T10:57:32Z</time>
      </trkpt>
      <trkpt lat="47.68643" lon="-3.57462">
        <ele>-4.1885986</ele>
        <time>2011-08-12T10:57:42Z</time>
      </trkpt>
      <trkpt lat="47.68628" lon="-3.57477">
        <ele>-7.0725098</ele>
        <time>2011-08-12T10:57:52Z</time>
      </trkpt>
      <trkpt lat="47.68607" lon="-3.57491">
        <ele>-4.6693115</ele>
        <time>2011-08-12T10:58:02Z</time>
      </trkpt>
      <trkpt lat="47.68584" lon="-3.57505">
        <ele>-4.6693115</ele>
        <time>2011-08-12T10:58:12Z</time>
      </trkpt>
      <trkpt lat="47.68561" lon="-3.57517">
        <ele>-4.1885986</ele>
        <time>2011-08-12T10:58:22Z</time>
      </trkpt>
      <trkpt lat="47.68535" lon="-3.57531">
        <ele>-0.8240967</ele>
        <time>2011-08-12T10:58:32Z</time>
      </trkpt>
      <trkpt lat="47.68509" lon="-3.57544">
        <ele>-2.7467041</ele>
        <time>2011-08-12T10:58:42Z</time>
      </trkpt>
      <trkpt lat="47.68483" lon="-3.57557">
        <ele>-2.7467041</ele>
        <time>2011-08-12T10:58:52Z</time>
      </trkpt>
      <trkpt lat="47.68454" lon="-3.57571">
        <ele>-4.1885986</ele>
        <time>2011-08-12T10:59:02Z</time>
      </trkpt>
      <trkpt lat="47.68431" lon="-3.57588">
        <ele>-6.5919189</ele>
        <time>2011-08-12T10:59:12Z</time>
      </trkpt>
      <trkpt lat="47.68413" lon="-3.57609">
        <ele>-8.5146484</ele>
        <time>2011-08-12T10:59:22Z</time>
      </trkpt>
      <trkpt lat="47.68396" lon="-3.57631">
        <ele>-6.1112061</ele>
        <time>2011-08-12T10:59:32Z</time>
      </trkpt>
      <trkpt lat="47.68379" lon="-3.57646">
        <ele>-6.1112061</ele>
        <time>2011-08-12T10:59:42Z</time>
      </trkpt>
      <trkpt lat="47.68365" lon="-3.57661">
        <ele>-5.6304932</ele>
        <time>2011-08-12T10:59:52Z</time>
      </trkpt>
      <trkpt lat="47.68345" lon="-3.57674">
        <ele>-6.5919189</ele>
        <time>2011-08-12T11:00:02Z</time>
      </trkpt>
      <trkpt lat="47.68328" lon="-3.57687">
        <ele>-9.4758301</ele>
        <time>2011-08-12T11:00:12Z</time>
      </trkpt>
      <trkpt lat="47.6831" lon="-3.577">
        <ele>-9.4758301</ele>
        <time>2011-08-12T11:00:22Z</time>
      </trkpt>
      <trkpt lat="47.68289" lon="-3.57715">
        <ele>-5.1499023</ele>
        <time>2011-08-12T11:00:32Z</time>
      </trkpt>
      <trkpt lat="47.68265" lon="-3.57735">
        <ele>-7.5531006</ele>
        <time>2011-08-12T11:00:42Z</time>
      </trkpt>
      <trkpt lat="47.68241" lon="-3.57757">
        <ele>-8.0339355</ele>
        <time>2011-08-12T11:00:52Z</time>
      </trkpt>
      <trkpt lat="47.68217" lon="-3.57781">
        <ele>-10.4372559</ele>
        <time>2011-08-12T11:01:02Z</time>
      </trkpt>
      <trkpt lat="47.68198" lon="-3.57807">
        <ele>-9.4758301</ele>
        <time>2011-08-12T11:01:12Z</time>
      </trkpt>
      <trkpt lat="47.68186" lon="-3.57829">
        <ele>-8.0339355</ele>
        <time>2011-08-12T11:01:22Z</time>
      </trkpt>
      <trkpt lat="47.68171" lon="-3.57847">
        <ele>-6.1112061</ele>
        <time>2011-08-12T11:01:32Z</time>
      </trkpt>
      <trkpt lat="47.68155" lon="-3.57861">
        <ele>-8.0339355</ele>
        <time>2011-08-12T11:01:42Z</time>
      </trkpt>
      <trkpt lat="47.68137" lon="-3.57876">
        <ele>-3.2272949</ele>
        <time>2011-08-12T11:01:52Z</time>
      </trkpt>
      <trkpt lat="47.68113" lon="-3.57894">
        <ele>-4.1885986</ele>
        <time>2011-08-12T11:02:02Z</time>
      </trkpt>
      <trkpt lat="47.68093" lon="-3.57909">
        <ele>-6.1112061</ele>
        <time>2011-08-12T11:02:12Z</time>
      </trkpt>
      <trkpt lat="47.6807" lon="-3.57925">
        <ele>-7.5531006</ele>
        <time>2011-08-12T11:02:22Z</time>
      </trkpt>
      <trkpt lat="47.68046" lon="-3.57948">
        <ele>-7.5531006</ele>
        <time>2011-08-12T11:02:32Z</time>
      </trkpt>
      <trkpt lat="47.6802" lon="-3.57971">
        <ele>-8.0339355</ele>
        <time>2011-08-12T11:02:42Z</time>
      </trkpt>
      <trkpt lat="47.68" lon="-3.57989">
        <ele>-8.5146484</ele>
        <time>2011-08-12T11:02:52Z</time>
      </trkpt>
      <trkpt lat="47.6798" lon="-3.58005">
        <ele>-7.0725098</ele>
        <time>2011-08-12T11:03:02Z</time>
      </trkpt>
      <trkpt lat="47.67959" lon="-3.58023">
        <ele>-7.5531006</ele>
        <time>2011-08-12T11:03:12Z</time>
      </trkpt>
      <trkpt lat="47.67933" lon="-3.5804">
        <ele>-4.6693115</ele>
        <time>2011-08-12T11:03:22Z</time>
      </trkpt>
      <trkpt lat="47.67909" lon="-3.58059">
        <ele>-5.6304932</ele>
        <time>2011-08-12T11:03:32Z</time>
      </trkpt>
      <trkpt lat="47.67888" lon="-3.58077">
        <ele>-6.1112061</ele>
        <time>2011-08-12T11:03:42Z</time>
      </trkpt>
      <trkpt lat="47.6787" lon="-3.58094">
        <ele>-4.6693115</ele>
        <time>2011-08-12T11:03:52Z</time>
      </trkpt>
      <trkpt lat="47.67848" lon="-3.58113">
        <ele>-2.2659912</ele>
        <time>2011-08-12T11:04:02Z</time>
      </trkpt>
      <trkpt lat="47.67826" lon="-3.58133">
        <ele>-3.7078857</ele>
        <time>2011-08-12T11:04:12Z</time>
      </trkpt>
      <trkpt lat="47.67806" lon="-3.58155">
        <ele>-5.6304932</ele>
        <time>2011-08-12T11:04:22Z</time>
      </trkpt>
      <trkpt lat="47.67784" lon="-3.58174">
        <ele>-8.0339355</ele>
        <time>2011-08-12T11:04:32Z</time>
      </trkpt>
      <trkpt lat="47.67766" lon="-3.58194">
        <ele>-10.9178467</ele>
        <time>2011-08-12T11:04:42Z</time>
      </trkpt>
      <trkpt lat="47.67747" lon="-3.58217">
        <ele>-7.0725098</ele>
        <time>2011-08-12T11:04:52Z</time>
      </trkpt>
      <trkpt lat="47.67735" lon="-3.58236">
        <ele>-7.5531006</ele>
        <time>2011-08-12T11:05:02Z</time>
      </trkpt>
      <trkpt lat="47.67721" lon="-3.58258">
        <ele>-8.9952393</ele>
        <time>2011-08-12T11:05:12Z</time>
      </trkpt>
      <trkpt lat="47.6771" lon="-3.58278">
        <ele>-11.8791504</ele>
        <time>2011-08-12T11:05:22Z</time>
      </trkpt>
      <trkpt lat="47.67699" lon="-3.58295">
        <ele>-12.3598633</ele>
        <time>2011-08-12T11:05:32Z</time>
      </trkpt>
      <trkpt lat="47.67683" lon="-3.58309">
        <ele>-12.8404541</ele>
        <time>2011-08-12T11:05:42Z</time>
      </trkpt>
      <trkpt lat="47.67656" lon="-3.58326">
        <ele>-12.8404541</ele>
        <time>2011-08-12T11:05:52Z</time>
      </trkpt>
      <trkpt lat="47.67628" lon="-3.5834">
        <ele>-9.956543</ele>
        <time>2011-08-12T11:06:02Z</time>
      </trkpt>
      <trkpt lat="47.67592" lon="-3.58361">
        <ele>-8.5146484</ele>
        <time>2011-08-12T11:06:12Z</time>
      </trkpt>
      <trkpt lat="47.6756" lon="-3.58385">
        <ele>-3.7078857</ele>
        <time>2011-08-12T11:06:22Z</time>
      </trkpt>
      <trkpt lat="47.67534" lon="-3.5841">
        <ele>-0.3433838</ele>
        <time>2011-08-12T11:06:32Z</time>
      </trkpt>
      <trkpt lat="47.67519" lon="-3.5843">
        <ele>-1.7852783</ele>
        <time>2011-08-12T11:06:42Z</time>
      </trkpt>
      <trkpt lat="47.67504" lon="-3.58449">
        <ele>-1.7852783</ele>
        <time>2011-08-12T11:06:52Z</time>
      </trkpt>
      <trkpt lat="47.67262" lon="-3.5867">
        <ele>-2.2659912</ele>
        <time>2011-08-12T11:08:52Z</time>
      </trkpt>
      <trkpt lat="47.66986" lon="-3.58871">
        <ele>-2.7467041</ele>
        <time>2011-08-12T11:10:52Z</time>
      </trkpt>
      <trkpt lat="47.66743" lon="-3.59072">
        <ele>-4.1885986</ele>
        <time>2011-08-12T11:12:52Z</time>
      </trkpt>
      <trkpt lat="47.66504" lon="-3.59264">
        <ele>-4.6693115</ele>
        <time>2011-08-12T11:14:52Z</time>
      </trkpt>
      <trkpt lat="47.66305" lon="-3.59435">
        <ele>-3.7078857</ele>
        <time>2011-08-12T11:16:52Z</time>
      </trkpt>
      <trkpt lat="47.66125" lon="-3.59611">
        <ele>-3.7078857</ele>
        <time>2011-08-12T11:18:52Z</time>
      </trkpt>
      <trkpt lat="47.65876" lon="-3.59798">
        <ele>-4.1885986</ele>
        <time>2011-08-12T11:20:52Z</time>
      </trkpt>
      <trkpt lat="47.6564" lon="-3.60005">
        <ele>-4.1885986</ele>
        <time>2011-08-12T11:22:52Z</time>
      </trkpt>
      <trkpt lat="47.65346" lon="-3.60212">
        <ele>-8.9952393</ele>
        <time>2011-08-12T11:24:52Z</time>
      </trkpt>
      <trkpt lat="47.65034" lon="-3.60407">
        <ele>-8.9952393</ele>
        <time>2011-08-12T11:26:52Z</time>
      </trkpt>
      <trkpt lat="47.64764" lon="-3.60617">
        <ele>-7.0725098</ele>
        <time>2011-08-12T11:28:52Z</time>
      </trkpt>
      <trkpt lat="47.64404" lon="-3.60795">
        <ele>-8.9952393</ele>
        <time>2011-08-12T11:30:52Z</time>
      </trkpt>
      <trkpt lat="47.64114" lon="-3.60989">
        <ele>-8.0339355</ele>
        <time>2011-08-12T11:32:52Z</time>
      </trkpt>
      <trkpt lat="47.63808" lon="-3.61191">
        <ele>-7.5531006</ele>
        <time>2011-08-12T11:34:52Z</time>
      </trkpt>
      <trkpt lat="47.63522" lon="-3.61384">
        <ele>-8.0339355</ele>
        <time>2011-08-12T11:36:52Z</time>
      </trkpt>
      <trkpt lat="47.63229" lon="-3.61541">
        <ele>-6.5919189</ele>
        <time>2011-08-12T11:38:52Z</time>
      </trkpt>
      <trkpt lat="47.6295" lon="-3.617">
        <ele>-8.5146484</ele>
        <time>2011-08-12T11:40:52Z</time>
      </trkpt>
      <trkpt lat="47.62688" lon="-3.61867">
        <ele>-8.5146484</ele>
        <time>2011-08-12T11:42:52Z</time>
      </trkpt>
      <trkpt lat="47.62422" lon="-3.62069">
        <ele>-8.0339355</ele>
        <time>2011-08-12T11:44:52Z</time>
      </trkpt>
      <trkpt lat="47.62195" lon="-3.62297">
        <ele>-8.5146484</ele>
        <time>2011-08-12T11:46:52Z</time>
      </trkpt>
      <trkpt lat="47.61916" lon="-3.62568">
        <ele>-8.0339355</ele>
        <time>2011-08-12T11:48:52Z</time>
      </trkpt>
      <trkpt lat="47.61658" lon="-3.62793">
        <ele>-5.6304932</ele>
        <time>2011-08-12T11:50:52Z</time>
      </trkpt>
      <trkpt lat="47.61414" lon="-3.62985">
        <ele>-6.1112061</ele>
        <time>2011-08-12T11:52:52Z</time>
      </trkpt>
      <trkpt lat="47.61174" lon="-3.63173">
        <ele>-8.9952393</ele>
        <time>2011-08-12T11:54:52Z</time>
      </trkpt>
      <trkpt lat="47.60912" lon="-3.63398">
        <ele>-8.5146484</ele>
        <time>2011-08-12T11:56:52Z</time>
      </trkpt>
      <trkpt lat="47.60635" lon="-3.63648">
        <ele>-9.956543</ele>
        <time>2011-08-12T11:58:52Z</time>
      </trkpt>
      <trkpt lat="47.60382" lon="-3.63867">
        <ele>-8.5146484</ele>
        <time>2011-08-12T12:00:52Z</time>
      </trkpt>
      <trkpt lat="47.60125" lon="-3.64145">
        <ele>-10.9178467</ele>
        <time>2011-08-12T12:02:52Z</time>
      </trkpt>
      <trkpt lat="47.59844" lon="-3.64451">
        <ele>-8.9952393</ele>
        <time>2011-08-12T12:04:52Z</time>
      </trkpt>
      <trkpt lat="47.59575" lon="-3.64759">
        <ele>-4.1885986</ele>
        <time>2011-08-12T12:06:52Z</time>
      </trkpt>
      <trkpt lat="47.5937" lon="-3.65026">
        <ele>0.1374512</ele>
        <time>2011-08-12T12:08:52Z</time>
      </trkpt>
      <trkpt lat="47.59116" lon="-3.65303">
        <ele>-2.7467041</ele>
        <time>2011-08-12T12:10:52Z</time>
      </trkpt>
      <trkpt lat="47.58846" lon="-3.65626">
        <ele>-10.9178467</ele>
        <time>2011-08-12T12:12:52Z</time>
      </trkpt>
      <trkpt lat="47.58582" lon="-3.65988">
        <ele>-4.6693115</ele>
        <time>2011-08-12T12:14:52Z</time>
      </trkpt>
      <trkpt lat="47.58303" lon="-3.66369">
        <ele>-1.7852783</ele>
        <time>2011-08-12T12:16:52Z</time>
      </trkpt>
      <trkpt lat="47.58027" lon="-3.66735">
        <ele>-7.0725098</ele>
        <time>2011-08-12T12:18:52Z</time>
      </trkpt>
      <trkpt lat="47.57753" lon="-3.67101">
        <ele>-9.4758301</ele>
        <time>2011-08-12T12:20:52Z</time>
      </trkpt>
      <trkpt lat="47.57481" lon="-3.6749">
        <ele>-10.9178467</ele>
        <time>2011-08-12T12:22:52Z</time>
      </trkpt>
      <trkpt lat="47.57197" lon="-3.67867">
        <ele>-12.8404541</ele>
        <time>2011-08-12T12:24:52Z</time>
      </trkpt>
      <trkpt lat="47.56925" lon="-3.6822">
        <ele>-9.4758301</ele>
        <time>2011-08-12T12:26:52Z</time>
      </trkpt>
      <trkpt lat="47.56665" lon="-3.68617">
        <ele>-5.6304932</ele>
        <time>2011-08-12T12:28:52Z</time>
      </trkpt>
      <trkpt lat="47.56391" lon="-3.69016">
        <ele>-7.5531006</ele>
        <time>2011-08-12T12:30:52Z</time>
      </trkpt>
      <trkpt lat="47.56086" lon="-3.69369">
        <ele>-2.7467041</ele>
        <time>2011-08-12T12:32:52Z</time>
      </trkpt>
      <trkpt lat="47.55802" lon="-3.69731">
        <ele>-4.1885986</ele>
        <time>2011-08-12T12:34:52Z</time>
      </trkpt>
      <trkpt lat="47.55542" lon="-3.70098">
        <ele>-5.1499023</ele>
        <time>2011-08-12T12:36:52Z</time>
      </trkpt>
      <trkpt lat="47.55287" lon="-3.70502">
        <ele>-0.3433838</ele>
        <time>2011-08-12T12:38:52Z</time>
      </trkpt>
      <trkpt lat="47.55037" lon="-3.70892">
        <ele>0.1374512</ele>
        <time>2011-08-12T12:40:52Z</time>
      </trkpt>
      <trkpt lat="47.54947" lon="-3.70985">
        <ele>-1.3046875</ele>
        <time>2011-08-12T12:42:52Z</time>
      </trkpt>
      <trkpt lat="47.55123" lon="-3.71001">
        <ele>-7.0725098</ele>
        <time>2011-08-12T12:44:52Z</time>
      </trkpt>
      <trkpt lat="47.55365" lon="-3.71115">
        <ele>-8.0339355</ele>
        <time>2011-08-12T12:46:52Z</time>
      </trkpt>
      <trkpt lat="47.55737" lon="-3.71393">
        <ele>1.0986328</ele>
        <time>2011-08-12T12:48:52Z</time>
      </trkpt>
      <trkpt lat="47.56064" lon="-3.71668">
        <ele>3.0212402</ele>
        <time>2011-08-12T12:50:52Z</time>
      </trkpt>
      <trkpt lat="47.5644" lon="-3.71934">
        <ele>-5.6304932</ele>
        <time>2011-08-12T12:52:52Z</time>
      </trkpt>
      <trkpt lat="47.56824" lon="-3.72222">
        <ele>-8.5146484</ele>
        <time>2011-08-12T12:54:52Z</time>
      </trkpt>
      <trkpt lat="47.5725" lon="-3.72493">
        <ele>-0.8240967</ele>
        <time>2011-08-12T12:56:52Z</time>
      </trkpt>
      <trkpt lat="47.57667" lon="-3.72796">
        <ele>-3.2272949</ele>
        <time>2011-08-12T12:58:52Z</time>
      </trkpt>
      <trkpt lat="47.58057" lon="-3.73113">
        <ele>-1.7852783</ele>
        <time>2011-08-12T13:00:52Z</time>
      </trkpt>
      <trkpt lat="47.58444" lon="-3.73423">
        <ele>-2.7467041</ele>
        <time>2011-08-12T13:02:52Z</time>
      </trkpt>
      <trkpt lat="47.58852" lon="-3.73737">
        <ele>-4.6693115</ele>
        <time>2011-08-12T13:04:52Z</time>
      </trkpt>
      <trkpt lat="47.5923" lon="-3.74099">
        <ele>-8.5146484</ele>
        <time>2011-08-12T13:06:52Z</time>
      </trkpt>
      <trkpt lat="47.59609" lon="-3.74448">
        <ele>-4.6693115</ele>
        <time>2011-08-12T13:08:52Z</time>
      </trkpt>
      <trkpt lat="47.59969" lon="-3.74813">
        <ele>-6.5919189</ele>
        <time>2011-08-12T13:10:52Z</time>
      </trkpt>
      <trkpt lat="47.60373" lon="-3.75152">
        <ele>-12.3598633</ele>
        <time>2011-08-12T13:12:52Z</time>
      </trkpt>
      <trkpt lat="47.60812" lon="-3.75509">
        <ele>-10.4372559</ele>
        <time>2011-08-12T13:14:52Z</time>
      </trkpt>
      <trkpt lat="47.6115" lon="-3.75806">
        <ele>2.0600586</ele>
        <time>2011-08-12T13:16:52Z</time>
      </trkpt>
      <trkpt lat="47.61551" lon="-3.76146">
        <ele>-8.0339355</ele>
        <time>2011-08-12T13:18:52Z</time>
      </trkpt>
      <trkpt lat="47.61906" lon="-3.7644">
        <ele>-11.3984375</ele>
        <time>2011-08-12T13:20:52Z</time>
      </trkpt>
      <trkpt lat="47.62255" lon="-3.76736">
        <ele>-2.7467041</ele>
        <time>2011-08-12T13:22:52Z</time>
      </trkpt>
      <trkpt lat="47.62654" lon="-3.77026">
        <ele>-7.0725098</ele>
        <time>2011-08-12T13:24:52Z</time>
      </trkpt>
      <trkpt lat="47.63043" lon="-3.77298">
        <ele>-5.1499023</ele>
        <time>2011-08-12T13:26:52Z</time>
      </trkpt>
      <trkpt lat="47.63452" lon="-3.77585">
        <ele>-5.6304932</ele>
        <time>2011-08-12T13:28:52Z</time>
      </trkpt>
      <trkpt lat="47.6383" lon="-3.77859">
        <ele>-7.0725098</ele>
        <time>2011-08-12T13:30:52Z</time>
      </trkpt>
      <trkpt lat="47.64203" lon="-3.78152">
        <ele>-16.2052002</ele>
        <time>2011-08-12T13:32:52Z</time>
      </trkpt>
      <trkpt lat="47.64567" lon="-3.78411">
        <ele>-10.9178467</ele>
        <time>2011-08-12T13:34:52Z</time>
      </trkpt>
      <trkpt lat="47.64938" lon="-3.78656">
        <ele>1.0986328</ele>
        <time>2011-08-12T13:36:52Z</time>
      </trkpt>
      <trkpt lat="47.65328" lon="-3.78907">
        <ele>-2.2659912</ele>
        <time>2011-08-12T13:38:52Z</time>
      </trkpt>
      <trkpt lat="47.65734" lon="-3.79188">
        <ele>-6.1112061</ele>
        <time>2011-08-12T13:40:52Z</time>
      </trkpt>
      <trkpt lat="47.66107" lon="-3.79466">
        <ele>-2.7467041</ele>
        <time>2011-08-12T13:42:52Z</time>
      </trkpt>
      <trkpt lat="47.66494" lon="-3.79767">
        <ele>-3.7078857</ele>
        <time>2011-08-12T13:44:52Z</time>
      </trkpt>
      <trkpt lat="47.6683" lon="-3.80066">
        <ele>-7.0725098</ele>
        <time>2011-08-12T13:46:52Z</time>
      </trkpt>
      <trkpt lat="47.67197" lon="-3.80343">
        <ele>-14.7630615</ele>
        <time>2011-08-12T13:48:52Z</time>
      </trkpt>
      <trkpt lat="47.67521" lon="-3.80622">
        <ele>-3.2272949</ele>
        <time>2011-08-12T13:50:52Z</time>
      </trkpt>
      <trkpt lat="47.67881" lon="-3.80899">
        <ele>4.9438477</ele>
        <time>2011-08-12T13:52:52Z</time>
      </trkpt>
      <trkpt lat="47.6825" lon="-3.81209">
        <ele>-5.1499023</ele>
        <time>2011-08-12T13:54:52Z</time>
      </trkpt>
      <trkpt lat="47.686" lon="-3.81486">
        <ele>-9.4758301</ele>
        <time>2011-08-12T13:56:52Z</time>
      </trkpt>
      <trkpt lat="47.68972" lon="-3.81828">
        <ele>-8.9952393</ele>
        <time>2011-08-12T13:58:52Z</time>
      </trkpt>
      <trkpt lat="47.6939" lon="-3.8215">
        <ele>-6.5919189</ele>
        <time>2011-08-12T14:00:52Z</time>
      </trkpt>
      <trkpt lat="47.69848" lon="-3.82468">
        <ele>-9.4758301</ele>
        <time>2011-08-12T14:02:52Z</time>
      </trkpt>
      <trkpt lat="47.7025" lon="-3.82784">
        <ele>-2.7467041</ele>
        <time>2011-08-12T14:04:52Z</time>
      </trkpt>
      <trkpt lat="47.70556" lon="-3.83119">
        <ele>-1.7852783</ele>
        <time>2011-08-12T14:06:52Z</time>
      </trkpt>
      <trkpt lat="47.70926" lon="-3.83419">
        <ele>-3.7078857</ele>
        <time>2011-08-12T14:08:52Z</time>
      </trkpt>
      <trkpt lat="47.71312" lon="-3.838">
        <ele>-6.5919189</ele>
        <time>2011-08-12T14:10:52Z</time>
      </trkpt>
      <trkpt lat="47.71801" lon="-3.84145">
        <ele>-8.0339355</ele>
        <time>2011-08-12T14:12:52Z</time>
      </trkpt>
      <trkpt lat="47.7221" lon="-3.84515">
        <ele>-3.7078857</ele>
        <time>2011-08-12T14:14:52Z</time>
      </trkpt>
      <trkpt lat="47.72675" lon="-3.84884">
        <ele>-8.0339355</ele>
        <time>2011-08-12T14:16:52Z</time>
      </trkpt>
      <trkpt lat="47.73128" lon="-3.85287">
        <ele>1.0986328</ele>
        <time>2011-08-12T14:18:52Z</time>
      </trkpt>
      <trkpt lat="47.73632" lon="-3.85708">
        <ele>-5.1499023</ele>
        <time>2011-08-12T14:20:52Z</time>
      </trkpt>
      <trkpt lat="47.74149" lon="-3.86091">
        <ele>-15.7243652</ele>
        <time>2011-08-12T14:22:52Z</time>
      </trkpt>
      <trkpt lat="47.7467" lon="-3.86443">
        <ele>-9.4758301</ele>
        <time>2011-08-12T14:24:52Z</time>
      </trkpt>
      <trkpt lat="47.7517" lon="-3.86879">
        <ele>-5.1499023</ele>
        <time>2011-08-12T14:26:52Z</time>
      </trkpt>
      <trkpt lat="47.75622" lon="-3.87343">
        <ele>-8.5146484</ele>
        <time>2011-08-12T14:28:52Z</time>
      </trkpt>
      <trkpt lat="47.76141" lon="-3.87801">
        <ele>-2.2659912</ele>
        <time>2011-08-12T14:30:52Z</time>
      </trkpt>
      <trkpt lat="47.76631" lon="-3.88292">
        <ele>-7.0725098</ele>
        <time>2011-08-12T14:32:52Z</time>
      </trkpt>
      <trkpt lat="47.77111" lon="-3.88766">
        <ele>-2.2659912</ele>
        <time>2011-08-12T14:34:52Z</time>
      </trkpt>
      <trkpt lat="47.77511" lon="-3.89224">
        <ele>2.5406494</ele>
        <time>2011-08-12T14:36:52Z</time>
      </trkpt>
      <trkpt lat="47.78011" lon="-3.89624">
        <ele>2.5406494</ele>
        <time>2011-08-12T14:38:52Z</time>
      </trkpt>
      <trkpt lat="47.78485" lon="-3.90035">
        <ele>-3.2272949</ele>
        <time>2011-08-12T14:40:52Z</time>
      </trkpt>
      <trkpt lat="47.78929" lon="-3.90459">
        <ele>5.9052734</ele>
        <time>2011-08-12T14:42:52Z</time>
      </trkpt>
      <trkpt lat="47.79415" lon="-3.90762">
        <ele>8.7891846</ele>
        <time>2011-08-12T14:44:52Z</time>
      </trkpt>
      <trkpt lat="47.79868" lon="-3.90819">
        <ele>8.3085938</ele>
        <time>2011-08-12T14:46:52Z</time>
      </trkpt>
      <trkpt lat="47.80391" lon="-3.9101">
        <ele>11.1925049</ele>
        <time>2011-08-12T14:48:52Z</time>
      </trkpt>
      <trkpt lat="47.80932" lon="-3.91322">
        <ele>7.347168</ele>
        <time>2011-08-12T14:50:52Z</time>
      </trkpt>
      <trkpt lat="47.81437" lon="-3.91422">
        <ele>-0.8240967</ele>
        <time>2011-08-12T14:52:52Z</time>
      </trkpt>
      <trkpt lat="47.81968" lon="-3.91598">
        <ele>3.0212402</ele>
        <time>2011-08-12T14:54:52Z</time>
      </trkpt>
      <trkpt lat="47.82487" lon="-3.91575">
        <ele>3.0212402</ele>
        <time>2011-08-12T14:56:52Z</time>
      </trkpt>
      <trkpt lat="47.82952" lon="-3.91412">
        <ele>3.982666</ele>
        <time>2011-08-12T14:58:52Z</time>
      </trkpt>
      <trkpt lat="47.83398" lon="-3.91245">
        <ele>2.5406494</ele>
        <time>2011-08-12T15:00:52Z</time>
      </trkpt>
      <trkpt lat="47.83791" lon="-3.91101">
        <ele>1.5793457</ele>
        <time>2011-08-12T15:02:52Z</time>
      </trkpt>
      <trkpt lat="47.84179" lon="-3.90977">
        <ele>-0.3433838</ele>
        <time>2011-08-12T15:04:52Z</time>
      </trkpt>
      <trkpt lat="47.84432" lon="-3.90698">
        <ele>0.618042</ele>
        <time>2011-08-12T15:06:52Z</time>
      </trkpt>
      <trkpt lat="47.84672" lon="-3.90353">
        <ele>3.0212402</ele>
        <time>2011-08-12T15:08:52Z</time>
      </trkpt>
      <trkpt lat="47.848" lon="-3.9009">
        <ele>2.5406494</ele>
        <time>2011-08-12T15:10:52Z</time>
      </trkpt>
      <trkpt lat="47.84846" lon="-3.8961">
        <ele>3.0212402</ele>
        <time>2011-08-12T15:12:52Z</time>
      </trkpt>
      <trkpt lat="47.84837" lon="-3.89252">
        <ele>8.3085938</ele>
        <time>2011-08-12T15:14:52Z</time>
      </trkpt>
      <trkpt lat="47.84831" lon="-3.89208">
        <ele>8.3085938</ele>
        <time>2011-08-12T15:16:27Z</time>
      </trkpt>
    </trkseg>
  </trk>
</gpx>